<?xml version="1.0" encoding="UTF-8" standalone="no" ?>
<gpx xmlns="http://www.topografix.com/GPX/1/1" xmlns:xsi="http://www.w3.org/2001/XMLSchema-instance" xsi:schemaLocation="http://www.topografix.com/GPX/1/1 http://www.topografix.com/GPX/1/1/gpx.xsd" version="1.1" creator="VisuGPX - https://www.visugpx.com">
  <metadata>
    <name>chemin des Filatiers</name>
    <desc><![CDATA[de Mirepoix à Lavelanet par une voie verte sur l'emprise d'une ancienne voie ferrée]]></desc>
  </metadata>
  <trk>
    <name><![CDATA[170731-Fillatiers]]></name>
    <trkseg>
      <trkpt lat="43.0842" lon="1.87743">
        <ele>319.6</ele>
        <time>2017-07-31T13:49:44Z</time>
      </trkpt>
      <trkpt lat="43.0842" lon="1.87743">
        <ele>319.4</ele>
        <time>2017-07-31T13:49:45Z</time>
      </trkpt>
      <trkpt lat="43.0842" lon="1.87743">
        <ele>319.2</ele>
        <time>2017-07-31T13:49:46Z</time>
      </trkpt>
      <trkpt lat="43.0842" lon="1.87743">
        <ele>319.1</ele>
        <time>2017-07-31T13:49:47Z</time>
      </trkpt>
      <trkpt lat="43.0842" lon="1.87742">
        <ele>319</ele>
        <time>2017-07-31T13:49:48Z</time>
      </trkpt>
      <trkpt lat="43.0842" lon="1.87742">
        <ele>319</ele>
        <time>2017-07-31T13:49:49Z</time>
      </trkpt>
      <trkpt lat="43.0842" lon="1.87743">
        <ele>318.9</ele>
        <time>2017-07-31T13:49:50Z</time>
      </trkpt>
      <trkpt lat="43.08421" lon="1.87743">
        <ele>318.9</ele>
        <time>2017-07-31T13:49:51Z</time>
      </trkpt>
      <trkpt lat="43.08421" lon="1.87744">
        <ele>318.9</ele>
        <time>2017-07-31T13:49:52Z</time>
      </trkpt>
      <trkpt lat="43.08422" lon="1.87746">
        <ele>318.8</ele>
        <time>2017-07-31T13:49:53Z</time>
      </trkpt>
      <trkpt lat="43.08422" lon="1.87748">
        <ele>318.8</ele>
        <time>2017-07-31T13:49:54Z</time>
      </trkpt>
      <trkpt lat="43.08422" lon="1.87751">
        <ele>318.8</ele>
        <time>2017-07-31T13:49:55Z</time>
      </trkpt>
      <trkpt lat="43.08421" lon="1.87755">
        <ele>318.8</ele>
        <time>2017-07-31T13:49:56Z</time>
      </trkpt>
      <trkpt lat="43.08421" lon="1.87758">
        <ele>319</ele>
        <time>2017-07-31T13:49:57Z</time>
      </trkpt>
      <trkpt lat="43.0842" lon="1.87762">
        <ele>319.2</ele>
        <time>2017-07-31T13:49:58Z</time>
      </trkpt>
      <trkpt lat="43.08419" lon="1.87766">
        <ele>319.3</ele>
        <time>2017-07-31T13:49:59Z</time>
      </trkpt>
      <trkpt lat="43.08418" lon="1.8777">
        <ele>319.4</ele>
        <time>2017-07-31T13:50:00Z</time>
      </trkpt>
      <trkpt lat="43.08417" lon="1.87775">
        <ele>319.4</ele>
        <time>2017-07-31T13:50:01Z</time>
      </trkpt>
      <trkpt lat="43.08417" lon="1.87779">
        <ele>319.5</ele>
        <time>2017-07-31T13:50:02Z</time>
      </trkpt>
      <trkpt lat="43.08416" lon="1.87783">
        <ele>319.3</ele>
        <time>2017-07-31T13:50:03Z</time>
      </trkpt>
      <trkpt lat="43.08415" lon="1.87787">
        <ele>319.2</ele>
        <time>2017-07-31T13:50:04Z</time>
      </trkpt>
      <trkpt lat="43.08415" lon="1.87791">
        <ele>319.1</ele>
        <time>2017-07-31T13:50:05Z</time>
      </trkpt>
      <trkpt lat="43.08397" lon="1.8795">
        <ele>319.7</ele>
        <time>2017-07-31T13:50:37Z</time>
      </trkpt>
      <trkpt lat="43.08399" lon="1.87998">
        <ele>319.8</ele>
        <time>2017-07-31T13:50:45Z</time>
      </trkpt>
      <trkpt lat="43.084" lon="1.88004">
        <ele>320</ele>
        <time>2017-07-31T13:50:46Z</time>
      </trkpt>
      <trkpt lat="43.08401" lon="1.88069">
        <ele>319.8</ele>
        <time>2017-07-31T13:50:58Z</time>
      </trkpt>
      <trkpt lat="43.08398" lon="1.88121">
        <ele>320.5</ele>
        <time>2017-07-31T13:51:08Z</time>
      </trkpt>
      <trkpt lat="43.08255" lon="1.90183">
        <ele>326.2</ele>
        <time>2017-07-31T13:57:03Z</time>
      </trkpt>
      <trkpt lat="43.08254" lon="1.90189">
        <ele>326</ele>
        <time>2017-07-31T13:57:04Z</time>
      </trkpt>
      <trkpt lat="43.08242" lon="1.90565">
        <ele>325.7</ele>
        <time>2017-07-31T13:58:01Z</time>
      </trkpt>
      <trkpt lat="43.08244" lon="1.90583">
        <ele>325.7</ele>
        <time>2017-07-31T13:58:04Z</time>
      </trkpt>
      <trkpt lat="43.08245" lon="1.90589">
        <ele>325.7</ele>
        <time>2017-07-31T13:58:05Z</time>
      </trkpt>
      <trkpt lat="43.0827" lon="1.90747">
        <ele>324.7</ele>
        <time>2017-07-31T13:58:31Z</time>
      </trkpt>
      <trkpt lat="43.08296" lon="1.90831">
        <ele>324.4</ele>
        <time>2017-07-31T13:58:46Z</time>
      </trkpt>
      <trkpt lat="43.08317" lon="1.90885">
        <ele>324.1</ele>
        <time>2017-07-31T13:58:56Z</time>
      </trkpt>
      <trkpt lat="43.08348" lon="1.90965">
        <ele>324</ele>
        <time>2017-07-31T13:59:13Z</time>
      </trkpt>
      <trkpt lat="43.08349" lon="1.90969">
        <ele>324</ele>
        <time>2017-07-31T13:59:14Z</time>
      </trkpt>
      <trkpt lat="43.08352" lon="1.90979">
        <ele>324.4</ele>
        <time>2017-07-31T13:59:16Z</time>
      </trkpt>
      <trkpt lat="43.08374" lon="1.91038">
        <ele>323.8</ele>
        <time>2017-07-31T13:59:27Z</time>
      </trkpt>
      <trkpt lat="43.08445" lon="1.91248">
        <ele>323.9</ele>
        <time>2017-07-31T14:00:05Z</time>
      </trkpt>
      <trkpt lat="43.0846" lon="1.91308">
        <ele>324.3</ele>
        <time>2017-07-31T14:00:16Z</time>
      </trkpt>
      <trkpt lat="43.08461" lon="1.91314">
        <ele>324.2</ele>
        <time>2017-07-31T14:00:17Z</time>
      </trkpt>
      <trkpt lat="43.08542" lon="1.92142">
        <ele>329.4</ele>
        <time>2017-07-31T14:02:45Z</time>
      </trkpt>
      <trkpt lat="43.08543" lon="1.92148">
        <ele>329.3</ele>
        <time>2017-07-31T14:02:46Z</time>
      </trkpt>
      <trkpt lat="43.08534" lon="1.92285">
        <ele>329.4</ele>
        <time>2017-07-31T14:03:09Z</time>
      </trkpt>
      <trkpt lat="43.0851" lon="1.92412">
        <ele>329.2</ele>
        <time>2017-07-31T14:03:29Z</time>
      </trkpt>
      <trkpt lat="43.08478" lon="1.92568">
        <ele>328.6</ele>
        <time>2017-07-31T14:03:54Z</time>
      </trkpt>
      <trkpt lat="43.08476" lon="1.92574">
        <ele>328.7</ele>
        <time>2017-07-31T14:03:55Z</time>
      </trkpt>
      <trkpt lat="43.08442" lon="1.92644">
        <ele>328.6</ele>
        <time>2017-07-31T14:04:08Z</time>
      </trkpt>
      <trkpt lat="43.08339" lon="1.92832">
        <ele>327.5</ele>
        <time>2017-07-31T14:04:42Z</time>
      </trkpt>
      <trkpt lat="43.0804" lon="1.93398">
        <ele>330.8</ele>
        <time>2017-07-31T14:06:47Z</time>
      </trkpt>
      <trkpt lat="43.08038" lon="1.93401">
        <ele>330.8</ele>
        <time>2017-07-31T14:06:48Z</time>
      </trkpt>
      <trkpt lat="43.07881" lon="1.93568">
        <ele>332.1</ele>
        <time>2017-07-31T14:07:33Z</time>
      </trkpt>
      <trkpt lat="43.07877" lon="1.9357">
        <ele>332.1</ele>
        <time>2017-07-31T14:07:35Z</time>
      </trkpt>
      <trkpt lat="43.07877" lon="1.9357">
        <ele>332</ele>
        <time>2017-07-31T14:07:36Z</time>
      </trkpt>
      <trkpt lat="43.07877" lon="1.9357">
        <ele>331.9</ele>
        <time>2017-07-31T14:07:37Z</time>
      </trkpt>
      <trkpt lat="43.07872" lon="1.93573">
        <ele>331.8</ele>
        <time>2017-07-31T14:07:38Z</time>
      </trkpt>
      <trkpt lat="43.07872" lon="1.93573">
        <ele>331.8</ele>
        <time>2017-07-31T14:07:39Z</time>
      </trkpt>
      <trkpt lat="43.07872" lon="1.93573">
        <ele>331.8</ele>
        <time>2017-07-31T14:07:40Z</time>
      </trkpt>
      <trkpt lat="43.07872" lon="1.93573">
        <ele>331.3</ele>
        <time>2017-07-31T14:07:41Z</time>
      </trkpt>
      <trkpt lat="43.07872" lon="1.93573">
        <ele>331</ele>
        <time>2017-07-31T14:07:42Z</time>
      </trkpt>
      <trkpt lat="43.07872" lon="1.93573">
        <ele>330.7</ele>
        <time>2017-07-31T14:07:43Z</time>
      </trkpt>
      <trkpt lat="43.07872" lon="1.93573">
        <ele>331.2</ele>
        <time>2017-07-31T14:07:44Z</time>
      </trkpt>
      <trkpt lat="43.07872" lon="1.93573">
        <ele>331.5</ele>
        <time>2017-07-31T14:07:45Z</time>
      </trkpt>
      <trkpt lat="43.07872" lon="1.93573">
        <ele>331.8</ele>
        <time>2017-07-31T14:07:46Z</time>
      </trkpt>
      <trkpt lat="43.07872" lon="1.93573">
        <ele>332</ele>
        <time>2017-07-31T14:07:47Z</time>
      </trkpt>
      <trkpt lat="43.07872" lon="1.93573">
        <ele>332.1</ele>
        <time>2017-07-31T14:07:48Z</time>
      </trkpt>
      <trkpt lat="43.07872" lon="1.93573">
        <ele>332.2</ele>
        <time>2017-07-31T14:07:49Z</time>
      </trkpt>
      <trkpt lat="43.07872" lon="1.93573">
        <ele>332.1</ele>
        <time>2017-07-31T14:07:50Z</time>
      </trkpt>
      <trkpt lat="43.07872" lon="1.93573">
        <ele>332</ele>
        <time>2017-07-31T14:07:51Z</time>
      </trkpt>
      <trkpt lat="43.07872" lon="1.93573">
        <ele>331.9</ele>
        <time>2017-07-31T14:07:52Z</time>
      </trkpt>
      <trkpt lat="43.07872" lon="1.93573">
        <ele>331.9</ele>
        <time>2017-07-31T14:07:53Z</time>
      </trkpt>
      <trkpt lat="43.07872" lon="1.93573">
        <ele>331.8</ele>
        <time>2017-07-31T14:07:54Z</time>
      </trkpt>
      <trkpt lat="43.07872" lon="1.93573">
        <ele>331.8</ele>
        <time>2017-07-31T14:07:55Z</time>
      </trkpt>
      <trkpt lat="43.07872" lon="1.93573">
        <ele>331.3</ele>
        <time>2017-07-31T14:07:56Z</time>
      </trkpt>
      <trkpt lat="43.07872" lon="1.93573">
        <ele>331</ele>
        <time>2017-07-31T14:07:57Z</time>
      </trkpt>
      <trkpt lat="43.07872" lon="1.93573">
        <ele>330.7</ele>
        <time>2017-07-31T14:07:58Z</time>
      </trkpt>
      <trkpt lat="43.07872" lon="1.93573">
        <ele>331</ele>
        <time>2017-07-31T14:07:59Z</time>
      </trkpt>
      <trkpt lat="43.07868" lon="1.93576">
        <ele>331.2</ele>
        <time>2017-07-31T14:08:00Z</time>
      </trkpt>
      <trkpt lat="43.07868" lon="1.93576">
        <ele>331.3</ele>
        <time>2017-07-31T14:08:01Z</time>
      </trkpt>
      <trkpt lat="43.07864" lon="1.9358">
        <ele>331.6</ele>
        <time>2017-07-31T14:08:02Z</time>
      </trkpt>
      <trkpt lat="43.07846" lon="1.93599">
        <ele>332</ele>
        <time>2017-07-31T14:08:08Z</time>
      </trkpt>
      <trkpt lat="43.07784" lon="1.93674">
        <ele>332.5</ele>
        <time>2017-07-31T14:08:29Z</time>
      </trkpt>
      <trkpt lat="43.07774" lon="1.93688">
        <ele>332.5</ele>
        <time>2017-07-31T14:08:32Z</time>
      </trkpt>
      <trkpt lat="43.07751" lon="1.93719">
        <ele>332.1</ele>
        <time>2017-07-31T14:08:40Z</time>
      </trkpt>
      <trkpt lat="43.07748" lon="1.9372">
        <ele>331.5</ele>
        <time>2017-07-31T14:08:41Z</time>
      </trkpt>
      <trkpt lat="43.07748" lon="1.9372">
        <ele>331.1</ele>
        <time>2017-07-31T14:08:42Z</time>
      </trkpt>
      <trkpt lat="43.07748" lon="1.9372">
        <ele>330.9</ele>
        <time>2017-07-31T14:08:43Z</time>
      </trkpt>
      <trkpt lat="43.07748" lon="1.9372">
        <ele>330.4</ele>
        <time>2017-07-31T14:08:44Z</time>
      </trkpt>
      <trkpt lat="43.07748" lon="1.9372">
        <ele>330.1</ele>
        <time>2017-07-31T14:08:45Z</time>
      </trkpt>
      <trkpt lat="43.07748" lon="1.9372">
        <ele>329.8</ele>
        <time>2017-07-31T14:08:46Z</time>
      </trkpt>
      <trkpt lat="43.07748" lon="1.9372">
        <ele>329.4</ele>
        <time>2017-07-31T14:08:47Z</time>
      </trkpt>
      <trkpt lat="43.07748" lon="1.9372">
        <ele>329.1</ele>
        <time>2017-07-31T14:08:48Z</time>
      </trkpt>
      <trkpt lat="43.07745" lon="1.93708">
        <ele>328.9</ele>
        <time>2017-07-31T14:08:49Z</time>
      </trkpt>
      <trkpt lat="43.07745" lon="1.93707">
        <ele>328.8</ele>
        <time>2017-07-31T14:08:50Z</time>
      </trkpt>
      <trkpt lat="43.07745" lon="1.93704">
        <ele>328.5</ele>
        <time>2017-07-31T14:08:52Z</time>
      </trkpt>
      <trkpt lat="43.07745" lon="1.93704">
        <ele>328.7</ele>
        <time>2017-07-31T14:08:53Z</time>
      </trkpt>
      <trkpt lat="43.07745" lon="1.93704">
        <ele>328.8</ele>
        <time>2017-07-31T14:08:54Z</time>
      </trkpt>
      <trkpt lat="43.07745" lon="1.93704">
        <ele>328.9</ele>
        <time>2017-07-31T14:08:55Z</time>
      </trkpt>
      <trkpt lat="43.07745" lon="1.93704">
        <ele>328.7</ele>
        <time>2017-07-31T14:08:56Z</time>
      </trkpt>
      <trkpt lat="43.07737" lon="1.93707">
        <ele>328.6</ele>
        <time>2017-07-31T14:08:57Z</time>
      </trkpt>
      <trkpt lat="43.07735" lon="1.9371">
        <ele>328.5</ele>
        <time>2017-07-31T14:08:58Z</time>
      </trkpt>
      <trkpt lat="43.07726" lon="1.93724">
        <ele>327.9</ele>
        <time>2017-07-31T14:09:02Z</time>
      </trkpt>
      <trkpt lat="43.0772" lon="1.93735">
        <ele>327.3</ele>
        <time>2017-07-31T14:09:05Z</time>
      </trkpt>
      <trkpt lat="43.07715" lon="1.93747">
        <ele>327.4</ele>
        <time>2017-07-31T14:09:08Z</time>
      </trkpt>
      <trkpt lat="43.07714" lon="1.93752">
        <ele>327.4</ele>
        <time>2017-07-31T14:09:09Z</time>
      </trkpt>
      <trkpt lat="43.07707" lon="1.93771">
        <ele>327.4</ele>
        <time>2017-07-31T14:09:14Z</time>
      </trkpt>
      <trkpt lat="43.07706" lon="1.93774">
        <ele>327.4</ele>
        <time>2017-07-31T14:09:15Z</time>
      </trkpt>
      <trkpt lat="43.07702" lon="1.93776">
        <ele>327.6</ele>
        <time>2017-07-31T14:09:17Z</time>
      </trkpt>
      <trkpt lat="43.07702" lon="1.93776">
        <ele>327.8</ele>
        <time>2017-07-31T14:09:18Z</time>
      </trkpt>
      <trkpt lat="43.07702" lon="1.93776">
        <ele>327.9</ele>
        <time>2017-07-31T14:09:19Z</time>
      </trkpt>
      <trkpt lat="43.07702" lon="1.93776">
        <ele>328.2</ele>
        <time>2017-07-31T14:09:20Z</time>
      </trkpt>
      <trkpt lat="43.07702" lon="1.93776">
        <ele>328.4</ele>
        <time>2017-07-31T14:09:21Z</time>
      </trkpt>
      <trkpt lat="43.07698" lon="1.93779">
        <ele>328.6</ele>
        <time>2017-07-31T14:09:22Z</time>
      </trkpt>
      <trkpt lat="43.07698" lon="1.93779">
        <ele>328.7</ele>
        <time>2017-07-31T14:09:23Z</time>
      </trkpt>
      <trkpt lat="43.07698" lon="1.93779">
        <ele>328.8</ele>
        <time>2017-07-31T14:09:24Z</time>
      </trkpt>
      <trkpt lat="43.07698" lon="1.93779">
        <ele>328.9</ele>
        <time>2017-07-31T14:09:25Z</time>
      </trkpt>
      <trkpt lat="43.07698" lon="1.93779">
        <ele>328.3</ele>
        <time>2017-07-31T14:09:26Z</time>
      </trkpt>
      <trkpt lat="43.07698" lon="1.93779">
        <ele>327.9</ele>
        <time>2017-07-31T14:09:27Z</time>
      </trkpt>
      <trkpt lat="43.07696" lon="1.93786">
        <ele>327.5</ele>
        <time>2017-07-31T14:09:28Z</time>
      </trkpt>
      <trkpt lat="43.07696" lon="1.93786">
        <ele>327.7</ele>
        <time>2017-07-31T14:09:29Z</time>
      </trkpt>
      <trkpt lat="43.07696" lon="1.93786">
        <ele>327.8</ele>
        <time>2017-07-31T14:09:30Z</time>
      </trkpt>
      <trkpt lat="43.07694" lon="1.93792">
        <ele>327.9</ele>
        <time>2017-07-31T14:09:31Z</time>
      </trkpt>
      <trkpt lat="43.07692" lon="1.93795">
        <ele>328.2</ele>
        <time>2017-07-31T14:09:32Z</time>
      </trkpt>
      <trkpt lat="43.07632" lon="1.9386">
        <ele>328.7</ele>
        <time>2017-07-31T14:09:54Z</time>
      </trkpt>
      <trkpt lat="43.07631" lon="1.93862">
        <ele>328.6</ele>
        <time>2017-07-31T14:09:55Z</time>
      </trkpt>
      <trkpt lat="43.07631" lon="1.93862">
        <ele>328</ele>
        <time>2017-07-31T14:09:57Z</time>
      </trkpt>
      <trkpt lat="43.07636" lon="1.93863">
        <ele>327.9</ele>
        <time>2017-07-31T14:09:58Z</time>
      </trkpt>
      <trkpt lat="43.07639" lon="1.9386">
        <ele>328</ele>
        <time>2017-07-31T14:09:59Z</time>
      </trkpt>
      <trkpt lat="43.07643" lon="1.93857">
        <ele>328</ele>
        <time>2017-07-31T14:10:00Z</time>
      </trkpt>
      <trkpt lat="43.07669" lon="1.93828">
        <ele>329.2</ele>
        <time>2017-07-31T14:10:08Z</time>
      </trkpt>
      <trkpt lat="43.07738" lon="1.93757">
        <ele>328.8</ele>
        <time>2017-07-31T14:10:30Z</time>
      </trkpt>
      <trkpt lat="43.07752" lon="1.93744">
        <ele>328</ele>
        <time>2017-07-31T14:10:35Z</time>
      </trkpt>
      <trkpt lat="43.07755" lon="1.93748">
        <ele>328.1</ele>
        <time>2017-07-31T14:10:38Z</time>
      </trkpt>
      <trkpt lat="43.07755" lon="1.93748">
        <ele>328.2</ele>
        <time>2017-07-31T14:10:39Z</time>
      </trkpt>
      <trkpt lat="43.07752" lon="1.93753">
        <ele>328.2</ele>
        <time>2017-07-31T14:10:40Z</time>
      </trkpt>
      <trkpt lat="43.07747" lon="1.93759">
        <ele>328.2</ele>
        <time>2017-07-31T14:10:43Z</time>
      </trkpt>
      <trkpt lat="43.07747" lon="1.93759">
        <ele>328.7</ele>
        <time>2017-07-31T14:10:44Z</time>
      </trkpt>
      <trkpt lat="43.07747" lon="1.93759">
        <ele>329</ele>
        <time>2017-07-31T14:10:45Z</time>
      </trkpt>
      <trkpt lat="43.07747" lon="1.93759">
        <ele>329.2</ele>
        <time>2017-07-31T14:10:46Z</time>
      </trkpt>
      <trkpt lat="43.07747" lon="1.93759">
        <ele>329.8</ele>
        <time>2017-07-31T14:10:47Z</time>
      </trkpt>
      <trkpt lat="43.07738" lon="1.93767">
        <ele>330.3</ele>
        <time>2017-07-31T14:10:48Z</time>
      </trkpt>
      <trkpt lat="43.07738" lon="1.93767">
        <ele>330.7</ele>
        <time>2017-07-31T14:10:49Z</time>
      </trkpt>
      <trkpt lat="43.07738" lon="1.93767">
        <ele>330.9</ele>
        <time>2017-07-31T14:10:50Z</time>
      </trkpt>
      <trkpt lat="43.07738" lon="1.93767">
        <ele>331.1</ele>
        <time>2017-07-31T14:10:51Z</time>
      </trkpt>
      <trkpt lat="43.07738" lon="1.93767">
        <ele>331.3</ele>
        <time>2017-07-31T14:10:52Z</time>
      </trkpt>
      <trkpt lat="43.07731" lon="1.93775">
        <ele>331.4</ele>
        <time>2017-07-31T14:10:53Z</time>
      </trkpt>
      <trkpt lat="43.07731" lon="1.93775">
        <ele>331.4</ele>
        <time>2017-07-31T14:10:54Z</time>
      </trkpt>
      <trkpt lat="43.07731" lon="1.93775">
        <ele>331.5</ele>
        <time>2017-07-31T14:10:55Z</time>
      </trkpt>
      <trkpt lat="43.07731" lon="1.93775">
        <ele>331.8</ele>
        <time>2017-07-31T14:10:56Z</time>
      </trkpt>
      <trkpt lat="43.07724" lon="1.93782">
        <ele>332</ele>
        <time>2017-07-31T14:10:57Z</time>
      </trkpt>
      <trkpt lat="43.07721" lon="1.93788">
        <ele>332.2</ele>
        <time>2017-07-31T14:10:59Z</time>
      </trkpt>
      <trkpt lat="43.07719" lon="1.93791">
        <ele>332.3</ele>
        <time>2017-07-31T14:11:00Z</time>
      </trkpt>
      <trkpt lat="43.07697" lon="1.9384">
        <ele>332.9</ele>
        <time>2017-07-31T14:11:13Z</time>
      </trkpt>
      <trkpt lat="43.07695" lon="1.93844">
        <ele>333</ele>
        <time>2017-07-31T14:11:14Z</time>
      </trkpt>
      <trkpt lat="43.07681" lon="1.93892">
        <ele>333.1</ele>
        <time>2017-07-31T14:11:25Z</time>
      </trkpt>
      <trkpt lat="43.0768" lon="1.93896">
        <ele>333</ele>
        <time>2017-07-31T14:11:26Z</time>
      </trkpt>
      <trkpt lat="43.07673" lon="1.93934">
        <ele>332.6</ele>
        <time>2017-07-31T14:11:34Z</time>
      </trkpt>
      <trkpt lat="43.07672" lon="1.93939">
        <ele>333</ele>
        <time>2017-07-31T14:11:35Z</time>
      </trkpt>
      <trkpt lat="43.07662" lon="1.93976">
        <ele>333.5</ele>
        <time>2017-07-31T14:11:42Z</time>
      </trkpt>
      <trkpt lat="43.07659" lon="1.93988">
        <ele>333.7</ele>
        <time>2017-07-31T14:11:44Z</time>
      </trkpt>
      <trkpt lat="43.07654" lon="1.94039">
        <ele>333.8</ele>
        <time>2017-07-31T14:11:51Z</time>
      </trkpt>
      <trkpt lat="43.07649" lon="1.94185">
        <ele>334.7</ele>
        <time>2017-07-31T14:12:13Z</time>
      </trkpt>
      <trkpt lat="43.07648" lon="1.9419">
        <ele>334.6</ele>
        <time>2017-07-31T14:12:14Z</time>
      </trkpt>
      <trkpt lat="43.07643" lon="1.94228">
        <ele>334.7</ele>
        <time>2017-07-31T14:12:21Z</time>
      </trkpt>
      <trkpt lat="43.07634" lon="1.94339">
        <ele>336.9</ele>
        <time>2017-07-31T14:12:42Z</time>
      </trkpt>
      <trkpt lat="43.07634" lon="1.94356">
        <ele>336.6</ele>
        <time>2017-07-31T14:12:47Z</time>
      </trkpt>
      <trkpt lat="43.07634" lon="1.94356">
        <ele>336.6</ele>
        <time>2017-07-31T14:12:48Z</time>
      </trkpt>
      <trkpt lat="43.07634" lon="1.94356">
        <ele>336.7</ele>
        <time>2017-07-31T14:12:49Z</time>
      </trkpt>
      <trkpt lat="43.07634" lon="1.94356">
        <ele>336.7</ele>
        <time>2017-07-31T14:12:50Z</time>
      </trkpt>
      <trkpt lat="43.07634" lon="1.94356">
        <ele>336.8</ele>
        <time>2017-07-31T14:12:51Z</time>
      </trkpt>
      <trkpt lat="43.07634" lon="1.94356">
        <ele>336.8</ele>
        <time>2017-07-31T14:12:52Z</time>
      </trkpt>
      <trkpt lat="43.07634" lon="1.94356">
        <ele>336.8</ele>
        <time>2017-07-31T14:12:53Z</time>
      </trkpt>
      <trkpt lat="43.07634" lon="1.94356">
        <ele>336.8</ele>
        <time>2017-07-31T14:12:54Z</time>
      </trkpt>
      <trkpt lat="43.07635" lon="1.94353">
        <ele>336.8</ele>
        <time>2017-07-31T14:12:55Z</time>
      </trkpt>
      <trkpt lat="43.07636" lon="1.9435">
        <ele>336.6</ele>
        <time>2017-07-31T14:12:56Z</time>
      </trkpt>
      <trkpt lat="43.07637" lon="1.94348">
        <ele>336.5</ele>
        <time>2017-07-31T14:12:57Z</time>
      </trkpt>
      <trkpt lat="43.07637" lon="1.94345">
        <ele>336.4</ele>
        <time>2017-07-31T14:12:58Z</time>
      </trkpt>
      <trkpt lat="43.07638" lon="1.94343">
        <ele>336.5</ele>
        <time>2017-07-31T14:12:59Z</time>
      </trkpt>
      <trkpt lat="43.07639" lon="1.9434">
        <ele>336.6</ele>
        <time>2017-07-31T14:13:00Z</time>
      </trkpt>
      <trkpt lat="43.07639" lon="1.94338">
        <ele>336.6</ele>
        <time>2017-07-31T14:13:01Z</time>
      </trkpt>
      <trkpt lat="43.07639" lon="1.94338">
        <ele>336.5</ele>
        <time>2017-07-31T14:13:02Z</time>
      </trkpt>
      <trkpt lat="43.07639" lon="1.94338">
        <ele>336.4</ele>
        <time>2017-07-31T14:13:03Z</time>
      </trkpt>
      <trkpt lat="43.07639" lon="1.94338">
        <ele>336.3</ele>
        <time>2017-07-31T14:13:04Z</time>
      </trkpt>
      <trkpt lat="43.07639" lon="1.94338">
        <ele>336.2</ele>
        <time>2017-07-31T14:13:05Z</time>
      </trkpt>
      <trkpt lat="43.07639" lon="1.94338">
        <ele>336.2</ele>
        <time>2017-07-31T14:13:06Z</time>
      </trkpt>
      <trkpt lat="43.07639" lon="1.94338">
        <ele>336.1</ele>
        <time>2017-07-31T14:13:07Z</time>
      </trkpt>
      <trkpt lat="43.07639" lon="1.94338">
        <ele>335.9</ele>
        <time>2017-07-31T14:13:08Z</time>
      </trkpt>
      <trkpt lat="43.07639" lon="1.94338">
        <ele>335.7</ele>
        <time>2017-07-31T14:13:09Z</time>
      </trkpt>
      <trkpt lat="43.07639" lon="1.94338">
        <ele>335.6</ele>
        <time>2017-07-31T14:13:10Z</time>
      </trkpt>
      <trkpt lat="43.07639" lon="1.94338">
        <ele>335.9</ele>
        <time>2017-07-31T14:13:11Z</time>
      </trkpt>
      <trkpt lat="43.07639" lon="1.94338">
        <ele>336.1</ele>
        <time>2017-07-31T14:13:12Z</time>
      </trkpt>
      <trkpt lat="43.07639" lon="1.94338">
        <ele>336.3</ele>
        <time>2017-07-31T14:13:13Z</time>
      </trkpt>
      <trkpt lat="43.07639" lon="1.94338">
        <ele>336.4</ele>
        <time>2017-07-31T14:13:14Z</time>
      </trkpt>
      <trkpt lat="43.07639" lon="1.94338">
        <ele>336.6</ele>
        <time>2017-07-31T14:13:15Z</time>
      </trkpt>
      <trkpt lat="43.07639" lon="1.94338">
        <ele>336.6</ele>
        <time>2017-07-31T14:13:16Z</time>
      </trkpt>
      <trkpt lat="43.07639" lon="1.94338">
        <ele>336.5</ele>
        <time>2017-07-31T14:13:17Z</time>
      </trkpt>
      <trkpt lat="43.07639" lon="1.94338">
        <ele>336.4</ele>
        <time>2017-07-31T14:13:18Z</time>
      </trkpt>
      <trkpt lat="43.07639" lon="1.94338">
        <ele>336.3</ele>
        <time>2017-07-31T14:13:19Z</time>
      </trkpt>
      <trkpt lat="43.07639" lon="1.94338">
        <ele>336.2</ele>
        <time>2017-07-31T14:13:20Z</time>
      </trkpt>
      <trkpt lat="43.07639" lon="1.94338">
        <ele>336.1</ele>
        <time>2017-07-31T14:13:21Z</time>
      </trkpt>
      <trkpt lat="43.07639" lon="1.94338">
        <ele>336.1</ele>
        <time>2017-07-31T14:13:22Z</time>
      </trkpt>
      <trkpt lat="43.07639" lon="1.94338">
        <ele>336.1</ele>
        <time>2017-07-31T14:13:23Z</time>
      </trkpt>
      <trkpt lat="43.07639" lon="1.94338">
        <ele>336.1</ele>
        <time>2017-07-31T14:13:24Z</time>
      </trkpt>
      <trkpt lat="43.07639" lon="1.94338">
        <ele>336</ele>
        <time>2017-07-31T14:13:25Z</time>
      </trkpt>
      <trkpt lat="43.07639" lon="1.94338">
        <ele>336</ele>
        <time>2017-07-31T14:13:26Z</time>
      </trkpt>
      <trkpt lat="43.07639" lon="1.94338">
        <ele>336</ele>
        <time>2017-07-31T14:13:27Z</time>
      </trkpt>
      <trkpt lat="43.07639" lon="1.94338">
        <ele>336</ele>
        <time>2017-07-31T14:13:28Z</time>
      </trkpt>
      <trkpt lat="43.07639" lon="1.94338">
        <ele>336</ele>
        <time>2017-07-31T14:13:29Z</time>
      </trkpt>
      <trkpt lat="43.07639" lon="1.94338">
        <ele>336</ele>
        <time>2017-07-31T14:13:30Z</time>
      </trkpt>
      <trkpt lat="43.07639" lon="1.94338">
        <ele>336</ele>
        <time>2017-07-31T14:13:31Z</time>
      </trkpt>
      <trkpt lat="43.07639" lon="1.94338">
        <ele>335.8</ele>
        <time>2017-07-31T14:13:32Z</time>
      </trkpt>
      <trkpt lat="43.07639" lon="1.94338">
        <ele>335.6</ele>
        <time>2017-07-31T14:13:33Z</time>
      </trkpt>
      <trkpt lat="43.07639" lon="1.94338">
        <ele>335.5</ele>
        <time>2017-07-31T14:13:34Z</time>
      </trkpt>
      <trkpt lat="43.07639" lon="1.94338">
        <ele>335.4</ele>
        <time>2017-07-31T14:13:35Z</time>
      </trkpt>
      <trkpt lat="43.07639" lon="1.94338">
        <ele>335.3</ele>
        <time>2017-07-31T14:13:36Z</time>
      </trkpt>
      <trkpt lat="43.07639" lon="1.94338">
        <ele>335.3</ele>
        <time>2017-07-31T14:13:37Z</time>
      </trkpt>
      <trkpt lat="43.07639" lon="1.94338">
        <ele>335.3</ele>
        <time>2017-07-31T14:13:38Z</time>
      </trkpt>
      <trkpt lat="43.07639" lon="1.94338">
        <ele>335.2</ele>
        <time>2017-07-31T14:13:39Z</time>
      </trkpt>
      <trkpt lat="43.07639" lon="1.94338">
        <ele>335.2</ele>
        <time>2017-07-31T14:13:40Z</time>
      </trkpt>
      <trkpt lat="43.07639" lon="1.94338">
        <ele>335.4</ele>
        <time>2017-07-31T14:13:41Z</time>
      </trkpt>
      <trkpt lat="43.07639" lon="1.94338">
        <ele>335.6</ele>
        <time>2017-07-31T14:13:42Z</time>
      </trkpt>
      <trkpt lat="43.07639" lon="1.94338">
        <ele>335.7</ele>
        <time>2017-07-31T14:13:43Z</time>
      </trkpt>
      <trkpt lat="43.07639" lon="1.94338">
        <ele>335.3</ele>
        <time>2017-07-31T14:13:44Z</time>
      </trkpt>
      <trkpt lat="43.07639" lon="1.94338">
        <ele>335.1</ele>
        <time>2017-07-31T14:13:45Z</time>
      </trkpt>
      <trkpt lat="43.07639" lon="1.94338">
        <ele>334.9</ele>
        <time>2017-07-31T14:13:46Z</time>
      </trkpt>
      <trkpt lat="43.07639" lon="1.94338">
        <ele>334.9</ele>
        <time>2017-07-31T14:13:47Z</time>
      </trkpt>
      <trkpt lat="43.07639" lon="1.94338">
        <ele>335</ele>
        <time>2017-07-31T14:13:48Z</time>
      </trkpt>
      <trkpt lat="43.07639" lon="1.94338">
        <ele>335</ele>
        <time>2017-07-31T14:13:49Z</time>
      </trkpt>
      <trkpt lat="43.07639" lon="1.94338">
        <ele>335.1</ele>
        <time>2017-07-31T14:13:50Z</time>
      </trkpt>
      <trkpt lat="43.07639" lon="1.94338">
        <ele>335.1</ele>
        <time>2017-07-31T14:13:51Z</time>
      </trkpt>
      <trkpt lat="43.07639" lon="1.94338">
        <ele>335.1</ele>
        <time>2017-07-31T14:13:52Z</time>
      </trkpt>
      <trkpt lat="43.07639" lon="1.94338">
        <ele>335.1</ele>
        <time>2017-07-31T14:13:53Z</time>
      </trkpt>
      <trkpt lat="43.07639" lon="1.94338">
        <ele>335.1</ele>
        <time>2017-07-31T14:13:54Z</time>
      </trkpt>
      <trkpt lat="43.07639" lon="1.94338">
        <ele>335.1</ele>
        <time>2017-07-31T14:13:55Z</time>
      </trkpt>
      <trkpt lat="43.07639" lon="1.94338">
        <ele>335.3</ele>
        <time>2017-07-31T14:13:56Z</time>
      </trkpt>
      <trkpt lat="43.07639" lon="1.94338">
        <ele>335.5</ele>
        <time>2017-07-31T14:13:57Z</time>
      </trkpt>
      <trkpt lat="43.07639" lon="1.94338">
        <ele>335.6</ele>
        <time>2017-07-31T14:13:58Z</time>
      </trkpt>
      <trkpt lat="43.07639" lon="1.94338">
        <ele>335.5</ele>
        <time>2017-07-31T14:13:59Z</time>
      </trkpt>
      <trkpt lat="43.07639" lon="1.94338">
        <ele>335.4</ele>
        <time>2017-07-31T14:14:00Z</time>
      </trkpt>
      <trkpt lat="43.07639" lon="1.94338">
        <ele>335.3</ele>
        <time>2017-07-31T14:14:01Z</time>
      </trkpt>
      <trkpt lat="43.07639" lon="1.94338">
        <ele>335.5</ele>
        <time>2017-07-31T14:14:02Z</time>
      </trkpt>
      <trkpt lat="43.07639" lon="1.94338">
        <ele>335.6</ele>
        <time>2017-07-31T14:14:03Z</time>
      </trkpt>
      <trkpt lat="43.07643" lon="1.94343">
        <ele>335.7</ele>
        <time>2017-07-31T14:14:04Z</time>
      </trkpt>
      <trkpt lat="43.07643" lon="1.94343">
        <ele>335.8</ele>
        <time>2017-07-31T14:14:05Z</time>
      </trkpt>
      <trkpt lat="43.07643" lon="1.94352">
        <ele>335.8</ele>
        <time>2017-07-31T14:14:06Z</time>
      </trkpt>
      <trkpt lat="43.07644" lon="1.94378">
        <ele>336</ele>
        <time>2017-07-31T14:14:12Z</time>
      </trkpt>
      <trkpt lat="43.07644" lon="1.94378">
        <ele>336</ele>
        <time>2017-07-31T14:14:13Z</time>
      </trkpt>
      <trkpt lat="43.07644" lon="1.94378">
        <ele>335.8</ele>
        <time>2017-07-31T14:14:14Z</time>
      </trkpt>
      <trkpt lat="43.07644" lon="1.94378">
        <ele>335.6</ele>
        <time>2017-07-31T14:14:15Z</time>
      </trkpt>
      <trkpt lat="43.07644" lon="1.94378">
        <ele>335.5</ele>
        <time>2017-07-31T14:14:16Z</time>
      </trkpt>
      <trkpt lat="43.07644" lon="1.94378">
        <ele>335.6</ele>
        <time>2017-07-31T14:14:17Z</time>
      </trkpt>
      <trkpt lat="43.07644" lon="1.94378">
        <ele>335.7</ele>
        <time>2017-07-31T14:14:18Z</time>
      </trkpt>
      <trkpt lat="43.07644" lon="1.94378">
        <ele>335.8</ele>
        <time>2017-07-31T14:14:19Z</time>
      </trkpt>
      <trkpt lat="43.07644" lon="1.94378">
        <ele>336.1</ele>
        <time>2017-07-31T14:14:20Z</time>
      </trkpt>
      <trkpt lat="43.07644" lon="1.94378">
        <ele>336.3</ele>
        <time>2017-07-31T14:14:21Z</time>
      </trkpt>
      <trkpt lat="43.07644" lon="1.94378">
        <ele>336.4</ele>
        <time>2017-07-31T14:14:22Z</time>
      </trkpt>
      <trkpt lat="43.07644" lon="1.94378">
        <ele>336.5</ele>
        <time>2017-07-31T14:14:23Z</time>
      </trkpt>
      <trkpt lat="43.07644" lon="1.94378">
        <ele>336.6</ele>
        <time>2017-07-31T14:14:24Z</time>
      </trkpt>
      <trkpt lat="43.07644" lon="1.94378">
        <ele>336.7</ele>
        <time>2017-07-31T14:14:25Z</time>
      </trkpt>
      <trkpt lat="43.07644" lon="1.94378">
        <ele>336.7</ele>
        <time>2017-07-31T14:14:26Z</time>
      </trkpt>
      <trkpt lat="43.07644" lon="1.94378">
        <ele>336.8</ele>
        <time>2017-07-31T14:14:27Z</time>
      </trkpt>
      <trkpt lat="43.07644" lon="1.94378">
        <ele>336.8</ele>
        <time>2017-07-31T14:14:28Z</time>
      </trkpt>
      <trkpt lat="43.07644" lon="1.94378">
        <ele>336.6</ele>
        <time>2017-07-31T14:14:29Z</time>
      </trkpt>
      <trkpt lat="43.07644" lon="1.94378">
        <ele>336.4</ele>
        <time>2017-07-31T14:14:30Z</time>
      </trkpt>
      <trkpt lat="43.07644" lon="1.94378">
        <ele>336.3</ele>
        <time>2017-07-31T14:14:31Z</time>
      </trkpt>
      <trkpt lat="43.07644" lon="1.94378">
        <ele>336.2</ele>
        <time>2017-07-31T14:14:32Z</time>
      </trkpt>
      <trkpt lat="43.07644" lon="1.94378">
        <ele>336.2</ele>
        <time>2017-07-31T14:14:33Z</time>
      </trkpt>
      <trkpt lat="43.07644" lon="1.94378">
        <ele>336.1</ele>
        <time>2017-07-31T14:14:34Z</time>
      </trkpt>
      <trkpt lat="43.07644" lon="1.94378">
        <ele>336.3</ele>
        <time>2017-07-31T14:14:35Z</time>
      </trkpt>
      <trkpt lat="43.07644" lon="1.94378">
        <ele>336.5</ele>
        <time>2017-07-31T14:14:36Z</time>
      </trkpt>
      <trkpt lat="43.07644" lon="1.94378">
        <ele>336.6</ele>
        <time>2017-07-31T14:14:37Z</time>
      </trkpt>
      <trkpt lat="43.07644" lon="1.94378">
        <ele>336.4</ele>
        <time>2017-07-31T14:14:38Z</time>
      </trkpt>
      <trkpt lat="43.07644" lon="1.94378">
        <ele>336.3</ele>
        <time>2017-07-31T14:14:39Z</time>
      </trkpt>
      <trkpt lat="43.07644" lon="1.94378">
        <ele>336.2</ele>
        <time>2017-07-31T14:14:40Z</time>
      </trkpt>
      <trkpt lat="43.07644" lon="1.94378">
        <ele>336.4</ele>
        <time>2017-07-31T14:14:41Z</time>
      </trkpt>
      <trkpt lat="43.07644" lon="1.94378">
        <ele>336.5</ele>
        <time>2017-07-31T14:14:42Z</time>
      </trkpt>
      <trkpt lat="43.07644" lon="1.94378">
        <ele>336.6</ele>
        <time>2017-07-31T14:14:43Z</time>
      </trkpt>
      <trkpt lat="43.07644" lon="1.94378">
        <ele>336.4</ele>
        <time>2017-07-31T14:14:44Z</time>
      </trkpt>
      <trkpt lat="43.07644" lon="1.94378">
        <ele>336.3</ele>
        <time>2017-07-31T14:14:45Z</time>
      </trkpt>
      <trkpt lat="43.07644" lon="1.94378">
        <ele>336.3</ele>
        <time>2017-07-31T14:14:46Z</time>
      </trkpt>
      <trkpt lat="43.07644" lon="1.94378">
        <ele>336.4</ele>
        <time>2017-07-31T14:14:47Z</time>
      </trkpt>
      <trkpt lat="43.07644" lon="1.94378">
        <ele>336.5</ele>
        <time>2017-07-31T14:14:48Z</time>
      </trkpt>
      <trkpt lat="43.07647" lon="1.94384">
        <ele>336.6</ele>
        <time>2017-07-31T14:14:49Z</time>
      </trkpt>
      <trkpt lat="43.07647" lon="1.94384">
        <ele>336.9</ele>
        <time>2017-07-31T14:14:50Z</time>
      </trkpt>
      <trkpt lat="43.07647" lon="1.94388">
        <ele>337.1</ele>
        <time>2017-07-31T14:14:51Z</time>
      </trkpt>
      <trkpt lat="43.07648" lon="1.94421">
        <ele>336.9</ele>
        <time>2017-07-31T14:15:00Z</time>
      </trkpt>
      <trkpt lat="43.07647" lon="1.94442">
        <ele>336.7</ele>
        <time>2017-07-31T14:15:07Z</time>
      </trkpt>
      <trkpt lat="43.07647" lon="1.94442">
        <ele>336.5</ele>
        <time>2017-07-31T14:15:08Z</time>
      </trkpt>
      <trkpt lat="43.07647" lon="1.94442">
        <ele>336.4</ele>
        <time>2017-07-31T14:15:09Z</time>
      </trkpt>
      <trkpt lat="43.07647" lon="1.94442">
        <ele>336.3</ele>
        <time>2017-07-31T14:15:10Z</time>
      </trkpt>
      <trkpt lat="43.07647" lon="1.94442">
        <ele>336</ele>
        <time>2017-07-31T14:15:11Z</time>
      </trkpt>
      <trkpt lat="43.07647" lon="1.94442">
        <ele>335.8</ele>
        <time>2017-07-31T14:15:12Z</time>
      </trkpt>
      <trkpt lat="43.07647" lon="1.94442">
        <ele>335.6</ele>
        <time>2017-07-31T14:15:13Z</time>
      </trkpt>
      <trkpt lat="43.07647" lon="1.94442">
        <ele>335.7</ele>
        <time>2017-07-31T14:15:14Z</time>
      </trkpt>
      <trkpt lat="43.07647" lon="1.94442">
        <ele>335.8</ele>
        <time>2017-07-31T14:15:15Z</time>
      </trkpt>
      <trkpt lat="43.07647" lon="1.94442">
        <ele>335.8</ele>
        <time>2017-07-31T14:15:16Z</time>
      </trkpt>
      <trkpt lat="43.07647" lon="1.94442">
        <ele>335.9</ele>
        <time>2017-07-31T14:15:17Z</time>
      </trkpt>
      <trkpt lat="43.07648" lon="1.94443">
        <ele>335.9</ele>
        <time>2017-07-31T14:15:18Z</time>
      </trkpt>
      <trkpt lat="43.07648" lon="1.94444">
        <ele>335.9</ele>
        <time>2017-07-31T14:15:19Z</time>
      </trkpt>
      <trkpt lat="43.07648" lon="1.94444">
        <ele>335.9</ele>
        <time>2017-07-31T14:15:20Z</time>
      </trkpt>
      <trkpt lat="43.07648" lon="1.94444">
        <ele>336</ele>
        <time>2017-07-31T14:15:21Z</time>
      </trkpt>
      <trkpt lat="43.07648" lon="1.94445">
        <ele>336</ele>
        <time>2017-07-31T14:15:22Z</time>
      </trkpt>
      <trkpt lat="43.07648" lon="1.94445">
        <ele>336.2</ele>
        <time>2017-07-31T14:15:23Z</time>
      </trkpt>
      <trkpt lat="43.07648" lon="1.94446">
        <ele>336.4</ele>
        <time>2017-07-31T14:15:24Z</time>
      </trkpt>
      <trkpt lat="43.07649" lon="1.94446">
        <ele>336.5</ele>
        <time>2017-07-31T14:15:25Z</time>
      </trkpt>
      <trkpt lat="43.07649" lon="1.94446">
        <ele>336.4</ele>
        <time>2017-07-31T14:15:26Z</time>
      </trkpt>
      <trkpt lat="43.07649" lon="1.94447">
        <ele>336.3</ele>
        <time>2017-07-31T14:15:27Z</time>
      </trkpt>
      <trkpt lat="43.07649" lon="1.94448">
        <ele>335.9</ele>
        <time>2017-07-31T14:15:29Z</time>
      </trkpt>
      <trkpt lat="43.0765" lon="1.94449">
        <ele>335.7</ele>
        <time>2017-07-31T14:15:30Z</time>
      </trkpt>
      <trkpt lat="43.0765" lon="1.94452">
        <ele>335.6</ele>
        <time>2017-07-31T14:15:31Z</time>
      </trkpt>
      <trkpt lat="43.07659" lon="1.94597">
        <ele>338.6</ele>
        <time>2017-07-31T14:16:09Z</time>
      </trkpt>
      <trkpt lat="43.07665" lon="1.94647">
        <ele>338.4</ele>
        <time>2017-07-31T14:16:20Z</time>
      </trkpt>
      <trkpt lat="43.07666" lon="1.94653">
        <ele>338.4</ele>
        <time>2017-07-31T14:16:21Z</time>
      </trkpt>
      <trkpt lat="43.07668" lon="1.94663">
        <ele>338.5</ele>
        <time>2017-07-31T14:16:23Z</time>
      </trkpt>
      <trkpt lat="43.07697" lon="1.94757">
        <ele>339.6</ele>
        <time>2017-07-31T14:16:43Z</time>
      </trkpt>
      <trkpt lat="43.0771" lon="1.94802">
        <ele>340.5</ele>
        <time>2017-07-31T14:16:52Z</time>
      </trkpt>
      <trkpt lat="43.0771" lon="1.94808">
        <ele>340</ele>
        <time>2017-07-31T14:16:54Z</time>
      </trkpt>
      <trkpt lat="43.07709" lon="1.9481">
        <ele>339.9</ele>
        <time>2017-07-31T14:16:55Z</time>
      </trkpt>
      <trkpt lat="43.07708" lon="1.94812">
        <ele>339.8</ele>
        <time>2017-07-31T14:16:56Z</time>
      </trkpt>
      <trkpt lat="43.07706" lon="1.94813">
        <ele>339.7</ele>
        <time>2017-07-31T14:16:57Z</time>
      </trkpt>
      <trkpt lat="43.07704" lon="1.94812">
        <ele>339.6</ele>
        <time>2017-07-31T14:16:58Z</time>
      </trkpt>
      <trkpt lat="43.07701" lon="1.9481">
        <ele>339.6</ele>
        <time>2017-07-31T14:16:59Z</time>
      </trkpt>
      <trkpt lat="43.07698" lon="1.94808">
        <ele>339.6</ele>
        <time>2017-07-31T14:17:00Z</time>
      </trkpt>
      <trkpt lat="43.07695" lon="1.94804">
        <ele>339.5</ele>
        <time>2017-07-31T14:17:01Z</time>
      </trkpt>
      <trkpt lat="43.07692" lon="1.94799">
        <ele>339.5</ele>
        <time>2017-07-31T14:17:02Z</time>
      </trkpt>
      <trkpt lat="43.07689" lon="1.94794">
        <ele>339.5</ele>
        <time>2017-07-31T14:17:03Z</time>
      </trkpt>
      <trkpt lat="43.07687" lon="1.94789">
        <ele>339.5</ele>
        <time>2017-07-31T14:17:04Z</time>
      </trkpt>
      <trkpt lat="43.07684" lon="1.94784">
        <ele>339.7</ele>
        <time>2017-07-31T14:17:05Z</time>
      </trkpt>
      <trkpt lat="43.07682" lon="1.94779">
        <ele>339.8</ele>
        <time>2017-07-31T14:17:06Z</time>
      </trkpt>
      <trkpt lat="43.0768" lon="1.94775">
        <ele>340</ele>
        <time>2017-07-31T14:17:07Z</time>
      </trkpt>
      <trkpt lat="43.07678" lon="1.94771">
        <ele>340</ele>
        <time>2017-07-31T14:17:08Z</time>
      </trkpt>
      <trkpt lat="43.07676" lon="1.94766">
        <ele>340.1</ele>
        <time>2017-07-31T14:17:09Z</time>
      </trkpt>
      <trkpt lat="43.07674" lon="1.94763">
        <ele>340.2</ele>
        <time>2017-07-31T14:17:10Z</time>
      </trkpt>
      <trkpt lat="43.07672" lon="1.94759">
        <ele>340.4</ele>
        <time>2017-07-31T14:17:11Z</time>
      </trkpt>
      <trkpt lat="43.07666" lon="1.94741">
        <ele>340.4</ele>
        <time>2017-07-31T14:17:19Z</time>
      </trkpt>
      <trkpt lat="43.07666" lon="1.94741">
        <ele>340.2</ele>
        <time>2017-07-31T14:17:20Z</time>
      </trkpt>
      <trkpt lat="43.07666" lon="1.94741">
        <ele>340</ele>
        <time>2017-07-31T14:17:21Z</time>
      </trkpt>
      <trkpt lat="43.07665" lon="1.9474">
        <ele>339.8</ele>
        <time>2017-07-31T14:17:22Z</time>
      </trkpt>
      <trkpt lat="43.07602" lon="1.94663">
        <ele>341.2</ele>
        <time>2017-07-31T14:17:46Z</time>
      </trkpt>
      <trkpt lat="43.07539" lon="1.94617">
        <ele>341.2</ele>
        <time>2017-07-31T14:18:05Z</time>
      </trkpt>
      <trkpt lat="43.07529" lon="1.94611">
        <ele>341.7</ele>
        <time>2017-07-31T14:18:09Z</time>
      </trkpt>
      <trkpt lat="43.07491" lon="1.94594">
        <ele>341.7</ele>
        <time>2017-07-31T14:18:18Z</time>
      </trkpt>
      <trkpt lat="43.07463" lon="1.94585">
        <ele>342.4</ele>
        <time>2017-07-31T14:18:25Z</time>
      </trkpt>
      <trkpt lat="43.0746" lon="1.94584">
        <ele>342.3</ele>
        <time>2017-07-31T14:18:26Z</time>
      </trkpt>
      <trkpt lat="43.07408" lon="1.94576">
        <ele>342.5</ele>
        <time>2017-07-31T14:18:42Z</time>
      </trkpt>
      <trkpt lat="43.07152" lon="1.94545">
        <ele>345</ele>
        <time>2017-07-31T14:19:45Z</time>
      </trkpt>
      <trkpt lat="43.07148" lon="1.94544">
        <ele>344.5</ele>
        <time>2017-07-31T14:19:46Z</time>
      </trkpt>
      <trkpt lat="43.07145" lon="1.94538">
        <ele>343.8</ele>
        <time>2017-07-31T14:19:48Z</time>
      </trkpt>
      <trkpt lat="43.07137" lon="1.94524">
        <ele>343</ele>
        <time>2017-07-31T14:19:52Z</time>
      </trkpt>
      <trkpt lat="43.07133" lon="1.94522">
        <ele>342.7</ele>
        <time>2017-07-31T14:19:53Z</time>
      </trkpt>
      <trkpt lat="43.07104" lon="1.94511">
        <ele>341.4</ele>
        <time>2017-07-31T14:20:00Z</time>
      </trkpt>
      <trkpt lat="43.071" lon="1.94513">
        <ele>341.4</ele>
        <time>2017-07-31T14:20:01Z</time>
      </trkpt>
      <trkpt lat="43.07098" lon="1.94515">
        <ele>341.3</ele>
        <time>2017-07-31T14:20:02Z</time>
      </trkpt>
      <trkpt lat="43.07096" lon="1.94518">
        <ele>341.3</ele>
        <time>2017-07-31T14:20:03Z</time>
      </trkpt>
      <trkpt lat="43.07094" lon="1.94521">
        <ele>341.7</ele>
        <time>2017-07-31T14:20:04Z</time>
      </trkpt>
      <trkpt lat="43.07089" lon="1.94529">
        <ele>342.4</ele>
        <time>2017-07-31T14:20:07Z</time>
      </trkpt>
      <trkpt lat="43.07086" lon="1.9453">
        <ele>342.5</ele>
        <time>2017-07-31T14:20:08Z</time>
      </trkpt>
      <trkpt lat="43.07084" lon="1.94529">
        <ele>342.6</ele>
        <time>2017-07-31T14:20:09Z</time>
      </trkpt>
      <trkpt lat="43.0708" lon="1.94528">
        <ele>343.1</ele>
        <time>2017-07-31T14:20:11Z</time>
      </trkpt>
      <trkpt lat="43.0708" lon="1.94528">
        <ele>343.3</ele>
        <time>2017-07-31T14:20:12Z</time>
      </trkpt>
      <trkpt lat="43.0708" lon="1.94528">
        <ele>343.4</ele>
        <time>2017-07-31T14:20:13Z</time>
      </trkpt>
      <trkpt lat="43.07074" lon="1.94526">
        <ele>343.5</ele>
        <time>2017-07-31T14:20:14Z</time>
      </trkpt>
      <trkpt lat="43.07074" lon="1.94526">
        <ele>343.6</ele>
        <time>2017-07-31T14:20:15Z</time>
      </trkpt>
      <trkpt lat="43.07074" lon="1.94526">
        <ele>343.6</ele>
        <time>2017-07-31T14:20:16Z</time>
      </trkpt>
      <trkpt lat="43.07069" lon="1.94523">
        <ele>343.6</ele>
        <time>2017-07-31T14:20:17Z</time>
      </trkpt>
      <trkpt lat="43.07069" lon="1.94523">
        <ele>343.7</ele>
        <time>2017-07-31T14:20:18Z</time>
      </trkpt>
      <trkpt lat="43.07069" lon="1.94523">
        <ele>343.9</ele>
        <time>2017-07-31T14:20:19Z</time>
      </trkpt>
      <trkpt lat="43.07062" lon="1.9452">
        <ele>344.1</ele>
        <time>2017-07-31T14:20:20Z</time>
      </trkpt>
      <trkpt lat="43.07036" lon="1.94501">
        <ele>345.1</ele>
        <time>2017-07-31T14:20:29Z</time>
      </trkpt>
      <trkpt lat="43.07034" lon="1.94499">
        <ele>345.2</ele>
        <time>2017-07-31T14:20:30Z</time>
      </trkpt>
      <trkpt lat="43.07028" lon="1.94494">
        <ele>345.3</ele>
        <time>2017-07-31T14:20:32Z</time>
      </trkpt>
      <trkpt lat="43.07025" lon="1.94492">
        <ele>345.4</ele>
        <time>2017-07-31T14:20:33Z</time>
      </trkpt>
      <trkpt lat="43.0701" lon="1.94482">
        <ele>345.5</ele>
        <time>2017-07-31T14:20:38Z</time>
      </trkpt>
      <trkpt lat="43.07007" lon="1.94479">
        <ele>345.5</ele>
        <time>2017-07-31T14:20:39Z</time>
      </trkpt>
      <trkpt lat="43.06947" lon="1.94418">
        <ele>345.1</ele>
        <time>2017-07-31T14:20:59Z</time>
      </trkpt>
      <trkpt lat="43.06943" lon="1.94416">
        <ele>345.2</ele>
        <time>2017-07-31T14:21:00Z</time>
      </trkpt>
      <trkpt lat="43.06932" lon="1.94409">
        <ele>344.9</ele>
        <time>2017-07-31T14:21:03Z</time>
      </trkpt>
      <trkpt lat="43.06928" lon="1.94406">
        <ele>344.8</ele>
        <time>2017-07-31T14:21:04Z</time>
      </trkpt>
      <trkpt lat="43.069" lon="1.94379">
        <ele>344.4</ele>
        <time>2017-07-31T14:21:13Z</time>
      </trkpt>
      <trkpt lat="43.06896" lon="1.94377">
        <ele>344.5</ele>
        <time>2017-07-31T14:21:14Z</time>
      </trkpt>
      <trkpt lat="43.06648" lon="1.9421">
        <ele>346.5</ele>
        <time>2017-07-31T14:22:17Z</time>
      </trkpt>
      <trkpt lat="43.06644" lon="1.94209">
        <ele>346.5</ele>
        <time>2017-07-31T14:22:18Z</time>
      </trkpt>
      <trkpt lat="43.06583" lon="1.94191">
        <ele>346.7</ele>
        <time>2017-07-31T14:22:32Z</time>
      </trkpt>
      <trkpt lat="43.06579" lon="1.94189">
        <ele>346.6</ele>
        <time>2017-07-31T14:22:33Z</time>
      </trkpt>
      <trkpt lat="43.06559" lon="1.94183">
        <ele>345.8</ele>
        <time>2017-07-31T14:22:37Z</time>
      </trkpt>
      <trkpt lat="43.06527" lon="1.94179">
        <ele>346.1</ele>
        <time>2017-07-31T14:22:43Z</time>
      </trkpt>
      <trkpt lat="43.06518" lon="1.9418">
        <ele>346.2</ele>
        <time>2017-07-31T14:22:45Z</time>
      </trkpt>
      <trkpt lat="43.06471" lon="1.94187">
        <ele>345.9</ele>
        <time>2017-07-31T14:22:56Z</time>
      </trkpt>
      <trkpt lat="43.06459" lon="1.94191">
        <ele>346.2</ele>
        <time>2017-07-31T14:22:59Z</time>
      </trkpt>
      <trkpt lat="43.06428" lon="1.94204">
        <ele>346.1</ele>
        <time>2017-07-31T14:23:07Z</time>
      </trkpt>
      <trkpt lat="43.06425" lon="1.94206">
        <ele>346</ele>
        <time>2017-07-31T14:23:08Z</time>
      </trkpt>
      <trkpt lat="43.06346" lon="1.94252">
        <ele>345.2</ele>
        <time>2017-07-31T14:23:28Z</time>
      </trkpt>
      <trkpt lat="43.06342" lon="1.94256">
        <ele>345.2</ele>
        <time>2017-07-31T14:23:29Z</time>
      </trkpt>
      <trkpt lat="43.06159" lon="1.94419">
        <ele>345.7</ele>
        <time>2017-07-31T14:24:16Z</time>
      </trkpt>
      <trkpt lat="43.06157" lon="1.94422">
        <ele>345.9</ele>
        <time>2017-07-31T14:24:17Z</time>
      </trkpt>
      <trkpt lat="43.06113" lon="1.9448">
        <ele>345.7</ele>
        <time>2017-07-31T14:24:32Z</time>
      </trkpt>
      <trkpt lat="43.0611" lon="1.94483">
        <ele>345.6</ele>
        <time>2017-07-31T14:24:33Z</time>
      </trkpt>
      <trkpt lat="43.0603" lon="1.94547">
        <ele>345.4</ele>
        <time>2017-07-31T14:24:53Z</time>
      </trkpt>
      <trkpt lat="43.05882" lon="1.94663">
        <ele>345</ele>
        <time>2017-07-31T14:25:29Z</time>
      </trkpt>
      <trkpt lat="43.05878" lon="1.94665">
        <ele>345.1</ele>
        <time>2017-07-31T14:25:30Z</time>
      </trkpt>
      <trkpt lat="43.05774" lon="1.94703">
        <ele>344</ele>
        <time>2017-07-31T14:25:51Z</time>
      </trkpt>
      <trkpt lat="43.05769" lon="1.94703">
        <ele>344.1</ele>
        <time>2017-07-31T14:25:52Z</time>
      </trkpt>
      <trkpt lat="43.05569" lon="1.94741">
        <ele>343.2</ele>
        <time>2017-07-31T14:26:35Z</time>
      </trkpt>
      <trkpt lat="43.05569" lon="1.94741">
        <ele>343.1</ele>
        <time>2017-07-31T14:26:36Z</time>
      </trkpt>
      <trkpt lat="43.05569" lon="1.94741">
        <ele>343.5</ele>
        <time>2017-07-31T14:26:37Z</time>
      </trkpt>
      <trkpt lat="43.05569" lon="1.94741">
        <ele>343.8</ele>
        <time>2017-07-31T14:26:38Z</time>
      </trkpt>
      <trkpt lat="43.05569" lon="1.94741">
        <ele>344</ele>
        <time>2017-07-31T14:26:39Z</time>
      </trkpt>
      <trkpt lat="43.05563" lon="1.94743">
        <ele>343.9</ele>
        <time>2017-07-31T14:26:40Z</time>
      </trkpt>
      <trkpt lat="43.05563" lon="1.94743">
        <ele>343.9</ele>
        <time>2017-07-31T14:26:41Z</time>
      </trkpt>
      <trkpt lat="43.05563" lon="1.94743">
        <ele>343.9</ele>
        <time>2017-07-31T14:26:42Z</time>
      </trkpt>
      <trkpt lat="43.05563" lon="1.94743">
        <ele>343.6</ele>
        <time>2017-07-31T14:26:43Z</time>
      </trkpt>
      <trkpt lat="43.05563" lon="1.94743">
        <ele>343.4</ele>
        <time>2017-07-31T14:26:44Z</time>
      </trkpt>
      <trkpt lat="43.05563" lon="1.94743">
        <ele>343.3</ele>
        <time>2017-07-31T14:26:45Z</time>
      </trkpt>
      <trkpt lat="43.05563" lon="1.94743">
        <ele>343.4</ele>
        <time>2017-07-31T14:26:46Z</time>
      </trkpt>
      <trkpt lat="43.05563" lon="1.94743">
        <ele>343.5</ele>
        <time>2017-07-31T14:26:47Z</time>
      </trkpt>
      <trkpt lat="43.05563" lon="1.94743">
        <ele>343.6</ele>
        <time>2017-07-31T14:26:48Z</time>
      </trkpt>
      <trkpt lat="43.05563" lon="1.94743">
        <ele>343.6</ele>
        <time>2017-07-31T14:26:49Z</time>
      </trkpt>
      <trkpt lat="43.05563" lon="1.94743">
        <ele>343.7</ele>
        <time>2017-07-31T14:26:50Z</time>
      </trkpt>
      <trkpt lat="43.05563" lon="1.94743">
        <ele>343.7</ele>
        <time>2017-07-31T14:26:51Z</time>
      </trkpt>
      <trkpt lat="43.05563" lon="1.94743">
        <ele>343.7</ele>
        <time>2017-07-31T14:26:52Z</time>
      </trkpt>
      <trkpt lat="43.05563" lon="1.94743">
        <ele>343.7</ele>
        <time>2017-07-31T14:26:53Z</time>
      </trkpt>
      <trkpt lat="43.05563" lon="1.94743">
        <ele>343.7</ele>
        <time>2017-07-31T14:26:54Z</time>
      </trkpt>
      <trkpt lat="43.05563" lon="1.94743">
        <ele>343.7</ele>
        <time>2017-07-31T14:26:55Z</time>
      </trkpt>
      <trkpt lat="43.05563" lon="1.94743">
        <ele>343.7</ele>
        <time>2017-07-31T14:26:56Z</time>
      </trkpt>
      <trkpt lat="43.05563" lon="1.94743">
        <ele>343.7</ele>
        <time>2017-07-31T14:26:57Z</time>
      </trkpt>
      <trkpt lat="43.05563" lon="1.94743">
        <ele>344</ele>
        <time>2017-07-31T14:26:58Z</time>
      </trkpt>
      <trkpt lat="43.05563" lon="1.94743">
        <ele>344.1</ele>
        <time>2017-07-31T14:26:59Z</time>
      </trkpt>
      <trkpt lat="43.05563" lon="1.94743">
        <ele>344.3</ele>
        <time>2017-07-31T14:27:00Z</time>
      </trkpt>
      <trkpt lat="43.05563" lon="1.94743">
        <ele>343.9</ele>
        <time>2017-07-31T14:27:01Z</time>
      </trkpt>
      <trkpt lat="43.05563" lon="1.94743">
        <ele>343.7</ele>
        <time>2017-07-31T14:27:02Z</time>
      </trkpt>
      <trkpt lat="43.05563" lon="1.94743">
        <ele>343.5</ele>
        <time>2017-07-31T14:27:03Z</time>
      </trkpt>
      <trkpt lat="43.05563" lon="1.94743">
        <ele>343.3</ele>
        <time>2017-07-31T14:27:04Z</time>
      </trkpt>
      <trkpt lat="43.05563" lon="1.94743">
        <ele>343.2</ele>
        <time>2017-07-31T14:27:05Z</time>
      </trkpt>
      <trkpt lat="43.05563" lon="1.94743">
        <ele>343.1</ele>
        <time>2017-07-31T14:27:06Z</time>
      </trkpt>
      <trkpt lat="43.05563" lon="1.94743">
        <ele>343.5</ele>
        <time>2017-07-31T14:27:07Z</time>
      </trkpt>
      <trkpt lat="43.05563" lon="1.94743">
        <ele>343.8</ele>
        <time>2017-07-31T14:27:08Z</time>
      </trkpt>
      <trkpt lat="43.05563" lon="1.94743">
        <ele>344</ele>
        <time>2017-07-31T14:27:09Z</time>
      </trkpt>
      <trkpt lat="43.05563" lon="1.94743">
        <ele>344.4</ele>
        <time>2017-07-31T14:27:10Z</time>
      </trkpt>
      <trkpt lat="43.05563" lon="1.94743">
        <ele>344.6</ele>
        <time>2017-07-31T14:27:11Z</time>
      </trkpt>
      <trkpt lat="43.05563" lon="1.94743">
        <ele>344.9</ele>
        <time>2017-07-31T14:27:12Z</time>
      </trkpt>
      <trkpt lat="43.05563" lon="1.94743">
        <ele>344.8</ele>
        <time>2017-07-31T14:27:13Z</time>
      </trkpt>
      <trkpt lat="43.05563" lon="1.94743">
        <ele>344.8</ele>
        <time>2017-07-31T14:27:14Z</time>
      </trkpt>
      <trkpt lat="43.05563" lon="1.94743">
        <ele>344.7</ele>
        <time>2017-07-31T14:27:15Z</time>
      </trkpt>
      <trkpt lat="43.05563" lon="1.94743">
        <ele>344.5</ele>
        <time>2017-07-31T14:27:16Z</time>
      </trkpt>
      <trkpt lat="43.05563" lon="1.94743">
        <ele>344.3</ele>
        <time>2017-07-31T14:27:17Z</time>
      </trkpt>
      <trkpt lat="43.05557" lon="1.94742">
        <ele>344.2</ele>
        <time>2017-07-31T14:27:18Z</time>
      </trkpt>
      <trkpt lat="43.05557" lon="1.94742">
        <ele>344.1</ele>
        <time>2017-07-31T14:27:19Z</time>
      </trkpt>
      <trkpt lat="43.05557" lon="1.94742">
        <ele>344</ele>
        <time>2017-07-31T14:27:20Z</time>
      </trkpt>
      <trkpt lat="43.05557" lon="1.94742">
        <ele>343.9</ele>
        <time>2017-07-31T14:27:21Z</time>
      </trkpt>
      <trkpt lat="43.05557" lon="1.94742">
        <ele>343.9</ele>
        <time>2017-07-31T14:27:22Z</time>
      </trkpt>
      <trkpt lat="43.05557" lon="1.94742">
        <ele>343.9</ele>
        <time>2017-07-31T14:27:23Z</time>
      </trkpt>
      <trkpt lat="43.05557" lon="1.94742">
        <ele>343.8</ele>
        <time>2017-07-31T14:27:24Z</time>
      </trkpt>
      <trkpt lat="43.05557" lon="1.94742">
        <ele>343.6</ele>
        <time>2017-07-31T14:27:25Z</time>
      </trkpt>
      <trkpt lat="43.05557" lon="1.94742">
        <ele>343.4</ele>
        <time>2017-07-31T14:27:26Z</time>
      </trkpt>
      <trkpt lat="43.05557" lon="1.94742">
        <ele>343.3</ele>
        <time>2017-07-31T14:27:27Z</time>
      </trkpt>
      <trkpt lat="43.05557" lon="1.94742">
        <ele>343.2</ele>
        <time>2017-07-31T14:27:28Z</time>
      </trkpt>
      <trkpt lat="43.05557" lon="1.94742">
        <ele>343.1</ele>
        <time>2017-07-31T14:27:29Z</time>
      </trkpt>
      <trkpt lat="43.05557" lon="1.94742">
        <ele>343.1</ele>
        <time>2017-07-31T14:27:30Z</time>
      </trkpt>
      <trkpt lat="43.05557" lon="1.94742">
        <ele>343.5</ele>
        <time>2017-07-31T14:27:31Z</time>
      </trkpt>
      <trkpt lat="43.05557" lon="1.94742">
        <ele>343.7</ele>
        <time>2017-07-31T14:27:32Z</time>
      </trkpt>
      <trkpt lat="43.05557" lon="1.94742">
        <ele>344</ele>
        <time>2017-07-31T14:27:33Z</time>
      </trkpt>
      <trkpt lat="43.05557" lon="1.94742">
        <ele>344.1</ele>
        <time>2017-07-31T14:27:34Z</time>
      </trkpt>
      <trkpt lat="43.05557" lon="1.94742">
        <ele>344.3</ele>
        <time>2017-07-31T14:27:35Z</time>
      </trkpt>
      <trkpt lat="43.05557" lon="1.94742">
        <ele>344.3</ele>
        <time>2017-07-31T14:27:36Z</time>
      </trkpt>
      <trkpt lat="43.05557" lon="1.94742">
        <ele>344.4</ele>
        <time>2017-07-31T14:27:37Z</time>
      </trkpt>
      <trkpt lat="43.05557" lon="1.94742">
        <ele>344.5</ele>
        <time>2017-07-31T14:27:38Z</time>
      </trkpt>
      <trkpt lat="43.05557" lon="1.94742">
        <ele>344.5</ele>
        <time>2017-07-31T14:27:39Z</time>
      </trkpt>
      <trkpt lat="43.05557" lon="1.94742">
        <ele>344.1</ele>
        <time>2017-07-31T14:27:40Z</time>
      </trkpt>
      <trkpt lat="43.05557" lon="1.94742">
        <ele>343.8</ele>
        <time>2017-07-31T14:27:41Z</time>
      </trkpt>
      <trkpt lat="43.05557" lon="1.94742">
        <ele>343.6</ele>
        <time>2017-07-31T14:27:42Z</time>
      </trkpt>
      <trkpt lat="43.05557" lon="1.94742">
        <ele>343.6</ele>
        <time>2017-07-31T14:27:43Z</time>
      </trkpt>
      <trkpt lat="43.05557" lon="1.94742">
        <ele>343.7</ele>
        <time>2017-07-31T14:27:44Z</time>
      </trkpt>
      <trkpt lat="43.05557" lon="1.94742">
        <ele>343.7</ele>
        <time>2017-07-31T14:27:45Z</time>
      </trkpt>
      <trkpt lat="43.05557" lon="1.94742">
        <ele>343.5</ele>
        <time>2017-07-31T14:27:46Z</time>
      </trkpt>
      <trkpt lat="43.05557" lon="1.94742">
        <ele>343.3</ele>
        <time>2017-07-31T14:27:47Z</time>
      </trkpt>
      <trkpt lat="43.05557" lon="1.94742">
        <ele>343.2</ele>
        <time>2017-07-31T14:27:48Z</time>
      </trkpt>
      <trkpt lat="43.05557" lon="1.94742">
        <ele>343.1</ele>
        <time>2017-07-31T14:27:49Z</time>
      </trkpt>
      <trkpt lat="43.05546" lon="1.94743">
        <ele>343.1</ele>
        <time>2017-07-31T14:27:50Z</time>
      </trkpt>
      <trkpt lat="43.05534" lon="1.94745">
        <ele>343.4</ele>
        <time>2017-07-31T14:27:53Z</time>
      </trkpt>
      <trkpt lat="43.05529" lon="1.94744">
        <ele>343.5</ele>
        <time>2017-07-31T14:27:54Z</time>
      </trkpt>
      <trkpt lat="43.05525" lon="1.94744">
        <ele>343.6</ele>
        <time>2017-07-31T14:27:56Z</time>
      </trkpt>
      <trkpt lat="43.05525" lon="1.94744">
        <ele>343.6</ele>
        <time>2017-07-31T14:27:57Z</time>
      </trkpt>
      <trkpt lat="43.05513" lon="1.94746">
        <ele>343.7</ele>
        <time>2017-07-31T14:27:58Z</time>
      </trkpt>
      <trkpt lat="43.05506" lon="1.94746">
        <ele>343.7</ele>
        <time>2017-07-31T14:28:00Z</time>
      </trkpt>
      <trkpt lat="43.05486" lon="1.94747">
        <ele>343.7</ele>
        <time>2017-07-31T14:28:06Z</time>
      </trkpt>
      <trkpt lat="43.05482" lon="1.94747">
        <ele>344</ele>
        <time>2017-07-31T14:28:07Z</time>
      </trkpt>
      <trkpt lat="43.05417" lon="1.94743">
        <ele>345.3</ele>
        <time>2017-07-31T14:28:24Z</time>
      </trkpt>
      <trkpt lat="43.05411" lon="1.94742">
        <ele>344.9</ele>
        <time>2017-07-31T14:28:25Z</time>
      </trkpt>
      <trkpt lat="43.05296" lon="1.94705">
        <ele>344.6</ele>
        <time>2017-07-31T14:28:52Z</time>
      </trkpt>
      <trkpt lat="43.05287" lon="1.94702">
        <ele>344.6</ele>
        <time>2017-07-31T14:28:54Z</time>
      </trkpt>
      <trkpt lat="43.05283" lon="1.947">
        <ele>344.4</ele>
        <time>2017-07-31T14:28:55Z</time>
      </trkpt>
      <trkpt lat="43.05209" lon="1.94651">
        <ele>344.6</ele>
        <time>2017-07-31T14:29:17Z</time>
      </trkpt>
      <trkpt lat="43.05155" lon="1.94609">
        <ele>345.4</ele>
        <time>2017-07-31T14:29:33Z</time>
      </trkpt>
      <trkpt lat="43.05155" lon="1.94609">
        <ele>345.2</ele>
        <time>2017-07-31T14:29:34Z</time>
      </trkpt>
      <trkpt lat="43.05155" lon="1.94609">
        <ele>345.1</ele>
        <time>2017-07-31T14:29:35Z</time>
      </trkpt>
      <trkpt lat="43.05155" lon="1.94609">
        <ele>345</ele>
        <time>2017-07-31T14:29:36Z</time>
      </trkpt>
      <trkpt lat="43.05155" lon="1.94609">
        <ele>345.1</ele>
        <time>2017-07-31T14:29:37Z</time>
      </trkpt>
      <trkpt lat="43.05155" lon="1.94609">
        <ele>345.2</ele>
        <time>2017-07-31T14:29:38Z</time>
      </trkpt>
      <trkpt lat="43.05155" lon="1.94609">
        <ele>345.3</ele>
        <time>2017-07-31T14:29:39Z</time>
      </trkpt>
      <trkpt lat="43.05155" lon="1.94609">
        <ele>344.9</ele>
        <time>2017-07-31T14:29:40Z</time>
      </trkpt>
      <trkpt lat="43.05155" lon="1.94609">
        <ele>344.6</ele>
        <time>2017-07-31T14:29:41Z</time>
      </trkpt>
      <trkpt lat="43.05155" lon="1.94609">
        <ele>344.4</ele>
        <time>2017-07-31T14:29:42Z</time>
      </trkpt>
      <trkpt lat="43.05155" lon="1.94609">
        <ele>344.5</ele>
        <time>2017-07-31T14:29:43Z</time>
      </trkpt>
      <trkpt lat="43.05155" lon="1.94609">
        <ele>344.5</ele>
        <time>2017-07-31T14:29:44Z</time>
      </trkpt>
      <trkpt lat="43.05155" lon="1.94609">
        <ele>344.5</ele>
        <time>2017-07-31T14:29:45Z</time>
      </trkpt>
      <trkpt lat="43.05155" lon="1.94609">
        <ele>344.8</ele>
        <time>2017-07-31T14:29:46Z</time>
      </trkpt>
      <trkpt lat="43.05155" lon="1.94609">
        <ele>344.9</ele>
        <time>2017-07-31T14:29:47Z</time>
      </trkpt>
      <trkpt lat="43.05151" lon="1.94605">
        <ele>345.1</ele>
        <time>2017-07-31T14:29:48Z</time>
      </trkpt>
      <trkpt lat="43.05151" lon="1.94605">
        <ele>345.2</ele>
        <time>2017-07-31T14:29:49Z</time>
      </trkpt>
      <trkpt lat="43.05151" lon="1.94605">
        <ele>345.3</ele>
        <time>2017-07-31T14:29:50Z</time>
      </trkpt>
      <trkpt lat="43.05151" lon="1.94605">
        <ele>345.3</ele>
        <time>2017-07-31T14:29:51Z</time>
      </trkpt>
      <trkpt lat="43.05151" lon="1.94605">
        <ele>344.9</ele>
        <time>2017-07-31T14:29:52Z</time>
      </trkpt>
      <trkpt lat="43.05151" lon="1.94605">
        <ele>344.6</ele>
        <time>2017-07-31T14:29:53Z</time>
      </trkpt>
      <trkpt lat="43.05151" lon="1.94605">
        <ele>344.4</ele>
        <time>2017-07-31T14:29:54Z</time>
      </trkpt>
      <trkpt lat="43.05151" lon="1.94605">
        <ele>344.5</ele>
        <time>2017-07-31T14:29:55Z</time>
      </trkpt>
      <trkpt lat="43.05151" lon="1.94605">
        <ele>344.5</ele>
        <time>2017-07-31T14:29:56Z</time>
      </trkpt>
      <trkpt lat="43.05151" lon="1.94605">
        <ele>344.5</ele>
        <time>2017-07-31T14:29:57Z</time>
      </trkpt>
      <trkpt lat="43.05151" lon="1.94605">
        <ele>344.3</ele>
        <time>2017-07-31T14:29:58Z</time>
      </trkpt>
      <trkpt lat="43.05151" lon="1.94605">
        <ele>344.2</ele>
        <time>2017-07-31T14:29:59Z</time>
      </trkpt>
      <trkpt lat="43.05151" lon="1.94605">
        <ele>344.1</ele>
        <time>2017-07-31T14:30:00Z</time>
      </trkpt>
      <trkpt lat="43.05151" lon="1.94605">
        <ele>344.2</ele>
        <time>2017-07-31T14:30:01Z</time>
      </trkpt>
      <trkpt lat="43.05151" lon="1.94605">
        <ele>344.3</ele>
        <time>2017-07-31T14:30:02Z</time>
      </trkpt>
      <trkpt lat="43.05151" lon="1.94605">
        <ele>344.4</ele>
        <time>2017-07-31T14:30:03Z</time>
      </trkpt>
      <trkpt lat="43.05151" lon="1.94605">
        <ele>344.5</ele>
        <time>2017-07-31T14:30:04Z</time>
      </trkpt>
      <trkpt lat="43.05151" lon="1.94605">
        <ele>344.5</ele>
        <time>2017-07-31T14:30:05Z</time>
      </trkpt>
      <trkpt lat="43.05151" lon="1.94605">
        <ele>344.5</ele>
        <time>2017-07-31T14:30:06Z</time>
      </trkpt>
      <trkpt lat="43.05151" lon="1.94605">
        <ele>344.8</ele>
        <time>2017-07-31T14:30:07Z</time>
      </trkpt>
      <trkpt lat="43.05151" lon="1.94605">
        <ele>344.9</ele>
        <time>2017-07-31T14:30:08Z</time>
      </trkpt>
      <trkpt lat="43.05144" lon="1.946">
        <ele>345.1</ele>
        <time>2017-07-31T14:30:09Z</time>
      </trkpt>
      <trkpt lat="43.04895" lon="1.94408">
        <ele>346.4</ele>
        <time>2017-07-31T14:31:17Z</time>
      </trkpt>
      <trkpt lat="43.04892" lon="1.94405">
        <ele>346.4</ele>
        <time>2017-07-31T14:31:18Z</time>
      </trkpt>
      <trkpt lat="43.04825" lon="1.9437">
        <ele>347.2</ele>
        <time>2017-07-31T14:31:35Z</time>
      </trkpt>
      <trkpt lat="43.0474" lon="1.94343">
        <ele>347.1</ele>
        <time>2017-07-31T14:31:54Z</time>
      </trkpt>
      <trkpt lat="43.04729" lon="1.94342">
        <ele>347.5</ele>
        <time>2017-07-31T14:31:56Z</time>
      </trkpt>
      <trkpt lat="43.04651" lon="1.9433">
        <ele>348.7</ele>
        <time>2017-07-31T14:32:14Z</time>
      </trkpt>
      <trkpt lat="43.04243" lon="1.94268">
        <ele>348.2</ele>
        <time>2017-07-31T14:33:41Z</time>
      </trkpt>
      <trkpt lat="43.04243" lon="1.94268">
        <ele>348.2</ele>
        <time>2017-07-31T14:33:42Z</time>
      </trkpt>
      <trkpt lat="43.04243" lon="1.94268">
        <ele>348.2</ele>
        <time>2017-07-31T14:33:43Z</time>
      </trkpt>
      <trkpt lat="43.04243" lon="1.94268">
        <ele>348.1</ele>
        <time>2017-07-31T14:33:44Z</time>
      </trkpt>
      <trkpt lat="43.04243" lon="1.94268">
        <ele>348.1</ele>
        <time>2017-07-31T14:33:45Z</time>
      </trkpt>
      <trkpt lat="43.04243" lon="1.94268">
        <ele>348.1</ele>
        <time>2017-07-31T14:33:46Z</time>
      </trkpt>
      <trkpt lat="43.04243" lon="1.94268">
        <ele>348.1</ele>
        <time>2017-07-31T14:33:47Z</time>
      </trkpt>
      <trkpt lat="43.04243" lon="1.94268">
        <ele>348.1</ele>
        <time>2017-07-31T14:33:48Z</time>
      </trkpt>
      <trkpt lat="43.04243" lon="1.94268">
        <ele>348.3</ele>
        <time>2017-07-31T14:33:49Z</time>
      </trkpt>
      <trkpt lat="43.04243" lon="1.94268">
        <ele>348.5</ele>
        <time>2017-07-31T14:33:50Z</time>
      </trkpt>
      <trkpt lat="43.04243" lon="1.94268">
        <ele>348.6</ele>
        <time>2017-07-31T14:33:51Z</time>
      </trkpt>
      <trkpt lat="43.04243" lon="1.94268">
        <ele>348.7</ele>
        <time>2017-07-31T14:33:52Z</time>
      </trkpt>
      <trkpt lat="43.04243" lon="1.94268">
        <ele>348.7</ele>
        <time>2017-07-31T14:33:53Z</time>
      </trkpt>
      <trkpt lat="43.04243" lon="1.94268">
        <ele>348.8</ele>
        <time>2017-07-31T14:33:54Z</time>
      </trkpt>
      <trkpt lat="43.04243" lon="1.94268">
        <ele>348.8</ele>
        <time>2017-07-31T14:33:55Z</time>
      </trkpt>
      <trkpt lat="43.04243" lon="1.94268">
        <ele>348.8</ele>
        <time>2017-07-31T14:33:56Z</time>
      </trkpt>
      <trkpt lat="43.04243" lon="1.94268">
        <ele>348.9</ele>
        <time>2017-07-31T14:33:57Z</time>
      </trkpt>
      <trkpt lat="43.04243" lon="1.94268">
        <ele>348.7</ele>
        <time>2017-07-31T14:33:58Z</time>
      </trkpt>
      <trkpt lat="43.04243" lon="1.94268">
        <ele>348.5</ele>
        <time>2017-07-31T14:33:59Z</time>
      </trkpt>
      <trkpt lat="43.04243" lon="1.94268">
        <ele>348.4</ele>
        <time>2017-07-31T14:34:00Z</time>
      </trkpt>
      <trkpt lat="43.04243" lon="1.94268">
        <ele>348.5</ele>
        <time>2017-07-31T14:34:01Z</time>
      </trkpt>
      <trkpt lat="43.04243" lon="1.94268">
        <ele>348.6</ele>
        <time>2017-07-31T14:34:02Z</time>
      </trkpt>
      <trkpt lat="43.04243" lon="1.94268">
        <ele>348.7</ele>
        <time>2017-07-31T14:34:03Z</time>
      </trkpt>
      <trkpt lat="43.04237" lon="1.94267">
        <ele>348.8</ele>
        <time>2017-07-31T14:34:04Z</time>
      </trkpt>
      <trkpt lat="43.03823" lon="1.9422">
        <ele>350.2</ele>
        <time>2017-07-31T14:35:38Z</time>
      </trkpt>
      <trkpt lat="43.03819" lon="1.94219">
        <ele>350.3</ele>
        <time>2017-07-31T14:35:39Z</time>
      </trkpt>
      <trkpt lat="43.03608" lon="1.94198">
        <ele>352.3</ele>
        <time>2017-07-31T14:36:25Z</time>
      </trkpt>
      <trkpt lat="43.03547" lon="1.94219">
        <ele>353.5</ele>
        <time>2017-07-31T14:36:39Z</time>
      </trkpt>
      <trkpt lat="43.03523" lon="1.94233">
        <ele>352.8</ele>
        <time>2017-07-31T14:36:45Z</time>
      </trkpt>
      <trkpt lat="43.03519" lon="1.94236">
        <ele>352.7</ele>
        <time>2017-07-31T14:36:46Z</time>
      </trkpt>
      <trkpt lat="43.03457" lon="1.94284">
        <ele>353.5</ele>
        <time>2017-07-31T14:37:04Z</time>
      </trkpt>
      <trkpt lat="43.03451" lon="1.9429">
        <ele>353</ele>
        <time>2017-07-31T14:37:06Z</time>
      </trkpt>
      <trkpt lat="43.03417" lon="1.9433">
        <ele>353.1</ele>
        <time>2017-07-31T14:37:17Z</time>
      </trkpt>
      <trkpt lat="43.03414" lon="1.94335">
        <ele>353.1</ele>
        <time>2017-07-31T14:37:18Z</time>
      </trkpt>
      <trkpt lat="43.03351" lon="1.94428">
        <ele>354.9</ele>
        <time>2017-07-31T14:37:38Z</time>
      </trkpt>
      <trkpt lat="43.03348" lon="1.94433">
        <ele>354.9</ele>
        <time>2017-07-31T14:37:39Z</time>
      </trkpt>
      <trkpt lat="43.03305" lon="1.94542">
        <ele>355</ele>
        <time>2017-07-31T14:38:01Z</time>
      </trkpt>
      <trkpt lat="43.03303" lon="1.94547">
        <ele>355.4</ele>
        <time>2017-07-31T14:38:02Z</time>
      </trkpt>
      <trkpt lat="43.03275" lon="1.94626">
        <ele>355.8</ele>
        <time>2017-07-31T14:38:17Z</time>
      </trkpt>
      <trkpt lat="43.03195" lon="1.94818">
        <ele>356.2</ele>
        <time>2017-07-31T14:38:53Z</time>
      </trkpt>
      <trkpt lat="43.03192" lon="1.94823">
        <ele>356.3</ele>
        <time>2017-07-31T14:38:54Z</time>
      </trkpt>
      <trkpt lat="43.0317" lon="1.94863">
        <ele>357</ele>
        <time>2017-07-31T14:39:02Z</time>
      </trkpt>
      <trkpt lat="43.03168" lon="1.94868">
        <ele>357.2</ele>
        <time>2017-07-31T14:39:03Z</time>
      </trkpt>
      <trkpt lat="43.03108" lon="1.94993">
        <ele>357.6</ele>
        <time>2017-07-31T14:39:29Z</time>
      </trkpt>
      <trkpt lat="43.03077" lon="1.95045">
        <ele>358.4</ele>
        <time>2017-07-31T14:39:41Z</time>
      </trkpt>
      <trkpt lat="43.03039" lon="1.95086">
        <ele>359</ele>
        <time>2017-07-31T14:39:53Z</time>
      </trkpt>
      <trkpt lat="43.02752" lon="1.95399">
        <ele>361.5</ele>
        <time>2017-07-31T14:41:16Z</time>
      </trkpt>
      <trkpt lat="43.02749" lon="1.95403">
        <ele>361.8</ele>
        <time>2017-07-31T14:41:17Z</time>
      </trkpt>
      <trkpt lat="43.02727" lon="1.95439">
        <ele>362.1</ele>
        <time>2017-07-31T14:41:24Z</time>
      </trkpt>
      <trkpt lat="43.02697" lon="1.95499">
        <ele>362.2</ele>
        <time>2017-07-31T14:41:36Z</time>
      </trkpt>
      <trkpt lat="43.02683" lon="1.95546">
        <ele>362.3</ele>
        <time>2017-07-31T14:41:44Z</time>
      </trkpt>
      <trkpt lat="43.02648" lon="1.9568">
        <ele>345.4</ele>
        <time>2017-07-31T14:42:09Z</time>
      </trkpt>
      <trkpt lat="43.02642" lon="1.95712">
        <ele>345.4</ele>
        <time>2017-07-31T14:42:15Z</time>
      </trkpt>
      <trkpt lat="43.02637" lon="1.95754">
        <ele>345.6</ele>
        <time>2017-07-31T14:42:22Z</time>
      </trkpt>
      <trkpt lat="43.02637" lon="1.9576">
        <ele>345.7</ele>
        <time>2017-07-31T14:42:23Z</time>
      </trkpt>
      <trkpt lat="43.02601" lon="1.9605">
        <ele>346.2</ele>
        <time>2017-07-31T14:43:15Z</time>
      </trkpt>
      <trkpt lat="43.02585" lon="1.96123">
        <ele>347.4</ele>
        <time>2017-07-31T14:43:29Z</time>
      </trkpt>
      <trkpt lat="43.02584" lon="1.96126">
        <ele>347.5</ele>
        <time>2017-07-31T14:43:30Z</time>
      </trkpt>
      <trkpt lat="43.02577" lon="1.96145">
        <ele>347.2</ele>
        <time>2017-07-31T14:43:36Z</time>
      </trkpt>
      <trkpt lat="43.02562" lon="1.96178">
        <ele>346.5</ele>
        <time>2017-07-31T14:43:44Z</time>
      </trkpt>
      <trkpt lat="43.02528" lon="1.96239">
        <ele>347.4</ele>
        <time>2017-07-31T14:43:59Z</time>
      </trkpt>
      <trkpt lat="43.02498" lon="1.96287">
        <ele>347.4</ele>
        <time>2017-07-31T14:44:11Z</time>
      </trkpt>
      <trkpt lat="43.0248" lon="1.96309">
        <ele>348.2</ele>
        <time>2017-07-31T14:44:17Z</time>
      </trkpt>
      <trkpt lat="43.02446" lon="1.96342">
        <ele>349.1</ele>
        <time>2017-07-31T14:44:28Z</time>
      </trkpt>
      <trkpt lat="43.02401" lon="1.96376">
        <ele>349.2</ele>
        <time>2017-07-31T14:44:41Z</time>
      </trkpt>
      <trkpt lat="43.02397" lon="1.96378">
        <ele>349.1</ele>
        <time>2017-07-31T14:44:42Z</time>
      </trkpt>
      <trkpt lat="43.02314" lon="1.96414">
        <ele>348.5</ele>
        <time>2017-07-31T14:45:06Z</time>
      </trkpt>
      <trkpt lat="43.02307" lon="1.96415">
        <ele>348.7</ele>
        <time>2017-07-31T14:45:08Z</time>
      </trkpt>
      <trkpt lat="43.02304" lon="1.96415">
        <ele>348.9</ele>
        <time>2017-07-31T14:45:10Z</time>
      </trkpt>
      <trkpt lat="43.02304" lon="1.96415">
        <ele>349.1</ele>
        <time>2017-07-31T14:45:11Z</time>
      </trkpt>
      <trkpt lat="43.02294" lon="1.96415">
        <ele>349.3</ele>
        <time>2017-07-31T14:45:12Z</time>
      </trkpt>
      <trkpt lat="43.02294" lon="1.96415">
        <ele>349.1</ele>
        <time>2017-07-31T14:45:13Z</time>
      </trkpt>
      <trkpt lat="43.02294" lon="1.96415">
        <ele>349.1</ele>
        <time>2017-07-31T14:45:14Z</time>
      </trkpt>
      <trkpt lat="43.02284" lon="1.96415">
        <ele>349</ele>
        <time>2017-07-31T14:45:15Z</time>
      </trkpt>
      <trkpt lat="43.02284" lon="1.96415">
        <ele>349.2</ele>
        <time>2017-07-31T14:45:16Z</time>
      </trkpt>
      <trkpt lat="43.02284" lon="1.96415">
        <ele>349.3</ele>
        <time>2017-07-31T14:45:17Z</time>
      </trkpt>
      <trkpt lat="43.02284" lon="1.96415">
        <ele>349.4</ele>
        <time>2017-07-31T14:45:18Z</time>
      </trkpt>
      <trkpt lat="43.02284" lon="1.96415">
        <ele>349</ele>
        <time>2017-07-31T14:45:19Z</time>
      </trkpt>
      <trkpt lat="43.02284" lon="1.96415">
        <ele>348.8</ele>
        <time>2017-07-31T14:45:20Z</time>
      </trkpt>
      <trkpt lat="43.02284" lon="1.96415">
        <ele>348.6</ele>
        <time>2017-07-31T14:45:21Z</time>
      </trkpt>
      <trkpt lat="43.02284" lon="1.96415">
        <ele>348.6</ele>
        <time>2017-07-31T14:45:22Z</time>
      </trkpt>
      <trkpt lat="43.02284" lon="1.96415">
        <ele>348.7</ele>
        <time>2017-07-31T14:45:23Z</time>
      </trkpt>
      <trkpt lat="43.02279" lon="1.96414">
        <ele>348.7</ele>
        <time>2017-07-31T14:45:24Z</time>
      </trkpt>
      <trkpt lat="43.02279" lon="1.96414">
        <ele>348.5</ele>
        <time>2017-07-31T14:45:25Z</time>
      </trkpt>
      <trkpt lat="43.02279" lon="1.96414">
        <ele>348.4</ele>
        <time>2017-07-31T14:45:26Z</time>
      </trkpt>
      <trkpt lat="43.02279" lon="1.96414">
        <ele>348.3</ele>
        <time>2017-07-31T14:45:27Z</time>
      </trkpt>
      <trkpt lat="43.02279" lon="1.96414">
        <ele>348.4</ele>
        <time>2017-07-31T14:45:28Z</time>
      </trkpt>
      <trkpt lat="43.02279" lon="1.96414">
        <ele>348.5</ele>
        <time>2017-07-31T14:45:29Z</time>
      </trkpt>
      <trkpt lat="43.02279" lon="1.96414">
        <ele>348.6</ele>
        <time>2017-07-31T14:45:30Z</time>
      </trkpt>
      <trkpt lat="43.02279" lon="1.96414">
        <ele>348.6</ele>
        <time>2017-07-31T14:45:31Z</time>
      </trkpt>
      <trkpt lat="43.02279" lon="1.96414">
        <ele>348.7</ele>
        <time>2017-07-31T14:45:32Z</time>
      </trkpt>
      <trkpt lat="43.02279" lon="1.96414">
        <ele>348.7</ele>
        <time>2017-07-31T14:45:33Z</time>
      </trkpt>
      <trkpt lat="43.02279" lon="1.96414">
        <ele>348.5</ele>
        <time>2017-07-31T14:45:34Z</time>
      </trkpt>
      <trkpt lat="43.02279" lon="1.96414">
        <ele>348.4</ele>
        <time>2017-07-31T14:45:35Z</time>
      </trkpt>
      <trkpt lat="43.02279" lon="1.96414">
        <ele>348.3</ele>
        <time>2017-07-31T14:45:36Z</time>
      </trkpt>
      <trkpt lat="43.02279" lon="1.96414">
        <ele>348</ele>
        <time>2017-07-31T14:45:37Z</time>
      </trkpt>
      <trkpt lat="43.02279" lon="1.96414">
        <ele>347.7</ele>
        <time>2017-07-31T14:45:38Z</time>
      </trkpt>
      <trkpt lat="43.02279" lon="1.96414">
        <ele>347.6</ele>
        <time>2017-07-31T14:45:39Z</time>
      </trkpt>
      <trkpt lat="43.02279" lon="1.96414">
        <ele>347.9</ele>
        <time>2017-07-31T14:45:40Z</time>
      </trkpt>
      <trkpt lat="43.02279" lon="1.96414">
        <ele>348.1</ele>
        <time>2017-07-31T14:45:41Z</time>
      </trkpt>
      <trkpt lat="43.02279" lon="1.96414">
        <ele>348.3</ele>
        <time>2017-07-31T14:45:42Z</time>
      </trkpt>
      <trkpt lat="43.02279" lon="1.96414">
        <ele>348.6</ele>
        <time>2017-07-31T14:45:43Z</time>
      </trkpt>
      <trkpt lat="43.02279" lon="1.96414">
        <ele>348.9</ele>
        <time>2017-07-31T14:45:44Z</time>
      </trkpt>
      <trkpt lat="43.02279" lon="1.96414">
        <ele>349.1</ele>
        <time>2017-07-31T14:45:45Z</time>
      </trkpt>
      <trkpt lat="43.02279" lon="1.96414">
        <ele>349</ele>
        <time>2017-07-31T14:45:46Z</time>
      </trkpt>
      <trkpt lat="43.02279" lon="1.96414">
        <ele>349</ele>
        <time>2017-07-31T14:45:47Z</time>
      </trkpt>
      <trkpt lat="43.02279" lon="1.96414">
        <ele>348.9</ele>
        <time>2017-07-31T14:45:48Z</time>
      </trkpt>
      <trkpt lat="43.02279" lon="1.96414">
        <ele>349.1</ele>
        <time>2017-07-31T14:45:49Z</time>
      </trkpt>
      <trkpt lat="43.02279" lon="1.96414">
        <ele>349.3</ele>
        <time>2017-07-31T14:45:50Z</time>
      </trkpt>
      <trkpt lat="43.02279" lon="1.96414">
        <ele>349.4</ele>
        <time>2017-07-31T14:45:51Z</time>
      </trkpt>
      <trkpt lat="43.02279" lon="1.96414">
        <ele>349.4</ele>
        <time>2017-07-31T14:45:52Z</time>
      </trkpt>
      <trkpt lat="43.02279" lon="1.96414">
        <ele>349.5</ele>
        <time>2017-07-31T14:45:53Z</time>
      </trkpt>
      <trkpt lat="43.02279" lon="1.96414">
        <ele>349.5</ele>
        <time>2017-07-31T14:45:54Z</time>
      </trkpt>
      <trkpt lat="43.02279" lon="1.96414">
        <ele>349.8</ele>
        <time>2017-07-31T14:45:55Z</time>
      </trkpt>
      <trkpt lat="43.02279" lon="1.96414">
        <ele>350</ele>
        <time>2017-07-31T14:45:56Z</time>
      </trkpt>
      <trkpt lat="43.02279" lon="1.96414">
        <ele>350.1</ele>
        <time>2017-07-31T14:45:57Z</time>
      </trkpt>
      <trkpt lat="43.02279" lon="1.96414">
        <ele>350</ele>
        <time>2017-07-31T14:45:58Z</time>
      </trkpt>
      <trkpt lat="43.02279" lon="1.96414">
        <ele>349.9</ele>
        <time>2017-07-31T14:45:59Z</time>
      </trkpt>
      <trkpt lat="43.02279" lon="1.96414">
        <ele>349.9</ele>
        <time>2017-07-31T14:46:00Z</time>
      </trkpt>
      <trkpt lat="43.02279" lon="1.96414">
        <ele>349.8</ele>
        <time>2017-07-31T14:46:01Z</time>
      </trkpt>
      <trkpt lat="43.02279" lon="1.96414">
        <ele>349.8</ele>
        <time>2017-07-31T14:46:02Z</time>
      </trkpt>
      <trkpt lat="43.02279" lon="1.96414">
        <ele>349.8</ele>
        <time>2017-07-31T14:46:03Z</time>
      </trkpt>
      <trkpt lat="43.02279" lon="1.96414">
        <ele>349.5</ele>
        <time>2017-07-31T14:46:04Z</time>
      </trkpt>
      <trkpt lat="43.02279" lon="1.96414">
        <ele>349.3</ele>
        <time>2017-07-31T14:46:05Z</time>
      </trkpt>
      <trkpt lat="43.02279" lon="1.96414">
        <ele>349.2</ele>
        <time>2017-07-31T14:46:06Z</time>
      </trkpt>
      <trkpt lat="43.02279" lon="1.96414">
        <ele>349.1</ele>
        <time>2017-07-31T14:46:07Z</time>
      </trkpt>
      <trkpt lat="43.02279" lon="1.96414">
        <ele>349</ele>
        <time>2017-07-31T14:46:08Z</time>
      </trkpt>
      <trkpt lat="43.02279" lon="1.96414">
        <ele>349</ele>
        <time>2017-07-31T14:46:09Z</time>
      </trkpt>
      <trkpt lat="43.02279" lon="1.96414">
        <ele>349.2</ele>
        <time>2017-07-31T14:46:10Z</time>
      </trkpt>
      <trkpt lat="43.02279" lon="1.96414">
        <ele>349.3</ele>
        <time>2017-07-31T14:46:11Z</time>
      </trkpt>
      <trkpt lat="43.02279" lon="1.96414">
        <ele>349.4</ele>
        <time>2017-07-31T14:46:12Z</time>
      </trkpt>
      <trkpt lat="43.02279" lon="1.96414">
        <ele>349</ele>
        <time>2017-07-31T14:46:13Z</time>
      </trkpt>
      <trkpt lat="43.02279" lon="1.96414">
        <ele>348.8</ele>
        <time>2017-07-31T14:46:14Z</time>
      </trkpt>
      <trkpt lat="43.02279" lon="1.96414">
        <ele>348.6</ele>
        <time>2017-07-31T14:46:15Z</time>
      </trkpt>
      <trkpt lat="43.02279" lon="1.96414">
        <ele>348.8</ele>
        <time>2017-07-31T14:46:16Z</time>
      </trkpt>
      <trkpt lat="43.02279" lon="1.96414">
        <ele>349</ele>
        <time>2017-07-31T14:46:17Z</time>
      </trkpt>
      <trkpt lat="43.02279" lon="1.96414">
        <ele>349.2</ele>
        <time>2017-07-31T14:46:18Z</time>
      </trkpt>
      <trkpt lat="43.02279" lon="1.96414">
        <ele>349.1</ele>
        <time>2017-07-31T14:46:19Z</time>
      </trkpt>
      <trkpt lat="43.02279" lon="1.96414">
        <ele>349</ele>
        <time>2017-07-31T14:46:20Z</time>
      </trkpt>
      <trkpt lat="43.02279" lon="1.96414">
        <ele>349</ele>
        <time>2017-07-31T14:46:21Z</time>
      </trkpt>
      <trkpt lat="43.02279" lon="1.96414">
        <ele>348.7</ele>
        <time>2017-07-31T14:46:22Z</time>
      </trkpt>
      <trkpt lat="43.02279" lon="1.96414">
        <ele>348.5</ele>
        <time>2017-07-31T14:46:23Z</time>
      </trkpt>
      <trkpt lat="43.02279" lon="1.96414">
        <ele>348.4</ele>
        <time>2017-07-31T14:46:24Z</time>
      </trkpt>
      <trkpt lat="43.02279" lon="1.96414">
        <ele>348.5</ele>
        <time>2017-07-31T14:46:25Z</time>
      </trkpt>
      <trkpt lat="43.02279" lon="1.96414">
        <ele>348.6</ele>
        <time>2017-07-31T14:46:26Z</time>
      </trkpt>
      <trkpt lat="43.02279" lon="1.96414">
        <ele>348.6</ele>
        <time>2017-07-31T14:46:27Z</time>
      </trkpt>
      <trkpt lat="43.02279" lon="1.96414">
        <ele>348.5</ele>
        <time>2017-07-31T14:46:28Z</time>
      </trkpt>
      <trkpt lat="43.02279" lon="1.96414">
        <ele>348.3</ele>
        <time>2017-07-31T14:46:29Z</time>
      </trkpt>
      <trkpt lat="43.02279" lon="1.96414">
        <ele>348.2</ele>
        <time>2017-07-31T14:46:30Z</time>
      </trkpt>
      <trkpt lat="43.02279" lon="1.96414">
        <ele>348.6</ele>
        <time>2017-07-31T14:46:31Z</time>
      </trkpt>
      <trkpt lat="43.02279" lon="1.96414">
        <ele>348.9</ele>
        <time>2017-07-31T14:46:32Z</time>
      </trkpt>
      <trkpt lat="43.02279" lon="1.96414">
        <ele>349.1</ele>
        <time>2017-07-31T14:46:33Z</time>
      </trkpt>
      <trkpt lat="43.02279" lon="1.96414">
        <ele>349.2</ele>
        <time>2017-07-31T14:46:34Z</time>
      </trkpt>
      <trkpt lat="43.02279" lon="1.96414">
        <ele>349.3</ele>
        <time>2017-07-31T14:46:35Z</time>
      </trkpt>
      <trkpt lat="43.02279" lon="1.96414">
        <ele>349.4</ele>
        <time>2017-07-31T14:46:36Z</time>
      </trkpt>
      <trkpt lat="43.02279" lon="1.96414">
        <ele>349.7</ele>
        <time>2017-07-31T14:46:37Z</time>
      </trkpt>
      <trkpt lat="43.02279" lon="1.96414">
        <ele>349.9</ele>
        <time>2017-07-31T14:46:38Z</time>
      </trkpt>
      <trkpt lat="43.02279" lon="1.96414">
        <ele>350.1</ele>
        <time>2017-07-31T14:46:39Z</time>
      </trkpt>
      <trkpt lat="43.02279" lon="1.96414">
        <ele>350.2</ele>
        <time>2017-07-31T14:46:40Z</time>
      </trkpt>
      <trkpt lat="43.02279" lon="1.96414">
        <ele>350.3</ele>
        <time>2017-07-31T14:46:41Z</time>
      </trkpt>
      <trkpt lat="43.02279" lon="1.96414">
        <ele>350.3</ele>
        <time>2017-07-31T14:46:42Z</time>
      </trkpt>
      <trkpt lat="43.02279" lon="1.96414">
        <ele>350</ele>
        <time>2017-07-31T14:46:43Z</time>
      </trkpt>
      <trkpt lat="43.02279" lon="1.96414">
        <ele>349.7</ele>
        <time>2017-07-31T14:46:44Z</time>
      </trkpt>
      <trkpt lat="43.02279" lon="1.96414">
        <ele>349.5</ele>
        <time>2017-07-31T14:46:45Z</time>
      </trkpt>
      <trkpt lat="43.02279" lon="1.96414">
        <ele>349.3</ele>
        <time>2017-07-31T14:46:46Z</time>
      </trkpt>
      <trkpt lat="43.02279" lon="1.96414">
        <ele>349.2</ele>
        <time>2017-07-31T14:46:47Z</time>
      </trkpt>
      <trkpt lat="43.02279" lon="1.96414">
        <ele>349.1</ele>
        <time>2017-07-31T14:46:48Z</time>
      </trkpt>
      <trkpt lat="43.02279" lon="1.96414">
        <ele>349.2</ele>
        <time>2017-07-31T14:46:49Z</time>
      </trkpt>
      <trkpt lat="43.02279" lon="1.96414">
        <ele>349.3</ele>
        <time>2017-07-31T14:46:50Z</time>
      </trkpt>
      <trkpt lat="43.02279" lon="1.96414">
        <ele>349.4</ele>
        <time>2017-07-31T14:46:51Z</time>
      </trkpt>
      <trkpt lat="43.02279" lon="1.96414">
        <ele>349.7</ele>
        <time>2017-07-31T14:46:52Z</time>
      </trkpt>
      <trkpt lat="43.02279" lon="1.96414">
        <ele>349.9</ele>
        <time>2017-07-31T14:46:53Z</time>
      </trkpt>
      <trkpt lat="43.02272" lon="1.96411">
        <ele>350.1</ele>
        <time>2017-07-31T14:46:54Z</time>
      </trkpt>
      <trkpt lat="43.02272" lon="1.96411">
        <ele>350.2</ele>
        <time>2017-07-31T14:46:55Z</time>
      </trkpt>
      <trkpt lat="43.02266" lon="1.96409">
        <ele>350.3</ele>
        <time>2017-07-31T14:46:56Z</time>
      </trkpt>
      <trkpt lat="43.02266" lon="1.96409">
        <ele>350.3</ele>
        <time>2017-07-31T14:46:57Z</time>
      </trkpt>
      <trkpt lat="43.0226" lon="1.96408">
        <ele>350.4</ele>
        <time>2017-07-31T14:46:58Z</time>
      </trkpt>
      <trkpt lat="43.02256" lon="1.96408">
        <ele>350.5</ele>
        <time>2017-07-31T14:47:00Z</time>
      </trkpt>
      <trkpt lat="43.02256" lon="1.96408">
        <ele>350.5</ele>
        <time>2017-07-31T14:47:01Z</time>
      </trkpt>
      <trkpt lat="43.02256" lon="1.96408">
        <ele>350.5</ele>
        <time>2017-07-31T14:47:02Z</time>
      </trkpt>
      <trkpt lat="43.02249" lon="1.96408">
        <ele>350.5</ele>
        <time>2017-07-31T14:47:03Z</time>
      </trkpt>
      <trkpt lat="43.02249" lon="1.96408">
        <ele>350.5</ele>
        <time>2017-07-31T14:47:04Z</time>
      </trkpt>
      <trkpt lat="43.02249" lon="1.96408">
        <ele>350.5</ele>
        <time>2017-07-31T14:47:05Z</time>
      </trkpt>
      <trkpt lat="43.02245" lon="1.96408">
        <ele>350.5</ele>
        <time>2017-07-31T14:47:06Z</time>
      </trkpt>
      <trkpt lat="43.02245" lon="1.96408">
        <ele>350.5</ele>
        <time>2017-07-31T14:47:07Z</time>
      </trkpt>
      <trkpt lat="43.02245" lon="1.96408">
        <ele>350.5</ele>
        <time>2017-07-31T14:47:08Z</time>
      </trkpt>
      <trkpt lat="43.02245" lon="1.96408">
        <ele>350.5</ele>
        <time>2017-07-31T14:47:09Z</time>
      </trkpt>
      <trkpt lat="43.02239" lon="1.96408">
        <ele>350.3</ele>
        <time>2017-07-31T14:47:10Z</time>
      </trkpt>
      <trkpt lat="43.02239" lon="1.96408">
        <ele>350</ele>
        <time>2017-07-31T14:47:12Z</time>
      </trkpt>
      <trkpt lat="43.02239" lon="1.96408">
        <ele>349.9</ele>
        <time>2017-07-31T14:47:13Z</time>
      </trkpt>
      <trkpt lat="43.02239" lon="1.96408">
        <ele>349.9</ele>
        <time>2017-07-31T14:47:14Z</time>
      </trkpt>
      <trkpt lat="43.02239" lon="1.96408">
        <ele>349.8</ele>
        <time>2017-07-31T14:47:15Z</time>
      </trkpt>
      <trkpt lat="43.02239" lon="1.96408">
        <ele>349.6</ele>
        <time>2017-07-31T14:47:16Z</time>
      </trkpt>
      <trkpt lat="43.02237" lon="1.96407">
        <ele>349.4</ele>
        <time>2017-07-31T14:47:17Z</time>
      </trkpt>
      <trkpt lat="43.02237" lon="1.96407">
        <ele>349.2</ele>
        <time>2017-07-31T14:47:18Z</time>
      </trkpt>
      <trkpt lat="43.02237" lon="1.96406">
        <ele>349.1</ele>
        <time>2017-07-31T14:47:19Z</time>
      </trkpt>
      <trkpt lat="43.02236" lon="1.96406">
        <ele>349.1</ele>
        <time>2017-07-31T14:47:20Z</time>
      </trkpt>
      <trkpt lat="43.02235" lon="1.96402">
        <ele>348.8</ele>
        <time>2017-07-31T14:47:26Z</time>
      </trkpt>
      <trkpt lat="43.02235" lon="1.96402">
        <ele>348.6</ele>
        <time>2017-07-31T14:47:27Z</time>
      </trkpt>
      <trkpt lat="43.02235" lon="1.96402">
        <ele>349.1</ele>
        <time>2017-07-31T14:47:28Z</time>
      </trkpt>
      <trkpt lat="43.02235" lon="1.96402">
        <ele>349.4</ele>
        <time>2017-07-31T14:47:29Z</time>
      </trkpt>
      <trkpt lat="43.02235" lon="1.96402">
        <ele>349.7</ele>
        <time>2017-07-31T14:47:30Z</time>
      </trkpt>
      <trkpt lat="43.02235" lon="1.96402">
        <ele>349.7</ele>
        <time>2017-07-31T14:47:31Z</time>
      </trkpt>
      <trkpt lat="43.02235" lon="1.96403">
        <ele>349.7</ele>
        <time>2017-07-31T14:47:32Z</time>
      </trkpt>
      <trkpt lat="43.02237" lon="1.96404">
        <ele>349.7</ele>
        <time>2017-07-31T14:47:35Z</time>
      </trkpt>
      <trkpt lat="43.02237" lon="1.96404">
        <ele>349.7</ele>
        <time>2017-07-31T14:47:36Z</time>
      </trkpt>
      <trkpt lat="43.02238" lon="1.96404">
        <ele>349.9</ele>
        <time>2017-07-31T14:47:37Z</time>
      </trkpt>
      <trkpt lat="43.02238" lon="1.96404">
        <ele>350.1</ele>
        <time>2017-07-31T14:47:38Z</time>
      </trkpt>
      <trkpt lat="43.02238" lon="1.96404">
        <ele>350.2</ele>
        <time>2017-07-31T14:47:39Z</time>
      </trkpt>
      <trkpt lat="43.02239" lon="1.96403">
        <ele>349.8</ele>
        <time>2017-07-31T14:47:40Z</time>
      </trkpt>
      <trkpt lat="43.02239" lon="1.96403">
        <ele>349.6</ele>
        <time>2017-07-31T14:47:41Z</time>
      </trkpt>
      <trkpt lat="43.02239" lon="1.96403">
        <ele>349.4</ele>
        <time>2017-07-31T14:47:42Z</time>
      </trkpt>
      <trkpt lat="43.02239" lon="1.96403">
        <ele>349.2</ele>
        <time>2017-07-31T14:47:43Z</time>
      </trkpt>
      <trkpt lat="43.0224" lon="1.96402">
        <ele>349.1</ele>
        <time>2017-07-31T14:47:44Z</time>
      </trkpt>
      <trkpt lat="43.0224" lon="1.96402">
        <ele>349.1</ele>
        <time>2017-07-31T14:47:45Z</time>
      </trkpt>
      <trkpt lat="43.02241" lon="1.96402">
        <ele>349.2</ele>
        <time>2017-07-31T14:47:46Z</time>
      </trkpt>
      <trkpt lat="43.02241" lon="1.96401">
        <ele>349.3</ele>
        <time>2017-07-31T14:47:47Z</time>
      </trkpt>
      <trkpt lat="43.02241" lon="1.96401">
        <ele>349.4</ele>
        <time>2017-07-31T14:47:48Z</time>
      </trkpt>
      <trkpt lat="43.02242" lon="1.96401">
        <ele>349</ele>
        <time>2017-07-31T14:47:49Z</time>
      </trkpt>
      <trkpt lat="43.02242" lon="1.96402">
        <ele>348.8</ele>
        <time>2017-07-31T14:47:50Z</time>
      </trkpt>
      <trkpt lat="43.02243" lon="1.96402">
        <ele>348.6</ele>
        <time>2017-07-31T14:47:51Z</time>
      </trkpt>
      <trkpt lat="43.02243" lon="1.96402">
        <ele>349.1</ele>
        <time>2017-07-31T14:47:52Z</time>
      </trkpt>
      <trkpt lat="43.02244" lon="1.96402">
        <ele>349.4</ele>
        <time>2017-07-31T14:47:53Z</time>
      </trkpt>
      <trkpt lat="43.02244" lon="1.96402">
        <ele>349.7</ele>
        <time>2017-07-31T14:47:54Z</time>
      </trkpt>
      <trkpt lat="43.02244" lon="1.96402">
        <ele>349.5</ele>
        <time>2017-07-31T14:47:55Z</time>
      </trkpt>
      <trkpt lat="43.02245" lon="1.96402">
        <ele>349.3</ele>
        <time>2017-07-31T14:47:56Z</time>
      </trkpt>
      <trkpt lat="43.02245" lon="1.96402">
        <ele>349.2</ele>
        <time>2017-07-31T14:47:57Z</time>
      </trkpt>
      <trkpt lat="43.02246" lon="1.96402">
        <ele>349.1</ele>
        <time>2017-07-31T14:47:58Z</time>
      </trkpt>
      <trkpt lat="43.02246" lon="1.96402">
        <ele>349</ele>
        <time>2017-07-31T14:47:59Z</time>
      </trkpt>
      <trkpt lat="43.02246" lon="1.96402">
        <ele>349</ele>
        <time>2017-07-31T14:48:00Z</time>
      </trkpt>
      <trkpt lat="43.02246" lon="1.96402">
        <ele>348.9</ele>
        <time>2017-07-31T14:48:01Z</time>
      </trkpt>
      <trkpt lat="43.02246" lon="1.96402">
        <ele>348.9</ele>
        <time>2017-07-31T14:48:02Z</time>
      </trkpt>
      <trkpt lat="43.02246" lon="1.96402">
        <ele>348.9</ele>
        <time>2017-07-31T14:48:03Z</time>
      </trkpt>
      <trkpt lat="43.02246" lon="1.96402">
        <ele>349.1</ele>
        <time>2017-07-31T14:48:04Z</time>
      </trkpt>
      <trkpt lat="43.02246" lon="1.96402">
        <ele>349.2</ele>
        <time>2017-07-31T14:48:05Z</time>
      </trkpt>
      <trkpt lat="43.02247" lon="1.96402">
        <ele>349.3</ele>
        <time>2017-07-31T14:48:06Z</time>
      </trkpt>
      <trkpt lat="43.02247" lon="1.96402">
        <ele>349.4</ele>
        <time>2017-07-31T14:48:07Z</time>
      </trkpt>
      <trkpt lat="43.02247" lon="1.96401">
        <ele>349.5</ele>
        <time>2017-07-31T14:48:08Z</time>
      </trkpt>
      <trkpt lat="43.02247" lon="1.96401">
        <ele>349.5</ele>
        <time>2017-07-31T14:48:09Z</time>
      </trkpt>
      <trkpt lat="43.02248" lon="1.96401">
        <ele>349.6</ele>
        <time>2017-07-31T14:48:10Z</time>
      </trkpt>
      <trkpt lat="43.02248" lon="1.96401">
        <ele>349.6</ele>
        <time>2017-07-31T14:48:11Z</time>
      </trkpt>
      <trkpt lat="43.02249" lon="1.964">
        <ele>349.6</ele>
        <time>2017-07-31T14:48:12Z</time>
      </trkpt>
      <trkpt lat="43.0225" lon="1.964">
        <ele>349.6</ele>
        <time>2017-07-31T14:48:13Z</time>
      </trkpt>
      <trkpt lat="43.0225" lon="1.964">
        <ele>349.6</ele>
        <time>2017-07-31T14:48:14Z</time>
      </trkpt>
      <trkpt lat="43.02251" lon="1.964">
        <ele>349.6</ele>
        <time>2017-07-31T14:48:15Z</time>
      </trkpt>
      <trkpt lat="43.02252" lon="1.964">
        <ele>349.9</ele>
        <time>2017-07-31T14:48:16Z</time>
      </trkpt>
      <trkpt lat="43.02252" lon="1.964">
        <ele>350</ele>
        <time>2017-07-31T14:48:17Z</time>
      </trkpt>
      <trkpt lat="43.02253" lon="1.964">
        <ele>350.2</ele>
        <time>2017-07-31T14:48:18Z</time>
      </trkpt>
      <trkpt lat="43.02254" lon="1.964">
        <ele>350.3</ele>
        <time>2017-07-31T14:48:19Z</time>
      </trkpt>
      <trkpt lat="43.02254" lon="1.964">
        <ele>350.3</ele>
        <time>2017-07-31T14:48:20Z</time>
      </trkpt>
      <trkpt lat="43.02255" lon="1.964">
        <ele>350.4</ele>
        <time>2017-07-31T14:48:21Z</time>
      </trkpt>
      <trkpt lat="43.02255" lon="1.964">
        <ele>350.2</ele>
        <time>2017-07-31T14:48:22Z</time>
      </trkpt>
      <trkpt lat="43.02256" lon="1.964">
        <ele>350.1</ele>
        <time>2017-07-31T14:48:23Z</time>
      </trkpt>
      <trkpt lat="43.02256" lon="1.964">
        <ele>350</ele>
        <time>2017-07-31T14:48:24Z</time>
      </trkpt>
      <trkpt lat="43.02256" lon="1.964">
        <ele>349.9</ele>
        <time>2017-07-31T14:48:25Z</time>
      </trkpt>
      <trkpt lat="43.02256" lon="1.964">
        <ele>349.8</ele>
        <time>2017-07-31T14:48:26Z</time>
      </trkpt>
      <trkpt lat="43.02256" lon="1.964">
        <ele>349.8</ele>
        <time>2017-07-31T14:48:27Z</time>
      </trkpt>
      <trkpt lat="43.02256" lon="1.964">
        <ele>349.8</ele>
        <time>2017-07-31T14:48:28Z</time>
      </trkpt>
      <trkpt lat="43.02256" lon="1.964">
        <ele>349.7</ele>
        <time>2017-07-31T14:48:29Z</time>
      </trkpt>
      <trkpt lat="43.02256" lon="1.964">
        <ele>349.7</ele>
        <time>2017-07-31T14:48:30Z</time>
      </trkpt>
      <trkpt lat="43.02255" lon="1.96399">
        <ele>349.7</ele>
        <time>2017-07-31T14:48:31Z</time>
      </trkpt>
      <trkpt lat="43.02253" lon="1.96398">
        <ele>349.7</ele>
        <time>2017-07-31T14:48:32Z</time>
      </trkpt>
      <trkpt lat="43.02251" lon="1.96397">
        <ele>349.7</ele>
        <time>2017-07-31T14:48:33Z</time>
      </trkpt>
      <trkpt lat="43.02249" lon="1.96397">
        <ele>349.5</ele>
        <time>2017-07-31T14:48:34Z</time>
      </trkpt>
      <trkpt lat="43.02248" lon="1.96397">
        <ele>349.3</ele>
        <time>2017-07-31T14:48:35Z</time>
      </trkpt>
      <trkpt lat="43.02247" lon="1.96397">
        <ele>349.2</ele>
        <time>2017-07-31T14:48:36Z</time>
      </trkpt>
      <trkpt lat="43.02246" lon="1.96396">
        <ele>349.1</ele>
        <time>2017-07-31T14:48:37Z</time>
      </trkpt>
      <trkpt lat="43.02245" lon="1.96396">
        <ele>349</ele>
        <time>2017-07-31T14:48:38Z</time>
      </trkpt>
      <trkpt lat="43.02244" lon="1.96396">
        <ele>349</ele>
        <time>2017-07-31T14:48:39Z</time>
      </trkpt>
      <trkpt lat="43.02243" lon="1.96396">
        <ele>348.9</ele>
        <time>2017-07-31T14:48:40Z</time>
      </trkpt>
      <trkpt lat="43.02242" lon="1.96396">
        <ele>348.9</ele>
        <time>2017-07-31T14:48:41Z</time>
      </trkpt>
      <trkpt lat="43.02242" lon="1.96396">
        <ele>348.9</ele>
        <time>2017-07-31T14:48:42Z</time>
      </trkpt>
      <trkpt lat="43.02241" lon="1.96396">
        <ele>349.3</ele>
        <time>2017-07-31T14:48:43Z</time>
      </trkpt>
      <trkpt lat="43.0224" lon="1.96396">
        <ele>349.6</ele>
        <time>2017-07-31T14:48:44Z</time>
      </trkpt>
      <trkpt lat="43.0224" lon="1.96396">
        <ele>349.8</ele>
        <time>2017-07-31T14:48:45Z</time>
      </trkpt>
      <trkpt lat="43.02239" lon="1.96396">
        <ele>349.8</ele>
        <time>2017-07-31T14:48:46Z</time>
      </trkpt>
      <trkpt lat="43.02239" lon="1.96396">
        <ele>349.8</ele>
        <time>2017-07-31T14:48:47Z</time>
      </trkpt>
      <trkpt lat="43.02238" lon="1.96396">
        <ele>349.7</ele>
        <time>2017-07-31T14:48:48Z</time>
      </trkpt>
      <trkpt lat="43.02238" lon="1.96396">
        <ele>349.7</ele>
        <time>2017-07-31T14:48:49Z</time>
      </trkpt>
      <trkpt lat="43.02238" lon="1.96397">
        <ele>349.7</ele>
        <time>2017-07-31T14:48:50Z</time>
      </trkpt>
      <trkpt lat="43.02238" lon="1.96396">
        <ele>349.7</ele>
        <time>2017-07-31T14:48:51Z</time>
      </trkpt>
      <trkpt lat="43.02237" lon="1.96396">
        <ele>349.5</ele>
        <time>2017-07-31T14:48:52Z</time>
      </trkpt>
      <trkpt lat="43.02237" lon="1.96396">
        <ele>349.3</ele>
        <time>2017-07-31T14:48:53Z</time>
      </trkpt>
      <trkpt lat="43.02237" lon="1.96396">
        <ele>349.2</ele>
        <time>2017-07-31T14:48:54Z</time>
      </trkpt>
      <trkpt lat="43.02237" lon="1.96396">
        <ele>349.3</ele>
        <time>2017-07-31T14:48:55Z</time>
      </trkpt>
      <trkpt lat="43.02237" lon="1.96395">
        <ele>349.4</ele>
        <time>2017-07-31T14:48:56Z</time>
      </trkpt>
      <trkpt lat="43.02238" lon="1.96395">
        <ele>349.5</ele>
        <time>2017-07-31T14:48:57Z</time>
      </trkpt>
      <trkpt lat="43.02238" lon="1.96395">
        <ele>349.5</ele>
        <time>2017-07-31T14:48:58Z</time>
      </trkpt>
      <trkpt lat="43.02239" lon="1.96394">
        <ele>349.6</ele>
        <time>2017-07-31T14:49:01Z</time>
      </trkpt>
      <trkpt lat="43.02239" lon="1.96394">
        <ele>349.6</ele>
        <time>2017-07-31T14:49:02Z</time>
      </trkpt>
      <trkpt lat="43.0224" lon="1.96394">
        <ele>349.7</ele>
        <time>2017-07-31T14:49:05Z</time>
      </trkpt>
      <trkpt lat="43.0224" lon="1.96394">
        <ele>349.7</ele>
        <time>2017-07-31T14:49:06Z</time>
      </trkpt>
      <trkpt lat="43.0224" lon="1.96394">
        <ele>349.7</ele>
        <time>2017-07-31T14:49:07Z</time>
      </trkpt>
      <trkpt lat="43.0224" lon="1.96396">
        <ele>349.7</ele>
        <time>2017-07-31T14:49:09Z</time>
      </trkpt>
      <trkpt lat="43.02238" lon="1.964">
        <ele>349.2</ele>
        <time>2017-07-31T14:49:12Z</time>
      </trkpt>
      <trkpt lat="43.02235" lon="1.96402">
        <ele>349.9</ele>
        <time>2017-07-31T14:49:16Z</time>
      </trkpt>
      <trkpt lat="43.02234" lon="1.96402">
        <ele>349.8</ele>
        <time>2017-07-31T14:49:17Z</time>
      </trkpt>
      <trkpt lat="43.02233" lon="1.96402">
        <ele>349.8</ele>
        <time>2017-07-31T14:49:18Z</time>
      </trkpt>
      <trkpt lat="43.02233" lon="1.96402">
        <ele>350</ele>
        <time>2017-07-31T14:49:19Z</time>
      </trkpt>
      <trkpt lat="43.02232" lon="1.96402">
        <ele>350.1</ele>
        <time>2017-07-31T14:49:20Z</time>
      </trkpt>
      <trkpt lat="43.02231" lon="1.96403">
        <ele>350.2</ele>
        <time>2017-07-31T14:49:21Z</time>
      </trkpt>
      <trkpt lat="43.02231" lon="1.96403">
        <ele>350.3</ele>
        <time>2017-07-31T14:49:22Z</time>
      </trkpt>
      <trkpt lat="43.0223" lon="1.96403">
        <ele>350.4</ele>
        <time>2017-07-31T14:49:23Z</time>
      </trkpt>
      <trkpt lat="43.0223" lon="1.96403">
        <ele>350.4</ele>
        <time>2017-07-31T14:49:24Z</time>
      </trkpt>
      <trkpt lat="43.0223" lon="1.96402">
        <ele>350.2</ele>
        <time>2017-07-31T14:49:25Z</time>
      </trkpt>
      <trkpt lat="43.0223" lon="1.96402">
        <ele>350.1</ele>
        <time>2017-07-31T14:49:26Z</time>
      </trkpt>
      <trkpt lat="43.0223" lon="1.96402">
        <ele>350</ele>
        <time>2017-07-31T14:49:27Z</time>
      </trkpt>
      <trkpt lat="43.02229" lon="1.96402">
        <ele>350.1</ele>
        <time>2017-07-31T14:49:28Z</time>
      </trkpt>
      <trkpt lat="43.02229" lon="1.96402">
        <ele>350.2</ele>
        <time>2017-07-31T14:49:29Z</time>
      </trkpt>
      <trkpt lat="43.0223" lon="1.96402">
        <ele>350.3</ele>
        <time>2017-07-31T14:49:30Z</time>
      </trkpt>
      <trkpt lat="43.0223" lon="1.96402">
        <ele>350.1</ele>
        <time>2017-07-31T14:49:31Z</time>
      </trkpt>
      <trkpt lat="43.0223" lon="1.96402">
        <ele>350</ele>
        <time>2017-07-31T14:49:32Z</time>
      </trkpt>
      <trkpt lat="43.0223" lon="1.96402">
        <ele>349.9</ele>
        <time>2017-07-31T14:49:33Z</time>
      </trkpt>
      <trkpt lat="43.0223" lon="1.96402">
        <ele>349.7</ele>
        <time>2017-07-31T14:49:34Z</time>
      </trkpt>
      <trkpt lat="43.0223" lon="1.96402">
        <ele>349.4</ele>
        <time>2017-07-31T14:49:35Z</time>
      </trkpt>
      <trkpt lat="43.0223" lon="1.96402">
        <ele>349.3</ele>
        <time>2017-07-31T14:49:36Z</time>
      </trkpt>
      <trkpt lat="43.02231" lon="1.96401">
        <ele>349.4</ele>
        <time>2017-07-31T14:49:37Z</time>
      </trkpt>
      <trkpt lat="43.02237" lon="1.964">
        <ele>349.6</ele>
        <time>2017-07-31T14:49:43Z</time>
      </trkpt>
      <trkpt lat="43.02238" lon="1.964">
        <ele>349.6</ele>
        <time>2017-07-31T14:49:44Z</time>
      </trkpt>
      <trkpt lat="43.02238" lon="1.96399">
        <ele>349.6</ele>
        <time>2017-07-31T14:49:45Z</time>
      </trkpt>
      <trkpt lat="43.02239" lon="1.96399">
        <ele>349.9</ele>
        <time>2017-07-31T14:49:46Z</time>
      </trkpt>
      <trkpt lat="43.0224" lon="1.96399">
        <ele>350</ele>
        <time>2017-07-31T14:49:47Z</time>
      </trkpt>
      <trkpt lat="43.02241" lon="1.96398">
        <ele>350.2</ele>
        <time>2017-07-31T14:49:48Z</time>
      </trkpt>
      <trkpt lat="43.02242" lon="1.96398">
        <ele>350.3</ele>
        <time>2017-07-31T14:49:49Z</time>
      </trkpt>
      <trkpt lat="43.02243" lon="1.96398">
        <ele>350.3</ele>
        <time>2017-07-31T14:49:50Z</time>
      </trkpt>
      <trkpt lat="43.02245" lon="1.96397">
        <ele>350.4</ele>
        <time>2017-07-31T14:49:51Z</time>
      </trkpt>
      <trkpt lat="43.02246" lon="1.96397">
        <ele>350.2</ele>
        <time>2017-07-31T14:49:52Z</time>
      </trkpt>
      <trkpt lat="43.02249" lon="1.96397">
        <ele>349.9</ele>
        <time>2017-07-31T14:49:55Z</time>
      </trkpt>
      <trkpt lat="43.0225" lon="1.96397">
        <ele>349.8</ele>
        <time>2017-07-31T14:49:56Z</time>
      </trkpt>
      <trkpt lat="43.02261" lon="1.96397">
        <ele>349.6</ele>
        <time>2017-07-31T14:50:06Z</time>
      </trkpt>
      <trkpt lat="43.02262" lon="1.96397">
        <ele>350</ele>
        <time>2017-07-31T14:50:08Z</time>
      </trkpt>
      <trkpt lat="43.02262" lon="1.96397">
        <ele>350.1</ele>
        <time>2017-07-31T14:50:09Z</time>
      </trkpt>
      <trkpt lat="43.02262" lon="1.96397">
        <ele>350</ele>
        <time>2017-07-31T14:50:10Z</time>
      </trkpt>
      <trkpt lat="43.02262" lon="1.96397">
        <ele>349.9</ele>
        <time>2017-07-31T14:50:11Z</time>
      </trkpt>
      <trkpt lat="43.02262" lon="1.96398">
        <ele>349.9</ele>
        <time>2017-07-31T14:50:12Z</time>
      </trkpt>
      <trkpt lat="43.02263" lon="1.96399">
        <ele>350.1</ele>
        <time>2017-07-31T14:50:17Z</time>
      </trkpt>
      <trkpt lat="43.02263" lon="1.96399">
        <ele>350.2</ele>
        <time>2017-07-31T14:50:18Z</time>
      </trkpt>
      <trkpt lat="43.02264" lon="1.96399">
        <ele>350.1</ele>
        <time>2017-07-31T14:50:19Z</time>
      </trkpt>
      <trkpt lat="43.02264" lon="1.96399">
        <ele>350</ele>
        <time>2017-07-31T14:50:20Z</time>
      </trkpt>
      <trkpt lat="43.02264" lon="1.96399">
        <ele>349.9</ele>
        <time>2017-07-31T14:50:21Z</time>
      </trkpt>
      <trkpt lat="43.02264" lon="1.96399">
        <ele>349.4</ele>
        <time>2017-07-31T14:50:22Z</time>
      </trkpt>
      <trkpt lat="43.02264" lon="1.96399">
        <ele>349</ele>
        <time>2017-07-31T14:50:23Z</time>
      </trkpt>
      <trkpt lat="43.02264" lon="1.96399">
        <ele>348.8</ele>
        <time>2017-07-31T14:50:24Z</time>
      </trkpt>
      <trkpt lat="43.02265" lon="1.96398">
        <ele>349</ele>
        <time>2017-07-31T14:50:25Z</time>
      </trkpt>
      <trkpt lat="43.02265" lon="1.96398">
        <ele>349.2</ele>
        <time>2017-07-31T14:50:26Z</time>
      </trkpt>
      <trkpt lat="43.02265" lon="1.96398">
        <ele>349.3</ele>
        <time>2017-07-31T14:50:27Z</time>
      </trkpt>
      <trkpt lat="43.02265" lon="1.96397">
        <ele>349.4</ele>
        <time>2017-07-31T14:50:28Z</time>
      </trkpt>
      <trkpt lat="43.02265" lon="1.96397">
        <ele>349.5</ele>
        <time>2017-07-31T14:50:29Z</time>
      </trkpt>
      <trkpt lat="43.02264" lon="1.96397">
        <ele>349.5</ele>
        <time>2017-07-31T14:50:30Z</time>
      </trkpt>
      <trkpt lat="43.02264" lon="1.96396">
        <ele>349.6</ele>
        <time>2017-07-31T14:50:31Z</time>
      </trkpt>
      <trkpt lat="43.02261" lon="1.96394">
        <ele>349.6</ele>
        <time>2017-07-31T14:50:33Z</time>
      </trkpt>
      <trkpt lat="43.02257" lon="1.96393">
        <ele>349.6</ele>
        <time>2017-07-31T14:50:35Z</time>
      </trkpt>
      <trkpt lat="43.02249" lon="1.96393">
        <ele>350</ele>
        <time>2017-07-31T14:50:38Z</time>
      </trkpt>
      <trkpt lat="43.02186" lon="1.96403">
        <ele>351.1</ele>
        <time>2017-07-31T14:51:01Z</time>
      </trkpt>
      <trkpt lat="43.02185" lon="1.96403">
        <ele>351.2</ele>
        <time>2017-07-31T14:51:02Z</time>
      </trkpt>
      <trkpt lat="43.02185" lon="1.96403">
        <ele>351.2</ele>
        <time>2017-07-31T14:51:03Z</time>
      </trkpt>
      <trkpt lat="43.02185" lon="1.96403">
        <ele>351.1</ele>
        <time>2017-07-31T14:51:04Z</time>
      </trkpt>
      <trkpt lat="43.02185" lon="1.96403">
        <ele>350.9</ele>
        <time>2017-07-31T14:51:05Z</time>
      </trkpt>
      <trkpt lat="43.02185" lon="1.96403">
        <ele>350.8</ele>
        <time>2017-07-31T14:51:06Z</time>
      </trkpt>
      <trkpt lat="43.02185" lon="1.96404">
        <ele>351</ele>
        <time>2017-07-31T14:51:07Z</time>
      </trkpt>
      <trkpt lat="43.02184" lon="1.96404">
        <ele>351.1</ele>
        <time>2017-07-31T14:51:08Z</time>
      </trkpt>
      <trkpt lat="43.02184" lon="1.96404">
        <ele>351.2</ele>
        <time>2017-07-31T14:51:09Z</time>
      </trkpt>
      <trkpt lat="43.02184" lon="1.96404">
        <ele>351.2</ele>
        <time>2017-07-31T14:51:10Z</time>
      </trkpt>
      <trkpt lat="43.02183" lon="1.96405">
        <ele>351.3</ele>
        <time>2017-07-31T14:51:11Z</time>
      </trkpt>
      <trkpt lat="43.02183" lon="1.96405">
        <ele>351.3</ele>
        <time>2017-07-31T14:51:12Z</time>
      </trkpt>
      <trkpt lat="43.02182" lon="1.96405">
        <ele>351.5</ele>
        <time>2017-07-31T14:51:13Z</time>
      </trkpt>
      <trkpt lat="43.02182" lon="1.96406">
        <ele>351.7</ele>
        <time>2017-07-31T14:51:14Z</time>
      </trkpt>
      <trkpt lat="43.02181" lon="1.96406">
        <ele>351.9</ele>
        <time>2017-07-31T14:51:15Z</time>
      </trkpt>
      <trkpt lat="43.02181" lon="1.96407">
        <ele>352</ele>
        <time>2017-07-31T14:51:16Z</time>
      </trkpt>
      <trkpt lat="43.02181" lon="1.96407">
        <ele>352</ele>
        <time>2017-07-31T14:51:17Z</time>
      </trkpt>
      <trkpt lat="43.0218" lon="1.96407">
        <ele>352.1</ele>
        <time>2017-07-31T14:51:18Z</time>
      </trkpt>
      <trkpt lat="43.0218" lon="1.96407">
        <ele>351.9</ele>
        <time>2017-07-31T14:51:19Z</time>
      </trkpt>
      <trkpt lat="43.0218" lon="1.96407">
        <ele>351.8</ele>
        <time>2017-07-31T14:51:20Z</time>
      </trkpt>
      <trkpt lat="43.0218" lon="1.96407">
        <ele>351.7</ele>
        <time>2017-07-31T14:51:21Z</time>
      </trkpt>
      <trkpt lat="43.0218" lon="1.96407">
        <ele>354.4</ele>
        <time>2017-07-31T14:51:22Z</time>
      </trkpt>
      <trkpt lat="43.0218" lon="1.96407">
        <ele>356.5</ele>
        <time>2017-07-31T14:51:23Z</time>
      </trkpt>
      <trkpt lat="43.0218" lon="1.96407">
        <ele>358</ele>
        <time>2017-07-31T14:51:24Z</time>
      </trkpt>
      <trkpt lat="43.0218" lon="1.96407">
        <ele>357.2</ele>
        <time>2017-07-31T14:51:25Z</time>
      </trkpt>
      <trkpt lat="43.0218" lon="1.96407">
        <ele>356.6</ele>
        <time>2017-07-31T14:51:26Z</time>
      </trkpt>
      <trkpt lat="43.0218" lon="1.96407">
        <ele>356.2</ele>
        <time>2017-07-31T14:51:27Z</time>
      </trkpt>
      <trkpt lat="43.0218" lon="1.96407">
        <ele>354.8</ele>
        <time>2017-07-31T14:51:28Z</time>
      </trkpt>
      <trkpt lat="43.0218" lon="1.96407">
        <ele>353.7</ele>
        <time>2017-07-31T14:51:29Z</time>
      </trkpt>
      <trkpt lat="43.02179" lon="1.96407">
        <ele>352.9</ele>
        <time>2017-07-31T14:51:30Z</time>
      </trkpt>
      <trkpt lat="43.02179" lon="1.96408">
        <ele>352.8</ele>
        <time>2017-07-31T14:51:31Z</time>
      </trkpt>
      <trkpt lat="43.02179" lon="1.96408">
        <ele>352.6</ele>
        <time>2017-07-31T14:51:32Z</time>
      </trkpt>
      <trkpt lat="43.02179" lon="1.96408">
        <ele>352.5</ele>
        <time>2017-07-31T14:51:33Z</time>
      </trkpt>
      <trkpt lat="43.02179" lon="1.96408">
        <ele>352.9</ele>
        <time>2017-07-31T14:51:34Z</time>
      </trkpt>
      <trkpt lat="43.02178" lon="1.96408">
        <ele>353.4</ele>
        <time>2017-07-31T14:51:36Z</time>
      </trkpt>
      <trkpt lat="43.02177" lon="1.96409">
        <ele>353.1</ele>
        <time>2017-07-31T14:51:37Z</time>
      </trkpt>
      <trkpt lat="43.02164" lon="1.96409">
        <ele>352.5</ele>
        <time>2017-07-31T14:51:41Z</time>
      </trkpt>
      <trkpt lat="43.02111" lon="1.96395">
        <ele>351</ele>
        <time>2017-07-31T14:51:55Z</time>
      </trkpt>
      <trkpt lat="43.02024" lon="1.96364">
        <ele>350.6</ele>
        <time>2017-07-31T14:52:14Z</time>
      </trkpt>
      <trkpt lat="43.02019" lon="1.96362">
        <ele>350.4</ele>
        <time>2017-07-31T14:52:15Z</time>
      </trkpt>
      <trkpt lat="43.01826" lon="1.96266">
        <ele>351.1</ele>
        <time>2017-07-31T14:53:04Z</time>
      </trkpt>
      <trkpt lat="43.01826" lon="1.96266">
        <ele>351.2</ele>
        <time>2017-07-31T14:53:05Z</time>
      </trkpt>
      <trkpt lat="43.01821" lon="1.96264">
        <ele>351.3</ele>
        <time>2017-07-31T14:53:06Z</time>
      </trkpt>
      <trkpt lat="43.01821" lon="1.96264">
        <ele>351.1</ele>
        <time>2017-07-31T14:53:07Z</time>
      </trkpt>
      <trkpt lat="43.01821" lon="1.96264">
        <ele>350.9</ele>
        <time>2017-07-31T14:53:08Z</time>
      </trkpt>
      <trkpt lat="43.01821" lon="1.96264">
        <ele>350.8</ele>
        <time>2017-07-31T14:53:09Z</time>
      </trkpt>
      <trkpt lat="43.01821" lon="1.96264">
        <ele>351.2</ele>
        <time>2017-07-31T14:53:10Z</time>
      </trkpt>
      <trkpt lat="43.01821" lon="1.96264">
        <ele>351.5</ele>
        <time>2017-07-31T14:53:11Z</time>
      </trkpt>
      <trkpt lat="43.01821" lon="1.96264">
        <ele>351.7</ele>
        <time>2017-07-31T14:53:12Z</time>
      </trkpt>
      <trkpt lat="43.01821" lon="1.96264">
        <ele>351.2</ele>
        <time>2017-07-31T14:53:13Z</time>
      </trkpt>
      <trkpt lat="43.01821" lon="1.96264">
        <ele>350.8</ele>
        <time>2017-07-31T14:53:14Z</time>
      </trkpt>
      <trkpt lat="43.01821" lon="1.96264">
        <ele>350.5</ele>
        <time>2017-07-31T14:53:15Z</time>
      </trkpt>
      <trkpt lat="43.01821" lon="1.96264">
        <ele>350.5</ele>
        <time>2017-07-31T14:53:16Z</time>
      </trkpt>
      <trkpt lat="43.01821" lon="1.96264">
        <ele>350.5</ele>
        <time>2017-07-31T14:53:17Z</time>
      </trkpt>
      <trkpt lat="43.01821" lon="1.96264">
        <ele>350.5</ele>
        <time>2017-07-31T14:53:18Z</time>
      </trkpt>
      <trkpt lat="43.01821" lon="1.96264">
        <ele>350.5</ele>
        <time>2017-07-31T14:53:19Z</time>
      </trkpt>
      <trkpt lat="43.01821" lon="1.96264">
        <ele>350.5</ele>
        <time>2017-07-31T14:53:20Z</time>
      </trkpt>
      <trkpt lat="43.01821" lon="1.96264">
        <ele>350.5</ele>
        <time>2017-07-31T14:53:21Z</time>
      </trkpt>
      <trkpt lat="43.01821" lon="1.96264">
        <ele>349.9</ele>
        <time>2017-07-31T14:53:22Z</time>
      </trkpt>
      <trkpt lat="43.01821" lon="1.96264">
        <ele>349.4</ele>
        <time>2017-07-31T14:53:23Z</time>
      </trkpt>
      <trkpt lat="43.01821" lon="1.96264">
        <ele>349</ele>
        <time>2017-07-31T14:53:24Z</time>
      </trkpt>
      <trkpt lat="43.01821" lon="1.96264">
        <ele>349.2</ele>
        <time>2017-07-31T14:53:25Z</time>
      </trkpt>
      <trkpt lat="43.01816" lon="1.96261">
        <ele>349.3</ele>
        <time>2017-07-31T14:53:26Z</time>
      </trkpt>
      <trkpt lat="43.01585" lon="1.96162">
        <ele>350.8</ele>
        <time>2017-07-31T14:54:21Z</time>
      </trkpt>
      <trkpt lat="43.01581" lon="1.96161">
        <ele>350.7</ele>
        <time>2017-07-31T14:54:22Z</time>
      </trkpt>
      <trkpt lat="43.01532" lon="1.96152">
        <ele>350.4</ele>
        <time>2017-07-31T14:54:34Z</time>
      </trkpt>
      <trkpt lat="43.01491" lon="1.96153">
        <ele>352.3</ele>
        <time>2017-07-31T14:54:44Z</time>
      </trkpt>
      <trkpt lat="43.01454" lon="1.9616">
        <ele>351.2</ele>
        <time>2017-07-31T14:54:53Z</time>
      </trkpt>
      <trkpt lat="43.01447" lon="1.96163">
        <ele>351.5</ele>
        <time>2017-07-31T14:54:55Z</time>
      </trkpt>
      <trkpt lat="43.0127" lon="1.96205">
        <ele>352.1</ele>
        <time>2017-07-31T14:55:37Z</time>
      </trkpt>
      <trkpt lat="43.0127" lon="1.96205">
        <ele>351.7</ele>
        <time>2017-07-31T14:55:38Z</time>
      </trkpt>
      <trkpt lat="43.01264" lon="1.96206">
        <ele>351.6</ele>
        <time>2017-07-31T14:55:40Z</time>
      </trkpt>
      <trkpt lat="43.01264" lon="1.96206">
        <ele>351.8</ele>
        <time>2017-07-31T14:55:41Z</time>
      </trkpt>
      <trkpt lat="43.01264" lon="1.96206">
        <ele>351.9</ele>
        <time>2017-07-31T14:55:42Z</time>
      </trkpt>
      <trkpt lat="43.01264" lon="1.96206">
        <ele>352.6</ele>
        <time>2017-07-31T14:55:43Z</time>
      </trkpt>
      <trkpt lat="43.01264" lon="1.96206">
        <ele>353.2</ele>
        <time>2017-07-31T14:55:44Z</time>
      </trkpt>
      <trkpt lat="43.01264" lon="1.96206">
        <ele>353.6</ele>
        <time>2017-07-31T14:55:45Z</time>
      </trkpt>
      <trkpt lat="43.01264" lon="1.96206">
        <ele>353.7</ele>
        <time>2017-07-31T14:55:46Z</time>
      </trkpt>
      <trkpt lat="43.01264" lon="1.96206">
        <ele>353.8</ele>
        <time>2017-07-31T14:55:47Z</time>
      </trkpt>
      <trkpt lat="43.01264" lon="1.96206">
        <ele>353.8</ele>
        <time>2017-07-31T14:55:48Z</time>
      </trkpt>
      <trkpt lat="43.01264" lon="1.96206">
        <ele>353.2</ele>
        <time>2017-07-31T14:55:49Z</time>
      </trkpt>
      <trkpt lat="43.01264" lon="1.96206">
        <ele>352.8</ele>
        <time>2017-07-31T14:55:50Z</time>
      </trkpt>
      <trkpt lat="43.01264" lon="1.96206">
        <ele>352.4</ele>
        <time>2017-07-31T14:55:51Z</time>
      </trkpt>
      <trkpt lat="43.01264" lon="1.96206">
        <ele>352.2</ele>
        <time>2017-07-31T14:55:52Z</time>
      </trkpt>
      <trkpt lat="43.01264" lon="1.96206">
        <ele>352</ele>
        <time>2017-07-31T14:55:53Z</time>
      </trkpt>
      <trkpt lat="43.01264" lon="1.96206">
        <ele>351.8</ele>
        <time>2017-07-31T14:55:54Z</time>
      </trkpt>
      <trkpt lat="43.01264" lon="1.96206">
        <ele>351.9</ele>
        <time>2017-07-31T14:55:55Z</time>
      </trkpt>
      <trkpt lat="43.01264" lon="1.96206">
        <ele>352</ele>
        <time>2017-07-31T14:55:56Z</time>
      </trkpt>
      <trkpt lat="43.01264" lon="1.96206">
        <ele>352.1</ele>
        <time>2017-07-31T14:55:57Z</time>
      </trkpt>
      <trkpt lat="43.01264" lon="1.96206">
        <ele>351.9</ele>
        <time>2017-07-31T14:55:58Z</time>
      </trkpt>
      <trkpt lat="43.01264" lon="1.96206">
        <ele>351.8</ele>
        <time>2017-07-31T14:55:59Z</time>
      </trkpt>
      <trkpt lat="43.01264" lon="1.96206">
        <ele>351.7</ele>
        <time>2017-07-31T14:56:00Z</time>
      </trkpt>
      <trkpt lat="43.01264" lon="1.96206">
        <ele>351.2</ele>
        <time>2017-07-31T14:56:01Z</time>
      </trkpt>
      <trkpt lat="43.01264" lon="1.96206">
        <ele>350.8</ele>
        <time>2017-07-31T14:56:02Z</time>
      </trkpt>
      <trkpt lat="43.01255" lon="1.96209">
        <ele>350.5</ele>
        <time>2017-07-31T14:56:03Z</time>
      </trkpt>
      <trkpt lat="43.01234" lon="1.9622">
        <ele>351.7</ele>
        <time>2017-07-31T14:56:09Z</time>
      </trkpt>
      <trkpt lat="43.00942" lon="1.96452">
        <ele>354.2</ele>
        <time>2017-07-31T14:57:32Z</time>
      </trkpt>
      <trkpt lat="43.00938" lon="1.96456">
        <ele>354.6</ele>
        <time>2017-07-31T14:57:33Z</time>
      </trkpt>
      <trkpt lat="43.00929" lon="1.96464">
        <ele>354.9</ele>
        <time>2017-07-31T14:57:37Z</time>
      </trkpt>
      <trkpt lat="43.00929" lon="1.96464">
        <ele>354.4</ele>
        <time>2017-07-31T14:57:38Z</time>
      </trkpt>
      <trkpt lat="43.00929" lon="1.96464">
        <ele>354.1</ele>
        <time>2017-07-31T14:57:39Z</time>
      </trkpt>
      <trkpt lat="43.00929" lon="1.96464">
        <ele>353.9</ele>
        <time>2017-07-31T14:57:40Z</time>
      </trkpt>
      <trkpt lat="43.00922" lon="1.96473">
        <ele>353.9</ele>
        <time>2017-07-31T14:57:41Z</time>
      </trkpt>
      <trkpt lat="43.00876" lon="1.96528">
        <ele>354.7</ele>
        <time>2017-07-31T14:57:53Z</time>
      </trkpt>
      <trkpt lat="43.00873" lon="1.96533">
        <ele>354.6</ele>
        <time>2017-07-31T14:57:54Z</time>
      </trkpt>
      <trkpt lat="43.00869" lon="1.96537">
        <ele>354.4</ele>
        <time>2017-07-31T14:57:55Z</time>
      </trkpt>
      <trkpt lat="43.00867" lon="1.96541">
        <ele>354.3</ele>
        <time>2017-07-31T14:57:56Z</time>
      </trkpt>
      <trkpt lat="43.00864" lon="1.96547">
        <ele>354.5</ele>
        <time>2017-07-31T14:58:00Z</time>
      </trkpt>
      <trkpt lat="43.0085" lon="1.96573">
        <ele>354.9</ele>
        <time>2017-07-31T14:58:07Z</time>
      </trkpt>
      <trkpt lat="43.00842" lon="1.96592">
        <ele>355.6</ele>
        <time>2017-07-31T14:58:12Z</time>
      </trkpt>
      <trkpt lat="43.00827" lon="1.96629">
        <ele>356.1</ele>
        <time>2017-07-31T14:58:20Z</time>
      </trkpt>
      <trkpt lat="43.00821" lon="1.96649">
        <ele>356.2</ele>
        <time>2017-07-31T14:58:24Z</time>
      </trkpt>
      <trkpt lat="43.00817" lon="1.96665">
        <ele>356.1</ele>
        <time>2017-07-31T14:58:27Z</time>
      </trkpt>
      <trkpt lat="43.00811" lon="1.96703">
        <ele>357.5</ele>
        <time>2017-07-31T14:58:34Z</time>
      </trkpt>
      <trkpt lat="43.0081" lon="1.96708">
        <ele>357</ele>
        <time>2017-07-31T14:58:35Z</time>
      </trkpt>
      <trkpt lat="43.00772" lon="1.97">
        <ele>356.8</ele>
        <time>2017-07-31T14:59:22Z</time>
      </trkpt>
      <trkpt lat="43.00772" lon="1.97005">
        <ele>356.8</ele>
        <time>2017-07-31T14:59:23Z</time>
      </trkpt>
      <trkpt lat="43.00771" lon="1.97028">
        <ele>356.6</ele>
        <time>2017-07-31T14:59:27Z</time>
      </trkpt>
      <trkpt lat="43.00761" lon="1.972">
        <ele>358.1</ele>
        <time>2017-07-31T14:59:56Z</time>
      </trkpt>
      <trkpt lat="43.00762" lon="1.97205">
        <ele>358</ele>
        <time>2017-07-31T14:59:57Z</time>
      </trkpt>
      <trkpt lat="43.0079" lon="1.9734">
        <ele>358.2</ele>
        <time>2017-07-31T15:00:21Z</time>
      </trkpt>
      <trkpt lat="43.0079" lon="1.97346">
        <ele>358</ele>
        <time>2017-07-31T15:00:22Z</time>
      </trkpt>
      <trkpt lat="43.00791" lon="1.9737">
        <ele>357.7</ele>
        <time>2017-07-31T15:00:26Z</time>
      </trkpt>
      <trkpt lat="43.00791" lon="1.97383">
        <ele>358.3</ele>
        <time>2017-07-31T15:00:28Z</time>
      </trkpt>
      <trkpt lat="43.00792" lon="1.97389">
        <ele>358.3</ele>
        <time>2017-07-31T15:00:29Z</time>
      </trkpt>
      <trkpt lat="43.00822" lon="1.97545">
        <ele>358.3</ele>
        <time>2017-07-31T15:00:57Z</time>
      </trkpt>
      <trkpt lat="43.00824" lon="1.9755">
        <ele>358.3</ele>
        <time>2017-07-31T15:00:58Z</time>
      </trkpt>
      <trkpt lat="43.00837" lon="1.97593">
        <ele>358.4</ele>
        <time>2017-07-31T15:01:05Z</time>
      </trkpt>
      <trkpt lat="43.00839" lon="1.97598">
        <ele>358.8</ele>
        <time>2017-07-31T15:01:06Z</time>
      </trkpt>
      <trkpt lat="43.00855" lon="1.97653">
        <ele>358.4</ele>
        <time>2017-07-31T15:01:14Z</time>
      </trkpt>
      <trkpt lat="43.00843" lon="1.97759">
        <ele>359.9</ele>
        <time>2017-07-31T15:01:30Z</time>
      </trkpt>
      <trkpt lat="43.00844" lon="1.97765">
        <ele>360.1</ele>
        <time>2017-07-31T15:01:31Z</time>
      </trkpt>
      <trkpt lat="43.00846" lon="1.9777">
        <ele>360.1</ele>
        <time>2017-07-31T15:01:32Z</time>
      </trkpt>
      <trkpt lat="43.00905" lon="1.98">
        <ele>360</ele>
        <time>2017-07-31T15:02:15Z</time>
      </trkpt>
      <trkpt lat="43.00906" lon="1.98005">
        <ele>359.6</ele>
        <time>2017-07-31T15:02:16Z</time>
      </trkpt>
      <trkpt lat="43.00954" lon="1.9824">
        <ele>362.4</ele>
        <time>2017-07-31T15:02:52Z</time>
      </trkpt>
      <trkpt lat="43.00939" lon="1.98351">
        <ele>363.2</ele>
        <time>2017-07-31T15:03:10Z</time>
      </trkpt>
      <trkpt lat="43.00927" lon="1.98393">
        <ele>363.8</ele>
        <time>2017-07-31T15:03:16Z</time>
      </trkpt>
      <trkpt lat="43.00922" lon="1.98402">
        <ele>363.7</ele>
        <time>2017-07-31T15:03:17Z</time>
      </trkpt>
      <trkpt lat="43.00837" lon="1.98513">
        <ele>363</ele>
        <time>2017-07-31T15:03:35Z</time>
      </trkpt>
      <trkpt lat="43.00833" lon="1.98518">
        <ele>363.1</ele>
        <time>2017-07-31T15:03:36Z</time>
      </trkpt>
      <trkpt lat="43.0083" lon="1.98523">
        <ele>363.2</ele>
        <time>2017-07-31T15:03:37Z</time>
      </trkpt>
      <trkpt lat="43.00826" lon="1.98528">
        <ele>363.5</ele>
        <time>2017-07-31T15:03:38Z</time>
      </trkpt>
      <trkpt lat="43.0077" lon="1.98602">
        <ele>361.2</ele>
        <time>2017-07-31T15:03:54Z</time>
      </trkpt>
      <trkpt lat="43.00755" lon="1.98616">
        <ele>361</ele>
        <time>2017-07-31T15:03:58Z</time>
      </trkpt>
      <trkpt lat="43.00689" lon="1.9867">
        <ele>361.1</ele>
        <time>2017-07-31T15:04:13Z</time>
      </trkpt>
      <trkpt lat="43.00675" lon="1.98678">
        <ele>361.5</ele>
        <time>2017-07-31T15:04:16Z</time>
      </trkpt>
      <trkpt lat="43.00652" lon="1.98689">
        <ele>360.3</ele>
        <time>2017-07-31T15:04:21Z</time>
      </trkpt>
      <trkpt lat="43.00648" lon="1.98691">
        <ele>360</ele>
        <time>2017-07-31T15:04:22Z</time>
      </trkpt>
      <trkpt lat="43.00458" lon="1.98768">
        <ele>361.7</ele>
        <time>2017-07-31T15:05:03Z</time>
      </trkpt>
      <trkpt lat="43.00431" lon="1.98785">
        <ele>362.5</ele>
        <time>2017-07-31T15:05:09Z</time>
      </trkpt>
      <trkpt lat="43.00373" lon="1.98825">
        <ele>362.4</ele>
        <time>2017-07-31T15:05:23Z</time>
      </trkpt>
      <trkpt lat="43.00369" lon="1.98828">
        <ele>362.5</ele>
        <time>2017-07-31T15:05:24Z</time>
      </trkpt>
      <trkpt lat="43.00341" lon="1.98858">
        <ele>362.8</ele>
        <time>2017-07-31T15:05:32Z</time>
      </trkpt>
      <trkpt lat="43.00338" lon="1.98866">
        <ele>363.2</ele>
        <time>2017-07-31T15:05:35Z</time>
      </trkpt>
      <trkpt lat="43.00338" lon="1.98866">
        <ele>363.3</ele>
        <time>2017-07-31T15:05:36Z</time>
      </trkpt>
      <trkpt lat="43.00338" lon="1.98866">
        <ele>363.3</ele>
        <time>2017-07-31T15:05:37Z</time>
      </trkpt>
      <trkpt lat="43.00338" lon="1.98866">
        <ele>363.4</ele>
        <time>2017-07-31T15:05:38Z</time>
      </trkpt>
      <trkpt lat="43.00338" lon="1.98866">
        <ele>363.4</ele>
        <time>2017-07-31T15:05:39Z</time>
      </trkpt>
      <trkpt lat="43.00338" lon="1.98866">
        <ele>363.4</ele>
        <time>2017-07-31T15:05:40Z</time>
      </trkpt>
      <trkpt lat="43.00338" lon="1.98866">
        <ele>363</ele>
        <time>2017-07-31T15:05:41Z</time>
      </trkpt>
      <trkpt lat="43.00338" lon="1.98866">
        <ele>362.7</ele>
        <time>2017-07-31T15:05:42Z</time>
      </trkpt>
      <trkpt lat="43.00338" lon="1.98866">
        <ele>362.5</ele>
        <time>2017-07-31T15:05:43Z</time>
      </trkpt>
      <trkpt lat="43.00338" lon="1.98866">
        <ele>362.5</ele>
        <time>2017-07-31T15:05:44Z</time>
      </trkpt>
      <trkpt lat="43.00338" lon="1.98866">
        <ele>362.6</ele>
        <time>2017-07-31T15:05:45Z</time>
      </trkpt>
      <trkpt lat="43.00338" lon="1.98866">
        <ele>362.6</ele>
        <time>2017-07-31T15:05:46Z</time>
      </trkpt>
      <trkpt lat="43.00338" lon="1.98866">
        <ele>362.6</ele>
        <time>2017-07-31T15:05:47Z</time>
      </trkpt>
      <trkpt lat="43.00338" lon="1.98866">
        <ele>362.6</ele>
        <time>2017-07-31T15:05:48Z</time>
      </trkpt>
      <trkpt lat="43.00338" lon="1.98866">
        <ele>362.6</ele>
        <time>2017-07-31T15:05:49Z</time>
      </trkpt>
      <trkpt lat="43.00334" lon="1.98869">
        <ele>362.8</ele>
        <time>2017-07-31T15:05:50Z</time>
      </trkpt>
      <trkpt lat="43.00331" lon="1.98871">
        <ele>363</ele>
        <time>2017-07-31T15:05:51Z</time>
      </trkpt>
      <trkpt lat="43.00328" lon="1.98871">
        <ele>363.1</ele>
        <time>2017-07-31T15:05:52Z</time>
      </trkpt>
      <trkpt lat="43.00318" lon="1.98874">
        <ele>363.4</ele>
        <time>2017-07-31T15:05:55Z</time>
      </trkpt>
      <trkpt lat="43.00314" lon="1.98876">
        <ele>363.4</ele>
        <time>2017-07-31T15:05:56Z</time>
      </trkpt>
      <trkpt lat="43.00297" lon="1.98889">
        <ele>363</ele>
        <time>2017-07-31T15:06:01Z</time>
      </trkpt>
      <trkpt lat="43.00248" lon="1.98939">
        <ele>363.2</ele>
        <time>2017-07-31T15:06:15Z</time>
      </trkpt>
      <trkpt lat="43.00049" lon="1.99139">
        <ele>365</ele>
        <time>2017-07-31T15:07:13Z</time>
      </trkpt>
      <trkpt lat="43.00045" lon="1.99144">
        <ele>365</ele>
        <time>2017-07-31T15:07:14Z</time>
      </trkpt>
      <trkpt lat="43.00007" lon="1.99206">
        <ele>365.9</ele>
        <time>2017-07-31T15:07:26Z</time>
      </trkpt>
      <trkpt lat="42.99973" lon="1.99275">
        <ele>366</ele>
        <time>2017-07-31T15:07:38Z</time>
      </trkpt>
      <trkpt lat="42.99957" lon="1.99316">
        <ele>367.1</ele>
        <time>2017-07-31T15:07:45Z</time>
      </trkpt>
      <trkpt lat="42.99909" lon="1.99475">
        <ele>367.2</ele>
        <time>2017-07-31T15:08:12Z</time>
      </trkpt>
      <trkpt lat="42.99906" lon="1.99493">
        <ele>367.1</ele>
        <time>2017-07-31T15:08:15Z</time>
      </trkpt>
      <trkpt lat="42.99905" lon="1.99498">
        <ele>367</ele>
        <time>2017-07-31T15:08:16Z</time>
      </trkpt>
      <trkpt lat="42.99873" lon="1.99741">
        <ele>368.9</ele>
        <time>2017-07-31T15:08:55Z</time>
      </trkpt>
      <trkpt lat="42.99873" lon="1.99746">
        <ele>368.9</ele>
        <time>2017-07-31T15:08:56Z</time>
      </trkpt>
      <trkpt lat="42.99872" lon="1.99773">
        <ele>368.3</ele>
        <time>2017-07-31T15:09:01Z</time>
      </trkpt>
      <trkpt lat="42.99865" lon="1.99813">
        <ele>367.5</ele>
        <time>2017-07-31T15:09:08Z</time>
      </trkpt>
      <trkpt lat="42.99832" lon="1.9991">
        <ele>368.6</ele>
        <time>2017-07-31T15:09:24Z</time>
      </trkpt>
      <trkpt lat="42.9983" lon="1.99915">
        <ele>368.2</ele>
        <time>2017-07-31T15:09:25Z</time>
      </trkpt>
      <trkpt lat="42.99829" lon="1.99919">
        <ele>369</ele>
        <time>2017-07-31T15:09:28Z</time>
      </trkpt>
      <trkpt lat="42.99829" lon="1.99919">
        <ele>369.1</ele>
        <time>2017-07-31T15:09:29Z</time>
      </trkpt>
      <trkpt lat="42.99829" lon="1.99919">
        <ele>369.3</ele>
        <time>2017-07-31T15:09:30Z</time>
      </trkpt>
      <trkpt lat="42.99824" lon="1.99931">
        <ele>369.3</ele>
        <time>2017-07-31T15:09:31Z</time>
      </trkpt>
      <trkpt lat="42.99824" lon="1.99931">
        <ele>369.2</ele>
        <time>2017-07-31T15:09:32Z</time>
      </trkpt>
      <trkpt lat="42.99824" lon="1.99931">
        <ele>369.1</ele>
        <time>2017-07-31T15:09:33Z</time>
      </trkpt>
      <trkpt lat="42.99824" lon="1.99931">
        <ele>369</ele>
        <time>2017-07-31T15:09:34Z</time>
      </trkpt>
      <trkpt lat="42.99824" lon="1.99931">
        <ele>369.1</ele>
        <time>2017-07-31T15:09:35Z</time>
      </trkpt>
      <trkpt lat="42.99824" lon="1.99931">
        <ele>369.2</ele>
        <time>2017-07-31T15:09:36Z</time>
      </trkpt>
      <trkpt lat="42.99824" lon="1.99931">
        <ele>369.3</ele>
        <time>2017-07-31T15:09:37Z</time>
      </trkpt>
      <trkpt lat="42.99824" lon="1.99931">
        <ele>368.7</ele>
        <time>2017-07-31T15:09:38Z</time>
      </trkpt>
      <trkpt lat="42.99824" lon="1.99931">
        <ele>368.3</ele>
        <time>2017-07-31T15:09:39Z</time>
      </trkpt>
      <trkpt lat="42.99824" lon="1.99931">
        <ele>368</ele>
        <time>2017-07-31T15:09:40Z</time>
      </trkpt>
      <trkpt lat="42.99824" lon="1.99931">
        <ele>368.4</ele>
        <time>2017-07-31T15:09:41Z</time>
      </trkpt>
      <trkpt lat="42.99824" lon="1.99931">
        <ele>368.7</ele>
        <time>2017-07-31T15:09:42Z</time>
      </trkpt>
      <trkpt lat="42.99824" lon="1.99931">
        <ele>368.9</ele>
        <time>2017-07-31T15:09:43Z</time>
      </trkpt>
      <trkpt lat="42.99824" lon="1.99931">
        <ele>369.3</ele>
        <time>2017-07-31T15:09:44Z</time>
      </trkpt>
      <trkpt lat="42.99824" lon="1.99931">
        <ele>369.6</ele>
        <time>2017-07-31T15:09:45Z</time>
      </trkpt>
      <trkpt lat="42.99824" lon="1.99931">
        <ele>369.8</ele>
        <time>2017-07-31T15:09:46Z</time>
      </trkpt>
      <trkpt lat="42.99824" lon="1.99931">
        <ele>369.3</ele>
        <time>2017-07-31T15:09:47Z</time>
      </trkpt>
      <trkpt lat="42.99824" lon="1.99931">
        <ele>368.9</ele>
        <time>2017-07-31T15:09:48Z</time>
      </trkpt>
      <trkpt lat="42.99824" lon="1.99931">
        <ele>368.7</ele>
        <time>2017-07-31T15:09:49Z</time>
      </trkpt>
      <trkpt lat="42.99824" lon="1.99931">
        <ele>368.9</ele>
        <time>2017-07-31T15:09:50Z</time>
      </trkpt>
      <trkpt lat="42.99824" lon="1.99931">
        <ele>369.1</ele>
        <time>2017-07-31T15:09:51Z</time>
      </trkpt>
      <trkpt lat="42.99824" lon="1.99931">
        <ele>369.2</ele>
        <time>2017-07-31T15:09:52Z</time>
      </trkpt>
      <trkpt lat="42.99824" lon="1.99931">
        <ele>369.1</ele>
        <time>2017-07-31T15:09:53Z</time>
      </trkpt>
      <trkpt lat="42.9982" lon="1.99942">
        <ele>369</ele>
        <time>2017-07-31T15:09:54Z</time>
      </trkpt>
      <trkpt lat="42.9982" lon="1.99942">
        <ele>368.9</ele>
        <time>2017-07-31T15:09:55Z</time>
      </trkpt>
      <trkpt lat="42.9982" lon="1.99942">
        <ele>368.9</ele>
        <time>2017-07-31T15:09:56Z</time>
      </trkpt>
      <trkpt lat="42.99818" lon="1.9995">
        <ele>368.8</ele>
        <time>2017-07-31T15:09:57Z</time>
      </trkpt>
      <trkpt lat="42.99818" lon="1.9995">
        <ele>368.8</ele>
        <time>2017-07-31T15:09:58Z</time>
      </trkpt>
      <trkpt lat="42.99818" lon="1.9995">
        <ele>368.3</ele>
        <time>2017-07-31T15:09:59Z</time>
      </trkpt>
      <trkpt lat="42.99818" lon="1.9995">
        <ele>368</ele>
        <time>2017-07-31T15:10:00Z</time>
      </trkpt>
      <trkpt lat="42.99818" lon="1.9995">
        <ele>367.7</ele>
        <time>2017-07-31T15:10:01Z</time>
      </trkpt>
      <trkpt lat="42.99818" lon="1.9995">
        <ele>368</ele>
        <time>2017-07-31T15:10:02Z</time>
      </trkpt>
      <trkpt lat="42.99818" lon="1.9995">
        <ele>368.2</ele>
        <time>2017-07-31T15:10:03Z</time>
      </trkpt>
      <trkpt lat="42.99818" lon="1.9995">
        <ele>368.3</ele>
        <time>2017-07-31T15:10:04Z</time>
      </trkpt>
      <trkpt lat="42.99818" lon="1.9995">
        <ele>368.8</ele>
        <time>2017-07-31T15:10:05Z</time>
      </trkpt>
      <trkpt lat="42.99815" lon="1.99963">
        <ele>369.2</ele>
        <time>2017-07-31T15:10:06Z</time>
      </trkpt>
      <trkpt lat="42.99815" lon="1.99963">
        <ele>369.5</ele>
        <time>2017-07-31T15:10:07Z</time>
      </trkpt>
      <trkpt lat="42.99815" lon="1.99963">
        <ele>369.6</ele>
        <time>2017-07-31T15:10:08Z</time>
      </trkpt>
      <trkpt lat="42.99815" lon="1.99963">
        <ele>369.6</ele>
        <time>2017-07-31T15:10:09Z</time>
      </trkpt>
      <trkpt lat="42.99815" lon="1.99963">
        <ele>369.6</ele>
        <time>2017-07-31T15:10:10Z</time>
      </trkpt>
      <trkpt lat="42.99815" lon="1.99963">
        <ele>369.1</ele>
        <time>2017-07-31T15:10:11Z</time>
      </trkpt>
      <trkpt lat="42.99815" lon="1.99963">
        <ele>368.8</ele>
        <time>2017-07-31T15:10:12Z</time>
      </trkpt>
      <trkpt lat="42.99815" lon="1.99963">
        <ele>368.6</ele>
        <time>2017-07-31T15:10:13Z</time>
      </trkpt>
      <trkpt lat="42.99815" lon="1.99963">
        <ele>368.6</ele>
        <time>2017-07-31T15:10:14Z</time>
      </trkpt>
      <trkpt lat="42.99815" lon="1.99963">
        <ele>368.6</ele>
        <time>2017-07-31T15:10:15Z</time>
      </trkpt>
      <trkpt lat="42.99811" lon="1.99975">
        <ele>368.7</ele>
        <time>2017-07-31T15:10:16Z</time>
      </trkpt>
      <trkpt lat="42.99811" lon="1.99975">
        <ele>368.9</ele>
        <time>2017-07-31T15:10:17Z</time>
      </trkpt>
      <trkpt lat="42.99811" lon="1.99975">
        <ele>369.1</ele>
        <time>2017-07-31T15:10:18Z</time>
      </trkpt>
      <trkpt lat="42.99811" lon="1.99975">
        <ele>369.2</ele>
        <time>2017-07-31T15:10:19Z</time>
      </trkpt>
      <trkpt lat="42.99811" lon="1.99975">
        <ele>369.1</ele>
        <time>2017-07-31T15:10:20Z</time>
      </trkpt>
      <trkpt lat="42.99811" lon="1.99975">
        <ele>369</ele>
        <time>2017-07-31T15:10:21Z</time>
      </trkpt>
      <trkpt lat="42.9965" lon="2.00201">
        <ele>369.6</ele>
        <time>2017-07-31T15:11:27Z</time>
      </trkpt>
      <trkpt lat="42.99645" lon="2.00205">
        <ele>370.6</ele>
        <time>2017-07-31T15:11:30Z</time>
      </trkpt>
      <trkpt lat="42.99637" lon="2.00211">
        <ele>370.9</ele>
        <time>2017-07-31T15:11:32Z</time>
      </trkpt>
      <trkpt lat="42.9958" lon="2.00236">
        <ele>369.8</ele>
        <time>2017-07-31T15:11:49Z</time>
      </trkpt>
      <trkpt lat="42.99577" lon="2.00236">
        <ele>369.5</ele>
        <time>2017-07-31T15:11:50Z</time>
      </trkpt>
      <trkpt lat="42.99563" lon="2.00239">
        <ele>370.5</ele>
        <time>2017-07-31T15:11:54Z</time>
      </trkpt>
      <trkpt lat="42.99522" lon="2.00248">
        <ele>372.2</ele>
        <time>2017-07-31T15:12:06Z</time>
      </trkpt>
      <trkpt lat="42.99414" lon="2.00275">
        <ele>371.8</ele>
        <time>2017-07-31T15:12:38Z</time>
      </trkpt>
      <trkpt lat="42.9941" lon="2.00275">
        <ele>371.7</ele>
        <time>2017-07-31T15:12:39Z</time>
      </trkpt>
      <trkpt lat="42.99364" lon="2.00273">
        <ele>372.1</ele>
        <time>2017-07-31T15:12:52Z</time>
      </trkpt>
      <trkpt lat="42.99335" lon="2.00277">
        <ele>371.7</ele>
        <time>2017-07-31T15:12:59Z</time>
      </trkpt>
      <trkpt lat="42.9933" lon="2.00278">
        <ele>372</ele>
        <time>2017-07-31T15:13:00Z</time>
      </trkpt>
      <trkpt lat="42.99325" lon="2.00278">
        <ele>372.3</ele>
        <time>2017-07-31T15:13:01Z</time>
      </trkpt>
      <trkpt lat="42.9932" lon="2.00278">
        <ele>372.5</ele>
        <time>2017-07-31T15:13:02Z</time>
      </trkpt>
      <trkpt lat="42.99315" lon="2.00278">
        <ele>372.6</ele>
        <time>2017-07-31T15:13:03Z</time>
      </trkpt>
      <trkpt lat="42.99311" lon="2.00277">
        <ele>372.7</ele>
        <time>2017-07-31T15:13:04Z</time>
      </trkpt>
      <trkpt lat="42.99289" lon="2.00274">
        <ele>372.4</ele>
        <time>2017-07-31T15:13:09Z</time>
      </trkpt>
      <trkpt lat="42.9928" lon="2.00272">
        <ele>372.3</ele>
        <time>2017-07-31T15:13:11Z</time>
      </trkpt>
      <trkpt lat="42.99191" lon="2.00247">
        <ele>372.6</ele>
        <time>2017-07-31T15:13:33Z</time>
      </trkpt>
      <trkpt lat="42.99182" lon="2.00242">
        <ele>372.8</ele>
        <time>2017-07-31T15:13:35Z</time>
      </trkpt>
      <trkpt lat="42.991" lon="2.00221">
        <ele>373.7</ele>
        <time>2017-07-31T15:13:54Z</time>
      </trkpt>
      <trkpt lat="42.99095" lon="2.00219">
        <ele>373.6</ele>
        <time>2017-07-31T15:13:55Z</time>
      </trkpt>
      <trkpt lat="42.99028" lon="2.00208">
        <ele>374.2</ele>
        <time>2017-07-31T15:14:10Z</time>
      </trkpt>
      <trkpt lat="42.99003" lon="2.0021">
        <ele>373.9</ele>
        <time>2017-07-31T15:14:16Z</time>
      </trkpt>
      <trkpt lat="42.98976" lon="2.00214">
        <ele>373.4</ele>
        <time>2017-07-31T15:14:23Z</time>
      </trkpt>
      <trkpt lat="42.98965" lon="2.00217">
        <ele>373.2</ele>
        <time>2017-07-31T15:14:26Z</time>
      </trkpt>
      <trkpt lat="42.98952" lon="2.00221">
        <ele>372.3</ele>
        <time>2017-07-31T15:14:30Z</time>
      </trkpt>
      <trkpt lat="42.98952" lon="2.00221">
        <ele>372.5</ele>
        <time>2017-07-31T15:14:31Z</time>
      </trkpt>
      <trkpt lat="42.98952" lon="2.00221">
        <ele>372.7</ele>
        <time>2017-07-31T15:14:32Z</time>
      </trkpt>
      <trkpt lat="42.98952" lon="2.00221">
        <ele>372.8</ele>
        <time>2017-07-31T15:14:33Z</time>
      </trkpt>
      <trkpt lat="42.98952" lon="2.00221">
        <ele>372.8</ele>
        <time>2017-07-31T15:14:34Z</time>
      </trkpt>
      <trkpt lat="42.98943" lon="2.0022">
        <ele>372.9</ele>
        <time>2017-07-31T15:14:35Z</time>
      </trkpt>
      <trkpt lat="42.98943" lon="2.0022">
        <ele>372.9</ele>
        <time>2017-07-31T15:14:36Z</time>
      </trkpt>
      <trkpt lat="42.98943" lon="2.0022">
        <ele>373</ele>
        <time>2017-07-31T15:14:37Z</time>
      </trkpt>
      <trkpt lat="42.98943" lon="2.0022">
        <ele>373</ele>
        <time>2017-07-31T15:14:38Z</time>
      </trkpt>
      <trkpt lat="42.98943" lon="2.0022">
        <ele>373.2</ele>
        <time>2017-07-31T15:14:39Z</time>
      </trkpt>
      <trkpt lat="42.98943" lon="2.0022">
        <ele>373.4</ele>
        <time>2017-07-31T15:14:40Z</time>
      </trkpt>
      <trkpt lat="42.98943" lon="2.0022">
        <ele>373.5</ele>
        <time>2017-07-31T15:14:41Z</time>
      </trkpt>
      <trkpt lat="42.98943" lon="2.0022">
        <ele>373.2</ele>
        <time>2017-07-31T15:14:42Z</time>
      </trkpt>
      <trkpt lat="42.98943" lon="2.0022">
        <ele>372.9</ele>
        <time>2017-07-31T15:14:43Z</time>
      </trkpt>
      <trkpt lat="42.98943" lon="2.0022">
        <ele>372.7</ele>
        <time>2017-07-31T15:14:44Z</time>
      </trkpt>
      <trkpt lat="42.98943" lon="2.0022">
        <ele>373.3</ele>
        <time>2017-07-31T15:14:45Z</time>
      </trkpt>
      <trkpt lat="42.98943" lon="2.0022">
        <ele>373.6</ele>
        <time>2017-07-31T15:14:46Z</time>
      </trkpt>
      <trkpt lat="42.98943" lon="2.0022">
        <ele>373.9</ele>
        <time>2017-07-31T15:14:47Z</time>
      </trkpt>
      <trkpt lat="42.98943" lon="2.0022">
        <ele>373.3</ele>
        <time>2017-07-31T15:14:48Z</time>
      </trkpt>
      <trkpt lat="42.98943" lon="2.0022">
        <ele>372.8</ele>
        <time>2017-07-31T15:14:49Z</time>
      </trkpt>
      <trkpt lat="42.98937" lon="2.00226">
        <ele>372.4</ele>
        <time>2017-07-31T15:14:50Z</time>
      </trkpt>
      <trkpt lat="42.98934" lon="2.00229">
        <ele>372.8</ele>
        <time>2017-07-31T15:14:51Z</time>
      </trkpt>
      <trkpt lat="42.98923" lon="2.00236">
        <ele>373.2</ele>
        <time>2017-07-31T15:14:54Z</time>
      </trkpt>
      <trkpt lat="42.98919" lon="2.00237">
        <ele>373.2</ele>
        <time>2017-07-31T15:14:55Z</time>
      </trkpt>
      <trkpt lat="42.98915" lon="2.00238">
        <ele>373.1</ele>
        <time>2017-07-31T15:14:56Z</time>
      </trkpt>
      <trkpt lat="42.9885" lon="2.00259">
        <ele>374.2</ele>
        <time>2017-07-31T15:15:14Z</time>
      </trkpt>
      <trkpt lat="42.9882" lon="2.00278">
        <ele>374.3</ele>
        <time>2017-07-31T15:15:22Z</time>
      </trkpt>
      <trkpt lat="42.98809" lon="2.00283">
        <ele>374.9</ele>
        <time>2017-07-31T15:15:25Z</time>
      </trkpt>
      <trkpt lat="42.9879" lon="2.0029">
        <ele>374.6</ele>
        <time>2017-07-31T15:15:30Z</time>
      </trkpt>
      <trkpt lat="42.98774" lon="2.00292">
        <ele>374.1</ele>
        <time>2017-07-31T15:15:34Z</time>
      </trkpt>
      <trkpt lat="42.98758" lon="2.00295">
        <ele>373.9</ele>
        <time>2017-07-31T15:15:40Z</time>
      </trkpt>
      <trkpt lat="42.98758" lon="2.00295">
        <ele>373.7</ele>
        <time>2017-07-31T15:15:41Z</time>
      </trkpt>
      <trkpt lat="42.98758" lon="2.00295">
        <ele>373.9</ele>
        <time>2017-07-31T15:15:42Z</time>
      </trkpt>
      <trkpt lat="42.98758" lon="2.00295">
        <ele>374.1</ele>
        <time>2017-07-31T15:15:43Z</time>
      </trkpt>
      <trkpt lat="42.98758" lon="2.00295">
        <ele>374.3</ele>
        <time>2017-07-31T15:15:44Z</time>
      </trkpt>
      <trkpt lat="42.98758" lon="2.00295">
        <ele>374.6</ele>
        <time>2017-07-31T15:15:45Z</time>
      </trkpt>
      <trkpt lat="42.98758" lon="2.00295">
        <ele>374.9</ele>
        <time>2017-07-31T15:15:46Z</time>
      </trkpt>
      <trkpt lat="42.98758" lon="2.00295">
        <ele>375.1</ele>
        <time>2017-07-31T15:15:47Z</time>
      </trkpt>
      <trkpt lat="42.98758" lon="2.00295">
        <ele>375</ele>
        <time>2017-07-31T15:15:48Z</time>
      </trkpt>
      <trkpt lat="42.98758" lon="2.00295">
        <ele>374.9</ele>
        <time>2017-07-31T15:15:49Z</time>
      </trkpt>
      <trkpt lat="42.98758" lon="2.00295">
        <ele>374.9</ele>
        <time>2017-07-31T15:15:50Z</time>
      </trkpt>
      <trkpt lat="42.98758" lon="2.00295">
        <ele>374.4</ele>
        <time>2017-07-31T15:15:51Z</time>
      </trkpt>
      <trkpt lat="42.98758" lon="2.00295">
        <ele>374.1</ele>
        <time>2017-07-31T15:15:52Z</time>
      </trkpt>
      <trkpt lat="42.98758" lon="2.00295">
        <ele>373.8</ele>
        <time>2017-07-31T15:15:53Z</time>
      </trkpt>
      <trkpt lat="42.98758" lon="2.00295">
        <ele>373.9</ele>
        <time>2017-07-31T15:15:54Z</time>
      </trkpt>
      <trkpt lat="42.98758" lon="2.00295">
        <ele>373.9</ele>
        <time>2017-07-31T15:15:55Z</time>
      </trkpt>
      <trkpt lat="42.98758" lon="2.00295">
        <ele>373.9</ele>
        <time>2017-07-31T15:15:56Z</time>
      </trkpt>
      <trkpt lat="42.98758" lon="2.00295">
        <ele>373.9</ele>
        <time>2017-07-31T15:15:57Z</time>
      </trkpt>
      <trkpt lat="42.98758" lon="2.00295">
        <ele>373.9</ele>
        <time>2017-07-31T15:15:58Z</time>
      </trkpt>
      <trkpt lat="42.98758" lon="2.00295">
        <ele>373.9</ele>
        <time>2017-07-31T15:15:59Z</time>
      </trkpt>
      <trkpt lat="42.98758" lon="2.00295">
        <ele>373.7</ele>
        <time>2017-07-31T15:16:00Z</time>
      </trkpt>
      <trkpt lat="42.98758" lon="2.00295">
        <ele>373.5</ele>
        <time>2017-07-31T15:16:01Z</time>
      </trkpt>
      <trkpt lat="42.98758" lon="2.00295">
        <ele>373.4</ele>
        <time>2017-07-31T15:16:02Z</time>
      </trkpt>
      <trkpt lat="42.98758" lon="2.00295">
        <ele>373.7</ele>
        <time>2017-07-31T15:16:03Z</time>
      </trkpt>
      <trkpt lat="42.98751" lon="2.00296">
        <ele>374</ele>
        <time>2017-07-31T15:16:04Z</time>
      </trkpt>
      <trkpt lat="42.98748" lon="2.00297">
        <ele>374.1</ele>
        <time>2017-07-31T15:16:06Z</time>
      </trkpt>
      <trkpt lat="42.98704" lon="2.00301">
        <ele>372.7</ele>
        <time>2017-07-31T15:16:18Z</time>
      </trkpt>
      <trkpt lat="42.98704" lon="2.00301">
        <ele>372.8</ele>
        <time>2017-07-31T15:16:19Z</time>
      </trkpt>
      <trkpt lat="42.98704" lon="2.00301">
        <ele>372.8</ele>
        <time>2017-07-31T15:16:20Z</time>
      </trkpt>
      <trkpt lat="42.98704" lon="2.00301">
        <ele>373.3</ele>
        <time>2017-07-31T15:16:21Z</time>
      </trkpt>
      <trkpt lat="42.98704" lon="2.00301">
        <ele>373.7</ele>
        <time>2017-07-31T15:16:22Z</time>
      </trkpt>
      <trkpt lat="42.98709" lon="2.00302">
        <ele>374</ele>
        <time>2017-07-31T15:16:23Z</time>
      </trkpt>
      <trkpt lat="42.98709" lon="2.00302">
        <ele>375</ele>
        <time>2017-07-31T15:16:24Z</time>
      </trkpt>
      <trkpt lat="42.98709" lon="2.00302">
        <ele>375.8</ele>
        <time>2017-07-31T15:16:25Z</time>
      </trkpt>
      <trkpt lat="42.98709" lon="2.00302">
        <ele>376.4</ele>
        <time>2017-07-31T15:16:26Z</time>
      </trkpt>
      <trkpt lat="42.98709" lon="2.00302">
        <ele>376</ele>
        <time>2017-07-31T15:16:27Z</time>
      </trkpt>
      <trkpt lat="42.98709" lon="2.00302">
        <ele>375.7</ele>
        <time>2017-07-31T15:16:28Z</time>
      </trkpt>
      <trkpt lat="42.98709" lon="2.00302">
        <ele>375.5</ele>
        <time>2017-07-31T15:16:29Z</time>
      </trkpt>
      <trkpt lat="42.98709" lon="2.00302">
        <ele>375.5</ele>
        <time>2017-07-31T15:16:30Z</time>
      </trkpt>
      <trkpt lat="42.98709" lon="2.00302">
        <ele>375.6</ele>
        <time>2017-07-31T15:16:31Z</time>
      </trkpt>
      <trkpt lat="42.98709" lon="2.00302">
        <ele>375.6</ele>
        <time>2017-07-31T15:16:32Z</time>
      </trkpt>
      <trkpt lat="42.98709" lon="2.00302">
        <ele>375.4</ele>
        <time>2017-07-31T15:16:33Z</time>
      </trkpt>
      <trkpt lat="42.98709" lon="2.00302">
        <ele>375.2</ele>
        <time>2017-07-31T15:16:34Z</time>
      </trkpt>
      <trkpt lat="42.98709" lon="2.00302">
        <ele>375.1</ele>
        <time>2017-07-31T15:16:35Z</time>
      </trkpt>
      <trkpt lat="42.98709" lon="2.00302">
        <ele>375.2</ele>
        <time>2017-07-31T15:16:36Z</time>
      </trkpt>
      <trkpt lat="42.98709" lon="2.00302">
        <ele>375.3</ele>
        <time>2017-07-31T15:16:37Z</time>
      </trkpt>
      <trkpt lat="42.98709" lon="2.00302">
        <ele>375.4</ele>
        <time>2017-07-31T15:16:38Z</time>
      </trkpt>
      <trkpt lat="42.98709" lon="2.00302">
        <ele>375</ele>
        <time>2017-07-31T15:16:39Z</time>
      </trkpt>
      <trkpt lat="42.98709" lon="2.00302">
        <ele>374.8</ele>
        <time>2017-07-31T15:16:40Z</time>
      </trkpt>
      <trkpt lat="42.98709" lon="2.00302">
        <ele>374.5</ele>
        <time>2017-07-31T15:16:41Z</time>
      </trkpt>
      <trkpt lat="42.98709" lon="2.00302">
        <ele>374.6</ele>
        <time>2017-07-31T15:16:42Z</time>
      </trkpt>
      <trkpt lat="42.98709" lon="2.00302">
        <ele>374.6</ele>
        <time>2017-07-31T15:16:43Z</time>
      </trkpt>
      <trkpt lat="42.98709" lon="2.00302">
        <ele>374.7</ele>
        <time>2017-07-31T15:16:44Z</time>
      </trkpt>
      <trkpt lat="42.98709" lon="2.00302">
        <ele>374.3</ele>
        <time>2017-07-31T15:16:45Z</time>
      </trkpt>
      <trkpt lat="42.98709" lon="2.00302">
        <ele>374</ele>
        <time>2017-07-31T15:16:46Z</time>
      </trkpt>
      <trkpt lat="42.98709" lon="2.00302">
        <ele>373.7</ele>
        <time>2017-07-31T15:16:47Z</time>
      </trkpt>
      <trkpt lat="42.98709" lon="2.00302">
        <ele>373.6</ele>
        <time>2017-07-31T15:16:48Z</time>
      </trkpt>
      <trkpt lat="42.98709" lon="2.00302">
        <ele>373.4</ele>
        <time>2017-07-31T15:16:49Z</time>
      </trkpt>
      <trkpt lat="42.98709" lon="2.00302">
        <ele>373.3</ele>
        <time>2017-07-31T15:16:50Z</time>
      </trkpt>
      <trkpt lat="42.98709" lon="2.00302">
        <ele>373.3</ele>
        <time>2017-07-31T15:16:51Z</time>
      </trkpt>
      <trkpt lat="42.98709" lon="2.00302">
        <ele>373.2</ele>
        <time>2017-07-31T15:16:52Z</time>
      </trkpt>
      <trkpt lat="42.98709" lon="2.00302">
        <ele>373.2</ele>
        <time>2017-07-31T15:16:53Z</time>
      </trkpt>
      <trkpt lat="42.98709" lon="2.00302">
        <ele>372.9</ele>
        <time>2017-07-31T15:16:54Z</time>
      </trkpt>
      <trkpt lat="42.98709" lon="2.00302">
        <ele>372.7</ele>
        <time>2017-07-31T15:16:55Z</time>
      </trkpt>
      <trkpt lat="42.98709" lon="2.00302">
        <ele>372.6</ele>
        <time>2017-07-31T15:16:56Z</time>
      </trkpt>
      <trkpt lat="42.98709" lon="2.00302">
        <ele>373.6</ele>
        <time>2017-07-31T15:16:57Z</time>
      </trkpt>
      <trkpt lat="42.98709" lon="2.00302">
        <ele>374.3</ele>
        <time>2017-07-31T15:16:58Z</time>
      </trkpt>
      <trkpt lat="42.98709" lon="2.00302">
        <ele>374.9</ele>
        <time>2017-07-31T15:16:59Z</time>
      </trkpt>
      <trkpt lat="42.98709" lon="2.00302">
        <ele>374.8</ele>
        <time>2017-07-31T15:17:00Z</time>
      </trkpt>
      <trkpt lat="42.98709" lon="2.00302">
        <ele>374.8</ele>
        <time>2017-07-31T15:17:01Z</time>
      </trkpt>
      <trkpt lat="42.98709" lon="2.00302">
        <ele>374.8</ele>
        <time>2017-07-31T15:17:02Z</time>
      </trkpt>
      <trkpt lat="42.98709" lon="2.00302">
        <ele>374.6</ele>
        <time>2017-07-31T15:17:03Z</time>
      </trkpt>
      <trkpt lat="42.98709" lon="2.00302">
        <ele>374.4</ele>
        <time>2017-07-31T15:17:04Z</time>
      </trkpt>
      <trkpt lat="42.98709" lon="2.00302">
        <ele>374.3</ele>
        <time>2017-07-31T15:17:05Z</time>
      </trkpt>
      <trkpt lat="42.98709" lon="2.00302">
        <ele>374.2</ele>
        <time>2017-07-31T15:17:06Z</time>
      </trkpt>
      <trkpt lat="42.98709" lon="2.00302">
        <ele>374.1</ele>
        <time>2017-07-31T15:17:07Z</time>
      </trkpt>
      <trkpt lat="42.98709" lon="2.00302">
        <ele>374.1</ele>
        <time>2017-07-31T15:17:08Z</time>
      </trkpt>
      <trkpt lat="42.98709" lon="2.00302">
        <ele>373.8</ele>
        <time>2017-07-31T15:17:09Z</time>
      </trkpt>
      <trkpt lat="42.98709" lon="2.00302">
        <ele>373.6</ele>
        <time>2017-07-31T15:17:10Z</time>
      </trkpt>
      <trkpt lat="42.98709" lon="2.00302">
        <ele>373.5</ele>
        <time>2017-07-31T15:17:11Z</time>
      </trkpt>
      <trkpt lat="42.98709" lon="2.00302">
        <ele>372.9</ele>
        <time>2017-07-31T15:17:12Z</time>
      </trkpt>
      <trkpt lat="42.98709" lon="2.00302">
        <ele>372.5</ele>
        <time>2017-07-31T15:17:13Z</time>
      </trkpt>
      <trkpt lat="42.98709" lon="2.00302">
        <ele>372.2</ele>
        <time>2017-07-31T15:17:14Z</time>
      </trkpt>
      <trkpt lat="42.98709" lon="2.00302">
        <ele>372.6</ele>
        <time>2017-07-31T15:17:15Z</time>
      </trkpt>
      <trkpt lat="42.98709" lon="2.00302">
        <ele>373</ele>
        <time>2017-07-31T15:17:16Z</time>
      </trkpt>
      <trkpt lat="42.98709" lon="2.00302">
        <ele>373.2</ele>
        <time>2017-07-31T15:17:17Z</time>
      </trkpt>
      <trkpt lat="42.98709" lon="2.00302">
        <ele>373.2</ele>
        <time>2017-07-31T15:17:18Z</time>
      </trkpt>
      <trkpt lat="42.98698" lon="2.00297">
        <ele>373.1</ele>
        <time>2017-07-31T15:17:19Z</time>
      </trkpt>
      <trkpt lat="42.98688" lon="2.00292">
        <ele>373.1</ele>
        <time>2017-07-31T15:17:22Z</time>
      </trkpt>
      <trkpt lat="42.98685" lon="2.00289">
        <ele>373.1</ele>
        <time>2017-07-31T15:17:23Z</time>
      </trkpt>
      <trkpt lat="42.98669" lon="2.00277">
        <ele>374.8</ele>
        <time>2017-07-31T15:17:28Z</time>
      </trkpt>
      <trkpt lat="42.98665" lon="2.00276">
        <ele>375</ele>
        <time>2017-07-31T15:17:29Z</time>
      </trkpt>
      <trkpt lat="42.98655" lon="2.00274">
        <ele>375.4</ele>
        <time>2017-07-31T15:17:32Z</time>
      </trkpt>
      <trkpt lat="42.98651" lon="2.00275">
        <ele>375.4</ele>
        <time>2017-07-31T15:17:33Z</time>
      </trkpt>
      <trkpt lat="42.98608" lon="2.00281">
        <ele>374.1</ele>
        <time>2017-07-31T15:17:44Z</time>
      </trkpt>
      <trkpt lat="42.98509" lon="2.00293">
        <ele>374.6</ele>
        <time>2017-07-31T15:18:14Z</time>
      </trkpt>
      <trkpt lat="42.98509" lon="2.00293">
        <ele>374</ele>
        <time>2017-07-31T15:18:15Z</time>
      </trkpt>
      <trkpt lat="42.98509" lon="2.00293">
        <ele>373.6</ele>
        <time>2017-07-31T15:18:16Z</time>
      </trkpt>
      <trkpt lat="42.98509" lon="2.00293">
        <ele>373.2</ele>
        <time>2017-07-31T15:18:17Z</time>
      </trkpt>
      <trkpt lat="42.98509" lon="2.00293">
        <ele>373.6</ele>
        <time>2017-07-31T15:18:18Z</time>
      </trkpt>
      <trkpt lat="42.98509" lon="2.00293">
        <ele>373.9</ele>
        <time>2017-07-31T15:18:19Z</time>
      </trkpt>
      <trkpt lat="42.98509" lon="2.00293">
        <ele>374.1</ele>
        <time>2017-07-31T15:18:20Z</time>
      </trkpt>
      <trkpt lat="42.98509" lon="2.00293">
        <ele>374.3</ele>
        <time>2017-07-31T15:18:21Z</time>
      </trkpt>
      <trkpt lat="42.98509" lon="2.00293">
        <ele>374.4</ele>
        <time>2017-07-31T15:18:22Z</time>
      </trkpt>
      <trkpt lat="42.98509" lon="2.00293">
        <ele>374.5</ele>
        <time>2017-07-31T15:18:23Z</time>
      </trkpt>
      <trkpt lat="42.98509" lon="2.00293">
        <ele>374.6</ele>
        <time>2017-07-31T15:18:24Z</time>
      </trkpt>
      <trkpt lat="42.98509" lon="2.00293">
        <ele>374.6</ele>
        <time>2017-07-31T15:18:25Z</time>
      </trkpt>
      <trkpt lat="42.98509" lon="2.00293">
        <ele>374.7</ele>
        <time>2017-07-31T15:18:26Z</time>
      </trkpt>
      <trkpt lat="42.98509" lon="2.00293">
        <ele>374.7</ele>
        <time>2017-07-31T15:18:27Z</time>
      </trkpt>
      <trkpt lat="42.98509" lon="2.00293">
        <ele>374.7</ele>
        <time>2017-07-31T15:18:28Z</time>
      </trkpt>
      <trkpt lat="42.98507" lon="2.00293">
        <ele>374.7</ele>
        <time>2017-07-31T15:18:29Z</time>
      </trkpt>
      <trkpt lat="42.98507" lon="2.00293">
        <ele>374.7</ele>
        <time>2017-07-31T15:18:30Z</time>
      </trkpt>
      <trkpt lat="42.98506" lon="2.00294">
        <ele>374.8</ele>
        <time>2017-07-31T15:18:31Z</time>
      </trkpt>
      <trkpt lat="42.98506" lon="2.00294">
        <ele>374.8</ele>
        <time>2017-07-31T15:18:32Z</time>
      </trkpt>
      <trkpt lat="42.98506" lon="2.00294">
        <ele>374.5</ele>
        <time>2017-07-31T15:18:33Z</time>
      </trkpt>
      <trkpt lat="42.98506" lon="2.00295">
        <ele>374.4</ele>
        <time>2017-07-31T15:18:34Z</time>
      </trkpt>
      <trkpt lat="42.98505" lon="2.00296">
        <ele>374.3</ele>
        <time>2017-07-31T15:18:35Z</time>
      </trkpt>
      <trkpt lat="42.98505" lon="2.00297">
        <ele>374.2</ele>
        <time>2017-07-31T15:18:36Z</time>
      </trkpt>
      <trkpt lat="42.98504" lon="2.00298">
        <ele>374.1</ele>
        <time>2017-07-31T15:18:37Z</time>
      </trkpt>
      <trkpt lat="42.98503" lon="2.00299">
        <ele>373.6</ele>
        <time>2017-07-31T15:18:39Z</time>
      </trkpt>
      <trkpt lat="42.98502" lon="2.00299">
        <ele>373.2</ele>
        <time>2017-07-31T15:18:40Z</time>
      </trkpt>
      <trkpt lat="42.98502" lon="2.003">
        <ele>373</ele>
        <time>2017-07-31T15:18:41Z</time>
      </trkpt>
      <trkpt lat="42.98501" lon="2.003">
        <ele>373</ele>
        <time>2017-07-31T15:18:42Z</time>
      </trkpt>
      <trkpt lat="42.98501" lon="2.003">
        <ele>373</ele>
        <time>2017-07-31T15:18:43Z</time>
      </trkpt>
      <trkpt lat="42.98501" lon="2.003">
        <ele>373</ele>
        <time>2017-07-31T15:18:44Z</time>
      </trkpt>
      <trkpt lat="42.985" lon="2.003">
        <ele>373</ele>
        <time>2017-07-31T15:18:45Z</time>
      </trkpt>
      <trkpt lat="42.985" lon="2.003">
        <ele>373</ele>
        <time>2017-07-31T15:18:46Z</time>
      </trkpt>
      <trkpt lat="42.985" lon="2.00299">
        <ele>373.7</ele>
        <time>2017-07-31T15:18:52Z</time>
      </trkpt>
      <trkpt lat="42.985" lon="2.00299">
        <ele>373.8</ele>
        <time>2017-07-31T15:18:53Z</time>
      </trkpt>
      <trkpt lat="42.985" lon="2.00299">
        <ele>374.4</ele>
        <time>2017-07-31T15:18:54Z</time>
      </trkpt>
      <trkpt lat="42.985" lon="2.00299">
        <ele>375</ele>
        <time>2017-07-31T15:18:55Z</time>
      </trkpt>
      <trkpt lat="42.98499" lon="2.00298">
        <ele>375.3</ele>
        <time>2017-07-31T15:18:56Z</time>
      </trkpt>
      <trkpt lat="42.98484" lon="2.00294">
        <ele>376.2</ele>
        <time>2017-07-31T15:19:01Z</time>
      </trkpt>
      <trkpt lat="42.98331" lon="2.00255">
        <ele>375.3</ele>
        <time>2017-07-31T15:19:47Z</time>
      </trkpt>
      <trkpt lat="42.98329" lon="2.00255">
        <ele>375.4</ele>
        <time>2017-07-31T15:19:48Z</time>
      </trkpt>
      <trkpt lat="42.9831" lon="2.00249">
        <ele>375.6</ele>
        <time>2017-07-31T15:19:57Z</time>
      </trkpt>
      <trkpt lat="42.9831" lon="2.00249">
        <ele>375.6</ele>
        <time>2017-07-31T15:19:58Z</time>
      </trkpt>
      <trkpt lat="42.9831" lon="2.00249">
        <ele>375.6</ele>
        <time>2017-07-31T15:19:59Z</time>
      </trkpt>
      <trkpt lat="42.9831" lon="2.00249">
        <ele>375.9</ele>
        <time>2017-07-31T15:20:00Z</time>
      </trkpt>
      <trkpt lat="42.9831" lon="2.00249">
        <ele>376</ele>
        <time>2017-07-31T15:20:01Z</time>
      </trkpt>
      <trkpt lat="42.9831" lon="2.00249">
        <ele>376.1</ele>
        <time>2017-07-31T15:20:02Z</time>
      </trkpt>
      <trkpt lat="42.9831" lon="2.00249">
        <ele>376.2</ele>
        <time>2017-07-31T15:20:03Z</time>
      </trkpt>
      <trkpt lat="42.98303" lon="2.00248">
        <ele>376.3</ele>
        <time>2017-07-31T15:20:04Z</time>
      </trkpt>
      <trkpt lat="42.98303" lon="2.00248">
        <ele>376.4</ele>
        <time>2017-07-31T15:20:05Z</time>
      </trkpt>
      <trkpt lat="42.98303" lon="2.00248">
        <ele>376</ele>
        <time>2017-07-31T15:20:06Z</time>
      </trkpt>
      <trkpt lat="42.98303" lon="2.00248">
        <ele>375.7</ele>
        <time>2017-07-31T15:20:07Z</time>
      </trkpt>
      <trkpt lat="42.98303" lon="2.00248">
        <ele>375.4</ele>
        <time>2017-07-31T15:20:08Z</time>
      </trkpt>
      <trkpt lat="42.98303" lon="2.00248">
        <ele>375.1</ele>
        <time>2017-07-31T15:20:09Z</time>
      </trkpt>
      <trkpt lat="42.98303" lon="2.00248">
        <ele>374.8</ele>
        <time>2017-07-31T15:20:10Z</time>
      </trkpt>
      <trkpt lat="42.98303" lon="2.00248">
        <ele>374.6</ele>
        <time>2017-07-31T15:20:11Z</time>
      </trkpt>
      <trkpt lat="42.98303" lon="2.00248">
        <ele>374.4</ele>
        <time>2017-07-31T15:20:12Z</time>
      </trkpt>
      <trkpt lat="42.98303" lon="2.00248">
        <ele>374.3</ele>
        <time>2017-07-31T15:20:13Z</time>
      </trkpt>
      <trkpt lat="42.98303" lon="2.00248">
        <ele>374.2</ele>
        <time>2017-07-31T15:20:14Z</time>
      </trkpt>
      <trkpt lat="42.98303" lon="2.00248">
        <ele>373.9</ele>
        <time>2017-07-31T15:20:15Z</time>
      </trkpt>
      <trkpt lat="42.98303" lon="2.00248">
        <ele>373.7</ele>
        <time>2017-07-31T15:20:16Z</time>
      </trkpt>
      <trkpt lat="42.98303" lon="2.00248">
        <ele>373.5</ele>
        <time>2017-07-31T15:20:17Z</time>
      </trkpt>
      <trkpt lat="42.98303" lon="2.00248">
        <ele>374.1</ele>
        <time>2017-07-31T15:20:18Z</time>
      </trkpt>
      <trkpt lat="42.98303" lon="2.00248">
        <ele>374.5</ele>
        <time>2017-07-31T15:20:19Z</time>
      </trkpt>
      <trkpt lat="42.98303" lon="2.00248">
        <ele>374.8</ele>
        <time>2017-07-31T15:20:20Z</time>
      </trkpt>
      <trkpt lat="42.98303" lon="2.00248">
        <ele>374.8</ele>
        <time>2017-07-31T15:20:21Z</time>
      </trkpt>
      <trkpt lat="42.98303" lon="2.00248">
        <ele>374.8</ele>
        <time>2017-07-31T15:20:22Z</time>
      </trkpt>
      <trkpt lat="42.98303" lon="2.00248">
        <ele>374.8</ele>
        <time>2017-07-31T15:20:23Z</time>
      </trkpt>
      <trkpt lat="42.98303" lon="2.00248">
        <ele>375</ele>
        <time>2017-07-31T15:20:24Z</time>
      </trkpt>
      <trkpt lat="42.98303" lon="2.00248">
        <ele>375.2</ele>
        <time>2017-07-31T15:20:25Z</time>
      </trkpt>
      <trkpt lat="42.98303" lon="2.00248">
        <ele>375.3</ele>
        <time>2017-07-31T15:20:26Z</time>
      </trkpt>
      <trkpt lat="42.98303" lon="2.00248">
        <ele>375.2</ele>
        <time>2017-07-31T15:20:27Z</time>
      </trkpt>
      <trkpt lat="42.98303" lon="2.00248">
        <ele>375.1</ele>
        <time>2017-07-31T15:20:28Z</time>
      </trkpt>
      <trkpt lat="42.98303" lon="2.00248">
        <ele>375</ele>
        <time>2017-07-31T15:20:29Z</time>
      </trkpt>
      <trkpt lat="42.98303" lon="2.00248">
        <ele>374.7</ele>
        <time>2017-07-31T15:20:30Z</time>
      </trkpt>
      <trkpt lat="42.98303" lon="2.00248">
        <ele>374.5</ele>
        <time>2017-07-31T15:20:31Z</time>
      </trkpt>
      <trkpt lat="42.98303" lon="2.00248">
        <ele>374.4</ele>
        <time>2017-07-31T15:20:32Z</time>
      </trkpt>
      <trkpt lat="42.98303" lon="2.00248">
        <ele>374.3</ele>
        <time>2017-07-31T15:20:33Z</time>
      </trkpt>
      <trkpt lat="42.98303" lon="2.00248">
        <ele>374.2</ele>
        <time>2017-07-31T15:20:34Z</time>
      </trkpt>
      <trkpt lat="42.98303" lon="2.00248">
        <ele>374.1</ele>
        <time>2017-07-31T15:20:35Z</time>
      </trkpt>
      <trkpt lat="42.98303" lon="2.00248">
        <ele>373.4</ele>
        <time>2017-07-31T15:20:36Z</time>
      </trkpt>
      <trkpt lat="42.98303" lon="2.00248">
        <ele>372.9</ele>
        <time>2017-07-31T15:20:37Z</time>
      </trkpt>
      <trkpt lat="42.98303" lon="2.00248">
        <ele>372.5</ele>
        <time>2017-07-31T15:20:38Z</time>
      </trkpt>
      <trkpt lat="42.98303" lon="2.00248">
        <ele>372.6</ele>
        <time>2017-07-31T15:20:39Z</time>
      </trkpt>
      <trkpt lat="42.98303" lon="2.00248">
        <ele>372.7</ele>
        <time>2017-07-31T15:20:40Z</time>
      </trkpt>
      <trkpt lat="42.98303" lon="2.00248">
        <ele>372.8</ele>
        <time>2017-07-31T15:20:41Z</time>
      </trkpt>
      <trkpt lat="42.98303" lon="2.00248">
        <ele>373.3</ele>
        <time>2017-07-31T15:20:42Z</time>
      </trkpt>
      <trkpt lat="42.98302" lon="2.00247">
        <ele>373.7</ele>
        <time>2017-07-31T15:20:43Z</time>
      </trkpt>
      <trkpt lat="42.98289" lon="2.00243">
        <ele>374.3</ele>
        <time>2017-07-31T15:20:48Z</time>
      </trkpt>
      <trkpt lat="42.98286" lon="2.00242">
        <ele>374.2</ele>
        <time>2017-07-31T15:20:49Z</time>
      </trkpt>
      <trkpt lat="42.98264" lon="2.00235">
        <ele>374.8</ele>
        <time>2017-07-31T15:21:01Z</time>
      </trkpt>
      <trkpt lat="42.98264" lon="2.00235">
        <ele>374.8</ele>
        <time>2017-07-31T15:21:02Z</time>
      </trkpt>
      <trkpt lat="42.98264" lon="2.00235">
        <ele>374.6</ele>
        <time>2017-07-31T15:21:03Z</time>
      </trkpt>
      <trkpt lat="42.98264" lon="2.00235">
        <ele>374.4</ele>
        <time>2017-07-31T15:21:04Z</time>
      </trkpt>
      <trkpt lat="42.98264" lon="2.00235">
        <ele>374.3</ele>
        <time>2017-07-31T15:21:05Z</time>
      </trkpt>
      <trkpt lat="42.98264" lon="2.00235">
        <ele>374.4</ele>
        <time>2017-07-31T15:21:06Z</time>
      </trkpt>
      <trkpt lat="42.98264" lon="2.00235">
        <ele>374.5</ele>
        <time>2017-07-31T15:21:07Z</time>
      </trkpt>
      <trkpt lat="42.98264" lon="2.00235">
        <ele>374.6</ele>
        <time>2017-07-31T15:21:08Z</time>
      </trkpt>
      <trkpt lat="42.98264" lon="2.00235">
        <ele>374.6</ele>
        <time>2017-07-31T15:21:09Z</time>
      </trkpt>
      <trkpt lat="42.98264" lon="2.00235">
        <ele>374.7</ele>
        <time>2017-07-31T15:21:10Z</time>
      </trkpt>
      <trkpt lat="42.98264" lon="2.00235">
        <ele>374.7</ele>
        <time>2017-07-31T15:21:11Z</time>
      </trkpt>
      <trkpt lat="42.98264" lon="2.00235">
        <ele>374.7</ele>
        <time>2017-07-31T15:21:12Z</time>
      </trkpt>
      <trkpt lat="42.98264" lon="2.00235">
        <ele>374.7</ele>
        <time>2017-07-31T15:21:13Z</time>
      </trkpt>
      <trkpt lat="42.98264" lon="2.00235">
        <ele>374.7</ele>
        <time>2017-07-31T15:21:14Z</time>
      </trkpt>
      <trkpt lat="42.98264" lon="2.00235">
        <ele>375.2</ele>
        <time>2017-07-31T15:21:15Z</time>
      </trkpt>
      <trkpt lat="42.98264" lon="2.00235">
        <ele>375.5</ele>
        <time>2017-07-31T15:21:16Z</time>
      </trkpt>
      <trkpt lat="42.98264" lon="2.00235">
        <ele>375.8</ele>
        <time>2017-07-31T15:21:17Z</time>
      </trkpt>
      <trkpt lat="42.98264" lon="2.00235">
        <ele>375.7</ele>
        <time>2017-07-31T15:21:18Z</time>
      </trkpt>
      <trkpt lat="42.98264" lon="2.00235">
        <ele>375.7</ele>
        <time>2017-07-31T15:21:19Z</time>
      </trkpt>
      <trkpt lat="42.98264" lon="2.00235">
        <ele>375.7</ele>
        <time>2017-07-31T15:21:20Z</time>
      </trkpt>
      <trkpt lat="42.98264" lon="2.00235">
        <ele>375.9</ele>
        <time>2017-07-31T15:21:21Z</time>
      </trkpt>
      <trkpt lat="42.98257" lon="2.00231">
        <ele>376.1</ele>
        <time>2017-07-31T15:21:22Z</time>
      </trkpt>
      <trkpt lat="42.98248" lon="2.00229">
        <ele>376.4</ele>
        <time>2017-07-31T15:21:26Z</time>
      </trkpt>
      <trkpt lat="42.98246" lon="2.00229">
        <ele>376</ele>
        <time>2017-07-31T15:21:27Z</time>
      </trkpt>
      <trkpt lat="42.98243" lon="2.00229">
        <ele>375.4</ele>
        <time>2017-07-31T15:21:29Z</time>
      </trkpt>
      <trkpt lat="42.98243" lon="2.00229">
        <ele>375.5</ele>
        <time>2017-07-31T15:21:30Z</time>
      </trkpt>
      <trkpt lat="42.98243" lon="2.00229">
        <ele>375.5</ele>
        <time>2017-07-31T15:21:31Z</time>
      </trkpt>
      <trkpt lat="42.98233" lon="2.00229">
        <ele>375.6</ele>
        <time>2017-07-31T15:21:32Z</time>
      </trkpt>
      <trkpt lat="42.9823" lon="2.00229">
        <ele>376</ele>
        <time>2017-07-31T15:21:34Z</time>
      </trkpt>
      <trkpt lat="42.9823" lon="2.00229">
        <ele>376.1</ele>
        <time>2017-07-31T15:21:35Z</time>
      </trkpt>
      <trkpt lat="42.9823" lon="2.00229">
        <ele>376</ele>
        <time>2017-07-31T15:21:36Z</time>
      </trkpt>
      <trkpt lat="42.9823" lon="2.00229">
        <ele>375.9</ele>
        <time>2017-07-31T15:21:37Z</time>
      </trkpt>
      <trkpt lat="42.9823" lon="2.00229">
        <ele>375.8</ele>
        <time>2017-07-31T15:21:38Z</time>
      </trkpt>
      <trkpt lat="42.9822" lon="2.00224">
        <ele>375.8</ele>
        <time>2017-07-31T15:21:39Z</time>
      </trkpt>
      <trkpt lat="42.9822" lon="2.00224">
        <ele>375.7</ele>
        <time>2017-07-31T15:21:41Z</time>
      </trkpt>
      <trkpt lat="42.9822" lon="2.00224">
        <ele>375.7</ele>
        <time>2017-07-31T15:21:42Z</time>
      </trkpt>
      <trkpt lat="42.9822" lon="2.00224">
        <ele>375.7</ele>
        <time>2017-07-31T15:21:43Z</time>
      </trkpt>
      <trkpt lat="42.9822" lon="2.00224">
        <ele>375.7</ele>
        <time>2017-07-31T15:21:44Z</time>
      </trkpt>
      <trkpt lat="42.9822" lon="2.00224">
        <ele>376.3</ele>
        <time>2017-07-31T15:21:45Z</time>
      </trkpt>
      <trkpt lat="42.9822" lon="2.00224">
        <ele>376.8</ele>
        <time>2017-07-31T15:21:46Z</time>
      </trkpt>
      <trkpt lat="42.9822" lon="2.00224">
        <ele>377.2</ele>
        <time>2017-07-31T15:21:47Z</time>
      </trkpt>
      <trkpt lat="42.9822" lon="2.00224">
        <ele>376.8</ele>
        <time>2017-07-31T15:21:48Z</time>
      </trkpt>
      <trkpt lat="42.9822" lon="2.00224">
        <ele>376.5</ele>
        <time>2017-07-31T15:21:49Z</time>
      </trkpt>
      <trkpt lat="42.9822" lon="2.00224">
        <ele>376.3</ele>
        <time>2017-07-31T15:21:50Z</time>
      </trkpt>
      <trkpt lat="42.9822" lon="2.00224">
        <ele>375.9</ele>
        <time>2017-07-31T15:21:51Z</time>
      </trkpt>
      <trkpt lat="42.9822" lon="2.00224">
        <ele>375.6</ele>
        <time>2017-07-31T15:21:52Z</time>
      </trkpt>
      <trkpt lat="42.9822" lon="2.00224">
        <ele>375.4</ele>
        <time>2017-07-31T15:21:53Z</time>
      </trkpt>
      <trkpt lat="42.9822" lon="2.00224">
        <ele>375.5</ele>
        <time>2017-07-31T15:21:54Z</time>
      </trkpt>
      <trkpt lat="42.9822" lon="2.00224">
        <ele>375.5</ele>
        <time>2017-07-31T15:21:55Z</time>
      </trkpt>
      <trkpt lat="42.9822" lon="2.00224">
        <ele>375.5</ele>
        <time>2017-07-31T15:21:56Z</time>
      </trkpt>
      <trkpt lat="42.9822" lon="2.00224">
        <ele>375.6</ele>
        <time>2017-07-31T15:21:57Z</time>
      </trkpt>
      <trkpt lat="42.9822" lon="2.00224">
        <ele>375.6</ele>
        <time>2017-07-31T15:21:58Z</time>
      </trkpt>
      <trkpt lat="42.9822" lon="2.00224">
        <ele>375.6</ele>
        <time>2017-07-31T15:21:59Z</time>
      </trkpt>
      <trkpt lat="42.9822" lon="2.00224">
        <ele>375.4</ele>
        <time>2017-07-31T15:22:00Z</time>
      </trkpt>
      <trkpt lat="42.9822" lon="2.00224">
        <ele>375.2</ele>
        <time>2017-07-31T15:22:01Z</time>
      </trkpt>
      <trkpt lat="42.9822" lon="2.00224">
        <ele>375.1</ele>
        <time>2017-07-31T15:22:02Z</time>
      </trkpt>
      <trkpt lat="42.9822" lon="2.00224">
        <ele>375</ele>
        <time>2017-07-31T15:22:03Z</time>
      </trkpt>
      <trkpt lat="42.9822" lon="2.00224">
        <ele>375</ele>
        <time>2017-07-31T15:22:04Z</time>
      </trkpt>
      <trkpt lat="42.9822" lon="2.00224">
        <ele>374.9</ele>
        <time>2017-07-31T15:22:05Z</time>
      </trkpt>
      <trkpt lat="42.9822" lon="2.00224">
        <ele>374.9</ele>
        <time>2017-07-31T15:22:06Z</time>
      </trkpt>
      <trkpt lat="42.9822" lon="2.00224">
        <ele>374.9</ele>
        <time>2017-07-31T15:22:07Z</time>
      </trkpt>
      <trkpt lat="42.9822" lon="2.00224">
        <ele>374.8</ele>
        <time>2017-07-31T15:22:08Z</time>
      </trkpt>
      <trkpt lat="42.9822" lon="2.00224">
        <ele>374.6</ele>
        <time>2017-07-31T15:22:09Z</time>
      </trkpt>
      <trkpt lat="42.9822" lon="2.00224">
        <ele>374.4</ele>
        <time>2017-07-31T15:22:10Z</time>
      </trkpt>
      <trkpt lat="42.9822" lon="2.00224">
        <ele>374.3</ele>
        <time>2017-07-31T15:22:11Z</time>
      </trkpt>
      <trkpt lat="42.9822" lon="2.00224">
        <ele>375.3</ele>
        <time>2017-07-31T15:22:12Z</time>
      </trkpt>
      <trkpt lat="42.98215" lon="2.0022">
        <ele>376</ele>
        <time>2017-07-31T15:22:13Z</time>
      </trkpt>
      <trkpt lat="42.98215" lon="2.0022">
        <ele>376.6</ele>
        <time>2017-07-31T15:22:14Z</time>
      </trkpt>
      <trkpt lat="42.98215" lon="2.0022">
        <ele>375.9</ele>
        <time>2017-07-31T15:22:15Z</time>
      </trkpt>
      <trkpt lat="42.98214" lon="2.00221">
        <ele>375.4</ele>
        <time>2017-07-31T15:22:16Z</time>
      </trkpt>
      <trkpt lat="42.98213" lon="2.00221">
        <ele>375</ele>
        <time>2017-07-31T15:22:17Z</time>
      </trkpt>
      <trkpt lat="42.98212" lon="2.00221">
        <ele>375.2</ele>
        <time>2017-07-31T15:22:18Z</time>
      </trkpt>
      <trkpt lat="42.98211" lon="2.00221">
        <ele>375.3</ele>
        <time>2017-07-31T15:22:19Z</time>
      </trkpt>
      <trkpt lat="42.9821" lon="2.00221">
        <ele>375.4</ele>
        <time>2017-07-31T15:22:20Z</time>
      </trkpt>
      <trkpt lat="42.98209" lon="2.00221">
        <ele>375.5</ele>
        <time>2017-07-31T15:22:21Z</time>
      </trkpt>
      <trkpt lat="42.98209" lon="2.00221">
        <ele>375.5</ele>
        <time>2017-07-31T15:22:22Z</time>
      </trkpt>
      <trkpt lat="42.98208" lon="2.00221">
        <ele>375.5</ele>
        <time>2017-07-31T15:22:23Z</time>
      </trkpt>
      <trkpt lat="42.98207" lon="2.00221">
        <ele>375.3</ele>
        <time>2017-07-31T15:22:24Z</time>
      </trkpt>
      <trkpt lat="42.98206" lon="2.00221">
        <ele>375.2</ele>
        <time>2017-07-31T15:22:25Z</time>
      </trkpt>
      <trkpt lat="42.98205" lon="2.0022">
        <ele>375.1</ele>
        <time>2017-07-31T15:22:26Z</time>
      </trkpt>
      <trkpt lat="42.97898" lon="2.00151">
        <ele>378.4</ele>
        <time>2017-07-31T15:24:02Z</time>
      </trkpt>
      <trkpt lat="42.97894" lon="2.00149">
        <ele>379.2</ele>
        <time>2017-07-31T15:24:03Z</time>
      </trkpt>
      <trkpt lat="42.97596" lon="1.99997">
        <ele>379.5</ele>
        <time>2017-07-31T15:25:13Z</time>
      </trkpt>
      <trkpt lat="42.97592" lon="1.99995">
        <ele>379.6</ele>
        <time>2017-07-31T15:25:14Z</time>
      </trkpt>
      <trkpt lat="42.97431" lon="1.99923">
        <ele>379.5</ele>
        <time>2017-07-31T15:26:00Z</time>
      </trkpt>
      <trkpt lat="42.97431" lon="1.99923">
        <ele>379.4</ele>
        <time>2017-07-31T15:26:01Z</time>
      </trkpt>
      <trkpt lat="42.97431" lon="1.99923">
        <ele>379.3</ele>
        <time>2017-07-31T15:26:02Z</time>
      </trkpt>
      <trkpt lat="42.97427" lon="1.99921">
        <ele>379.5</ele>
        <time>2017-07-31T15:26:03Z</time>
      </trkpt>
      <trkpt lat="42.97425" lon="1.99919">
        <ele>379.6</ele>
        <time>2017-07-31T15:26:04Z</time>
      </trkpt>
      <trkpt lat="42.9742" lon="1.99915">
        <ele>379.4</ele>
        <time>2017-07-31T15:26:07Z</time>
      </trkpt>
      <trkpt lat="42.97416" lon="1.99913">
        <ele>379.3</ele>
        <time>2017-07-31T15:26:09Z</time>
      </trkpt>
      <trkpt lat="42.97414" lon="1.99913">
        <ele>379.3</ele>
        <time>2017-07-31T15:26:10Z</time>
      </trkpt>
      <trkpt lat="42.97387" lon="1.99908">
        <ele>379.9</ele>
        <time>2017-07-31T15:26:18Z</time>
      </trkpt>
      <trkpt lat="42.97384" lon="1.99906">
        <ele>379.7</ele>
        <time>2017-07-31T15:26:19Z</time>
      </trkpt>
      <trkpt lat="42.97245" lon="1.99843">
        <ele>379.7</ele>
        <time>2017-07-31T15:26:55Z</time>
      </trkpt>
      <trkpt lat="42.97184" lon="1.9982">
        <ele>380.5</ele>
        <time>2017-07-31T15:27:13Z</time>
      </trkpt>
      <trkpt lat="42.97112" lon="1.99804">
        <ele>381.5</ele>
        <time>2017-07-31T15:27:30Z</time>
      </trkpt>
      <trkpt lat="42.97108" lon="1.99803">
        <ele>381.6</ele>
        <time>2017-07-31T15:27:31Z</time>
      </trkpt>
      <trkpt lat="42.97015" lon="1.99794">
        <ele>381.2</ele>
        <time>2017-07-31T15:27:52Z</time>
      </trkpt>
      <trkpt lat="42.96895" lon="1.99818">
        <ele>382.4</ele>
        <time>2017-07-31T15:28:21Z</time>
      </trkpt>
      <trkpt lat="42.96842" lon="1.99833">
        <ele>383.2</ele>
        <time>2017-07-31T15:28:34Z</time>
      </trkpt>
      <trkpt lat="42.96837" lon="1.99835">
        <ele>383.2</ele>
        <time>2017-07-31T15:28:35Z</time>
      </trkpt>
      <trkpt lat="42.96119" lon="2.00062">
        <ele>390</ele>
        <time>2017-07-31T15:31:40Z</time>
      </trkpt>
      <trkpt lat="42.95976" lon="2.00065">
        <ele>391</ele>
        <time>2017-07-31T15:32:18Z</time>
      </trkpt>
      <trkpt lat="42.95972" lon="2.00064">
        <ele>391</ele>
        <time>2017-07-31T15:32:19Z</time>
      </trkpt>
      <trkpt lat="42.95849" lon="2.00044">
        <ele>391.5</ele>
        <time>2017-07-31T15:32:46Z</time>
      </trkpt>
      <trkpt lat="42.95846" lon="2.00043">
        <ele>391.7</ele>
        <time>2017-07-31T15:32:47Z</time>
      </trkpt>
      <trkpt lat="42.95799" lon="2.0003">
        <ele>392.3</ele>
        <time>2017-07-31T15:32:57Z</time>
      </trkpt>
      <trkpt lat="42.95714" lon="1.99989">
        <ele>390.8</ele>
        <time>2017-07-31T15:33:16Z</time>
      </trkpt>
      <trkpt lat="42.95684" lon="1.99968">
        <ele>390.7</ele>
        <time>2017-07-31T15:33:23Z</time>
      </trkpt>
      <trkpt lat="42.95632" lon="1.99924">
        <ele>391</ele>
        <time>2017-07-31T15:33:39Z</time>
      </trkpt>
      <trkpt lat="42.95625" lon="1.99917">
        <ele>390.7</ele>
        <time>2017-07-31T15:33:41Z</time>
      </trkpt>
      <trkpt lat="42.95606" lon="1.99894">
        <ele>391.2</ele>
        <time>2017-07-31T15:33:49Z</time>
      </trkpt>
      <trkpt lat="42.95606" lon="1.99894">
        <ele>391.2</ele>
        <time>2017-07-31T15:33:50Z</time>
      </trkpt>
      <trkpt lat="42.95606" lon="1.99894">
        <ele>391.2</ele>
        <time>2017-07-31T15:33:51Z</time>
      </trkpt>
      <trkpt lat="42.95606" lon="1.99894">
        <ele>391.2</ele>
        <time>2017-07-31T15:33:52Z</time>
      </trkpt>
      <trkpt lat="42.956" lon="1.99886">
        <ele>391.2</ele>
        <time>2017-07-31T15:33:53Z</time>
      </trkpt>
      <trkpt lat="42.956" lon="1.99886">
        <ele>391.7</ele>
        <time>2017-07-31T15:33:54Z</time>
      </trkpt>
      <trkpt lat="42.956" lon="1.99886">
        <ele>392</ele>
        <time>2017-07-31T15:33:55Z</time>
      </trkpt>
      <trkpt lat="42.956" lon="1.99886">
        <ele>392.3</ele>
        <time>2017-07-31T15:33:56Z</time>
      </trkpt>
      <trkpt lat="42.956" lon="1.99886">
        <ele>392.2</ele>
        <time>2017-07-31T15:33:57Z</time>
      </trkpt>
      <trkpt lat="42.956" lon="1.99886">
        <ele>392.2</ele>
        <time>2017-07-31T15:33:58Z</time>
      </trkpt>
      <trkpt lat="42.956" lon="1.99886">
        <ele>392.2</ele>
        <time>2017-07-31T15:33:59Z</time>
      </trkpt>
      <trkpt lat="42.956" lon="1.99886">
        <ele>392</ele>
        <time>2017-07-31T15:34:00Z</time>
      </trkpt>
      <trkpt lat="42.956" lon="1.99886">
        <ele>391.8</ele>
        <time>2017-07-31T15:34:01Z</time>
      </trkpt>
      <trkpt lat="42.956" lon="1.99886">
        <ele>391.6</ele>
        <time>2017-07-31T15:34:02Z</time>
      </trkpt>
      <trkpt lat="42.956" lon="1.99886">
        <ele>392</ele>
        <time>2017-07-31T15:34:03Z</time>
      </trkpt>
      <trkpt lat="42.956" lon="1.99886">
        <ele>392.2</ele>
        <time>2017-07-31T15:34:04Z</time>
      </trkpt>
      <trkpt lat="42.956" lon="1.99886">
        <ele>392.4</ele>
        <time>2017-07-31T15:34:05Z</time>
      </trkpt>
      <trkpt lat="42.956" lon="1.99886">
        <ele>391.9</ele>
        <time>2017-07-31T15:34:06Z</time>
      </trkpt>
      <trkpt lat="42.956" lon="1.99886">
        <ele>391.5</ele>
        <time>2017-07-31T15:34:07Z</time>
      </trkpt>
      <trkpt lat="42.956" lon="1.99886">
        <ele>391.2</ele>
        <time>2017-07-31T15:34:08Z</time>
      </trkpt>
      <trkpt lat="42.956" lon="1.99886">
        <ele>391</ele>
        <time>2017-07-31T15:34:09Z</time>
      </trkpt>
      <trkpt lat="42.956" lon="1.99886">
        <ele>390.9</ele>
        <time>2017-07-31T15:34:10Z</time>
      </trkpt>
      <trkpt lat="42.956" lon="1.99886">
        <ele>390.8</ele>
        <time>2017-07-31T15:34:11Z</time>
      </trkpt>
      <trkpt lat="42.956" lon="1.99886">
        <ele>391.1</ele>
        <time>2017-07-31T15:34:12Z</time>
      </trkpt>
      <trkpt lat="42.956" lon="1.99886">
        <ele>391.4</ele>
        <time>2017-07-31T15:34:13Z</time>
      </trkpt>
      <trkpt lat="42.956" lon="1.99886">
        <ele>391.5</ele>
        <time>2017-07-31T15:34:14Z</time>
      </trkpt>
      <trkpt lat="42.956" lon="1.99886">
        <ele>391.7</ele>
        <time>2017-07-31T15:34:15Z</time>
      </trkpt>
      <trkpt lat="42.956" lon="1.99886">
        <ele>391.8</ele>
        <time>2017-07-31T15:34:16Z</time>
      </trkpt>
      <trkpt lat="42.95594" lon="1.99877">
        <ele>391.9</ele>
        <time>2017-07-31T15:34:17Z</time>
      </trkpt>
      <trkpt lat="42.95591" lon="1.99874">
        <ele>392.4</ele>
        <time>2017-07-31T15:34:18Z</time>
      </trkpt>
      <trkpt lat="42.95585" lon="1.99868">
        <ele>393</ele>
        <time>2017-07-31T15:34:20Z</time>
      </trkpt>
      <trkpt lat="42.95582" lon="1.99867">
        <ele>393</ele>
        <time>2017-07-31T15:34:21Z</time>
      </trkpt>
      <trkpt lat="42.95579" lon="1.99866">
        <ele>393</ele>
        <time>2017-07-31T15:34:22Z</time>
      </trkpt>
      <trkpt lat="42.95576" lon="1.99865">
        <ele>393</ele>
        <time>2017-07-31T15:34:23Z</time>
      </trkpt>
      <trkpt lat="42.95565" lon="1.99862">
        <ele>391.9</ele>
        <time>2017-07-31T15:34:27Z</time>
      </trkpt>
      <trkpt lat="42.95563" lon="1.99861">
        <ele>391.1</ele>
        <time>2017-07-31T15:34:28Z</time>
      </trkpt>
      <trkpt lat="42.9556" lon="1.99858">
        <ele>390.5</ele>
        <time>2017-07-31T15:34:29Z</time>
      </trkpt>
      <trkpt lat="42.9555" lon="1.99841">
        <ele>391.8</ele>
        <time>2017-07-31T15:34:33Z</time>
      </trkpt>
      <trkpt lat="42.95328" lon="1.99443">
        <ele>393.2</ele>
        <time>2017-07-31T15:36:05Z</time>
      </trkpt>
      <trkpt lat="42.95328" lon="1.99443">
        <ele>393.2</ele>
        <time>2017-07-31T15:36:06Z</time>
      </trkpt>
      <trkpt lat="42.95328" lon="1.99443">
        <ele>393.1</ele>
        <time>2017-07-31T15:36:07Z</time>
      </trkpt>
      <trkpt lat="42.95328" lon="1.99443">
        <ele>393.1</ele>
        <time>2017-07-31T15:36:08Z</time>
      </trkpt>
      <trkpt lat="42.95328" lon="1.99443">
        <ele>393.5</ele>
        <time>2017-07-31T15:36:09Z</time>
      </trkpt>
      <trkpt lat="42.95328" lon="1.99443">
        <ele>393.8</ele>
        <time>2017-07-31T15:36:10Z</time>
      </trkpt>
      <trkpt lat="42.95328" lon="1.99443">
        <ele>394</ele>
        <time>2017-07-31T15:36:11Z</time>
      </trkpt>
      <trkpt lat="42.95328" lon="1.99443">
        <ele>394.2</ele>
        <time>2017-07-31T15:36:12Z</time>
      </trkpt>
      <trkpt lat="42.95328" lon="1.99443">
        <ele>394.3</ele>
        <time>2017-07-31T15:36:13Z</time>
      </trkpt>
      <trkpt lat="42.95328" lon="1.99443">
        <ele>394.4</ele>
        <time>2017-07-31T15:36:14Z</time>
      </trkpt>
      <trkpt lat="42.95328" lon="1.99443">
        <ele>394.3</ele>
        <time>2017-07-31T15:36:15Z</time>
      </trkpt>
      <trkpt lat="42.95328" lon="1.99443">
        <ele>394.2</ele>
        <time>2017-07-31T15:36:16Z</time>
      </trkpt>
      <trkpt lat="42.95328" lon="1.99443">
        <ele>394.1</ele>
        <time>2017-07-31T15:36:17Z</time>
      </trkpt>
      <trkpt lat="42.95328" lon="1.99443">
        <ele>393.6</ele>
        <time>2017-07-31T15:36:18Z</time>
      </trkpt>
      <trkpt lat="42.95328" lon="1.99443">
        <ele>393.2</ele>
        <time>2017-07-31T15:36:19Z</time>
      </trkpt>
      <trkpt lat="42.95328" lon="1.99443">
        <ele>393</ele>
        <time>2017-07-31T15:36:20Z</time>
      </trkpt>
      <trkpt lat="42.95328" lon="1.99443">
        <ele>393.2</ele>
        <time>2017-07-31T15:36:21Z</time>
      </trkpt>
      <trkpt lat="42.95328" lon="1.99443">
        <ele>393.4</ele>
        <time>2017-07-31T15:36:22Z</time>
      </trkpt>
      <trkpt lat="42.95328" lon="1.99443">
        <ele>393.5</ele>
        <time>2017-07-31T15:36:23Z</time>
      </trkpt>
      <trkpt lat="42.95328" lon="1.99443">
        <ele>393.4</ele>
        <time>2017-07-31T15:36:24Z</time>
      </trkpt>
      <trkpt lat="42.95328" lon="1.99443">
        <ele>393.3</ele>
        <time>2017-07-31T15:36:25Z</time>
      </trkpt>
      <trkpt lat="42.95328" lon="1.99443">
        <ele>393.2</ele>
        <time>2017-07-31T15:36:26Z</time>
      </trkpt>
      <trkpt lat="42.95328" lon="1.99443">
        <ele>393.1</ele>
        <time>2017-07-31T15:36:27Z</time>
      </trkpt>
      <trkpt lat="42.95328" lon="1.99443">
        <ele>393.1</ele>
        <time>2017-07-31T15:36:28Z</time>
      </trkpt>
      <trkpt lat="42.95328" lon="1.99443">
        <ele>393.1</ele>
        <time>2017-07-31T15:36:29Z</time>
      </trkpt>
      <trkpt lat="42.95328" lon="1.99443">
        <ele>393.5</ele>
        <time>2017-07-31T15:36:30Z</time>
      </trkpt>
      <trkpt lat="42.95328" lon="1.99443">
        <ele>393.8</ele>
        <time>2017-07-31T15:36:31Z</time>
      </trkpt>
      <trkpt lat="42.95328" lon="1.99443">
        <ele>394</ele>
        <time>2017-07-31T15:36:32Z</time>
      </trkpt>
      <trkpt lat="42.95328" lon="1.99443">
        <ele>394</ele>
        <time>2017-07-31T15:36:33Z</time>
      </trkpt>
      <trkpt lat="42.95328" lon="1.99443">
        <ele>394</ele>
        <time>2017-07-31T15:36:34Z</time>
      </trkpt>
      <trkpt lat="42.95328" lon="1.99443">
        <ele>393.9</ele>
        <time>2017-07-31T15:36:35Z</time>
      </trkpt>
      <trkpt lat="42.95328" lon="1.99443">
        <ele>393.5</ele>
        <time>2017-07-31T15:36:36Z</time>
      </trkpt>
      <trkpt lat="42.95328" lon="1.99443">
        <ele>393.1</ele>
        <time>2017-07-31T15:36:37Z</time>
      </trkpt>
      <trkpt lat="42.95328" lon="1.99443">
        <ele>392.9</ele>
        <time>2017-07-31T15:36:38Z</time>
      </trkpt>
      <trkpt lat="42.95328" lon="1.99443">
        <ele>392.9</ele>
        <time>2017-07-31T15:36:39Z</time>
      </trkpt>
      <trkpt lat="42.95328" lon="1.99443">
        <ele>392.9</ele>
        <time>2017-07-31T15:36:40Z</time>
      </trkpt>
      <trkpt lat="42.95328" lon="1.99443">
        <ele>393</ele>
        <time>2017-07-31T15:36:41Z</time>
      </trkpt>
      <trkpt lat="42.95328" lon="1.99443">
        <ele>392.3</ele>
        <time>2017-07-31T15:36:42Z</time>
      </trkpt>
      <trkpt lat="42.95328" lon="1.99443">
        <ele>391.8</ele>
        <time>2017-07-31T15:36:43Z</time>
      </trkpt>
      <trkpt lat="42.95328" lon="1.99443">
        <ele>391.5</ele>
        <time>2017-07-31T15:36:44Z</time>
      </trkpt>
      <trkpt lat="42.95328" lon="1.99443">
        <ele>391.9</ele>
        <time>2017-07-31T15:36:45Z</time>
      </trkpt>
      <trkpt lat="42.95328" lon="1.99443">
        <ele>392.1</ele>
        <time>2017-07-31T15:36:46Z</time>
      </trkpt>
      <trkpt lat="42.95328" lon="1.99443">
        <ele>392.4</ele>
        <time>2017-07-31T15:36:47Z</time>
      </trkpt>
      <trkpt lat="42.95328" lon="1.99443">
        <ele>393.2</ele>
        <time>2017-07-31T15:36:48Z</time>
      </trkpt>
      <trkpt lat="42.95328" lon="1.99443">
        <ele>393.8</ele>
        <time>2017-07-31T15:36:49Z</time>
      </trkpt>
      <trkpt lat="42.95328" lon="1.99443">
        <ele>394.2</ele>
        <time>2017-07-31T15:36:50Z</time>
      </trkpt>
      <trkpt lat="42.95328" lon="1.99443">
        <ele>393.3</ele>
        <time>2017-07-31T15:36:51Z</time>
      </trkpt>
      <trkpt lat="42.95328" lon="1.99443">
        <ele>392.6</ele>
        <time>2017-07-31T15:36:52Z</time>
      </trkpt>
      <trkpt lat="42.95328" lon="1.99443">
        <ele>392</ele>
        <time>2017-07-31T15:36:53Z</time>
      </trkpt>
      <trkpt lat="42.95328" lon="1.99443">
        <ele>391.8</ele>
        <time>2017-07-31T15:36:54Z</time>
      </trkpt>
      <trkpt lat="42.95328" lon="1.99443">
        <ele>391.7</ele>
        <time>2017-07-31T15:36:55Z</time>
      </trkpt>
      <trkpt lat="42.95328" lon="1.99443">
        <ele>391.6</ele>
        <time>2017-07-31T15:36:56Z</time>
      </trkpt>
      <trkpt lat="42.95328" lon="1.99443">
        <ele>391.9</ele>
        <time>2017-07-31T15:36:57Z</time>
      </trkpt>
      <trkpt lat="42.95328" lon="1.99443">
        <ele>392.2</ele>
        <time>2017-07-31T15:36:58Z</time>
      </trkpt>
      <trkpt lat="42.95328" lon="1.99443">
        <ele>392.4</ele>
        <time>2017-07-31T15:36:59Z</time>
      </trkpt>
      <trkpt lat="42.95328" lon="1.99443">
        <ele>393.8</ele>
        <time>2017-07-31T15:37:00Z</time>
      </trkpt>
      <trkpt lat="42.95328" lon="1.99443">
        <ele>394.9</ele>
        <time>2017-07-31T15:37:01Z</time>
      </trkpt>
      <trkpt lat="42.95328" lon="1.99443">
        <ele>395.8</ele>
        <time>2017-07-31T15:37:02Z</time>
      </trkpt>
      <trkpt lat="42.95328" lon="1.99443">
        <ele>395.5</ele>
        <time>2017-07-31T15:37:03Z</time>
      </trkpt>
      <trkpt lat="42.95328" lon="1.99443">
        <ele>395.3</ele>
        <time>2017-07-31T15:37:04Z</time>
      </trkpt>
      <trkpt lat="42.95328" lon="1.99443">
        <ele>395.2</ele>
        <time>2017-07-31T15:37:05Z</time>
      </trkpt>
      <trkpt lat="42.95328" lon="1.99443">
        <ele>394.6</ele>
        <time>2017-07-31T15:37:06Z</time>
      </trkpt>
      <trkpt lat="42.95328" lon="1.99443">
        <ele>394.2</ele>
        <time>2017-07-31T15:37:07Z</time>
      </trkpt>
      <trkpt lat="42.95328" lon="1.99443">
        <ele>393.9</ele>
        <time>2017-07-31T15:37:08Z</time>
      </trkpt>
      <trkpt lat="42.95328" lon="1.99443">
        <ele>392.6</ele>
        <time>2017-07-31T15:37:09Z</time>
      </trkpt>
      <trkpt lat="42.95328" lon="1.99443">
        <ele>391.6</ele>
        <time>2017-07-31T15:37:10Z</time>
      </trkpt>
      <trkpt lat="42.95328" lon="1.99443">
        <ele>390.9</ele>
        <time>2017-07-31T15:37:11Z</time>
      </trkpt>
      <trkpt lat="42.95328" lon="1.99443">
        <ele>390.3</ele>
        <time>2017-07-31T15:37:12Z</time>
      </trkpt>
      <trkpt lat="42.95328" lon="1.99443">
        <ele>389.9</ele>
        <time>2017-07-31T15:37:13Z</time>
      </trkpt>
      <trkpt lat="42.95328" lon="1.99443">
        <ele>389.6</ele>
        <time>2017-07-31T15:37:14Z</time>
      </trkpt>
      <trkpt lat="42.95328" lon="1.99443">
        <ele>389.6</ele>
        <time>2017-07-31T15:37:15Z</time>
      </trkpt>
      <trkpt lat="42.95328" lon="1.99443">
        <ele>389.6</ele>
        <time>2017-07-31T15:37:16Z</time>
      </trkpt>
      <trkpt lat="42.95328" lon="1.99443">
        <ele>389.6</ele>
        <time>2017-07-31T15:37:17Z</time>
      </trkpt>
      <trkpt lat="42.95328" lon="1.99443">
        <ele>390.4</ele>
        <time>2017-07-31T15:37:18Z</time>
      </trkpt>
      <trkpt lat="42.95328" lon="1.99443">
        <ele>391.1</ele>
        <time>2017-07-31T15:37:19Z</time>
      </trkpt>
      <trkpt lat="42.95328" lon="1.99443">
        <ele>391.5</ele>
        <time>2017-07-31T15:37:20Z</time>
      </trkpt>
      <trkpt lat="42.95328" lon="1.99443">
        <ele>392.1</ele>
        <time>2017-07-31T15:37:21Z</time>
      </trkpt>
      <trkpt lat="42.95328" lon="1.99443">
        <ele>392.6</ele>
        <time>2017-07-31T15:37:22Z</time>
      </trkpt>
      <trkpt lat="42.95328" lon="1.99443">
        <ele>392.9</ele>
        <time>2017-07-31T15:37:23Z</time>
      </trkpt>
      <trkpt lat="42.95328" lon="1.99443">
        <ele>393.1</ele>
        <time>2017-07-31T15:37:24Z</time>
      </trkpt>
      <trkpt lat="42.95328" lon="1.99443">
        <ele>393.3</ele>
        <time>2017-07-31T15:37:25Z</time>
      </trkpt>
      <trkpt lat="42.95328" lon="1.99443">
        <ele>393.5</ele>
        <time>2017-07-31T15:37:26Z</time>
      </trkpt>
      <trkpt lat="42.95328" lon="1.99443">
        <ele>393.8</ele>
        <time>2017-07-31T15:37:27Z</time>
      </trkpt>
      <trkpt lat="42.95328" lon="1.99443">
        <ele>394</ele>
        <time>2017-07-31T15:37:28Z</time>
      </trkpt>
      <trkpt lat="42.95328" lon="1.99443">
        <ele>394.2</ele>
        <time>2017-07-31T15:37:29Z</time>
      </trkpt>
      <trkpt lat="42.95328" lon="1.99443">
        <ele>394.1</ele>
        <time>2017-07-31T15:37:30Z</time>
      </trkpt>
      <trkpt lat="42.95328" lon="1.99443">
        <ele>394</ele>
        <time>2017-07-31T15:37:31Z</time>
      </trkpt>
      <trkpt lat="42.95328" lon="1.99443">
        <ele>394</ele>
        <time>2017-07-31T15:37:32Z</time>
      </trkpt>
      <trkpt lat="42.95328" lon="1.99443">
        <ele>394.2</ele>
        <time>2017-07-31T15:37:33Z</time>
      </trkpt>
      <trkpt lat="42.95328" lon="1.99443">
        <ele>394.3</ele>
        <time>2017-07-31T15:37:34Z</time>
      </trkpt>
      <trkpt lat="42.95328" lon="1.99443">
        <ele>394.4</ele>
        <time>2017-07-31T15:37:35Z</time>
      </trkpt>
      <trkpt lat="42.95328" lon="1.99443">
        <ele>393.8</ele>
        <time>2017-07-31T15:37:36Z</time>
      </trkpt>
      <trkpt lat="42.95328" lon="1.99443">
        <ele>393.4</ele>
        <time>2017-07-31T15:37:37Z</time>
      </trkpt>
      <trkpt lat="42.95328" lon="1.99443">
        <ele>393.1</ele>
        <time>2017-07-31T15:37:38Z</time>
      </trkpt>
      <trkpt lat="42.95328" lon="1.99443">
        <ele>392.6</ele>
        <time>2017-07-31T15:37:39Z</time>
      </trkpt>
      <trkpt lat="42.95328" lon="1.99443">
        <ele>392.3</ele>
        <time>2017-07-31T15:37:40Z</time>
      </trkpt>
      <trkpt lat="42.95328" lon="1.99443">
        <ele>392</ele>
        <time>2017-07-31T15:37:41Z</time>
      </trkpt>
      <trkpt lat="42.95328" lon="1.99443">
        <ele>392.7</ele>
        <time>2017-07-31T15:37:42Z</time>
      </trkpt>
      <trkpt lat="42.95328" lon="1.99443">
        <ele>393.2</ele>
        <time>2017-07-31T15:37:43Z</time>
      </trkpt>
      <trkpt lat="42.95328" lon="1.99443">
        <ele>393.6</ele>
        <time>2017-07-31T15:37:44Z</time>
      </trkpt>
      <trkpt lat="42.95328" lon="1.99443">
        <ele>394.1</ele>
        <time>2017-07-31T15:37:45Z</time>
      </trkpt>
      <trkpt lat="42.95328" lon="1.99443">
        <ele>394.5</ele>
        <time>2017-07-31T15:37:46Z</time>
      </trkpt>
      <trkpt lat="42.95328" lon="1.99443">
        <ele>394.8</ele>
        <time>2017-07-31T15:37:47Z</time>
      </trkpt>
      <trkpt lat="42.95328" lon="1.99443">
        <ele>394.3</ele>
        <time>2017-07-31T15:37:48Z</time>
      </trkpt>
      <trkpt lat="42.95328" lon="1.99443">
        <ele>394</ele>
        <time>2017-07-31T15:37:49Z</time>
      </trkpt>
      <trkpt lat="42.95328" lon="1.99443">
        <ele>393.7</ele>
        <time>2017-07-31T15:37:50Z</time>
      </trkpt>
      <trkpt lat="42.95328" lon="1.99443">
        <ele>393.6</ele>
        <time>2017-07-31T15:37:51Z</time>
      </trkpt>
      <trkpt lat="42.95328" lon="1.99443">
        <ele>393.4</ele>
        <time>2017-07-31T15:37:52Z</time>
      </trkpt>
      <trkpt lat="42.95328" lon="1.99443">
        <ele>393.3</ele>
        <time>2017-07-31T15:37:53Z</time>
      </trkpt>
      <trkpt lat="42.95328" lon="1.99443">
        <ele>393.2</ele>
        <time>2017-07-31T15:37:54Z</time>
      </trkpt>
      <trkpt lat="42.95328" lon="1.99443">
        <ele>393.2</ele>
        <time>2017-07-31T15:37:55Z</time>
      </trkpt>
      <trkpt lat="42.95328" lon="1.99443">
        <ele>393.1</ele>
        <time>2017-07-31T15:37:56Z</time>
      </trkpt>
      <trkpt lat="42.95328" lon="1.99443">
        <ele>393.3</ele>
        <time>2017-07-31T15:37:57Z</time>
      </trkpt>
      <trkpt lat="42.95328" lon="1.99443">
        <ele>393.4</ele>
        <time>2017-07-31T15:37:58Z</time>
      </trkpt>
      <trkpt lat="42.95328" lon="1.99443">
        <ele>393.6</ele>
        <time>2017-07-31T15:37:59Z</time>
      </trkpt>
      <trkpt lat="42.95328" lon="1.99443">
        <ele>393.4</ele>
        <time>2017-07-31T15:38:00Z</time>
      </trkpt>
      <trkpt lat="42.95328" lon="1.99443">
        <ele>393.3</ele>
        <time>2017-07-31T15:38:01Z</time>
      </trkpt>
      <trkpt lat="42.95328" lon="1.99443">
        <ele>393.2</ele>
        <time>2017-07-31T15:38:02Z</time>
      </trkpt>
      <trkpt lat="42.95328" lon="1.99443">
        <ele>393</ele>
        <time>2017-07-31T15:38:03Z</time>
      </trkpt>
      <trkpt lat="42.95328" lon="1.99443">
        <ele>392.7</ele>
        <time>2017-07-31T15:38:04Z</time>
      </trkpt>
      <trkpt lat="42.95328" lon="1.99443">
        <ele>392.6</ele>
        <time>2017-07-31T15:38:05Z</time>
      </trkpt>
      <trkpt lat="42.95328" lon="1.99443">
        <ele>392.5</ele>
        <time>2017-07-31T15:38:06Z</time>
      </trkpt>
      <trkpt lat="42.95328" lon="1.99443">
        <ele>392.4</ele>
        <time>2017-07-31T15:38:07Z</time>
      </trkpt>
      <trkpt lat="42.95328" lon="1.99443">
        <ele>392.3</ele>
        <time>2017-07-31T15:38:08Z</time>
      </trkpt>
      <trkpt lat="42.95328" lon="1.99443">
        <ele>392.3</ele>
        <time>2017-07-31T15:38:09Z</time>
      </trkpt>
      <trkpt lat="42.95328" lon="1.99443">
        <ele>392.2</ele>
        <time>2017-07-31T15:38:10Z</time>
      </trkpt>
      <trkpt lat="42.95328" lon="1.99443">
        <ele>392.2</ele>
        <time>2017-07-31T15:38:11Z</time>
      </trkpt>
      <trkpt lat="42.95328" lon="1.99443">
        <ele>392.2</ele>
        <time>2017-07-31T15:38:12Z</time>
      </trkpt>
      <trkpt lat="42.95328" lon="1.99443">
        <ele>392.2</ele>
        <time>2017-07-31T15:38:13Z</time>
      </trkpt>
      <trkpt lat="42.95328" lon="1.99443">
        <ele>392.2</ele>
        <time>2017-07-31T15:38:14Z</time>
      </trkpt>
      <trkpt lat="42.95328" lon="1.99443">
        <ele>392.6</ele>
        <time>2017-07-31T15:38:15Z</time>
      </trkpt>
      <trkpt lat="42.95328" lon="1.99443">
        <ele>392.9</ele>
        <time>2017-07-31T15:38:16Z</time>
      </trkpt>
      <trkpt lat="42.95328" lon="1.99443">
        <ele>393.1</ele>
        <time>2017-07-31T15:38:17Z</time>
      </trkpt>
      <trkpt lat="42.95328" lon="1.99443">
        <ele>392.9</ele>
        <time>2017-07-31T15:38:18Z</time>
      </trkpt>
      <trkpt lat="42.95328" lon="1.99443">
        <ele>392.7</ele>
        <time>2017-07-31T15:38:19Z</time>
      </trkpt>
      <trkpt lat="42.95328" lon="1.99443">
        <ele>392.6</ele>
        <time>2017-07-31T15:38:20Z</time>
      </trkpt>
      <trkpt lat="42.95328" lon="1.99443">
        <ele>392</ele>
        <time>2017-07-31T15:38:21Z</time>
      </trkpt>
      <trkpt lat="42.95328" lon="1.99443">
        <ele>391.6</ele>
        <time>2017-07-31T15:38:22Z</time>
      </trkpt>
      <trkpt lat="42.95328" lon="1.99443">
        <ele>391.3</ele>
        <time>2017-07-31T15:38:23Z</time>
      </trkpt>
      <trkpt lat="42.95328" lon="1.99443">
        <ele>391.7</ele>
        <time>2017-07-31T15:38:24Z</time>
      </trkpt>
      <trkpt lat="42.95328" lon="1.99443">
        <ele>392</ele>
        <time>2017-07-31T15:38:25Z</time>
      </trkpt>
      <trkpt lat="42.95328" lon="1.99443">
        <ele>392.3</ele>
        <time>2017-07-31T15:38:26Z</time>
      </trkpt>
      <trkpt lat="42.95328" lon="1.99443">
        <ele>391.4</ele>
        <time>2017-07-31T15:38:27Z</time>
      </trkpt>
      <trkpt lat="42.95328" lon="1.99443">
        <ele>390.7</ele>
        <time>2017-07-31T15:38:28Z</time>
      </trkpt>
      <trkpt lat="42.95328" lon="1.99443">
        <ele>390.2</ele>
        <time>2017-07-31T15:38:29Z</time>
      </trkpt>
      <trkpt lat="42.95328" lon="1.99443">
        <ele>390.5</ele>
        <time>2017-07-31T15:38:30Z</time>
      </trkpt>
      <trkpt lat="42.95328" lon="1.99443">
        <ele>390.7</ele>
        <time>2017-07-31T15:38:31Z</time>
      </trkpt>
      <trkpt lat="42.95328" lon="1.99443">
        <ele>390.8</ele>
        <time>2017-07-31T15:38:32Z</time>
      </trkpt>
      <trkpt lat="42.95328" lon="1.99443">
        <ele>391.6</ele>
        <time>2017-07-31T15:38:33Z</time>
      </trkpt>
      <trkpt lat="42.95328" lon="1.99443">
        <ele>392.1</ele>
        <time>2017-07-31T15:38:34Z</time>
      </trkpt>
      <trkpt lat="42.95328" lon="1.99443">
        <ele>392.6</ele>
        <time>2017-07-31T15:38:35Z</time>
      </trkpt>
      <trkpt lat="42.95328" lon="1.99443">
        <ele>392.5</ele>
        <time>2017-07-31T15:38:36Z</time>
      </trkpt>
      <trkpt lat="42.95328" lon="1.99443">
        <ele>392.4</ele>
        <time>2017-07-31T15:38:37Z</time>
      </trkpt>
      <trkpt lat="42.95328" lon="1.99443">
        <ele>392.3</ele>
        <time>2017-07-31T15:38:38Z</time>
      </trkpt>
      <trkpt lat="42.95328" lon="1.99443">
        <ele>392.1</ele>
        <time>2017-07-31T15:38:39Z</time>
      </trkpt>
      <trkpt lat="42.95328" lon="1.99443">
        <ele>391.9</ele>
        <time>2017-07-31T15:38:40Z</time>
      </trkpt>
      <trkpt lat="42.95328" lon="1.99443">
        <ele>391.7</ele>
        <time>2017-07-31T15:38:41Z</time>
      </trkpt>
      <trkpt lat="42.95328" lon="1.99443">
        <ele>391.8</ele>
        <time>2017-07-31T15:38:42Z</time>
      </trkpt>
      <trkpt lat="42.95328" lon="1.99443">
        <ele>391.9</ele>
        <time>2017-07-31T15:38:43Z</time>
      </trkpt>
      <trkpt lat="42.95328" lon="1.99443">
        <ele>391.9</ele>
        <time>2017-07-31T15:38:44Z</time>
      </trkpt>
      <trkpt lat="42.95326" lon="1.99441">
        <ele>392.2</ele>
        <time>2017-07-31T15:38:45Z</time>
      </trkpt>
      <trkpt lat="42.95326" lon="1.99441">
        <ele>392.4</ele>
        <time>2017-07-31T15:38:46Z</time>
      </trkpt>
      <trkpt lat="42.95327" lon="1.9944">
        <ele>392.6</ele>
        <time>2017-07-31T15:38:47Z</time>
      </trkpt>
      <trkpt lat="42.95327" lon="1.99439">
        <ele>392.7</ele>
        <time>2017-07-31T15:38:48Z</time>
      </trkpt>
      <trkpt lat="42.95327" lon="1.99438">
        <ele>392.7</ele>
        <time>2017-07-31T15:38:49Z</time>
      </trkpt>
      <trkpt lat="42.95327" lon="1.99437">
        <ele>392.8</ele>
        <time>2017-07-31T15:38:50Z</time>
      </trkpt>
      <trkpt lat="42.95327" lon="1.99437">
        <ele>393.1</ele>
        <time>2017-07-31T15:38:51Z</time>
      </trkpt>
      <trkpt lat="42.95328" lon="1.99436">
        <ele>393.3</ele>
        <time>2017-07-31T15:38:52Z</time>
      </trkpt>
      <trkpt lat="42.95328" lon="1.99436">
        <ele>393.4</ele>
        <time>2017-07-31T15:38:53Z</time>
      </trkpt>
      <trkpt lat="42.95328" lon="1.99436">
        <ele>393.3</ele>
        <time>2017-07-31T15:38:54Z</time>
      </trkpt>
      <trkpt lat="42.95329" lon="1.99436">
        <ele>393.2</ele>
        <time>2017-07-31T15:38:55Z</time>
      </trkpt>
      <trkpt lat="42.95329" lon="1.99436">
        <ele>393.2</ele>
        <time>2017-07-31T15:38:56Z</time>
      </trkpt>
      <trkpt lat="42.9533" lon="1.99436">
        <ele>393.3</ele>
        <time>2017-07-31T15:38:57Z</time>
      </trkpt>
      <trkpt lat="42.9533" lon="1.99436">
        <ele>393.5</ele>
        <time>2017-07-31T15:38:58Z</time>
      </trkpt>
      <trkpt lat="42.9533" lon="1.99436">
        <ele>393.6</ele>
        <time>2017-07-31T15:38:59Z</time>
      </trkpt>
      <trkpt lat="42.95331" lon="1.99436">
        <ele>392.9</ele>
        <time>2017-07-31T15:39:01Z</time>
      </trkpt>
      <trkpt lat="42.95332" lon="1.99437">
        <ele>392.7</ele>
        <time>2017-07-31T15:39:02Z</time>
      </trkpt>
      <trkpt lat="42.95333" lon="1.99437">
        <ele>393.4</ele>
        <time>2017-07-31T15:39:05Z</time>
      </trkpt>
      <trkpt lat="42.95334" lon="1.99438">
        <ele>393.2</ele>
        <time>2017-07-31T15:39:07Z</time>
      </trkpt>
      <trkpt lat="42.95334" lon="1.99438">
        <ele>393.2</ele>
        <time>2017-07-31T15:39:08Z</time>
      </trkpt>
      <trkpt lat="42.95335" lon="1.99438">
        <ele>393.6</ele>
        <time>2017-07-31T15:39:09Z</time>
      </trkpt>
      <trkpt lat="42.95335" lon="1.99438">
        <ele>393.8</ele>
        <time>2017-07-31T15:39:10Z</time>
      </trkpt>
      <trkpt lat="42.95335" lon="1.99438">
        <ele>394.1</ele>
        <time>2017-07-31T15:39:11Z</time>
      </trkpt>
      <trkpt lat="42.95335" lon="1.99438">
        <ele>394</ele>
        <time>2017-07-31T15:39:12Z</time>
      </trkpt>
      <trkpt lat="42.95335" lon="1.99438">
        <ele>394</ele>
        <time>2017-07-31T15:39:13Z</time>
      </trkpt>
      <trkpt lat="42.95335" lon="1.99438">
        <ele>394</ele>
        <time>2017-07-31T15:39:14Z</time>
      </trkpt>
      <trkpt lat="42.95335" lon="1.99438">
        <ele>393.3</ele>
        <time>2017-07-31T15:39:15Z</time>
      </trkpt>
      <trkpt lat="42.95335" lon="1.99438">
        <ele>392.8</ele>
        <time>2017-07-31T15:39:16Z</time>
      </trkpt>
      <trkpt lat="42.95334" lon="1.99438">
        <ele>392.4</ele>
        <time>2017-07-31T15:39:17Z</time>
      </trkpt>
      <trkpt lat="42.95334" lon="1.99438">
        <ele>392.3</ele>
        <time>2017-07-31T15:39:18Z</time>
      </trkpt>
      <trkpt lat="42.95334" lon="1.99438">
        <ele>392.3</ele>
        <time>2017-07-31T15:39:19Z</time>
      </trkpt>
      <trkpt lat="42.95335" lon="1.99438">
        <ele>392.2</ele>
        <time>2017-07-31T15:39:20Z</time>
      </trkpt>
      <trkpt lat="42.95335" lon="1.99438">
        <ele>392.2</ele>
        <time>2017-07-31T15:39:21Z</time>
      </trkpt>
      <trkpt lat="42.95335" lon="1.99437">
        <ele>392.2</ele>
        <time>2017-07-31T15:39:22Z</time>
      </trkpt>
      <trkpt lat="42.95335" lon="1.99437">
        <ele>392.2</ele>
        <time>2017-07-31T15:39:23Z</time>
      </trkpt>
      <trkpt lat="42.95335" lon="1.99437">
        <ele>392.6</ele>
        <time>2017-07-31T15:39:24Z</time>
      </trkpt>
      <trkpt lat="42.95335" lon="1.99437">
        <ele>392.9</ele>
        <time>2017-07-31T15:39:25Z</time>
      </trkpt>
      <trkpt lat="42.95335" lon="1.99437">
        <ele>393.2</ele>
        <time>2017-07-31T15:39:26Z</time>
      </trkpt>
      <trkpt lat="42.95335" lon="1.99437">
        <ele>393.3</ele>
        <time>2017-07-31T15:39:27Z</time>
      </trkpt>
      <trkpt lat="42.95335" lon="1.99437">
        <ele>393.5</ele>
        <time>2017-07-31T15:39:28Z</time>
      </trkpt>
      <trkpt lat="42.95335" lon="1.99437">
        <ele>393.6</ele>
        <time>2017-07-31T15:39:29Z</time>
      </trkpt>
      <trkpt lat="42.95335" lon="1.99436">
        <ele>393.2</ele>
        <time>2017-07-31T15:39:30Z</time>
      </trkpt>
      <trkpt lat="42.95335" lon="1.99436">
        <ele>392.9</ele>
        <time>2017-07-31T15:39:31Z</time>
      </trkpt>
      <trkpt lat="42.95335" lon="1.99436">
        <ele>392.7</ele>
        <time>2017-07-31T15:39:32Z</time>
      </trkpt>
      <trkpt lat="42.95335" lon="1.99436">
        <ele>392.6</ele>
        <time>2017-07-31T15:39:33Z</time>
      </trkpt>
      <trkpt lat="42.95335" lon="1.99435">
        <ele>392.5</ele>
        <time>2017-07-31T15:39:34Z</time>
      </trkpt>
      <trkpt lat="42.95335" lon="1.99435">
        <ele>392.4</ele>
        <time>2017-07-31T15:39:35Z</time>
      </trkpt>
      <trkpt lat="42.95334" lon="1.99435">
        <ele>389.3</ele>
        <time>2017-07-31T15:39:36Z</time>
      </trkpt>
      <trkpt lat="42.95334" lon="1.99436">
        <ele>387</ele>
        <time>2017-07-31T15:39:37Z</time>
      </trkpt>
      <trkpt lat="42.95333" lon="1.99436">
        <ele>385.2</ele>
        <time>2017-07-31T15:39:38Z</time>
      </trkpt>
      <trkpt lat="42.95332" lon="1.99436">
        <ele>387.6</ele>
        <time>2017-07-31T15:39:39Z</time>
      </trkpt>
      <trkpt lat="42.95331" lon="1.99436">
        <ele>389.4</ele>
        <time>2017-07-31T15:39:40Z</time>
      </trkpt>
      <trkpt lat="42.9533" lon="1.99435">
        <ele>390.7</ele>
        <time>2017-07-31T15:39:41Z</time>
      </trkpt>
      <trkpt lat="42.95329" lon="1.99435">
        <ele>391.3</ele>
        <time>2017-07-31T15:39:42Z</time>
      </trkpt>
      <trkpt lat="42.95329" lon="1.99435">
        <ele>391.7</ele>
        <time>2017-07-31T15:39:43Z</time>
      </trkpt>
      <trkpt lat="42.95328" lon="1.99434">
        <ele>392</ele>
        <time>2017-07-31T15:39:44Z</time>
      </trkpt>
      <trkpt lat="42.95328" lon="1.99434">
        <ele>392.3</ele>
        <time>2017-07-31T15:39:45Z</time>
      </trkpt>
      <trkpt lat="42.95328" lon="1.99434">
        <ele>392.5</ele>
        <time>2017-07-31T15:39:46Z</time>
      </trkpt>
      <trkpt lat="42.95328" lon="1.99433">
        <ele>392.6</ele>
        <time>2017-07-31T15:39:47Z</time>
      </trkpt>
      <trkpt lat="42.95328" lon="1.99433">
        <ele>392</ele>
        <time>2017-07-31T15:39:48Z</time>
      </trkpt>
      <trkpt lat="42.95328" lon="1.99433">
        <ele>391.6</ele>
        <time>2017-07-31T15:39:49Z</time>
      </trkpt>
      <trkpt lat="42.95328" lon="1.99433">
        <ele>391.3</ele>
        <time>2017-07-31T15:39:50Z</time>
      </trkpt>
      <trkpt lat="42.95328" lon="1.99432">
        <ele>392</ele>
        <time>2017-07-31T15:39:51Z</time>
      </trkpt>
      <trkpt lat="42.95328" lon="1.99432">
        <ele>392.4</ele>
        <time>2017-07-31T15:39:52Z</time>
      </trkpt>
      <trkpt lat="42.95328" lon="1.99432">
        <ele>392.8</ele>
        <time>2017-07-31T15:39:53Z</time>
      </trkpt>
      <trkpt lat="42.95329" lon="1.99431">
        <ele>393.2</ele>
        <time>2017-07-31T15:40:00Z</time>
      </trkpt>
      <trkpt lat="42.95326" lon="1.99432">
        <ele>393.7</ele>
        <time>2017-07-31T15:40:26Z</time>
      </trkpt>
      <trkpt lat="42.95326" lon="1.99432">
        <ele>393.8</ele>
        <time>2017-07-31T15:40:27Z</time>
      </trkpt>
      <trkpt lat="42.95326" lon="1.99433">
        <ele>393.8</ele>
        <time>2017-07-31T15:40:28Z</time>
      </trkpt>
      <trkpt lat="42.95326" lon="1.99433">
        <ele>393.8</ele>
        <time>2017-07-31T15:40:29Z</time>
      </trkpt>
      <trkpt lat="42.95326" lon="1.99433">
        <ele>393.8</ele>
        <time>2017-07-31T15:40:30Z</time>
      </trkpt>
      <trkpt lat="42.95326" lon="1.99434">
        <ele>393.8</ele>
        <time>2017-07-31T15:40:31Z</time>
      </trkpt>
      <trkpt lat="42.95325" lon="1.99434">
        <ele>393.8</ele>
        <time>2017-07-31T15:40:32Z</time>
      </trkpt>
      <trkpt lat="42.95325" lon="1.99435">
        <ele>393.8</ele>
        <time>2017-07-31T15:40:33Z</time>
      </trkpt>
      <trkpt lat="42.95325" lon="1.99435">
        <ele>393.9</ele>
        <time>2017-07-31T15:40:34Z</time>
      </trkpt>
      <trkpt lat="42.95325" lon="1.99435">
        <ele>393.9</ele>
        <time>2017-07-31T15:40:35Z</time>
      </trkpt>
      <trkpt lat="42.95325" lon="1.99436">
        <ele>392.8</ele>
        <time>2017-07-31T15:40:36Z</time>
      </trkpt>
      <trkpt lat="42.95325" lon="1.99436">
        <ele>392</ele>
        <time>2017-07-31T15:40:37Z</time>
      </trkpt>
      <trkpt lat="42.95325" lon="1.99436">
        <ele>391.4</ele>
        <time>2017-07-31T15:40:38Z</time>
      </trkpt>
      <trkpt lat="42.95325" lon="1.99436">
        <ele>392.2</ele>
        <time>2017-07-31T15:40:39Z</time>
      </trkpt>
      <trkpt lat="42.95325" lon="1.99437">
        <ele>392.8</ele>
        <time>2017-07-31T15:40:40Z</time>
      </trkpt>
      <trkpt lat="42.95325" lon="1.99437">
        <ele>393.3</ele>
        <time>2017-07-31T15:40:41Z</time>
      </trkpt>
      <trkpt lat="42.95325" lon="1.99437">
        <ele>393.4</ele>
        <time>2017-07-31T15:40:42Z</time>
      </trkpt>
      <trkpt lat="42.95325" lon="1.99437">
        <ele>393.5</ele>
        <time>2017-07-31T15:40:43Z</time>
      </trkpt>
      <trkpt lat="42.95325" lon="1.99436">
        <ele>393.6</ele>
        <time>2017-07-31T15:40:44Z</time>
      </trkpt>
      <trkpt lat="42.95326" lon="1.99436">
        <ele>393.7</ele>
        <time>2017-07-31T15:40:45Z</time>
      </trkpt>
      <trkpt lat="42.95326" lon="1.99436">
        <ele>393.7</ele>
        <time>2017-07-31T15:40:46Z</time>
      </trkpt>
      <trkpt lat="42.95326" lon="1.99436">
        <ele>392.3</ele>
        <time>2017-07-31T15:40:49Z</time>
      </trkpt>
      <trkpt lat="42.95326" lon="1.99436">
        <ele>391.8</ele>
        <time>2017-07-31T15:40:50Z</time>
      </trkpt>
      <trkpt lat="42.95326" lon="1.99436">
        <ele>391.9</ele>
        <time>2017-07-31T15:40:51Z</time>
      </trkpt>
      <trkpt lat="42.95326" lon="1.99436">
        <ele>392</ele>
        <time>2017-07-31T15:40:52Z</time>
      </trkpt>
      <trkpt lat="42.95326" lon="1.99436">
        <ele>392</ele>
        <time>2017-07-31T15:40:53Z</time>
      </trkpt>
      <trkpt lat="42.95327" lon="1.99435">
        <ele>393.8</ele>
        <time>2017-07-31T15:40:58Z</time>
      </trkpt>
      <trkpt lat="42.95328" lon="1.99435">
        <ele>394</ele>
        <time>2017-07-31T15:40:59Z</time>
      </trkpt>
      <trkpt lat="42.95328" lon="1.99435">
        <ele>393.8</ele>
        <time>2017-07-31T15:41:00Z</time>
      </trkpt>
      <trkpt lat="42.95328" lon="1.99435">
        <ele>393.6</ele>
        <time>2017-07-31T15:41:01Z</time>
      </trkpt>
      <trkpt lat="42.95329" lon="1.99435">
        <ele>393.4</ele>
        <time>2017-07-31T15:41:02Z</time>
      </trkpt>
      <trkpt lat="42.95329" lon="1.99435">
        <ele>393.3</ele>
        <time>2017-07-31T15:41:03Z</time>
      </trkpt>
      <trkpt lat="42.95329" lon="1.99435">
        <ele>393.2</ele>
        <time>2017-07-31T15:41:04Z</time>
      </trkpt>
      <trkpt lat="42.95329" lon="1.99435">
        <ele>393.2</ele>
        <time>2017-07-31T15:41:05Z</time>
      </trkpt>
      <trkpt lat="42.95329" lon="1.99435">
        <ele>392.5</ele>
        <time>2017-07-31T15:41:06Z</time>
      </trkpt>
      <trkpt lat="42.95329" lon="1.99435">
        <ele>392</ele>
        <time>2017-07-31T15:41:07Z</time>
      </trkpt>
      <trkpt lat="42.9533" lon="1.99434">
        <ele>391.6</ele>
        <time>2017-07-31T15:41:08Z</time>
      </trkpt>
      <trkpt lat="42.9533" lon="1.99434">
        <ele>391.5</ele>
        <time>2017-07-31T15:41:09Z</time>
      </trkpt>
      <trkpt lat="42.9533" lon="1.99434">
        <ele>391.4</ele>
        <time>2017-07-31T15:41:10Z</time>
      </trkpt>
      <trkpt lat="42.9533" lon="1.99434">
        <ele>391.4</ele>
        <time>2017-07-31T15:41:11Z</time>
      </trkpt>
      <trkpt lat="42.9533" lon="1.99434">
        <ele>392.2</ele>
        <time>2017-07-31T15:41:12Z</time>
      </trkpt>
      <trkpt lat="42.9533" lon="1.99434">
        <ele>392.9</ele>
        <time>2017-07-31T15:41:13Z</time>
      </trkpt>
      <trkpt lat="42.95331" lon="1.99434">
        <ele>393.3</ele>
        <time>2017-07-31T15:41:14Z</time>
      </trkpt>
      <trkpt lat="42.95331" lon="1.99433">
        <ele>393.7</ele>
        <time>2017-07-31T15:41:15Z</time>
      </trkpt>
      <trkpt lat="42.95331" lon="1.99433">
        <ele>393.9</ele>
        <time>2017-07-31T15:41:16Z</time>
      </trkpt>
      <trkpt lat="42.9533" lon="1.99433">
        <ele>394.1</ele>
        <time>2017-07-31T15:41:17Z</time>
      </trkpt>
      <trkpt lat="42.95331" lon="1.99433">
        <ele>393.2</ele>
        <time>2017-07-31T15:41:18Z</time>
      </trkpt>
      <trkpt lat="42.9533" lon="1.99433">
        <ele>392.5</ele>
        <time>2017-07-31T15:41:19Z</time>
      </trkpt>
      <trkpt lat="42.9533" lon="1.99433">
        <ele>392</ele>
        <time>2017-07-31T15:41:20Z</time>
      </trkpt>
      <trkpt lat="42.9533" lon="1.99433">
        <ele>392.7</ele>
        <time>2017-07-31T15:41:21Z</time>
      </trkpt>
      <trkpt lat="42.9533" lon="1.99434">
        <ele>393.2</ele>
        <time>2017-07-31T15:41:22Z</time>
      </trkpt>
      <trkpt lat="42.9533" lon="1.99434">
        <ele>393.6</ele>
        <time>2017-07-31T15:41:23Z</time>
      </trkpt>
      <trkpt lat="42.95329" lon="1.99435">
        <ele>394.1</ele>
        <time>2017-07-31T15:41:24Z</time>
      </trkpt>
      <trkpt lat="42.95329" lon="1.99437">
        <ele>394.7</ele>
        <time>2017-07-31T15:41:26Z</time>
      </trkpt>
      <trkpt lat="42.95329" lon="1.99438">
        <ele>394.7</ele>
        <time>2017-07-31T15:41:27Z</time>
      </trkpt>
      <trkpt lat="42.9533" lon="1.99439">
        <ele>394.7</ele>
        <time>2017-07-31T15:41:28Z</time>
      </trkpt>
      <trkpt lat="42.95333" lon="1.99444">
        <ele>393</ele>
        <time>2017-07-31T15:41:34Z</time>
      </trkpt>
      <trkpt lat="42.95335" lon="1.99447">
        <ele>393.4</ele>
        <time>2017-07-31T15:41:38Z</time>
      </trkpt>
      <trkpt lat="42.95336" lon="1.99448">
        <ele>393.1</ele>
        <time>2017-07-31T15:41:39Z</time>
      </trkpt>
      <trkpt lat="42.95336" lon="1.99448">
        <ele>392.9</ele>
        <time>2017-07-31T15:41:40Z</time>
      </trkpt>
      <trkpt lat="42.95336" lon="1.99448">
        <ele>392.7</ele>
        <time>2017-07-31T15:41:41Z</time>
      </trkpt>
      <trkpt lat="42.95335" lon="1.99448">
        <ele>392.1</ele>
        <time>2017-07-31T15:41:42Z</time>
      </trkpt>
      <trkpt lat="42.95335" lon="1.99448">
        <ele>391.7</ele>
        <time>2017-07-31T15:41:43Z</time>
      </trkpt>
      <trkpt lat="42.95335" lon="1.99448">
        <ele>391.4</ele>
        <time>2017-07-31T15:41:44Z</time>
      </trkpt>
      <trkpt lat="42.95335" lon="1.99448">
        <ele>391.8</ele>
        <time>2017-07-31T15:41:45Z</time>
      </trkpt>
      <trkpt lat="42.95334" lon="1.99448">
        <ele>392.1</ele>
        <time>2017-07-31T15:41:46Z</time>
      </trkpt>
      <trkpt lat="42.95334" lon="1.99449">
        <ele>392.3</ele>
        <time>2017-07-31T15:41:47Z</time>
      </trkpt>
      <trkpt lat="42.95333" lon="1.99449">
        <ele>392</ele>
        <time>2017-07-31T15:41:48Z</time>
      </trkpt>
      <trkpt lat="42.95333" lon="1.99449">
        <ele>391.8</ele>
        <time>2017-07-31T15:41:49Z</time>
      </trkpt>
      <trkpt lat="42.95332" lon="1.99449">
        <ele>391.7</ele>
        <time>2017-07-31T15:41:50Z</time>
      </trkpt>
      <trkpt lat="42.95331" lon="1.99449">
        <ele>391.8</ele>
        <time>2017-07-31T15:41:51Z</time>
      </trkpt>
      <trkpt lat="42.95331" lon="1.99449">
        <ele>391.9</ele>
        <time>2017-07-31T15:41:52Z</time>
      </trkpt>
      <trkpt lat="42.9533" lon="1.99449">
        <ele>391.9</ele>
        <time>2017-07-31T15:41:53Z</time>
      </trkpt>
      <trkpt lat="42.9533" lon="1.99449">
        <ele>392.2</ele>
        <time>2017-07-31T15:41:54Z</time>
      </trkpt>
      <trkpt lat="42.9533" lon="1.99449">
        <ele>392.4</ele>
        <time>2017-07-31T15:41:55Z</time>
      </trkpt>
      <trkpt lat="42.95329" lon="1.99449">
        <ele>392.6</ele>
        <time>2017-07-31T15:41:56Z</time>
      </trkpt>
      <trkpt lat="42.95329" lon="1.99449">
        <ele>392.7</ele>
        <time>2017-07-31T15:41:57Z</time>
      </trkpt>
      <trkpt lat="42.95329" lon="1.99449">
        <ele>392.7</ele>
        <time>2017-07-31T15:41:58Z</time>
      </trkpt>
      <trkpt lat="42.95329" lon="1.99449">
        <ele>392.8</ele>
        <time>2017-07-31T15:41:59Z</time>
      </trkpt>
      <trkpt lat="42.95329" lon="1.99449">
        <ele>393.5</ele>
        <time>2017-07-31T15:42:00Z</time>
      </trkpt>
      <trkpt lat="42.95329" lon="1.99449">
        <ele>393.8</ele>
        <time>2017-07-31T15:42:03Z</time>
      </trkpt>
      <trkpt lat="42.95329" lon="1.99449">
        <ele>393.4</ele>
        <time>2017-07-31T15:42:04Z</time>
      </trkpt>
      <trkpt lat="42.9533" lon="1.99449">
        <ele>393.1</ele>
        <time>2017-07-31T15:42:05Z</time>
      </trkpt>
      <trkpt lat="42.9533" lon="1.9945">
        <ele>393.1</ele>
        <time>2017-07-31T15:42:06Z</time>
      </trkpt>
      <trkpt lat="42.9533" lon="1.9945">
        <ele>393.1</ele>
        <time>2017-07-31T15:42:07Z</time>
      </trkpt>
      <trkpt lat="42.95331" lon="1.99451">
        <ele>393</ele>
        <time>2017-07-31T15:42:08Z</time>
      </trkpt>
      <trkpt lat="42.95331" lon="1.99451">
        <ele>392.8</ele>
        <time>2017-07-31T15:42:09Z</time>
      </trkpt>
      <trkpt lat="42.95332" lon="1.99451">
        <ele>392.6</ele>
        <time>2017-07-31T15:42:10Z</time>
      </trkpt>
      <trkpt lat="42.95332" lon="1.99452">
        <ele>392.5</ele>
        <time>2017-07-31T15:42:11Z</time>
      </trkpt>
      <trkpt lat="42.95333" lon="1.99452">
        <ele>392.4</ele>
        <time>2017-07-31T15:42:12Z</time>
      </trkpt>
      <trkpt lat="42.95333" lon="1.99452">
        <ele>392.3</ele>
        <time>2017-07-31T15:42:13Z</time>
      </trkpt>
      <trkpt lat="42.95334" lon="1.99452">
        <ele>392.3</ele>
        <time>2017-07-31T15:42:14Z</time>
      </trkpt>
      <trkpt lat="42.95334" lon="1.99452">
        <ele>391.8</ele>
        <time>2017-07-31T15:42:15Z</time>
      </trkpt>
      <trkpt lat="42.95335" lon="1.99453">
        <ele>391.5</ele>
        <time>2017-07-31T15:42:16Z</time>
      </trkpt>
      <trkpt lat="42.95335" lon="1.99453">
        <ele>391.2</ele>
        <time>2017-07-31T15:42:17Z</time>
      </trkpt>
      <trkpt lat="42.95336" lon="1.99453">
        <ele>391.9</ele>
        <time>2017-07-31T15:42:18Z</time>
      </trkpt>
      <trkpt lat="42.95336" lon="1.99453">
        <ele>392.4</ele>
        <time>2017-07-31T15:42:19Z</time>
      </trkpt>
      <trkpt lat="42.95336" lon="1.99453">
        <ele>392.7</ele>
        <time>2017-07-31T15:42:20Z</time>
      </trkpt>
      <trkpt lat="42.95336" lon="1.99452">
        <ele>392.4</ele>
        <time>2017-07-31T15:42:21Z</time>
      </trkpt>
      <trkpt lat="42.95335" lon="1.99451">
        <ele>392.1</ele>
        <time>2017-07-31T15:42:22Z</time>
      </trkpt>
      <trkpt lat="42.95333" lon="1.99448">
        <ele>391.2</ele>
        <time>2017-07-31T15:42:25Z</time>
      </trkpt>
      <trkpt lat="42.95333" lon="1.99447">
        <ele>391</ele>
        <time>2017-07-31T15:42:26Z</time>
      </trkpt>
      <trkpt lat="42.95328" lon="1.99441">
        <ele>392.1</ele>
        <time>2017-07-31T15:42:35Z</time>
      </trkpt>
      <trkpt lat="42.95327" lon="1.99441">
        <ele>392.3</ele>
        <time>2017-07-31T15:42:36Z</time>
      </trkpt>
      <trkpt lat="42.95327" lon="1.99441">
        <ele>392.5</ele>
        <time>2017-07-31T15:42:37Z</time>
      </trkpt>
      <trkpt lat="42.95327" lon="1.99441">
        <ele>392.6</ele>
        <time>2017-07-31T15:42:38Z</time>
      </trkpt>
      <trkpt lat="42.95327" lon="1.99441">
        <ele>392.1</ele>
        <time>2017-07-31T15:42:39Z</time>
      </trkpt>
      <trkpt lat="42.95327" lon="1.99441">
        <ele>391.7</ele>
        <time>2017-07-31T15:42:40Z</time>
      </trkpt>
      <trkpt lat="42.95327" lon="1.99441">
        <ele>391.3</ele>
        <time>2017-07-31T15:42:41Z</time>
      </trkpt>
      <trkpt lat="42.95327" lon="1.99441">
        <ele>391.1</ele>
        <time>2017-07-31T15:42:42Z</time>
      </trkpt>
      <trkpt lat="42.95328" lon="1.99441">
        <ele>390.9</ele>
        <time>2017-07-31T15:42:43Z</time>
      </trkpt>
      <trkpt lat="42.95328" lon="1.9944">
        <ele>390.8</ele>
        <time>2017-07-31T15:42:44Z</time>
      </trkpt>
      <trkpt lat="42.95328" lon="1.9944">
        <ele>390.9</ele>
        <time>2017-07-31T15:42:45Z</time>
      </trkpt>
      <trkpt lat="42.95328" lon="1.9944">
        <ele>391</ele>
        <time>2017-07-31T15:42:46Z</time>
      </trkpt>
      <trkpt lat="42.95328" lon="1.99439">
        <ele>391.1</ele>
        <time>2017-07-31T15:42:47Z</time>
      </trkpt>
      <trkpt lat="42.95329" lon="1.99439">
        <ele>391.3</ele>
        <time>2017-07-31T15:42:48Z</time>
      </trkpt>
      <trkpt lat="42.95329" lon="1.99439">
        <ele>391.5</ele>
        <time>2017-07-31T15:42:49Z</time>
      </trkpt>
      <trkpt lat="42.9533" lon="1.99439">
        <ele>391.7</ele>
        <time>2017-07-31T15:42:50Z</time>
      </trkpt>
      <trkpt lat="42.9533" lon="1.99438">
        <ele>392.7</ele>
        <time>2017-07-31T15:42:51Z</time>
      </trkpt>
      <trkpt lat="42.9533" lon="1.99438">
        <ele>393.4</ele>
        <time>2017-07-31T15:42:52Z</time>
      </trkpt>
      <trkpt lat="42.9533" lon="1.99438">
        <ele>393.9</ele>
        <time>2017-07-31T15:42:53Z</time>
      </trkpt>
      <trkpt lat="42.9533" lon="1.99438">
        <ele>393.9</ele>
        <time>2017-07-31T15:42:54Z</time>
      </trkpt>
      <trkpt lat="42.9533" lon="1.99439">
        <ele>393</ele>
        <time>2017-07-31T15:42:57Z</time>
      </trkpt>
      <trkpt lat="42.9533" lon="1.99439">
        <ele>392.4</ele>
        <time>2017-07-31T15:42:58Z</time>
      </trkpt>
      <trkpt lat="42.95329" lon="1.99439">
        <ele>391.9</ele>
        <time>2017-07-31T15:42:59Z</time>
      </trkpt>
      <trkpt lat="42.95329" lon="1.99439">
        <ele>392.2</ele>
        <time>2017-07-31T15:43:00Z</time>
      </trkpt>
      <trkpt lat="42.95329" lon="1.99439">
        <ele>392.4</ele>
        <time>2017-07-31T15:43:01Z</time>
      </trkpt>
      <trkpt lat="42.95329" lon="1.9944">
        <ele>392.9</ele>
        <time>2017-07-31T15:43:03Z</time>
      </trkpt>
      <trkpt lat="42.95329" lon="1.9944">
        <ele>393.1</ele>
        <time>2017-07-31T15:43:04Z</time>
      </trkpt>
      <trkpt lat="42.95328" lon="1.9944">
        <ele>393.3</ele>
        <time>2017-07-31T15:43:05Z</time>
      </trkpt>
      <trkpt lat="42.95328" lon="1.9944">
        <ele>393.2</ele>
        <time>2017-07-31T15:43:06Z</time>
      </trkpt>
      <trkpt lat="42.95328" lon="1.99441">
        <ele>393.2</ele>
        <time>2017-07-31T15:43:07Z</time>
      </trkpt>
      <trkpt lat="42.95328" lon="1.99441">
        <ele>393.1</ele>
        <time>2017-07-31T15:43:08Z</time>
      </trkpt>
      <trkpt lat="42.95328" lon="1.99441">
        <ele>392.9</ele>
        <time>2017-07-31T15:43:09Z</time>
      </trkpt>
      <trkpt lat="42.95328" lon="1.99441">
        <ele>392.7</ele>
        <time>2017-07-31T15:43:10Z</time>
      </trkpt>
      <trkpt lat="42.95328" lon="1.99442">
        <ele>392.5</ele>
        <time>2017-07-31T15:43:11Z</time>
      </trkpt>
      <trkpt lat="42.95328" lon="1.99442">
        <ele>391.8</ele>
        <time>2017-07-31T15:43:12Z</time>
      </trkpt>
      <trkpt lat="42.95328" lon="1.99442">
        <ele>391.2</ele>
        <time>2017-07-31T15:43:13Z</time>
      </trkpt>
      <trkpt lat="42.95328" lon="1.99442">
        <ele>390.8</ele>
        <time>2017-07-31T15:43:14Z</time>
      </trkpt>
      <trkpt lat="42.95328" lon="1.99442">
        <ele>391.3</ele>
        <time>2017-07-31T15:43:15Z</time>
      </trkpt>
      <trkpt lat="42.95328" lon="1.99442">
        <ele>391.8</ele>
        <time>2017-07-31T15:43:16Z</time>
      </trkpt>
      <trkpt lat="42.95328" lon="1.99442">
        <ele>392.1</ele>
        <time>2017-07-31T15:43:17Z</time>
      </trkpt>
      <trkpt lat="42.95328" lon="1.99442">
        <ele>391.2</ele>
        <time>2017-07-31T15:43:18Z</time>
      </trkpt>
      <trkpt lat="42.95328" lon="1.99442">
        <ele>390.6</ele>
        <time>2017-07-31T15:43:19Z</time>
      </trkpt>
      <trkpt lat="42.95328" lon="1.99443">
        <ele>390.8</ele>
        <time>2017-07-31T15:43:21Z</time>
      </trkpt>
      <trkpt lat="42.95328" lon="1.99442">
        <ele>391.4</ele>
        <time>2017-07-31T15:43:22Z</time>
      </trkpt>
      <trkpt lat="42.95327" lon="1.99442">
        <ele>391.8</ele>
        <time>2017-07-31T15:43:23Z</time>
      </trkpt>
      <trkpt lat="42.95325" lon="1.9944">
        <ele>391.6</ele>
        <time>2017-07-31T15:43:24Z</time>
      </trkpt>
      <trkpt lat="42.95319" lon="1.99431">
        <ele>391.9</ele>
        <time>2017-07-31T15:43:27Z</time>
      </trkpt>
      <trkpt lat="42.95225" lon="1.9926">
        <ele>394</ele>
        <time>2017-07-31T15:44:16Z</time>
      </trkpt>
      <trkpt lat="42.95224" lon="1.99256">
        <ele>394</ele>
        <time>2017-07-31T15:44:17Z</time>
      </trkpt>
      <trkpt lat="42.95189" lon="1.99142">
        <ele>394.5</ele>
        <time>2017-07-31T15:44:38Z</time>
      </trkpt>
      <trkpt lat="42.95182" lon="1.99097">
        <ele>393</ele>
        <time>2017-07-31T15:44:46Z</time>
      </trkpt>
      <trkpt lat="42.95174" lon="1.99008">
        <ele>393.3</ele>
        <time>2017-07-31T15:45:05Z</time>
      </trkpt>
      <trkpt lat="42.95174" lon="1.98975">
        <ele>394.8</ele>
        <time>2017-07-31T15:45:11Z</time>
      </trkpt>
      <trkpt lat="42.95182" lon="1.98921">
        <ele>393.8</ele>
        <time>2017-07-31T15:45:19Z</time>
      </trkpt>
      <trkpt lat="42.95183" lon="1.98915">
        <ele>393.8</ele>
        <time>2017-07-31T15:45:20Z</time>
      </trkpt>
      <trkpt lat="42.95203" lon="1.98807">
        <ele>395</ele>
        <time>2017-07-31T15:45:43Z</time>
      </trkpt>
      <trkpt lat="42.9522" lon="1.98767">
        <ele>394.6</ele>
        <time>2017-07-31T15:45:51Z</time>
      </trkpt>
      <trkpt lat="42.95242" lon="1.98736">
        <ele>393.6</ele>
        <time>2017-07-31T15:45:58Z</time>
      </trkpt>
      <trkpt lat="42.95245" lon="1.98732">
        <ele>393.4</ele>
        <time>2017-07-31T15:45:59Z</time>
      </trkpt>
      <trkpt lat="42.95248" lon="1.98728">
        <ele>393.1</ele>
        <time>2017-07-31T15:46:00Z</time>
      </trkpt>
      <trkpt lat="42.95251" lon="1.98723">
        <ele>392.9</ele>
        <time>2017-07-31T15:46:01Z</time>
      </trkpt>
      <trkpt lat="42.9532" lon="1.98629">
        <ele>394.1</ele>
        <time>2017-07-31T15:46:26Z</time>
      </trkpt>
      <trkpt lat="42.95323" lon="1.98626">
        <ele>394.5</ele>
        <time>2017-07-31T15:46:27Z</time>
      </trkpt>
      <trkpt lat="42.95507" lon="1.98434">
        <ele>397.5</ele>
        <time>2017-07-31T15:47:30Z</time>
      </trkpt>
      <trkpt lat="42.95509" lon="1.9843">
        <ele>397.7</ele>
        <time>2017-07-31T15:47:31Z</time>
      </trkpt>
      <trkpt lat="42.95547" lon="1.98363">
        <ele>398.6</ele>
        <time>2017-07-31T15:47:47Z</time>
      </trkpt>
      <trkpt lat="42.95574" lon="1.98306">
        <ele>398.6</ele>
        <time>2017-07-31T15:48:00Z</time>
      </trkpt>
      <trkpt lat="42.95584" lon="1.98276">
        <ele>398.6</ele>
        <time>2017-07-31T15:48:06Z</time>
      </trkpt>
      <trkpt lat="42.95602" lon="1.98205">
        <ele>399.2</ele>
        <time>2017-07-31T15:48:20Z</time>
      </trkpt>
      <trkpt lat="42.95614" lon="1.98141">
        <ele>399.7</ele>
        <time>2017-07-31T15:48:33Z</time>
      </trkpt>
      <trkpt lat="42.95614" lon="1.98136">
        <ele>399.8</ele>
        <time>2017-07-31T15:48:34Z</time>
      </trkpt>
      <trkpt lat="42.95624" lon="1.98037">
        <ele>401.4</ele>
        <time>2017-07-31T15:48:53Z</time>
      </trkpt>
      <trkpt lat="42.95624" lon="1.98028">
        <ele>401.1</ele>
        <time>2017-07-31T15:48:55Z</time>
      </trkpt>
      <trkpt lat="42.95623" lon="1.97975">
        <ele>402.5</ele>
        <time>2017-07-31T15:49:06Z</time>
      </trkpt>
      <trkpt lat="42.95623" lon="1.97967">
        <ele>402.9</ele>
        <time>2017-07-31T15:49:08Z</time>
      </trkpt>
      <trkpt lat="42.95621" lon="1.97956">
        <ele>401.5</ele>
        <time>2017-07-31T15:49:12Z</time>
      </trkpt>
      <trkpt lat="42.95622" lon="1.97953">
        <ele>401.8</ele>
        <time>2017-07-31T15:49:13Z</time>
      </trkpt>
      <trkpt lat="42.95622" lon="1.97945">
        <ele>401.8</ele>
        <time>2017-07-31T15:49:16Z</time>
      </trkpt>
      <trkpt lat="42.95621" lon="1.97943">
        <ele>401.8</ele>
        <time>2017-07-31T15:49:17Z</time>
      </trkpt>
      <trkpt lat="42.95621" lon="1.9794">
        <ele>401.8</ele>
        <time>2017-07-31T15:49:18Z</time>
      </trkpt>
      <trkpt lat="42.95512" lon="1.97473">
        <ele>404.7</ele>
        <time>2017-07-31T15:50:57Z</time>
      </trkpt>
      <trkpt lat="42.9551" lon="1.97468">
        <ele>404.6</ele>
        <time>2017-07-31T15:50:58Z</time>
      </trkpt>
      <trkpt lat="42.955" lon="1.97433">
        <ele>405.5</ele>
        <time>2017-07-31T15:51:07Z</time>
      </trkpt>
      <trkpt lat="42.95484" lon="1.97392">
        <ele>406.7</ele>
        <time>2017-07-31T15:51:17Z</time>
      </trkpt>
      <trkpt lat="42.95462" lon="1.97348">
        <ele>406.7</ele>
        <time>2017-07-31T15:51:28Z</time>
      </trkpt>
      <trkpt lat="42.95442" lon="1.97313">
        <ele>406.3</ele>
        <time>2017-07-31T15:51:37Z</time>
      </trkpt>
      <trkpt lat="42.95428" lon="1.97293">
        <ele>406.9</ele>
        <time>2017-07-31T15:51:42Z</time>
      </trkpt>
      <trkpt lat="42.95364" lon="1.97196">
        <ele>406.6</ele>
        <time>2017-07-31T15:52:06Z</time>
      </trkpt>
      <trkpt lat="42.95361" lon="1.97194">
        <ele>406.9</ele>
        <time>2017-07-31T15:52:07Z</time>
      </trkpt>
      <trkpt lat="42.95148" lon="1.96925">
        <ele>410.2</ele>
        <time>2017-07-31T15:53:25Z</time>
      </trkpt>
      <trkpt lat="42.95146" lon="1.96921">
        <ele>410</ele>
        <time>2017-07-31T15:53:26Z</time>
      </trkpt>
      <trkpt lat="42.95114" lon="1.96865">
        <ele>410.6</ele>
        <time>2017-07-31T15:53:40Z</time>
      </trkpt>
      <trkpt lat="42.95105" lon="1.96844">
        <ele>410.4</ele>
        <time>2017-07-31T15:53:45Z</time>
      </trkpt>
      <trkpt lat="42.95066" lon="1.96742">
        <ele>411.9</ele>
        <time>2017-07-31T15:54:09Z</time>
      </trkpt>
      <trkpt lat="42.95062" lon="1.96724">
        <ele>411.8</ele>
        <time>2017-07-31T15:54:12Z</time>
      </trkpt>
      <trkpt lat="42.95055" lon="1.96681">
        <ele>412.3</ele>
        <time>2017-07-31T15:54:19Z</time>
      </trkpt>
      <trkpt lat="42.95052" lon="1.96623">
        <ele>414</ele>
        <time>2017-07-31T15:54:31Z</time>
      </trkpt>
      <trkpt lat="42.95052" lon="1.96618">
        <ele>414</ele>
        <time>2017-07-31T15:54:32Z</time>
      </trkpt>
      <trkpt lat="42.95066" lon="1.96491">
        <ele>414.1</ele>
        <time>2017-07-31T15:55:00Z</time>
      </trkpt>
      <trkpt lat="42.95187" lon="1.95972">
        <ele>414.8</ele>
        <time>2017-07-31T15:56:37Z</time>
      </trkpt>
      <trkpt lat="42.95189" lon="1.95967">
        <ele>415</ele>
        <time>2017-07-31T15:56:38Z</time>
      </trkpt>
      <trkpt lat="42.95216" lon="1.95818">
        <ele>414.3</ele>
        <time>2017-07-31T15:57:05Z</time>
      </trkpt>
      <trkpt lat="42.95218" lon="1.95787">
        <ele>413.2</ele>
        <time>2017-07-31T15:57:12Z</time>
      </trkpt>
      <trkpt lat="42.95228" lon="1.95633">
        <ele>415.2</ele>
        <time>2017-07-31T15:57:41Z</time>
      </trkpt>
      <trkpt lat="42.95227" lon="1.95628">
        <ele>415.1</ele>
        <time>2017-07-31T15:57:42Z</time>
      </trkpt>
      <trkpt lat="42.95225" lon="1.95579">
        <ele>413.8</ele>
        <time>2017-07-31T15:57:52Z</time>
      </trkpt>
      <trkpt lat="42.95244" lon="1.95273">
        <ele>415.4</ele>
        <time>2017-07-31T15:58:44Z</time>
      </trkpt>
      <trkpt lat="42.95245" lon="1.95267">
        <ele>415.3</ele>
        <time>2017-07-31T15:58:45Z</time>
      </trkpt>
      <trkpt lat="42.95258" lon="1.95129">
        <ele>415.2</ele>
        <time>2017-07-31T15:59:09Z</time>
      </trkpt>
      <trkpt lat="42.95297" lon="1.94434">
        <ele>416.5</ele>
        <time>2017-07-31T16:01:16Z</time>
      </trkpt>
      <trkpt lat="42.95298" lon="1.94428">
        <ele>416.5</ele>
        <time>2017-07-31T16:01:17Z</time>
      </trkpt>
      <trkpt lat="42.95328" lon="1.94282">
        <ele>415.1</ele>
        <time>2017-07-31T16:01:44Z</time>
      </trkpt>
      <trkpt lat="42.95331" lon="1.94275">
        <ele>416.1</ele>
        <time>2017-07-31T16:01:46Z</time>
      </trkpt>
      <trkpt lat="42.95333" lon="1.94273">
        <ele>416.4</ele>
        <time>2017-07-31T16:01:47Z</time>
      </trkpt>
      <trkpt lat="42.9534" lon="1.94264">
        <ele>417.9</ele>
        <time>2017-07-31T16:01:50Z</time>
      </trkpt>
      <trkpt lat="42.95341" lon="1.94259">
        <ele>418</ele>
        <time>2017-07-31T16:01:51Z</time>
      </trkpt>
      <trkpt lat="42.95349" lon="1.94225">
        <ele>416.5</ele>
        <time>2017-07-31T16:01:58Z</time>
      </trkpt>
      <trkpt lat="42.95351" lon="1.94221">
        <ele>416.3</ele>
        <time>2017-07-31T16:01:59Z</time>
      </trkpt>
      <trkpt lat="42.95406" lon="1.9412">
        <ele>417.4</ele>
        <time>2017-07-31T16:02:23Z</time>
      </trkpt>
      <trkpt lat="42.95409" lon="1.94116">
        <ele>417</ele>
        <time>2017-07-31T16:02:24Z</time>
      </trkpt>
      <trkpt lat="42.95514" lon="1.93989">
        <ele>418</ele>
        <time>2017-07-31T16:02:58Z</time>
      </trkpt>
      <trkpt lat="42.9563" lon="1.93858">
        <ele>417.4</ele>
        <time>2017-07-31T16:03:35Z</time>
      </trkpt>
      <trkpt lat="42.95633" lon="1.93853">
        <ele>417.6</ele>
        <time>2017-07-31T16:03:36Z</time>
      </trkpt>
      <trkpt lat="42.95693" lon="1.93744">
        <ele>417.1</ele>
        <time>2017-07-31T16:04:01Z</time>
      </trkpt>
      <trkpt lat="42.95708" lon="1.93711">
        <ele>417.1</ele>
        <time>2017-07-31T16:04:09Z</time>
      </trkpt>
      <trkpt lat="42.95724" lon="1.93666">
        <ele>417.8</ele>
        <time>2017-07-31T16:04:19Z</time>
      </trkpt>
      <trkpt lat="42.95729" lon="1.93647">
        <ele>418.1</ele>
        <time>2017-07-31T16:04:23Z</time>
      </trkpt>
      <trkpt lat="42.95752" lon="1.93549">
        <ele>418.6</ele>
        <time>2017-07-31T16:04:42Z</time>
      </trkpt>
      <trkpt lat="42.95753" lon="1.93544">
        <ele>418.7</ele>
        <time>2017-07-31T16:04:43Z</time>
      </trkpt>
      <trkpt lat="42.95894" lon="1.9279">
        <ele>426.3</ele>
        <time>2017-07-31T16:07:13Z</time>
      </trkpt>
      <trkpt lat="42.95902" lon="1.92658">
        <ele>426.7</ele>
        <time>2017-07-31T16:07:41Z</time>
      </trkpt>
      <trkpt lat="42.95904" lon="1.92539">
        <ele>426.3</ele>
        <time>2017-07-31T16:08:06Z</time>
      </trkpt>
      <trkpt lat="42.95901" lon="1.92509">
        <ele>426.9</ele>
        <time>2017-07-31T16:08:12Z</time>
      </trkpt>
      <trkpt lat="42.95852" lon="1.92039">
        <ele>429.3</ele>
        <time>2017-07-31T16:09:44Z</time>
      </trkpt>
      <trkpt lat="42.95851" lon="1.92034">
        <ele>429</ele>
        <time>2017-07-31T16:09:45Z</time>
      </trkpt>
      <trkpt lat="42.9584" lon="1.91926">
        <ele>428.7</ele>
        <time>2017-07-31T16:10:06Z</time>
      </trkpt>
      <trkpt lat="42.95835" lon="1.9188">
        <ele>428.6</ele>
        <time>2017-07-31T16:10:15Z</time>
      </trkpt>
      <trkpt lat="42.95834" lon="1.91875">
        <ele>428.6</ele>
        <time>2017-07-31T16:10:16Z</time>
      </trkpt>
      <trkpt lat="42.95827" lon="1.91828">
        <ele>426</ele>
        <time>2017-07-31T16:10:26Z</time>
      </trkpt>
      <trkpt lat="42.95821" lon="1.91779">
        <ele>428.3</ele>
        <time>2017-07-31T16:10:39Z</time>
      </trkpt>
      <trkpt lat="42.95821" lon="1.91779">
        <ele>428.9</ele>
        <time>2017-07-31T16:10:40Z</time>
      </trkpt>
      <trkpt lat="42.95821" lon="1.91779">
        <ele>429.2</ele>
        <time>2017-07-31T16:10:41Z</time>
      </trkpt>
      <trkpt lat="42.95821" lon="1.91779">
        <ele>429.3</ele>
        <time>2017-07-31T16:10:42Z</time>
      </trkpt>
      <trkpt lat="42.95821" lon="1.91779">
        <ele>429.4</ele>
        <time>2017-07-31T16:10:43Z</time>
      </trkpt>
      <trkpt lat="42.95821" lon="1.91772">
        <ele>429.4</ele>
        <time>2017-07-31T16:10:44Z</time>
      </trkpt>
      <trkpt lat="42.95821" lon="1.91772">
        <ele>429</ele>
        <time>2017-07-31T16:10:45Z</time>
      </trkpt>
      <trkpt lat="42.95821" lon="1.91772">
        <ele>428.7</ele>
        <time>2017-07-31T16:10:46Z</time>
      </trkpt>
      <trkpt lat="42.95821" lon="1.91772">
        <ele>428.5</ele>
        <time>2017-07-31T16:10:47Z</time>
      </trkpt>
      <trkpt lat="42.95821" lon="1.91772">
        <ele>428.1</ele>
        <time>2017-07-31T16:10:48Z</time>
      </trkpt>
      <trkpt lat="42.95821" lon="1.91772">
        <ele>427.8</ele>
        <time>2017-07-31T16:10:49Z</time>
      </trkpt>
      <trkpt lat="42.95821" lon="1.91772">
        <ele>427.6</ele>
        <time>2017-07-31T16:10:50Z</time>
      </trkpt>
      <trkpt lat="42.95821" lon="1.91772">
        <ele>427.6</ele>
        <time>2017-07-31T16:10:51Z</time>
      </trkpt>
      <trkpt lat="42.95821" lon="1.91772">
        <ele>427.7</ele>
        <time>2017-07-31T16:10:52Z</time>
      </trkpt>
      <trkpt lat="42.95821" lon="1.91772">
        <ele>427.7</ele>
        <time>2017-07-31T16:10:53Z</time>
      </trkpt>
      <trkpt lat="42.95821" lon="1.91772">
        <ele>427.7</ele>
        <time>2017-07-31T16:10:54Z</time>
      </trkpt>
      <trkpt lat="42.95821" lon="1.91772">
        <ele>427.7</ele>
        <time>2017-07-31T16:10:55Z</time>
      </trkpt>
      <trkpt lat="42.95821" lon="1.91772">
        <ele>427.7</ele>
        <time>2017-07-31T16:10:56Z</time>
      </trkpt>
      <trkpt lat="42.95821" lon="1.91772">
        <ele>427.8</ele>
        <time>2017-07-31T16:10:57Z</time>
      </trkpt>
      <trkpt lat="42.95821" lon="1.91772">
        <ele>427.8</ele>
        <time>2017-07-31T16:10:58Z</time>
      </trkpt>
      <trkpt lat="42.95821" lon="1.91772">
        <ele>427.8</ele>
        <time>2017-07-31T16:10:59Z</time>
      </trkpt>
      <trkpt lat="42.95821" lon="1.91772">
        <ele>427.3</ele>
        <time>2017-07-31T16:11:00Z</time>
      </trkpt>
      <trkpt lat="42.95821" lon="1.91772">
        <ele>427</ele>
        <time>2017-07-31T16:11:01Z</time>
      </trkpt>
      <trkpt lat="42.95821" lon="1.91772">
        <ele>426.8</ele>
        <time>2017-07-31T16:11:02Z</time>
      </trkpt>
      <trkpt lat="42.95821" lon="1.91772">
        <ele>426.8</ele>
        <time>2017-07-31T16:11:03Z</time>
      </trkpt>
      <trkpt lat="42.95821" lon="1.91772">
        <ele>426.8</ele>
        <time>2017-07-31T16:11:04Z</time>
      </trkpt>
      <trkpt lat="42.95821" lon="1.91772">
        <ele>426.9</ele>
        <time>2017-07-31T16:11:05Z</time>
      </trkpt>
      <trkpt lat="42.95821" lon="1.91772">
        <ele>426.9</ele>
        <time>2017-07-31T16:11:06Z</time>
      </trkpt>
      <trkpt lat="42.95821" lon="1.91772">
        <ele>426.9</ele>
        <time>2017-07-31T16:11:07Z</time>
      </trkpt>
      <trkpt lat="42.95821" lon="1.91772">
        <ele>426.9</ele>
        <time>2017-07-31T16:11:08Z</time>
      </trkpt>
      <trkpt lat="42.95821" lon="1.91772">
        <ele>427.1</ele>
        <time>2017-07-31T16:11:09Z</time>
      </trkpt>
      <trkpt lat="42.95821" lon="1.91772">
        <ele>427.3</ele>
        <time>2017-07-31T16:11:10Z</time>
      </trkpt>
      <trkpt lat="42.95821" lon="1.91772">
        <ele>427.4</ele>
        <time>2017-07-31T16:11:11Z</time>
      </trkpt>
      <trkpt lat="42.95821" lon="1.91772">
        <ele>427.7</ele>
        <time>2017-07-31T16:11:12Z</time>
      </trkpt>
      <trkpt lat="42.95818" lon="1.91766">
        <ele>428</ele>
        <time>2017-07-31T16:11:13Z</time>
      </trkpt>
      <trkpt lat="42.95817" lon="1.91761">
        <ele>428.1</ele>
        <time>2017-07-31T16:11:14Z</time>
      </trkpt>
      <trkpt lat="42.95762" lon="1.91197">
        <ele>430.4</ele>
        <time>2017-07-31T16:13:15Z</time>
      </trkpt>
      <trkpt lat="42.95762" lon="1.91193">
        <ele>430.8</ele>
        <time>2017-07-31T16:13:16Z</time>
      </trkpt>
      <trkpt lat="42.95746" lon="1.91071">
        <ele>431.9</ele>
        <time>2017-07-31T16:13:42Z</time>
      </trkpt>
      <trkpt lat="42.95745" lon="1.91067">
        <ele>432.2</ele>
        <time>2017-07-31T16:13:43Z</time>
      </trkpt>
      <trkpt lat="42.95732" lon="1.91013">
        <ele>432.8</ele>
        <time>2017-07-31T16:13:55Z</time>
      </trkpt>
      <trkpt lat="42.95728" lon="1.91">
        <ele>433.3</ele>
        <time>2017-07-31T16:13:58Z</time>
      </trkpt>
      <trkpt lat="42.95719" lon="1.90969">
        <ele>434</ele>
        <time>2017-07-31T16:14:05Z</time>
      </trkpt>
      <trkpt lat="42.95717" lon="1.9096">
        <ele>433.2</ele>
        <time>2017-07-31T16:14:07Z</time>
      </trkpt>
      <trkpt lat="42.95716" lon="1.90956">
        <ele>432.9</ele>
        <time>2017-07-31T16:14:08Z</time>
      </trkpt>
      <trkpt lat="42.95714" lon="1.90952">
        <ele>433.2</ele>
        <time>2017-07-31T16:14:09Z</time>
      </trkpt>
      <trkpt lat="42.95713" lon="1.90948">
        <ele>433.3</ele>
        <time>2017-07-31T16:14:10Z</time>
      </trkpt>
      <trkpt lat="42.9571" lon="1.9094">
        <ele>433.6</ele>
        <time>2017-07-31T16:14:12Z</time>
      </trkpt>
      <trkpt lat="42.95708" lon="1.90936">
        <ele>433.7</ele>
        <time>2017-07-31T16:14:13Z</time>
      </trkpt>
      <trkpt lat="42.95705" lon="1.90929">
        <ele>434</ele>
        <time>2017-07-31T16:14:15Z</time>
      </trkpt>
      <trkpt lat="42.95694" lon="1.90908">
        <ele>435.1</ele>
        <time>2017-07-31T16:14:21Z</time>
      </trkpt>
      <trkpt lat="42.95692" lon="1.90904">
        <ele>435.4</ele>
        <time>2017-07-31T16:14:22Z</time>
      </trkpt>
      <trkpt lat="42.95681" lon="1.90883">
        <ele>435.7</ele>
        <time>2017-07-31T16:14:29Z</time>
      </trkpt>
      <trkpt lat="42.9559" lon="1.9074">
        <ele>436.9</ele>
        <time>2017-07-31T16:15:11Z</time>
      </trkpt>
      <trkpt lat="42.95555" lon="1.90667">
        <ele>439.4</ele>
        <time>2017-07-31T16:15:29Z</time>
      </trkpt>
      <trkpt lat="42.95554" lon="1.90663">
        <ele>439.4</ele>
        <time>2017-07-31T16:15:30Z</time>
      </trkpt>
      <trkpt lat="42.95529" lon="1.90569">
        <ele>440.8</ele>
        <time>2017-07-31T16:15:50Z</time>
      </trkpt>
      <trkpt lat="42.95524" lon="1.9052">
        <ele>440.6</ele>
        <time>2017-07-31T16:16:01Z</time>
      </trkpt>
      <trkpt lat="42.95524" lon="1.90517">
        <ele>440.6</ele>
        <time>2017-07-31T16:16:02Z</time>
      </trkpt>
      <trkpt lat="42.95528" lon="1.90508">
        <ele>440.8</ele>
        <time>2017-07-31T16:16:05Z</time>
      </trkpt>
      <trkpt lat="42.95535" lon="1.90493">
        <ele>440.9</ele>
        <time>2017-07-31T16:16:11Z</time>
      </trkpt>
      <trkpt lat="42.95534" lon="1.9049">
        <ele>440.9</ele>
        <time>2017-07-31T16:16:12Z</time>
      </trkpt>
      <trkpt lat="42.95529" lon="1.9048">
        <ele>441.1</ele>
        <time>2017-07-31T16:16:15Z</time>
      </trkpt>
      <trkpt lat="42.95525" lon="1.90474">
        <ele>441.4</ele>
        <time>2017-07-31T16:16:17Z</time>
      </trkpt>
      <trkpt lat="42.95523" lon="1.9047">
        <ele>441.5</ele>
        <time>2017-07-31T16:16:18Z</time>
      </trkpt>
      <trkpt lat="42.95522" lon="1.90466">
        <ele>441.5</ele>
        <time>2017-07-31T16:16:19Z</time>
      </trkpt>
      <trkpt lat="42.95522" lon="1.90462">
        <ele>441.6</ele>
        <time>2017-07-31T16:16:20Z</time>
      </trkpt>
      <trkpt lat="42.95521" lon="1.9045">
        <ele>440.7</ele>
        <time>2017-07-31T16:16:23Z</time>
      </trkpt>
      <trkpt lat="42.95522" lon="1.90398">
        <ele>443.3</ele>
        <time>2017-07-31T16:16:35Z</time>
      </trkpt>
      <trkpt lat="42.95522" lon="1.90393">
        <ele>443.1</ele>
        <time>2017-07-31T16:16:36Z</time>
      </trkpt>
      <trkpt lat="42.95535" lon="1.90311">
        <ele>444.4</ele>
        <time>2017-07-31T16:16:53Z</time>
      </trkpt>
      <trkpt lat="42.95555" lon="1.90239">
        <ele>444.7</ele>
        <time>2017-07-31T16:17:09Z</time>
      </trkpt>
      <trkpt lat="42.95558" lon="1.90231">
        <ele>444.5</ele>
        <time>2017-07-31T16:17:11Z</time>
      </trkpt>
      <trkpt lat="42.95811" lon="1.8958">
        <ele>453.2</ele>
        <time>2017-07-31T16:19:42Z</time>
      </trkpt>
      <trkpt lat="42.95812" lon="1.89576">
        <ele>453.6</ele>
        <time>2017-07-31T16:19:43Z</time>
      </trkpt>
      <trkpt lat="42.95824" lon="1.89503">
        <ele>454.4</ele>
        <time>2017-07-31T16:20:00Z</time>
      </trkpt>
      <trkpt lat="42.9583" lon="1.89435">
        <ele>454.9</ele>
        <time>2017-07-31T16:20:15Z</time>
      </trkpt>
      <trkpt lat="42.9583" lon="1.89387">
        <ele>455.9</ele>
        <time>2017-07-31T16:20:25Z</time>
      </trkpt>
      <trkpt lat="42.95841" lon="1.89263">
        <ele>457.5</ele>
        <time>2017-07-31T16:20:48Z</time>
      </trkpt>
      <trkpt lat="42.9584" lon="1.89258">
        <ele>457</ele>
        <time>2017-07-31T16:20:49Z</time>
      </trkpt>
      <trkpt lat="42.95835" lon="1.89204">
        <ele>458.3</ele>
        <time>2017-07-31T16:21:02Z</time>
      </trkpt>
      <trkpt lat="42.95779" lon="1.88901">
        <ele>459.2</ele>
        <time>2017-07-31T16:22:07Z</time>
      </trkpt>
      <trkpt lat="42.9578" lon="1.88904">
        <ele>459.6</ele>
        <time>2017-07-31T16:22:08Z</time>
      </trkpt>
      <trkpt lat="42.95781" lon="1.889">
        <ele>460</ele>
        <time>2017-07-31T16:22:09Z</time>
      </trkpt>
      <trkpt lat="42.95781" lon="1.88896">
        <ele>460.4</ele>
        <time>2017-07-31T16:22:10Z</time>
      </trkpt>
      <trkpt lat="42.95781" lon="1.8889">
        <ele>460.8</ele>
        <time>2017-07-31T16:22:11Z</time>
      </trkpt>
      <trkpt lat="42.95781" lon="1.88886">
        <ele>461</ele>
        <time>2017-07-31T16:22:12Z</time>
      </trkpt>
      <trkpt lat="42.95776" lon="1.88683">
        <ele>462.3</ele>
        <time>2017-07-31T16:22:57Z</time>
      </trkpt>
      <trkpt lat="42.9578" lon="1.8865">
        <ele>462.7</ele>
        <time>2017-07-31T16:23:04Z</time>
      </trkpt>
      <trkpt lat="42.95782" lon="1.88613">
        <ele>463</ele>
        <time>2017-07-31T16:23:11Z</time>
      </trkpt>
      <trkpt lat="42.95782" lon="1.88607">
        <ele>462.9</ele>
        <time>2017-07-31T16:23:12Z</time>
      </trkpt>
      <trkpt lat="42.95799" lon="1.88491">
        <ele>462.5</ele>
        <time>2017-07-31T16:23:33Z</time>
      </trkpt>
      <trkpt lat="42.95943" lon="1.88037">
        <ele>459.5</ele>
        <time>2017-07-31T16:24:57Z</time>
      </trkpt>
      <trkpt lat="42.95945" lon="1.88032">
        <ele>459.7</ele>
        <time>2017-07-31T16:24:58Z</time>
      </trkpt>
      <trkpt lat="42.95976" lon="1.87931">
        <ele>458.5</ele>
        <time>2017-07-31T16:25:20Z</time>
      </trkpt>
      <trkpt lat="42.95979" lon="1.87918">
        <ele>459.2</ele>
        <time>2017-07-31T16:25:25Z</time>
      </trkpt>
      <trkpt lat="42.95979" lon="1.87918">
        <ele>459.4</ele>
        <time>2017-07-31T16:25:26Z</time>
      </trkpt>
      <trkpt lat="42.95979" lon="1.87918">
        <ele>459.6</ele>
        <time>2017-07-31T16:25:27Z</time>
      </trkpt>
      <trkpt lat="42.95979" lon="1.87918">
        <ele>460.3</ele>
        <time>2017-07-31T16:25:28Z</time>
      </trkpt>
      <trkpt lat="42.95979" lon="1.87918">
        <ele>460.9</ele>
        <time>2017-07-31T16:25:29Z</time>
      </trkpt>
      <trkpt lat="42.95979" lon="1.87918">
        <ele>461.4</ele>
        <time>2017-07-31T16:25:30Z</time>
      </trkpt>
      <trkpt lat="42.95979" lon="1.87918">
        <ele>460.8</ele>
        <time>2017-07-31T16:25:31Z</time>
      </trkpt>
      <trkpt lat="42.95979" lon="1.87918">
        <ele>460.4</ele>
        <time>2017-07-31T16:25:32Z</time>
      </trkpt>
      <trkpt lat="42.95979" lon="1.87918">
        <ele>460.1</ele>
        <time>2017-07-31T16:25:33Z</time>
      </trkpt>
      <trkpt lat="42.95979" lon="1.87918">
        <ele>459.7</ele>
        <time>2017-07-31T16:25:34Z</time>
      </trkpt>
      <trkpt lat="42.95979" lon="1.87918">
        <ele>459.3</ele>
        <time>2017-07-31T16:25:35Z</time>
      </trkpt>
      <trkpt lat="42.95979" lon="1.87918">
        <ele>459.1</ele>
        <time>2017-07-31T16:25:36Z</time>
      </trkpt>
      <trkpt lat="42.95979" lon="1.87918">
        <ele>459.1</ele>
        <time>2017-07-31T16:25:37Z</time>
      </trkpt>
      <trkpt lat="42.95979" lon="1.87918">
        <ele>459.1</ele>
        <time>2017-07-31T16:25:38Z</time>
      </trkpt>
      <trkpt lat="42.95979" lon="1.87918">
        <ele>459.1</ele>
        <time>2017-07-31T16:25:39Z</time>
      </trkpt>
      <trkpt lat="42.95979" lon="1.87918">
        <ele>458.9</ele>
        <time>2017-07-31T16:25:40Z</time>
      </trkpt>
      <trkpt lat="42.95979" lon="1.87918">
        <ele>458.8</ele>
        <time>2017-07-31T16:25:41Z</time>
      </trkpt>
      <trkpt lat="42.95979" lon="1.87918">
        <ele>458.7</ele>
        <time>2017-07-31T16:25:42Z</time>
      </trkpt>
      <trkpt lat="42.95979" lon="1.87918">
        <ele>458.8</ele>
        <time>2017-07-31T16:25:43Z</time>
      </trkpt>
      <trkpt lat="42.95979" lon="1.87918">
        <ele>458.9</ele>
        <time>2017-07-31T16:25:44Z</time>
      </trkpt>
      <trkpt lat="42.95979" lon="1.87918">
        <ele>459</ele>
        <time>2017-07-31T16:25:45Z</time>
      </trkpt>
      <trkpt lat="42.95979" lon="1.87918">
        <ele>458.8</ele>
        <time>2017-07-31T16:25:46Z</time>
      </trkpt>
      <trkpt lat="42.95979" lon="1.87918">
        <ele>458.7</ele>
        <time>2017-07-31T16:25:47Z</time>
      </trkpt>
      <trkpt lat="42.95979" lon="1.87918">
        <ele>458.6</ele>
        <time>2017-07-31T16:25:48Z</time>
      </trkpt>
      <trkpt lat="42.95979" lon="1.87918">
        <ele>458.7</ele>
        <time>2017-07-31T16:25:49Z</time>
      </trkpt>
      <trkpt lat="42.95979" lon="1.87918">
        <ele>458.9</ele>
        <time>2017-07-31T16:25:50Z</time>
      </trkpt>
      <trkpt lat="42.95979" lon="1.87918">
        <ele>458.9</ele>
        <time>2017-07-31T16:25:51Z</time>
      </trkpt>
      <trkpt lat="42.95979" lon="1.87918">
        <ele>458.6</ele>
        <time>2017-07-31T16:25:52Z</time>
      </trkpt>
      <trkpt lat="42.95979" lon="1.87918">
        <ele>458.3</ele>
        <time>2017-07-31T16:25:53Z</time>
      </trkpt>
      <trkpt lat="42.95979" lon="1.87918">
        <ele>458.1</ele>
        <time>2017-07-31T16:25:54Z</time>
      </trkpt>
      <trkpt lat="42.9598" lon="1.87914">
        <ele>458.6</ele>
        <time>2017-07-31T16:25:55Z</time>
      </trkpt>
      <trkpt lat="42.95981" lon="1.87912">
        <ele>458.9</ele>
        <time>2017-07-31T16:25:56Z</time>
      </trkpt>
      <trkpt lat="42.95986" lon="1.87896">
        <ele>460.2</ele>
        <time>2017-07-31T16:26:00Z</time>
      </trkpt>
      <trkpt lat="42.95987" lon="1.87891">
        <ele>459.1</ele>
        <time>2017-07-31T16:26:01Z</time>
      </trkpt>
      <trkpt lat="42.95995" lon="1.87861">
        <ele>459.8</ele>
        <time>2017-07-31T16:26:07Z</time>
      </trkpt>
      <trkpt lat="42.96072" lon="1.87595">
        <ele>459.5</ele>
        <time>2017-07-31T16:26:58Z</time>
      </trkpt>
      <trkpt lat="42.96072" lon="1.87589">
        <ele>459.7</ele>
        <time>2017-07-31T16:26:59Z</time>
      </trkpt>
      <trkpt lat="42.9608" lon="1.8752">
        <ele>459.9</ele>
        <time>2017-07-31T16:27:11Z</time>
      </trkpt>
      <trkpt lat="42.9608" lon="1.87514">
        <ele>459.9</ele>
        <time>2017-07-31T16:27:12Z</time>
      </trkpt>
      <trkpt lat="42.96077" lon="1.87442">
        <ele>460.9</ele>
        <time>2017-07-31T16:27:24Z</time>
      </trkpt>
      <trkpt lat="42.96071" lon="1.874">
        <ele>460.2</ele>
        <time>2017-07-31T16:27:31Z</time>
      </trkpt>
      <trkpt lat="42.96064" lon="1.87365">
        <ele>460.4</ele>
        <time>2017-07-31T16:27:37Z</time>
      </trkpt>
      <trkpt lat="42.96052" lon="1.87312">
        <ele>460.3</ele>
        <time>2017-07-31T16:27:47Z</time>
      </trkpt>
      <trkpt lat="42.96042" lon="1.87282">
        <ele>462</ele>
        <time>2017-07-31T16:27:53Z</time>
      </trkpt>
      <trkpt lat="42.95927" lon="1.86984">
        <ele>463.8</ele>
        <time>2017-07-31T16:28:54Z</time>
      </trkpt>
      <trkpt lat="42.95925" lon="1.8698">
        <ele>464.2</ele>
        <time>2017-07-31T16:28:55Z</time>
      </trkpt>
      <trkpt lat="42.9586" lon="1.86835">
        <ele>466.8</ele>
        <time>2017-07-31T16:29:27Z</time>
      </trkpt>
      <trkpt lat="42.95853" lon="1.86822">
        <ele>466.2</ele>
        <time>2017-07-31T16:29:30Z</time>
      </trkpt>
      <trkpt lat="42.95812" lon="1.86755">
        <ele>466.1</ele>
        <time>2017-07-31T16:29:46Z</time>
      </trkpt>
      <trkpt lat="42.95657" lon="1.86519">
        <ele>468</ele>
        <time>2017-07-31T16:30:46Z</time>
      </trkpt>
      <trkpt lat="42.95654" lon="1.86516">
        <ele>468</ele>
        <time>2017-07-31T16:30:47Z</time>
      </trkpt>
      <trkpt lat="42.95621" lon="1.86476">
        <ele>468.2</ele>
        <time>2017-07-31T16:31:01Z</time>
      </trkpt>
      <trkpt lat="42.95611" lon="1.86467">
        <ele>468.8</ele>
        <time>2017-07-31T16:31:04Z</time>
      </trkpt>
      <trkpt lat="42.95593" lon="1.86451">
        <ele>469.9</ele>
        <time>2017-07-31T16:31:10Z</time>
      </trkpt>
      <trkpt lat="42.95587" lon="1.86447">
        <ele>469.8</ele>
        <time>2017-07-31T16:31:12Z</time>
      </trkpt>
      <trkpt lat="42.9554" lon="1.86421">
        <ele>470.3</ele>
        <time>2017-07-31T16:31:25Z</time>
      </trkpt>
      <trkpt lat="42.95491" lon="1.864">
        <ele>472</ele>
        <time>2017-07-31T16:31:36Z</time>
      </trkpt>
      <trkpt lat="42.95471" lon="1.86393">
        <ele>471.8</ele>
        <time>2017-07-31T16:31:40Z</time>
      </trkpt>
      <trkpt lat="42.95434" lon="1.86383">
        <ele>471.6</ele>
        <time>2017-07-31T16:31:49Z</time>
      </trkpt>
      <trkpt lat="42.95431" lon="1.86382">
        <ele>471.5</ele>
        <time>2017-07-31T16:31:50Z</time>
      </trkpt>
      <trkpt lat="42.95414" lon="1.86383">
        <ele>472.8</ele>
        <time>2017-07-31T16:31:55Z</time>
      </trkpt>
      <trkpt lat="42.95381" lon="1.86388">
        <ele>473.2</ele>
        <time>2017-07-31T16:32:06Z</time>
      </trkpt>
      <trkpt lat="42.95336" lon="1.86397">
        <ele>474.3</ele>
        <time>2017-07-31T16:32:21Z</time>
      </trkpt>
      <trkpt lat="42.9533" lon="1.86399">
        <ele>474.7</ele>
        <time>2017-07-31T16:32:23Z</time>
      </trkpt>
      <trkpt lat="42.95318" lon="1.86404">
        <ele>474.1</ele>
        <time>2017-07-31T16:32:27Z</time>
      </trkpt>
      <trkpt lat="42.95282" lon="1.86423">
        <ele>475.2</ele>
        <time>2017-07-31T16:32:37Z</time>
      </trkpt>
      <trkpt lat="42.95275" lon="1.86428">
        <ele>475.4</ele>
        <time>2017-07-31T16:32:39Z</time>
      </trkpt>
      <trkpt lat="42.95114" lon="1.8652">
        <ele>478</ele>
        <time>2017-07-31T16:33:24Z</time>
      </trkpt>
      <trkpt lat="42.95109" lon="1.86522">
        <ele>477.9</ele>
        <time>2017-07-31T16:33:25Z</time>
      </trkpt>
      <trkpt lat="42.95028" lon="1.86534">
        <ele>478.6</ele>
        <time>2017-07-31T16:33:47Z</time>
      </trkpt>
      <trkpt lat="42.94997" lon="1.86532">
        <ele>479.5</ele>
        <time>2017-07-31T16:33:56Z</time>
      </trkpt>
      <trkpt lat="42.94958" lon="1.86531">
        <ele>480.6</ele>
        <time>2017-07-31T16:34:07Z</time>
      </trkpt>
      <trkpt lat="42.94905" lon="1.86523">
        <ele>480.5</ele>
        <time>2017-07-31T16:34:22Z</time>
      </trkpt>
      <trkpt lat="42.94901" lon="1.86522">
        <ele>480.9</ele>
        <time>2017-07-31T16:34:23Z</time>
      </trkpt>
      <trkpt lat="42.94853" lon="1.86491">
        <ele>481.6</ele>
        <time>2017-07-31T16:34:36Z</time>
      </trkpt>
      <trkpt lat="42.9485" lon="1.86489">
        <ele>481.7</ele>
        <time>2017-07-31T16:34:37Z</time>
      </trkpt>
      <trkpt lat="42.94828" lon="1.86462">
        <ele>480.9</ele>
        <time>2017-07-31T16:34:52Z</time>
      </trkpt>
      <trkpt lat="42.94828" lon="1.86462">
        <ele>481.2</ele>
        <time>2017-07-31T16:34:53Z</time>
      </trkpt>
      <trkpt lat="42.94828" lon="1.86462">
        <ele>481.4</ele>
        <time>2017-07-31T16:34:54Z</time>
      </trkpt>
      <trkpt lat="42.94828" lon="1.86461">
        <ele>481.5</ele>
        <time>2017-07-31T16:34:55Z</time>
      </trkpt>
      <trkpt lat="42.94828" lon="1.86461">
        <ele>481.2</ele>
        <time>2017-07-31T16:34:56Z</time>
      </trkpt>
      <trkpt lat="42.94828" lon="1.86461">
        <ele>480.9</ele>
        <time>2017-07-31T16:34:57Z</time>
      </trkpt>
      <trkpt lat="42.94828" lon="1.86461">
        <ele>480.7</ele>
        <time>2017-07-31T16:34:58Z</time>
      </trkpt>
      <trkpt lat="42.94828" lon="1.86461">
        <ele>480.6</ele>
        <time>2017-07-31T16:34:59Z</time>
      </trkpt>
      <trkpt lat="42.94828" lon="1.8646">
        <ele>480.5</ele>
        <time>2017-07-31T16:35:00Z</time>
      </trkpt>
      <trkpt lat="42.94828" lon="1.8646">
        <ele>480.4</ele>
        <time>2017-07-31T16:35:01Z</time>
      </trkpt>
      <trkpt lat="42.94828" lon="1.8646">
        <ele>480.6</ele>
        <time>2017-07-31T16:35:02Z</time>
      </trkpt>
      <trkpt lat="42.94828" lon="1.8646">
        <ele>480.7</ele>
        <time>2017-07-31T16:35:03Z</time>
      </trkpt>
      <trkpt lat="42.94828" lon="1.8646">
        <ele>480.8</ele>
        <time>2017-07-31T16:35:04Z</time>
      </trkpt>
      <trkpt lat="42.94828" lon="1.8646">
        <ele>481.1</ele>
        <time>2017-07-31T16:35:05Z</time>
      </trkpt>
      <trkpt lat="42.94828" lon="1.8646">
        <ele>481.3</ele>
        <time>2017-07-31T16:35:06Z</time>
      </trkpt>
      <trkpt lat="42.94828" lon="1.8646">
        <ele>481.5</ele>
        <time>2017-07-31T16:35:07Z</time>
      </trkpt>
      <trkpt lat="42.94828" lon="1.8646">
        <ele>482</ele>
        <time>2017-07-31T16:35:08Z</time>
      </trkpt>
      <trkpt lat="42.94828" lon="1.8646">
        <ele>482.4</ele>
        <time>2017-07-31T16:35:09Z</time>
      </trkpt>
      <trkpt lat="42.94828" lon="1.86459">
        <ele>482.7</ele>
        <time>2017-07-31T16:35:10Z</time>
      </trkpt>
      <trkpt lat="42.94828" lon="1.86459">
        <ele>483</ele>
        <time>2017-07-31T16:35:11Z</time>
      </trkpt>
      <trkpt lat="42.94828" lon="1.86459">
        <ele>483.2</ele>
        <time>2017-07-31T16:35:12Z</time>
      </trkpt>
      <trkpt lat="42.94827" lon="1.86459">
        <ele>483.3</ele>
        <time>2017-07-31T16:35:13Z</time>
      </trkpt>
      <trkpt lat="42.94827" lon="1.86458">
        <ele>482.5</ele>
        <time>2017-07-31T16:35:14Z</time>
      </trkpt>
      <trkpt lat="42.94827" lon="1.86458">
        <ele>481.9</ele>
        <time>2017-07-31T16:35:15Z</time>
      </trkpt>
      <trkpt lat="42.94827" lon="1.86458">
        <ele>481.5</ele>
        <time>2017-07-31T16:35:16Z</time>
      </trkpt>
      <trkpt lat="42.94827" lon="1.86458">
        <ele>480.5</ele>
        <time>2017-07-31T16:35:17Z</time>
      </trkpt>
      <trkpt lat="42.94827" lon="1.86458">
        <ele>479.8</ele>
        <time>2017-07-31T16:35:18Z</time>
      </trkpt>
      <trkpt lat="42.94827" lon="1.86458">
        <ele>479.2</ele>
        <time>2017-07-31T16:35:19Z</time>
      </trkpt>
      <trkpt lat="42.94827" lon="1.86458">
        <ele>480.3</ele>
        <time>2017-07-31T16:35:20Z</time>
      </trkpt>
      <trkpt lat="42.94826" lon="1.86458">
        <ele>481.2</ele>
        <time>2017-07-31T16:35:21Z</time>
      </trkpt>
      <trkpt lat="42.94826" lon="1.86457">
        <ele>481.8</ele>
        <time>2017-07-31T16:35:22Z</time>
      </trkpt>
      <trkpt lat="42.94826" lon="1.86457">
        <ele>482.1</ele>
        <time>2017-07-31T16:35:23Z</time>
      </trkpt>
      <trkpt lat="42.94826" lon="1.86457">
        <ele>482.2</ele>
        <time>2017-07-31T16:35:24Z</time>
      </trkpt>
      <trkpt lat="42.94826" lon="1.86457">
        <ele>482.4</ele>
        <time>2017-07-31T16:35:25Z</time>
      </trkpt>
      <trkpt lat="42.94826" lon="1.86457">
        <ele>482.3</ele>
        <time>2017-07-31T16:35:26Z</time>
      </trkpt>
      <trkpt lat="42.94826" lon="1.86457">
        <ele>482.2</ele>
        <time>2017-07-31T16:35:27Z</time>
      </trkpt>
      <trkpt lat="42.94827" lon="1.86457">
        <ele>482.1</ele>
        <time>2017-07-31T16:35:28Z</time>
      </trkpt>
      <trkpt lat="42.94827" lon="1.86458">
        <ele>481.9</ele>
        <time>2017-07-31T16:35:29Z</time>
      </trkpt>
      <trkpt lat="42.94827" lon="1.86458">
        <ele>481.7</ele>
        <time>2017-07-31T16:35:30Z</time>
      </trkpt>
      <trkpt lat="42.94827" lon="1.86458">
        <ele>481.5</ele>
        <time>2017-07-31T16:35:31Z</time>
      </trkpt>
      <trkpt lat="42.94827" lon="1.86458">
        <ele>481.8</ele>
        <time>2017-07-31T16:35:32Z</time>
      </trkpt>
      <trkpt lat="42.94827" lon="1.86458">
        <ele>482.1</ele>
        <time>2017-07-31T16:35:33Z</time>
      </trkpt>
      <trkpt lat="42.94827" lon="1.86458">
        <ele>482.3</ele>
        <time>2017-07-31T16:35:34Z</time>
      </trkpt>
      <trkpt lat="42.94827" lon="1.86458">
        <ele>482.2</ele>
        <time>2017-07-31T16:35:35Z</time>
      </trkpt>
      <trkpt lat="42.94827" lon="1.86457">
        <ele>482.1</ele>
        <time>2017-07-31T16:35:36Z</time>
      </trkpt>
      <trkpt lat="42.94827" lon="1.86457">
        <ele>482.1</ele>
        <time>2017-07-31T16:35:37Z</time>
      </trkpt>
      <trkpt lat="42.94827" lon="1.86456">
        <ele>482</ele>
        <time>2017-07-31T16:35:38Z</time>
      </trkpt>
      <trkpt lat="42.94827" lon="1.86456">
        <ele>482</ele>
        <time>2017-07-31T16:35:39Z</time>
      </trkpt>
      <trkpt lat="42.94827" lon="1.86455">
        <ele>482</ele>
        <time>2017-07-31T16:35:40Z</time>
      </trkpt>
      <trkpt lat="42.94827" lon="1.86455">
        <ele>482.2</ele>
        <time>2017-07-31T16:35:41Z</time>
      </trkpt>
      <trkpt lat="42.94827" lon="1.86454">
        <ele>482.4</ele>
        <time>2017-07-31T16:35:42Z</time>
      </trkpt>
      <trkpt lat="42.94827" lon="1.86454">
        <ele>482.5</ele>
        <time>2017-07-31T16:35:43Z</time>
      </trkpt>
      <trkpt lat="42.94827" lon="1.86453">
        <ele>482.1</ele>
        <time>2017-07-31T16:35:44Z</time>
      </trkpt>
      <trkpt lat="42.94827" lon="1.86453">
        <ele>481.9</ele>
        <time>2017-07-31T16:35:45Z</time>
      </trkpt>
      <trkpt lat="42.94827" lon="1.86453">
        <ele>481.7</ele>
        <time>2017-07-31T16:35:46Z</time>
      </trkpt>
      <trkpt lat="42.94827" lon="1.86453">
        <ele>482.2</ele>
        <time>2017-07-31T16:35:47Z</time>
      </trkpt>
      <trkpt lat="42.94827" lon="1.86452">
        <ele>482.5</ele>
        <time>2017-07-31T16:35:48Z</time>
      </trkpt>
      <trkpt lat="42.94827" lon="1.86452">
        <ele>482.8</ele>
        <time>2017-07-31T16:35:49Z</time>
      </trkpt>
      <trkpt lat="42.94827" lon="1.86452">
        <ele>482.2</ele>
        <time>2017-07-31T16:35:50Z</time>
      </trkpt>
      <trkpt lat="42.94827" lon="1.86452">
        <ele>481.7</ele>
        <time>2017-07-31T16:35:51Z</time>
      </trkpt>
      <trkpt lat="42.94827" lon="1.86452">
        <ele>481.3</ele>
        <time>2017-07-31T16:35:52Z</time>
      </trkpt>
      <trkpt lat="42.94827" lon="1.86451">
        <ele>481.2</ele>
        <time>2017-07-31T16:35:53Z</time>
      </trkpt>
      <trkpt lat="42.94827" lon="1.86451">
        <ele>481.2</ele>
        <time>2017-07-31T16:35:54Z</time>
      </trkpt>
      <trkpt lat="42.94827" lon="1.86451">
        <ele>481.2</ele>
        <time>2017-07-31T16:35:55Z</time>
      </trkpt>
      <trkpt lat="42.94827" lon="1.86451">
        <ele>481.4</ele>
        <time>2017-07-31T16:35:56Z</time>
      </trkpt>
      <trkpt lat="42.94828" lon="1.86451">
        <ele>481.5</ele>
        <time>2017-07-31T16:35:57Z</time>
      </trkpt>
      <trkpt lat="42.94828" lon="1.86451">
        <ele>481.6</ele>
        <time>2017-07-31T16:35:58Z</time>
      </trkpt>
      <trkpt lat="42.94828" lon="1.86451">
        <ele>481.7</ele>
        <time>2017-07-31T16:35:59Z</time>
      </trkpt>
      <trkpt lat="42.94828" lon="1.86451">
        <ele>481.8</ele>
        <time>2017-07-31T16:36:00Z</time>
      </trkpt>
      <trkpt lat="42.94829" lon="1.86452">
        <ele>481.8</ele>
        <time>2017-07-31T16:36:01Z</time>
      </trkpt>
      <trkpt lat="42.94829" lon="1.86452">
        <ele>482.1</ele>
        <time>2017-07-31T16:36:02Z</time>
      </trkpt>
      <trkpt lat="42.94829" lon="1.86452">
        <ele>482.2</ele>
        <time>2017-07-31T16:36:03Z</time>
      </trkpt>
      <trkpt lat="42.94829" lon="1.86452">
        <ele>482.4</ele>
        <time>2017-07-31T16:36:04Z</time>
      </trkpt>
      <trkpt lat="42.94829" lon="1.86452">
        <ele>482.3</ele>
        <time>2017-07-31T16:36:05Z</time>
      </trkpt>
      <trkpt lat="42.94829" lon="1.86452">
        <ele>482.2</ele>
        <time>2017-07-31T16:36:06Z</time>
      </trkpt>
      <trkpt lat="42.94829" lon="1.86452">
        <ele>482.1</ele>
        <time>2017-07-31T16:36:07Z</time>
      </trkpt>
      <trkpt lat="42.94829" lon="1.86453">
        <ele>481.6</ele>
        <time>2017-07-31T16:36:08Z</time>
      </trkpt>
      <trkpt lat="42.94829" lon="1.86453">
        <ele>481.3</ele>
        <time>2017-07-31T16:36:09Z</time>
      </trkpt>
      <trkpt lat="42.94829" lon="1.86453">
        <ele>481</ele>
        <time>2017-07-31T16:36:10Z</time>
      </trkpt>
      <trkpt lat="42.94829" lon="1.86453">
        <ele>481.7</ele>
        <time>2017-07-31T16:36:11Z</time>
      </trkpt>
      <trkpt lat="42.94829" lon="1.86453">
        <ele>482.2</ele>
        <time>2017-07-31T16:36:12Z</time>
      </trkpt>
      <trkpt lat="42.94829" lon="1.86453">
        <ele>482.6</ele>
        <time>2017-07-31T16:36:13Z</time>
      </trkpt>
      <trkpt lat="42.94829" lon="1.86453">
        <ele>482.4</ele>
        <time>2017-07-31T16:36:14Z</time>
      </trkpt>
      <trkpt lat="42.94829" lon="1.86453">
        <ele>482.3</ele>
        <time>2017-07-31T16:36:15Z</time>
      </trkpt>
      <trkpt lat="42.94829" lon="1.86453">
        <ele>482.2</ele>
        <time>2017-07-31T16:36:16Z</time>
      </trkpt>
      <trkpt lat="42.94828" lon="1.86453">
        <ele>480.4</ele>
        <time>2017-07-31T16:36:17Z</time>
      </trkpt>
      <trkpt lat="42.94828" lon="1.86453">
        <ele>479</ele>
        <time>2017-07-31T16:36:18Z</time>
      </trkpt>
      <trkpt lat="42.94828" lon="1.86452">
        <ele>478</ele>
        <time>2017-07-31T16:36:19Z</time>
      </trkpt>
      <trkpt lat="42.94828" lon="1.86452">
        <ele>479.4</ele>
        <time>2017-07-31T16:36:20Z</time>
      </trkpt>
      <trkpt lat="42.94827" lon="1.86452">
        <ele>480.5</ele>
        <time>2017-07-31T16:36:21Z</time>
      </trkpt>
      <trkpt lat="42.94827" lon="1.86451">
        <ele>481.3</ele>
        <time>2017-07-31T16:36:22Z</time>
      </trkpt>
      <trkpt lat="42.94827" lon="1.86451">
        <ele>481.4</ele>
        <time>2017-07-31T16:36:23Z</time>
      </trkpt>
      <trkpt lat="42.94826" lon="1.8645">
        <ele>481.6</ele>
        <time>2017-07-31T16:36:24Z</time>
      </trkpt>
      <trkpt lat="42.94826" lon="1.8645">
        <ele>481.7</ele>
        <time>2017-07-31T16:36:25Z</time>
      </trkpt>
      <trkpt lat="42.94826" lon="1.8645">
        <ele>481.7</ele>
        <time>2017-07-31T16:36:26Z</time>
      </trkpt>
      <trkpt lat="42.94826" lon="1.86449">
        <ele>481.8</ele>
        <time>2017-07-31T16:36:27Z</time>
      </trkpt>
      <trkpt lat="42.94825" lon="1.86449">
        <ele>481.8</ele>
        <time>2017-07-31T16:36:28Z</time>
      </trkpt>
      <trkpt lat="42.94825" lon="1.86449">
        <ele>482.1</ele>
        <time>2017-07-31T16:36:29Z</time>
      </trkpt>
      <trkpt lat="42.94825" lon="1.86449">
        <ele>482.3</ele>
        <time>2017-07-31T16:36:30Z</time>
      </trkpt>
      <trkpt lat="42.94825" lon="1.86449">
        <ele>482.4</ele>
        <time>2017-07-31T16:36:31Z</time>
      </trkpt>
      <trkpt lat="42.94825" lon="1.86449">
        <ele>482.5</ele>
        <time>2017-07-31T16:36:32Z</time>
      </trkpt>
      <trkpt lat="42.94825" lon="1.86449">
        <ele>482.6</ele>
        <time>2017-07-31T16:36:33Z</time>
      </trkpt>
      <trkpt lat="42.94825" lon="1.86449">
        <ele>482.6</ele>
        <time>2017-07-31T16:36:34Z</time>
      </trkpt>
      <trkpt lat="42.94825" lon="1.86449">
        <ele>482.7</ele>
        <time>2017-07-31T16:36:35Z</time>
      </trkpt>
      <trkpt lat="42.94825" lon="1.86449">
        <ele>482.7</ele>
        <time>2017-07-31T16:36:36Z</time>
      </trkpt>
      <trkpt lat="42.94824" lon="1.86449">
        <ele>482.7</ele>
        <time>2017-07-31T16:36:37Z</time>
      </trkpt>
      <trkpt lat="42.94824" lon="1.86449">
        <ele>483</ele>
        <time>2017-07-31T16:36:38Z</time>
      </trkpt>
      <trkpt lat="42.94824" lon="1.86449">
        <ele>483.2</ele>
        <time>2017-07-31T16:36:39Z</time>
      </trkpt>
      <trkpt lat="42.94824" lon="1.86449">
        <ele>483.3</ele>
        <time>2017-07-31T16:36:40Z</time>
      </trkpt>
      <trkpt lat="42.94824" lon="1.86449">
        <ele>482.5</ele>
        <time>2017-07-31T16:36:41Z</time>
      </trkpt>
      <trkpt lat="42.94824" lon="1.86449">
        <ele>481.9</ele>
        <time>2017-07-31T16:36:42Z</time>
      </trkpt>
      <trkpt lat="42.94824" lon="1.86449">
        <ele>481.5</ele>
        <time>2017-07-31T16:36:43Z</time>
      </trkpt>
      <trkpt lat="42.94824" lon="1.86449">
        <ele>482.3</ele>
        <time>2017-07-31T16:36:44Z</time>
      </trkpt>
      <trkpt lat="42.94824" lon="1.86449">
        <ele>482.8</ele>
        <time>2017-07-31T16:36:45Z</time>
      </trkpt>
      <trkpt lat="42.94824" lon="1.86449">
        <ele>483.3</ele>
        <time>2017-07-31T16:36:46Z</time>
      </trkpt>
      <trkpt lat="42.94824" lon="1.86449">
        <ele>483.4</ele>
        <time>2017-07-31T16:36:47Z</time>
      </trkpt>
      <trkpt lat="42.94824" lon="1.86449">
        <ele>483.5</ele>
        <time>2017-07-31T16:36:48Z</time>
      </trkpt>
      <trkpt lat="42.94824" lon="1.86449">
        <ele>483.5</ele>
        <time>2017-07-31T16:36:49Z</time>
      </trkpt>
      <trkpt lat="42.94824" lon="1.86449">
        <ele>483.1</ele>
        <time>2017-07-31T16:36:50Z</time>
      </trkpt>
      <trkpt lat="42.94824" lon="1.86449">
        <ele>482.8</ele>
        <time>2017-07-31T16:36:51Z</time>
      </trkpt>
      <trkpt lat="42.94824" lon="1.86449">
        <ele>482.6</ele>
        <time>2017-07-31T16:36:52Z</time>
      </trkpt>
      <trkpt lat="42.94824" lon="1.86449">
        <ele>482.4</ele>
        <time>2017-07-31T16:36:53Z</time>
      </trkpt>
      <trkpt lat="42.94824" lon="1.86449">
        <ele>482.3</ele>
        <time>2017-07-31T16:36:54Z</time>
      </trkpt>
      <trkpt lat="42.94824" lon="1.86449">
        <ele>482.2</ele>
        <time>2017-07-31T16:36:55Z</time>
      </trkpt>
      <trkpt lat="42.94824" lon="1.86449">
        <ele>482.1</ele>
        <time>2017-07-31T16:36:56Z</time>
      </trkpt>
      <trkpt lat="42.94824" lon="1.86449">
        <ele>482.1</ele>
        <time>2017-07-31T16:36:57Z</time>
      </trkpt>
      <trkpt lat="42.94824" lon="1.86449">
        <ele>482.1</ele>
        <time>2017-07-31T16:36:58Z</time>
      </trkpt>
      <trkpt lat="42.94824" lon="1.86449">
        <ele>481.8</ele>
        <time>2017-07-31T16:36:59Z</time>
      </trkpt>
      <trkpt lat="42.94824" lon="1.86449">
        <ele>481.6</ele>
        <time>2017-07-31T16:37:00Z</time>
      </trkpt>
      <trkpt lat="42.94824" lon="1.86449">
        <ele>481.5</ele>
        <time>2017-07-31T16:37:01Z</time>
      </trkpt>
      <trkpt lat="42.94824" lon="1.86449">
        <ele>481.6</ele>
        <time>2017-07-31T16:37:02Z</time>
      </trkpt>
      <trkpt lat="42.94824" lon="1.86449">
        <ele>481.7</ele>
        <time>2017-07-31T16:37:03Z</time>
      </trkpt>
      <trkpt lat="42.94824" lon="1.86449">
        <ele>481.7</ele>
        <time>2017-07-31T16:37:04Z</time>
      </trkpt>
      <trkpt lat="42.94824" lon="1.86449">
        <ele>481.6</ele>
        <time>2017-07-31T16:37:05Z</time>
      </trkpt>
      <trkpt lat="42.94824" lon="1.86449">
        <ele>481.4</ele>
        <time>2017-07-31T16:37:06Z</time>
      </trkpt>
      <trkpt lat="42.94824" lon="1.86449">
        <ele>481.3</ele>
        <time>2017-07-31T16:37:07Z</time>
      </trkpt>
      <trkpt lat="42.94824" lon="1.86449">
        <ele>481.1</ele>
        <time>2017-07-31T16:37:08Z</time>
      </trkpt>
      <trkpt lat="42.94824" lon="1.86449">
        <ele>480.8</ele>
        <time>2017-07-31T16:37:09Z</time>
      </trkpt>
      <trkpt lat="42.94824" lon="1.86449">
        <ele>480.7</ele>
        <time>2017-07-31T16:37:10Z</time>
      </trkpt>
      <trkpt lat="42.94823" lon="1.86449">
        <ele>481</ele>
        <time>2017-07-31T16:37:11Z</time>
      </trkpt>
      <trkpt lat="42.94823" lon="1.86449">
        <ele>481.2</ele>
        <time>2017-07-31T16:37:12Z</time>
      </trkpt>
      <trkpt lat="42.94823" lon="1.86449">
        <ele>481.4</ele>
        <time>2017-07-31T16:37:13Z</time>
      </trkpt>
      <trkpt lat="42.94823" lon="1.86449">
        <ele>481.3</ele>
        <time>2017-07-31T16:37:14Z</time>
      </trkpt>
      <trkpt lat="42.94823" lon="1.86449">
        <ele>481.3</ele>
        <time>2017-07-31T16:37:15Z</time>
      </trkpt>
      <trkpt lat="42.94823" lon="1.86449">
        <ele>481.2</ele>
        <time>2017-07-31T16:37:16Z</time>
      </trkpt>
      <trkpt lat="42.94823" lon="1.86449">
        <ele>481.6</ele>
        <time>2017-07-31T16:37:17Z</time>
      </trkpt>
      <trkpt lat="42.94824" lon="1.86449">
        <ele>481.9</ele>
        <time>2017-07-31T16:37:18Z</time>
      </trkpt>
      <trkpt lat="42.94824" lon="1.86449">
        <ele>482.1</ele>
        <time>2017-07-31T16:37:19Z</time>
      </trkpt>
      <trkpt lat="42.94824" lon="1.86449">
        <ele>482.3</ele>
        <time>2017-07-31T16:37:20Z</time>
      </trkpt>
      <trkpt lat="42.94824" lon="1.86449">
        <ele>482.4</ele>
        <time>2017-07-31T16:37:21Z</time>
      </trkpt>
      <trkpt lat="42.94824" lon="1.86449">
        <ele>482.5</ele>
        <time>2017-07-31T16:37:22Z</time>
      </trkpt>
      <trkpt lat="42.94825" lon="1.8645">
        <ele>482.4</ele>
        <time>2017-07-31T16:37:23Z</time>
      </trkpt>
      <trkpt lat="42.94825" lon="1.8645">
        <ele>482.3</ele>
        <time>2017-07-31T16:37:24Z</time>
      </trkpt>
      <trkpt lat="42.94825" lon="1.8645">
        <ele>482.2</ele>
        <time>2017-07-31T16:37:25Z</time>
      </trkpt>
      <trkpt lat="42.94825" lon="1.8645">
        <ele>482.3</ele>
        <time>2017-07-31T16:37:26Z</time>
      </trkpt>
      <trkpt lat="42.94825" lon="1.8645">
        <ele>482.5</ele>
        <time>2017-07-31T16:37:27Z</time>
      </trkpt>
      <trkpt lat="42.94826" lon="1.8645">
        <ele>482.5</ele>
        <time>2017-07-31T16:37:28Z</time>
      </trkpt>
      <trkpt lat="42.94826" lon="1.8645">
        <ele>482.6</ele>
        <time>2017-07-31T16:37:29Z</time>
      </trkpt>
      <trkpt lat="42.94826" lon="1.8645">
        <ele>482.7</ele>
        <time>2017-07-31T16:37:30Z</time>
      </trkpt>
      <trkpt lat="42.94826" lon="1.8645">
        <ele>482.7</ele>
        <time>2017-07-31T16:37:31Z</time>
      </trkpt>
      <trkpt lat="42.94826" lon="1.8645">
        <ele>482.3</ele>
        <time>2017-07-31T16:37:32Z</time>
      </trkpt>
      <trkpt lat="42.94826" lon="1.8645">
        <ele>482</ele>
        <time>2017-07-31T16:37:33Z</time>
      </trkpt>
      <trkpt lat="42.94826" lon="1.8645">
        <ele>481.8</ele>
        <time>2017-07-31T16:37:34Z</time>
      </trkpt>
      <trkpt lat="42.94826" lon="1.86449">
        <ele>481.6</ele>
        <time>2017-07-31T16:37:35Z</time>
      </trkpt>
      <trkpt lat="42.94826" lon="1.86449">
        <ele>481.5</ele>
        <time>2017-07-31T16:37:36Z</time>
      </trkpt>
      <trkpt lat="42.94826" lon="1.86449">
        <ele>481.4</ele>
        <time>2017-07-31T16:37:37Z</time>
      </trkpt>
      <trkpt lat="42.94826" lon="1.86449">
        <ele>481.7</ele>
        <time>2017-07-31T16:37:38Z</time>
      </trkpt>
      <trkpt lat="42.94826" lon="1.86449">
        <ele>482</ele>
        <time>2017-07-31T16:37:39Z</time>
      </trkpt>
      <trkpt lat="42.94827" lon="1.86449">
        <ele>482.2</ele>
        <time>2017-07-31T16:37:40Z</time>
      </trkpt>
      <trkpt lat="42.94827" lon="1.86449">
        <ele>482.1</ele>
        <time>2017-07-31T16:37:41Z</time>
      </trkpt>
      <trkpt lat="42.94827" lon="1.86449">
        <ele>482.1</ele>
        <time>2017-07-31T16:37:42Z</time>
      </trkpt>
      <trkpt lat="42.94827" lon="1.86449">
        <ele>482</ele>
        <time>2017-07-31T16:37:43Z</time>
      </trkpt>
      <trkpt lat="42.94827" lon="1.86449">
        <ele>482</ele>
        <time>2017-07-31T16:37:44Z</time>
      </trkpt>
      <trkpt lat="42.94827" lon="1.86449">
        <ele>482</ele>
        <time>2017-07-31T16:37:45Z</time>
      </trkpt>
      <trkpt lat="42.94827" lon="1.86449">
        <ele>482</ele>
        <time>2017-07-31T16:37:46Z</time>
      </trkpt>
      <trkpt lat="42.94827" lon="1.86449">
        <ele>482</ele>
        <time>2017-07-31T16:37:47Z</time>
      </trkpt>
      <trkpt lat="42.94827" lon="1.86449">
        <ele>482</ele>
        <time>2017-07-31T16:37:48Z</time>
      </trkpt>
      <trkpt lat="42.94827" lon="1.86449">
        <ele>482</ele>
        <time>2017-07-31T16:37:49Z</time>
      </trkpt>
      <trkpt lat="42.94827" lon="1.86449">
        <ele>482</ele>
        <time>2017-07-31T16:37:50Z</time>
      </trkpt>
      <trkpt lat="42.94827" lon="1.86449">
        <ele>481.9</ele>
        <time>2017-07-31T16:37:51Z</time>
      </trkpt>
      <trkpt lat="42.94827" lon="1.86449">
        <ele>481.9</ele>
        <time>2017-07-31T16:37:52Z</time>
      </trkpt>
      <trkpt lat="42.94827" lon="1.86449">
        <ele>482.2</ele>
        <time>2017-07-31T16:37:53Z</time>
      </trkpt>
      <trkpt lat="42.94827" lon="1.86449">
        <ele>482.3</ele>
        <time>2017-07-31T16:37:54Z</time>
      </trkpt>
      <trkpt lat="42.94827" lon="1.86449">
        <ele>482.4</ele>
        <time>2017-07-31T16:37:55Z</time>
      </trkpt>
      <trkpt lat="42.94827" lon="1.86449">
        <ele>482.8</ele>
        <time>2017-07-31T16:37:56Z</time>
      </trkpt>
      <trkpt lat="42.94827" lon="1.8645">
        <ele>483</ele>
        <time>2017-07-31T16:37:57Z</time>
      </trkpt>
      <trkpt lat="42.94827" lon="1.8645">
        <ele>483.2</ele>
        <time>2017-07-31T16:37:58Z</time>
      </trkpt>
      <trkpt lat="42.94827" lon="1.8645">
        <ele>483.1</ele>
        <time>2017-07-31T16:37:59Z</time>
      </trkpt>
      <trkpt lat="42.94827" lon="1.8645">
        <ele>483</ele>
        <time>2017-07-31T16:38:00Z</time>
      </trkpt>
      <trkpt lat="42.94827" lon="1.8645">
        <ele>483</ele>
        <time>2017-07-31T16:38:01Z</time>
      </trkpt>
      <trkpt lat="42.94827" lon="1.8645">
        <ele>481.6</ele>
        <time>2017-07-31T16:38:02Z</time>
      </trkpt>
      <trkpt lat="42.94827" lon="1.8645">
        <ele>480.6</ele>
        <time>2017-07-31T16:38:03Z</time>
      </trkpt>
      <trkpt lat="42.94828" lon="1.8645">
        <ele>479.8</ele>
        <time>2017-07-31T16:38:04Z</time>
      </trkpt>
      <trkpt lat="42.94828" lon="1.8645">
        <ele>480.6</ele>
        <time>2017-07-31T16:38:05Z</time>
      </trkpt>
      <trkpt lat="42.94828" lon="1.8645">
        <ele>481.1</ele>
        <time>2017-07-31T16:38:06Z</time>
      </trkpt>
      <trkpt lat="42.94828" lon="1.8645">
        <ele>481.6</ele>
        <time>2017-07-31T16:38:07Z</time>
      </trkpt>
      <trkpt lat="42.94828" lon="1.8645">
        <ele>480.8</ele>
        <time>2017-07-31T16:38:08Z</time>
      </trkpt>
      <trkpt lat="42.94828" lon="1.8645">
        <ele>480.2</ele>
        <time>2017-07-31T16:38:09Z</time>
      </trkpt>
      <trkpt lat="42.94828" lon="1.8645">
        <ele>479.8</ele>
        <time>2017-07-31T16:38:10Z</time>
      </trkpt>
      <trkpt lat="42.94828" lon="1.8645">
        <ele>480.7</ele>
        <time>2017-07-31T16:38:11Z</time>
      </trkpt>
      <trkpt lat="42.94827" lon="1.8645">
        <ele>481.5</ele>
        <time>2017-07-31T16:38:12Z</time>
      </trkpt>
      <trkpt lat="42.94827" lon="1.8645">
        <ele>482</ele>
        <time>2017-07-31T16:38:13Z</time>
      </trkpt>
      <trkpt lat="42.94827" lon="1.8645">
        <ele>482.7</ele>
        <time>2017-07-31T16:38:14Z</time>
      </trkpt>
      <trkpt lat="42.94827" lon="1.8645">
        <ele>483.1</ele>
        <time>2017-07-31T16:38:15Z</time>
      </trkpt>
      <trkpt lat="42.94827" lon="1.8645">
        <ele>483.5</ele>
        <time>2017-07-31T16:38:16Z</time>
      </trkpt>
      <trkpt lat="42.94827" lon="1.8645">
        <ele>483.3</ele>
        <time>2017-07-31T16:38:17Z</time>
      </trkpt>
      <trkpt lat="42.94827" lon="1.8645">
        <ele>483.2</ele>
        <time>2017-07-31T16:38:18Z</time>
      </trkpt>
      <trkpt lat="42.94827" lon="1.8645">
        <ele>483.1</ele>
        <time>2017-07-31T16:38:19Z</time>
      </trkpt>
      <trkpt lat="42.94827" lon="1.8645">
        <ele>483</ele>
        <time>2017-07-31T16:38:20Z</time>
      </trkpt>
      <trkpt lat="42.94827" lon="1.8645">
        <ele>483</ele>
        <time>2017-07-31T16:38:21Z</time>
      </trkpt>
      <trkpt lat="42.94827" lon="1.8645">
        <ele>482.9</ele>
        <time>2017-07-31T16:38:22Z</time>
      </trkpt>
      <trkpt lat="42.94827" lon="1.8645">
        <ele>483.1</ele>
        <time>2017-07-31T16:38:23Z</time>
      </trkpt>
      <trkpt lat="42.94827" lon="1.8645">
        <ele>483.3</ele>
        <time>2017-07-31T16:38:24Z</time>
      </trkpt>
      <trkpt lat="42.94827" lon="1.8645">
        <ele>483.4</ele>
        <time>2017-07-31T16:38:25Z</time>
      </trkpt>
      <trkpt lat="42.94827" lon="1.8645">
        <ele>483</ele>
        <time>2017-07-31T16:38:26Z</time>
      </trkpt>
      <trkpt lat="42.94827" lon="1.8645">
        <ele>482.7</ele>
        <time>2017-07-31T16:38:27Z</time>
      </trkpt>
      <trkpt lat="42.94827" lon="1.8645">
        <ele>482.5</ele>
        <time>2017-07-31T16:38:28Z</time>
      </trkpt>
      <trkpt lat="42.94827" lon="1.8645">
        <ele>482.6</ele>
        <time>2017-07-31T16:38:29Z</time>
      </trkpt>
      <trkpt lat="42.94827" lon="1.8645">
        <ele>482.7</ele>
        <time>2017-07-31T16:38:30Z</time>
      </trkpt>
      <trkpt lat="42.94827" lon="1.8645">
        <ele>482.7</ele>
        <time>2017-07-31T16:38:31Z</time>
      </trkpt>
      <trkpt lat="42.94827" lon="1.8645">
        <ele>482.7</ele>
        <time>2017-07-31T16:38:32Z</time>
      </trkpt>
      <trkpt lat="42.94827" lon="1.8645">
        <ele>482.7</ele>
        <time>2017-07-31T16:38:33Z</time>
      </trkpt>
      <trkpt lat="42.94827" lon="1.8645">
        <ele>482.8</ele>
        <time>2017-07-31T16:38:34Z</time>
      </trkpt>
      <trkpt lat="42.94827" lon="1.8645">
        <ele>482.3</ele>
        <time>2017-07-31T16:38:35Z</time>
      </trkpt>
      <trkpt lat="42.94827" lon="1.8645">
        <ele>482</ele>
        <time>2017-07-31T16:38:36Z</time>
      </trkpt>
      <trkpt lat="42.94827" lon="1.8645">
        <ele>481.8</ele>
        <time>2017-07-31T16:38:37Z</time>
      </trkpt>
      <trkpt lat="42.94827" lon="1.8645">
        <ele>481.6</ele>
        <time>2017-07-31T16:38:38Z</time>
      </trkpt>
      <trkpt lat="42.94827" lon="1.86449">
        <ele>481.5</ele>
        <time>2017-07-31T16:38:39Z</time>
      </trkpt>
      <trkpt lat="42.94827" lon="1.86449">
        <ele>481.4</ele>
        <time>2017-07-31T16:38:40Z</time>
      </trkpt>
      <trkpt lat="42.94827" lon="1.86449">
        <ele>480.6</ele>
        <time>2017-07-31T16:38:41Z</time>
      </trkpt>
      <trkpt lat="42.94827" lon="1.86449">
        <ele>480.1</ele>
        <time>2017-07-31T16:38:42Z</time>
      </trkpt>
      <trkpt lat="42.94827" lon="1.86449">
        <ele>479.7</ele>
        <time>2017-07-31T16:38:43Z</time>
      </trkpt>
      <trkpt lat="42.94827" lon="1.86449">
        <ele>479.8</ele>
        <time>2017-07-31T16:38:44Z</time>
      </trkpt>
      <trkpt lat="42.94827" lon="1.86449">
        <ele>479.9</ele>
        <time>2017-07-31T16:38:45Z</time>
      </trkpt>
      <trkpt lat="42.94827" lon="1.8645">
        <ele>480.3</ele>
        <time>2017-07-31T16:38:50Z</time>
      </trkpt>
      <trkpt lat="42.94827" lon="1.8645">
        <ele>480.5</ele>
        <time>2017-07-31T16:38:51Z</time>
      </trkpt>
      <trkpt lat="42.94827" lon="1.8645">
        <ele>480.7</ele>
        <time>2017-07-31T16:38:52Z</time>
      </trkpt>
      <trkpt lat="42.94827" lon="1.8645">
        <ele>480.5</ele>
        <time>2017-07-31T16:38:53Z</time>
      </trkpt>
      <trkpt lat="42.94827" lon="1.8645">
        <ele>480.4</ele>
        <time>2017-07-31T16:38:54Z</time>
      </trkpt>
      <trkpt lat="42.94827" lon="1.8645">
        <ele>480.4</ele>
        <time>2017-07-31T16:38:55Z</time>
      </trkpt>
      <trkpt lat="42.94827" lon="1.8645">
        <ele>479.7</ele>
        <time>2017-07-31T16:38:56Z</time>
      </trkpt>
      <trkpt lat="42.94827" lon="1.8645">
        <ele>479.1</ele>
        <time>2017-07-31T16:38:57Z</time>
      </trkpt>
      <trkpt lat="42.94827" lon="1.8645">
        <ele>478.7</ele>
        <time>2017-07-31T16:38:58Z</time>
      </trkpt>
      <trkpt lat="42.94827" lon="1.8645">
        <ele>479.1</ele>
        <time>2017-07-31T16:38:59Z</time>
      </trkpt>
      <trkpt lat="42.94827" lon="1.8645">
        <ele>479.4</ele>
        <time>2017-07-31T16:39:00Z</time>
      </trkpt>
      <trkpt lat="42.94827" lon="1.8645">
        <ele>479.6</ele>
        <time>2017-07-31T16:39:01Z</time>
      </trkpt>
      <trkpt lat="42.94827" lon="1.8645">
        <ele>480.4</ele>
        <time>2017-07-31T16:39:02Z</time>
      </trkpt>
      <trkpt lat="42.94827" lon="1.8645">
        <ele>481</ele>
        <time>2017-07-31T16:39:03Z</time>
      </trkpt>
      <trkpt lat="42.94823" lon="1.86446">
        <ele>483.2</ele>
        <time>2017-07-31T16:39:07Z</time>
      </trkpt>
      <trkpt lat="42.94822" lon="1.86444">
        <ele>482.9</ele>
        <time>2017-07-31T16:39:08Z</time>
      </trkpt>
      <trkpt lat="42.94764" lon="1.86385">
        <ele>482.8</ele>
        <time>2017-07-31T16:39:35Z</time>
      </trkpt>
      <trkpt lat="42.94741" lon="1.86353">
        <ele>483.2</ele>
        <time>2017-07-31T16:39:45Z</time>
      </trkpt>
      <trkpt lat="42.94739" lon="1.8635">
        <ele>483.1</ele>
        <time>2017-07-31T16:39:46Z</time>
      </trkpt>
      <trkpt lat="42.94438" lon="1.85917">
        <ele>490.4</ele>
        <time>2017-07-31T16:42:00Z</time>
      </trkpt>
      <trkpt lat="42.94436" lon="1.85915">
        <ele>490.5</ele>
        <time>2017-07-31T16:42:01Z</time>
      </trkpt>
      <trkpt lat="42.94429" lon="1.85909">
        <ele>491.1</ele>
        <time>2017-07-31T16:42:04Z</time>
      </trkpt>
      <trkpt lat="42.94427" lon="1.85907">
        <ele>491.4</ele>
        <time>2017-07-31T16:42:05Z</time>
      </trkpt>
      <trkpt lat="42.94384" lon="1.85869">
        <ele>492.7</ele>
        <time>2017-07-31T16:42:20Z</time>
      </trkpt>
      <trkpt lat="42.94361" lon="1.8585">
        <ele>492.9</ele>
        <time>2017-07-31T16:42:27Z</time>
      </trkpt>
      <trkpt lat="42.94358" lon="1.85848">
        <ele>493</ele>
        <time>2017-07-31T16:42:28Z</time>
      </trkpt>
      <trkpt lat="42.94338" lon="1.85835">
        <ele>492.7</ele>
        <time>2017-07-31T16:42:35Z</time>
      </trkpt>
      <trkpt lat="42.94321" lon="1.85826">
        <ele>493</ele>
        <time>2017-07-31T16:42:40Z</time>
      </trkpt>
      <trkpt lat="42.94318" lon="1.85823">
        <ele>493.1</ele>
        <time>2017-07-31T16:42:41Z</time>
      </trkpt>
      <trkpt lat="42.94248" lon="1.85748">
        <ele>490.8</ele>
        <time>2017-07-31T16:43:03Z</time>
      </trkpt>
      <trkpt lat="42.94245" lon="1.85746">
        <ele>490.4</ele>
        <time>2017-07-31T16:43:04Z</time>
      </trkpt>
      <trkpt lat="42.9423" lon="1.8574">
        <ele>492.6</ele>
        <time>2017-07-31T16:43:11Z</time>
      </trkpt>
      <trkpt lat="42.94229" lon="1.85739">
        <ele>492.5</ele>
        <time>2017-07-31T16:43:12Z</time>
      </trkpt>
      <trkpt lat="42.94228" lon="1.85739">
        <ele>492.5</ele>
        <time>2017-07-31T16:43:13Z</time>
      </trkpt>
      <trkpt lat="42.94228" lon="1.8574">
        <ele>493.2</ele>
        <time>2017-07-31T16:43:14Z</time>
      </trkpt>
      <trkpt lat="42.94227" lon="1.8574">
        <ele>494</ele>
        <time>2017-07-31T16:43:16Z</time>
      </trkpt>
      <trkpt lat="42.94227" lon="1.8574">
        <ele>493.8</ele>
        <time>2017-07-31T16:43:17Z</time>
      </trkpt>
      <trkpt lat="42.94227" lon="1.8574">
        <ele>493.6</ele>
        <time>2017-07-31T16:43:19Z</time>
      </trkpt>
      <trkpt lat="42.94226" lon="1.8574">
        <ele>493.5</ele>
        <time>2017-07-31T16:43:20Z</time>
      </trkpt>
      <trkpt lat="42.94226" lon="1.85741">
        <ele>493.5</ele>
        <time>2017-07-31T16:43:21Z</time>
      </trkpt>
      <trkpt lat="42.94226" lon="1.8574">
        <ele>493.4</ele>
        <time>2017-07-31T16:43:22Z</time>
      </trkpt>
      <trkpt lat="42.94226" lon="1.8574">
        <ele>493.2</ele>
        <time>2017-07-31T16:43:23Z</time>
      </trkpt>
      <trkpt lat="42.94225" lon="1.8574">
        <ele>493</ele>
        <time>2017-07-31T16:43:24Z</time>
      </trkpt>
      <trkpt lat="42.94225" lon="1.85739">
        <ele>492.9</ele>
        <time>2017-07-31T16:43:25Z</time>
      </trkpt>
      <trkpt lat="42.94225" lon="1.85739">
        <ele>493.2</ele>
        <time>2017-07-31T16:43:26Z</time>
      </trkpt>
      <trkpt lat="42.94225" lon="1.85738">
        <ele>493.5</ele>
        <time>2017-07-31T16:43:27Z</time>
      </trkpt>
      <trkpt lat="42.94225" lon="1.85737">
        <ele>493.6</ele>
        <time>2017-07-31T16:43:28Z</time>
      </trkpt>
      <trkpt lat="42.94224" lon="1.85737">
        <ele>493.6</ele>
        <time>2017-07-31T16:43:29Z</time>
      </trkpt>
      <trkpt lat="42.94224" lon="1.85736">
        <ele>493.5</ele>
        <time>2017-07-31T16:43:30Z</time>
      </trkpt>
      <trkpt lat="42.94223" lon="1.85735">
        <ele>493.5</ele>
        <time>2017-07-31T16:43:31Z</time>
      </trkpt>
      <trkpt lat="42.94223" lon="1.85734">
        <ele>493.4</ele>
        <time>2017-07-31T16:43:32Z</time>
      </trkpt>
      <trkpt lat="42.94222" lon="1.85733">
        <ele>493.4</ele>
        <time>2017-07-31T16:43:33Z</time>
      </trkpt>
      <trkpt lat="42.94221" lon="1.85732">
        <ele>493.4</ele>
        <time>2017-07-31T16:43:34Z</time>
      </trkpt>
      <trkpt lat="42.94219" lon="1.85728">
        <ele>492.9</ele>
        <time>2017-07-31T16:43:38Z</time>
      </trkpt>
      <trkpt lat="42.94218" lon="1.85727">
        <ele>492.6</ele>
        <time>2017-07-31T16:43:39Z</time>
      </trkpt>
      <trkpt lat="42.94217" lon="1.85726">
        <ele>492.3</ele>
        <time>2017-07-31T16:43:40Z</time>
      </trkpt>
      <trkpt lat="42.94216" lon="1.85725">
        <ele>492.8</ele>
        <time>2017-07-31T16:43:41Z</time>
      </trkpt>
      <trkpt lat="42.94215" lon="1.85723">
        <ele>493.1</ele>
        <time>2017-07-31T16:43:42Z</time>
      </trkpt>
      <trkpt lat="42.94215" lon="1.85723">
        <ele>493.4</ele>
        <time>2017-07-31T16:43:43Z</time>
      </trkpt>
      <trkpt lat="42.9421" lon="1.85721">
        <ele>492.4</ele>
        <time>2017-07-31T16:43:48Z</time>
      </trkpt>
      <trkpt lat="42.94209" lon="1.85721">
        <ele>492.4</ele>
        <time>2017-07-31T16:43:49Z</time>
      </trkpt>
      <trkpt lat="42.94208" lon="1.8572">
        <ele>492.2</ele>
        <time>2017-07-31T16:43:50Z</time>
      </trkpt>
      <trkpt lat="42.94208" lon="1.8572">
        <ele>492</ele>
        <time>2017-07-31T16:43:51Z</time>
      </trkpt>
      <trkpt lat="42.94207" lon="1.8572">
        <ele>491.9</ele>
        <time>2017-07-31T16:43:52Z</time>
      </trkpt>
      <trkpt lat="42.94206" lon="1.8572">
        <ele>491.6</ele>
        <time>2017-07-31T16:43:53Z</time>
      </trkpt>
      <trkpt lat="42.94205" lon="1.85719">
        <ele>491.4</ele>
        <time>2017-07-31T16:43:54Z</time>
      </trkpt>
      <trkpt lat="42.94204" lon="1.85719">
        <ele>491.2</ele>
        <time>2017-07-31T16:43:55Z</time>
      </trkpt>
      <trkpt lat="42.94204" lon="1.85719">
        <ele>491.1</ele>
        <time>2017-07-31T16:43:56Z</time>
      </trkpt>
      <trkpt lat="42.94203" lon="1.85719">
        <ele>491</ele>
        <time>2017-07-31T16:43:57Z</time>
      </trkpt>
      <trkpt lat="42.94203" lon="1.85718">
        <ele>490.9</ele>
        <time>2017-07-31T16:43:58Z</time>
      </trkpt>
      <trkpt lat="42.94202" lon="1.85718">
        <ele>491.5</ele>
        <time>2017-07-31T16:43:59Z</time>
      </trkpt>
      <trkpt lat="42.94202" lon="1.85718">
        <ele>492</ele>
        <time>2017-07-31T16:44:00Z</time>
      </trkpt>
      <trkpt lat="42.94201" lon="1.85717">
        <ele>492.3</ele>
        <time>2017-07-31T16:44:01Z</time>
      </trkpt>
      <trkpt lat="42.94201" lon="1.85717">
        <ele>492.1</ele>
        <time>2017-07-31T16:44:02Z</time>
      </trkpt>
      <trkpt lat="42.942" lon="1.85716">
        <ele>492</ele>
        <time>2017-07-31T16:44:03Z</time>
      </trkpt>
      <trkpt lat="42.94197" lon="1.85714">
        <ele>491.7</ele>
        <time>2017-07-31T16:44:06Z</time>
      </trkpt>
      <trkpt lat="42.94197" lon="1.85714">
        <ele>491.7</ele>
        <time>2017-07-31T16:44:07Z</time>
      </trkpt>
      <trkpt lat="42.94196" lon="1.85713">
        <ele>491.2</ele>
        <time>2017-07-31T16:44:08Z</time>
      </trkpt>
      <trkpt lat="42.94196" lon="1.85712">
        <ele>490.9</ele>
        <time>2017-07-31T16:44:09Z</time>
      </trkpt>
      <trkpt lat="42.94196" lon="1.85712">
        <ele>490.6</ele>
        <time>2017-07-31T16:44:10Z</time>
      </trkpt>
      <trkpt lat="42.94196" lon="1.85712">
        <ele>491.1</ele>
        <time>2017-07-31T16:44:11Z</time>
      </trkpt>
      <trkpt lat="42.94196" lon="1.85711">
        <ele>491.4</ele>
        <time>2017-07-31T16:44:12Z</time>
      </trkpt>
      <trkpt lat="42.94196" lon="1.85711">
        <ele>491.7</ele>
        <time>2017-07-31T16:44:13Z</time>
      </trkpt>
      <trkpt lat="42.94196" lon="1.85711">
        <ele>491</ele>
        <time>2017-07-31T16:44:14Z</time>
      </trkpt>
      <trkpt lat="42.94195" lon="1.8571">
        <ele>490.5</ele>
        <time>2017-07-31T16:44:15Z</time>
      </trkpt>
      <trkpt lat="42.94195" lon="1.8571">
        <ele>490.1</ele>
        <time>2017-07-31T16:44:16Z</time>
      </trkpt>
      <trkpt lat="42.94195" lon="1.85709">
        <ele>491.1</ele>
        <time>2017-07-31T16:44:18Z</time>
      </trkpt>
      <trkpt lat="42.94195" lon="1.85708">
        <ele>491.5</ele>
        <time>2017-07-31T16:44:19Z</time>
      </trkpt>
      <trkpt lat="42.94195" lon="1.85707">
        <ele>491.3</ele>
        <time>2017-07-31T16:44:20Z</time>
      </trkpt>
      <trkpt lat="42.94195" lon="1.85706">
        <ele>491.1</ele>
        <time>2017-07-31T16:44:21Z</time>
      </trkpt>
      <trkpt lat="42.94195" lon="1.85706">
        <ele>491</ele>
        <time>2017-07-31T16:44:22Z</time>
      </trkpt>
      <trkpt lat="42.94195" lon="1.85706">
        <ele>490.9</ele>
        <time>2017-07-31T16:44:23Z</time>
      </trkpt>
      <trkpt lat="42.94195" lon="1.85705">
        <ele>490.9</ele>
        <time>2017-07-31T16:44:24Z</time>
      </trkpt>
      <trkpt lat="42.94195" lon="1.85705">
        <ele>490.8</ele>
        <time>2017-07-31T16:44:25Z</time>
      </trkpt>
      <trkpt lat="42.94196" lon="1.85705">
        <ele>490.8</ele>
        <time>2017-07-31T16:44:26Z</time>
      </trkpt>
      <trkpt lat="42.94196" lon="1.85705">
        <ele>490.8</ele>
        <time>2017-07-31T16:44:27Z</time>
      </trkpt>
      <trkpt lat="42.94196" lon="1.85705">
        <ele>490.8</ele>
        <time>2017-07-31T16:44:28Z</time>
      </trkpt>
      <trkpt lat="42.94196" lon="1.85705">
        <ele>491</ele>
        <time>2017-07-31T16:44:29Z</time>
      </trkpt>
      <trkpt lat="42.94196" lon="1.85705">
        <ele>491.1</ele>
        <time>2017-07-31T16:44:30Z</time>
      </trkpt>
      <trkpt lat="42.94196" lon="1.85705">
        <ele>491.2</ele>
        <time>2017-07-31T16:44:31Z</time>
      </trkpt>
      <trkpt lat="42.94195" lon="1.85703">
        <ele>491.4</ele>
        <time>2017-07-31T16:44:34Z</time>
      </trkpt>
      <trkpt lat="42.94195" lon="1.85701">
        <ele>491.9</ele>
        <time>2017-07-31T16:44:35Z</time>
      </trkpt>
      <trkpt lat="42.94162" lon="1.85645">
        <ele>492.2</ele>
        <time>2017-07-31T16:44:55Z</time>
      </trkpt>
      <trkpt lat="42.94161" lon="1.85642">
        <ele>492.9</ele>
        <time>2017-07-31T16:44:56Z</time>
      </trkpt>
      <trkpt lat="42.94147" lon="1.856">
        <ele>491.9</ele>
        <time>2017-07-31T16:45:10Z</time>
      </trkpt>
      <trkpt lat="42.94145" lon="1.85597">
        <ele>492.7</ele>
        <time>2017-07-31T16:45:11Z</time>
      </trkpt>
      <trkpt lat="42.94135" lon="1.85588">
        <ele>494.3</ele>
        <time>2017-07-31T16:45:15Z</time>
      </trkpt>
      <trkpt lat="42.94088" lon="1.85548">
        <ele>490.7</ele>
        <time>2017-07-31T16:45:33Z</time>
      </trkpt>
      <trkpt lat="42.94047" lon="1.8551">
        <ele>493.4</ele>
        <time>2017-07-31T16:45:48Z</time>
      </trkpt>
      <trkpt lat="42.94046" lon="1.85507">
        <ele>493.2</ele>
        <time>2017-07-31T16:45:49Z</time>
      </trkpt>
      <trkpt lat="42.94047" lon="1.85502">
        <ele>493.2</ele>
        <time>2017-07-31T16:45:50Z</time>
      </trkpt>
      <trkpt lat="42.94049" lon="1.85497">
        <ele>493.3</ele>
        <time>2017-07-31T16:45:51Z</time>
      </trkpt>
      <trkpt lat="42.94055" lon="1.8548">
        <ele>492.3</ele>
        <time>2017-07-31T16:45:55Z</time>
      </trkpt>
      <trkpt lat="42.94055" lon="1.85476">
        <ele>492.3</ele>
        <time>2017-07-31T16:45:56Z</time>
      </trkpt>
      <trkpt lat="42.94053" lon="1.85472">
        <ele>492.4</ele>
        <time>2017-07-31T16:45:57Z</time>
      </trkpt>
      <trkpt lat="42.94051" lon="1.85468">
        <ele>492.4</ele>
        <time>2017-07-31T16:45:58Z</time>
      </trkpt>
      <trkpt lat="42.94048" lon="1.85464">
        <ele>492.2</ele>
        <time>2017-07-31T16:45:59Z</time>
      </trkpt>
      <trkpt lat="42.94045" lon="1.85461">
        <ele>492</ele>
        <time>2017-07-31T16:46:00Z</time>
      </trkpt>
      <trkpt lat="42.94009" lon="1.85426">
        <ele>493.4</ele>
        <time>2017-07-31T16:46:12Z</time>
      </trkpt>
      <trkpt lat="42.94006" lon="1.85423">
        <ele>494.4</ele>
        <time>2017-07-31T16:46:13Z</time>
      </trkpt>
      <trkpt lat="42.93844" lon="1.85284">
        <ele>495.4</ele>
        <time>2017-07-31T16:47:10Z</time>
      </trkpt>
      <trkpt lat="42.93847" lon="1.8528">
        <ele>496.8</ele>
        <time>2017-07-31T16:47:11Z</time>
      </trkpt>
      <trkpt lat="42.93871" lon="1.85258">
        <ele>498.5</ele>
        <time>2017-07-31T16:47:18Z</time>
      </trkpt>
      <trkpt lat="42.93874" lon="1.85255">
        <ele>498.3</ele>
        <time>2017-07-31T16:47:19Z</time>
      </trkpt>
      <trkpt lat="42.93972" lon="1.85168">
        <ele>493</ele>
        <time>2017-07-31T16:47:50Z</time>
      </trkpt>
      <trkpt lat="42.93982" lon="1.85164">
        <ele>493.2</ele>
        <time>2017-07-31T16:47:53Z</time>
      </trkpt>
      <trkpt lat="42.94001" lon="1.85162">
        <ele>493.3</ele>
        <time>2017-07-31T16:47:58Z</time>
      </trkpt>
      <trkpt lat="42.94017" lon="1.85163">
        <ele>492.3</ele>
        <time>2017-07-31T16:48:02Z</time>
      </trkpt>
      <trkpt lat="42.94067" lon="1.85168">
        <ele>491.9</ele>
        <time>2017-07-31T16:48:16Z</time>
      </trkpt>
      <trkpt lat="42.94067" lon="1.85168">
        <ele>492</ele>
        <time>2017-07-31T16:48:17Z</time>
      </trkpt>
      <trkpt lat="42.94067" lon="1.85168">
        <ele>492.1</ele>
        <time>2017-07-31T16:48:18Z</time>
      </trkpt>
      <trkpt lat="42.94067" lon="1.85168">
        <ele>492.2</ele>
        <time>2017-07-31T16:48:19Z</time>
      </trkpt>
      <trkpt lat="42.94067" lon="1.85168">
        <ele>492.1</ele>
        <time>2017-07-31T16:48:20Z</time>
      </trkpt>
      <trkpt lat="42.94071" lon="1.85167">
        <ele>491.9</ele>
        <time>2017-07-31T16:48:21Z</time>
      </trkpt>
      <trkpt lat="42.94072" lon="1.85164">
        <ele>491.8</ele>
        <time>2017-07-31T16:48:22Z</time>
      </trkpt>
      <trkpt lat="42.94073" lon="1.85162">
        <ele>491.6</ele>
        <time>2017-07-31T16:48:23Z</time>
      </trkpt>
      <trkpt lat="42.94076" lon="1.85151">
        <ele>490.6</ele>
        <time>2017-07-31T16:48:26Z</time>
      </trkpt>
      <trkpt lat="42.94076" lon="1.85147">
        <ele>490.2</ele>
        <time>2017-07-31T16:48:27Z</time>
      </trkpt>
      <trkpt lat="42.94077" lon="1.85133">
        <ele>490.2</ele>
        <time>2017-07-31T16:48:30Z</time>
      </trkpt>
      <trkpt lat="42.94079" lon="1.85106">
        <ele>491.4</ele>
        <time>2017-07-31T16:48:39Z</time>
      </trkpt>
      <trkpt lat="42.94079" lon="1.85106">
        <ele>492.1</ele>
        <time>2017-07-31T16:48:41Z</time>
      </trkpt>
      <trkpt lat="42.94079" lon="1.85106">
        <ele>492.4</ele>
        <time>2017-07-31T16:48:42Z</time>
      </trkpt>
      <trkpt lat="42.94079" lon="1.85106">
        <ele>492.6</ele>
        <time>2017-07-31T16:48:43Z</time>
      </trkpt>
      <trkpt lat="42.94079" lon="1.85106">
        <ele>491.9</ele>
        <time>2017-07-31T16:48:44Z</time>
      </trkpt>
      <trkpt lat="42.94079" lon="1.85106">
        <ele>491.4</ele>
        <time>2017-07-31T16:48:45Z</time>
      </trkpt>
      <trkpt lat="42.94079" lon="1.85106">
        <ele>491</ele>
        <time>2017-07-31T16:48:46Z</time>
      </trkpt>
      <trkpt lat="42.94079" lon="1.85106">
        <ele>491.6</ele>
        <time>2017-07-31T16:48:47Z</time>
      </trkpt>
      <trkpt lat="42.94079" lon="1.85106">
        <ele>492</ele>
        <time>2017-07-31T16:48:48Z</time>
      </trkpt>
      <trkpt lat="42.94079" lon="1.85106">
        <ele>492.3</ele>
        <time>2017-07-31T16:48:49Z</time>
      </trkpt>
      <trkpt lat="42.94079" lon="1.85106">
        <ele>492.4</ele>
        <time>2017-07-31T16:48:50Z</time>
      </trkpt>
      <trkpt lat="42.94079" lon="1.85106">
        <ele>492.4</ele>
        <time>2017-07-31T16:48:51Z</time>
      </trkpt>
      <trkpt lat="42.94079" lon="1.85106">
        <ele>492.4</ele>
        <time>2017-07-31T16:48:52Z</time>
      </trkpt>
      <trkpt lat="42.94079" lon="1.85106">
        <ele>492.6</ele>
        <time>2017-07-31T16:48:53Z</time>
      </trkpt>
      <trkpt lat="42.94079" lon="1.85099">
        <ele>492.8</ele>
        <time>2017-07-31T16:48:54Z</time>
      </trkpt>
      <trkpt lat="42.94079" lon="1.85099">
        <ele>492.9</ele>
        <time>2017-07-31T16:48:55Z</time>
      </trkpt>
      <trkpt lat="42.94079" lon="1.85099">
        <ele>492.6</ele>
        <time>2017-07-31T16:48:56Z</time>
      </trkpt>
      <trkpt lat="42.94079" lon="1.85099">
        <ele>492.3</ele>
        <time>2017-07-31T16:48:57Z</time>
      </trkpt>
      <trkpt lat="42.94079" lon="1.85099">
        <ele>492.1</ele>
        <time>2017-07-31T16:48:58Z</time>
      </trkpt>
      <trkpt lat="42.94079" lon="1.85099">
        <ele>492</ele>
        <time>2017-07-31T16:48:59Z</time>
      </trkpt>
      <trkpt lat="42.94079" lon="1.8509">
        <ele>491.9</ele>
        <time>2017-07-31T16:49:00Z</time>
      </trkpt>
      <trkpt lat="42.94079" lon="1.8509">
        <ele>492</ele>
        <time>2017-07-31T16:49:02Z</time>
      </trkpt>
      <trkpt lat="42.94079" lon="1.8509">
        <ele>492.1</ele>
        <time>2017-07-31T16:49:03Z</time>
      </trkpt>
      <trkpt lat="42.94079" lon="1.8509">
        <ele>492.2</ele>
        <time>2017-07-31T16:49:04Z</time>
      </trkpt>
      <trkpt lat="42.94079" lon="1.8509">
        <ele>492.2</ele>
        <time>2017-07-31T16:49:05Z</time>
      </trkpt>
      <trkpt lat="42.94079" lon="1.8509">
        <ele>492.3</ele>
        <time>2017-07-31T16:49:06Z</time>
      </trkpt>
      <trkpt lat="42.94079" lon="1.8509">
        <ele>492.3</ele>
        <time>2017-07-31T16:49:07Z</time>
      </trkpt>
      <trkpt lat="42.94079" lon="1.8509">
        <ele>492.8</ele>
        <time>2017-07-31T16:49:08Z</time>
      </trkpt>
      <trkpt lat="42.94079" lon="1.8509">
        <ele>493.2</ele>
        <time>2017-07-31T16:49:09Z</time>
      </trkpt>
      <trkpt lat="42.94079" lon="1.8509">
        <ele>493.4</ele>
        <time>2017-07-31T16:49:10Z</time>
      </trkpt>
      <trkpt lat="42.94079" lon="1.8509">
        <ele>493.2</ele>
        <time>2017-07-31T16:49:11Z</time>
      </trkpt>
      <trkpt lat="42.94079" lon="1.8509">
        <ele>493</ele>
        <time>2017-07-31T16:49:12Z</time>
      </trkpt>
      <trkpt lat="42.94079" lon="1.8509">
        <ele>492.9</ele>
        <time>2017-07-31T16:49:13Z</time>
      </trkpt>
      <trkpt lat="42.94079" lon="1.8509">
        <ele>493</ele>
        <time>2017-07-31T16:49:14Z</time>
      </trkpt>
      <trkpt lat="42.94079" lon="1.8509">
        <ele>493.1</ele>
        <time>2017-07-31T16:49:15Z</time>
      </trkpt>
      <trkpt lat="42.94079" lon="1.8509">
        <ele>493.1</ele>
        <time>2017-07-31T16:49:16Z</time>
      </trkpt>
      <trkpt lat="42.94079" lon="1.8509">
        <ele>493.4</ele>
        <time>2017-07-31T16:49:17Z</time>
      </trkpt>
      <trkpt lat="42.94079" lon="1.8509">
        <ele>493.6</ele>
        <time>2017-07-31T16:49:18Z</time>
      </trkpt>
      <trkpt lat="42.94079" lon="1.8509">
        <ele>493.8</ele>
        <time>2017-07-31T16:49:19Z</time>
      </trkpt>
      <trkpt lat="42.94079" lon="1.8509">
        <ele>493.4</ele>
        <time>2017-07-31T16:49:20Z</time>
      </trkpt>
      <trkpt lat="42.94079" lon="1.8509">
        <ele>493.2</ele>
        <time>2017-07-31T16:49:21Z</time>
      </trkpt>
      <trkpt lat="42.94079" lon="1.8509">
        <ele>493</ele>
        <time>2017-07-31T16:49:22Z</time>
      </trkpt>
      <trkpt lat="42.94079" lon="1.8509">
        <ele>493.1</ele>
        <time>2017-07-31T16:49:23Z</time>
      </trkpt>
      <trkpt lat="42.94079" lon="1.8509">
        <ele>493.1</ele>
        <time>2017-07-31T16:49:24Z</time>
      </trkpt>
      <trkpt lat="42.94079" lon="1.8509">
        <ele>493.2</ele>
        <time>2017-07-31T16:49:25Z</time>
      </trkpt>
      <trkpt lat="42.94079" lon="1.8509">
        <ele>492.3</ele>
        <time>2017-07-31T16:49:26Z</time>
      </trkpt>
      <trkpt lat="42.94079" lon="1.8509">
        <ele>491.7</ele>
        <time>2017-07-31T16:49:27Z</time>
      </trkpt>
      <trkpt lat="42.94079" lon="1.8509">
        <ele>491.2</ele>
        <time>2017-07-31T16:49:28Z</time>
      </trkpt>
      <trkpt lat="42.94079" lon="1.8509">
        <ele>491.3</ele>
        <time>2017-07-31T16:49:29Z</time>
      </trkpt>
      <trkpt lat="42.94079" lon="1.8509">
        <ele>491.4</ele>
        <time>2017-07-31T16:49:30Z</time>
      </trkpt>
      <trkpt lat="42.94079" lon="1.8509">
        <ele>491.4</ele>
        <time>2017-07-31T16:49:31Z</time>
      </trkpt>
      <trkpt lat="42.94079" lon="1.8509">
        <ele>491.5</ele>
        <time>2017-07-31T16:49:32Z</time>
      </trkpt>
      <trkpt lat="42.94079" lon="1.8509">
        <ele>491.5</ele>
        <time>2017-07-31T16:49:33Z</time>
      </trkpt>
      <trkpt lat="42.94079" lon="1.8509">
        <ele>491.5</ele>
        <time>2017-07-31T16:49:34Z</time>
      </trkpt>
      <trkpt lat="42.94079" lon="1.8509">
        <ele>491.5</ele>
        <time>2017-07-31T16:49:35Z</time>
      </trkpt>
      <trkpt lat="42.94079" lon="1.8509">
        <ele>491.5</ele>
        <time>2017-07-31T16:49:36Z</time>
      </trkpt>
      <trkpt lat="42.94079" lon="1.8509">
        <ele>491.5</ele>
        <time>2017-07-31T16:49:37Z</time>
      </trkpt>
      <trkpt lat="42.94079" lon="1.8509">
        <ele>491.6</ele>
        <time>2017-07-31T16:49:38Z</time>
      </trkpt>
      <trkpt lat="42.94079" lon="1.8509">
        <ele>491.6</ele>
        <time>2017-07-31T16:49:39Z</time>
      </trkpt>
      <trkpt lat="42.94079" lon="1.8509">
        <ele>491.6</ele>
        <time>2017-07-31T16:49:40Z</time>
      </trkpt>
      <trkpt lat="42.94079" lon="1.8509">
        <ele>492</ele>
        <time>2017-07-31T16:49:41Z</time>
      </trkpt>
      <trkpt lat="42.94079" lon="1.8509">
        <ele>492.3</ele>
        <time>2017-07-31T16:49:42Z</time>
      </trkpt>
      <trkpt lat="42.94079" lon="1.8509">
        <ele>492.6</ele>
        <time>2017-07-31T16:49:43Z</time>
      </trkpt>
      <trkpt lat="42.94079" lon="1.8509">
        <ele>492.8</ele>
        <time>2017-07-31T16:49:44Z</time>
      </trkpt>
      <trkpt lat="42.94079" lon="1.8509">
        <ele>492.9</ele>
        <time>2017-07-31T16:49:45Z</time>
      </trkpt>
      <trkpt lat="42.94079" lon="1.8509">
        <ele>493</ele>
        <time>2017-07-31T16:49:46Z</time>
      </trkpt>
      <trkpt lat="42.94079" lon="1.8509">
        <ele>493.3</ele>
        <time>2017-07-31T16:49:47Z</time>
      </trkpt>
      <trkpt lat="42.94079" lon="1.8509">
        <ele>493.5</ele>
        <time>2017-07-31T16:49:48Z</time>
      </trkpt>
      <trkpt lat="42.94079" lon="1.8509">
        <ele>493.7</ele>
        <time>2017-07-31T16:49:49Z</time>
      </trkpt>
      <trkpt lat="42.94079" lon="1.8509">
        <ele>493.4</ele>
        <time>2017-07-31T16:49:50Z</time>
      </trkpt>
      <trkpt lat="42.94079" lon="1.8509">
        <ele>493.2</ele>
        <time>2017-07-31T16:49:51Z</time>
      </trkpt>
      <trkpt lat="42.94079" lon="1.8509">
        <ele>493</ele>
        <time>2017-07-31T16:49:52Z</time>
      </trkpt>
      <trkpt lat="42.94079" lon="1.8509">
        <ele>492.8</ele>
        <time>2017-07-31T16:49:53Z</time>
      </trkpt>
      <trkpt lat="42.94081" lon="1.85098">
        <ele>492.7</ele>
        <time>2017-07-31T16:49:54Z</time>
      </trkpt>
      <trkpt lat="42.94081" lon="1.85098">
        <ele>492.7</ele>
        <time>2017-07-31T16:49:55Z</time>
      </trkpt>
      <trkpt lat="42.94081" lon="1.85098">
        <ele>493.1</ele>
        <time>2017-07-31T16:49:56Z</time>
      </trkpt>
      <trkpt lat="42.94081" lon="1.85098">
        <ele>493.3</ele>
        <time>2017-07-31T16:49:57Z</time>
      </trkpt>
      <trkpt lat="42.94081" lon="1.85098">
        <ele>493.6</ele>
        <time>2017-07-31T16:49:58Z</time>
      </trkpt>
      <trkpt lat="42.94081" lon="1.85098">
        <ele>492.8</ele>
        <time>2017-07-31T16:49:59Z</time>
      </trkpt>
      <trkpt lat="42.94081" lon="1.85098">
        <ele>492.3</ele>
        <time>2017-07-31T16:50:00Z</time>
      </trkpt>
      <trkpt lat="42.94081" lon="1.85098">
        <ele>491.9</ele>
        <time>2017-07-31T16:50:01Z</time>
      </trkpt>
      <trkpt lat="42.94081" lon="1.85098">
        <ele>491.6</ele>
        <time>2017-07-31T16:50:02Z</time>
      </trkpt>
      <trkpt lat="42.94081" lon="1.85098">
        <ele>491.4</ele>
        <time>2017-07-31T16:50:03Z</time>
      </trkpt>
      <trkpt lat="42.94081" lon="1.85098">
        <ele>491.2</ele>
        <time>2017-07-31T16:50:04Z</time>
      </trkpt>
      <trkpt lat="42.94081" lon="1.85098">
        <ele>491.7</ele>
        <time>2017-07-31T16:50:05Z</time>
      </trkpt>
      <trkpt lat="42.94081" lon="1.85098">
        <ele>492.1</ele>
        <time>2017-07-31T16:50:06Z</time>
      </trkpt>
      <trkpt lat="42.94081" lon="1.85098">
        <ele>492.4</ele>
        <time>2017-07-31T16:50:07Z</time>
      </trkpt>
      <trkpt lat="42.94081" lon="1.85098">
        <ele>492.4</ele>
        <time>2017-07-31T16:50:08Z</time>
      </trkpt>
      <trkpt lat="42.94081" lon="1.85098">
        <ele>492.4</ele>
        <time>2017-07-31T16:50:09Z</time>
      </trkpt>
      <trkpt lat="42.94081" lon="1.85098">
        <ele>492.4</ele>
        <time>2017-07-31T16:50:10Z</time>
      </trkpt>
      <trkpt lat="42.94081" lon="1.85098">
        <ele>492.9</ele>
        <time>2017-07-31T16:50:11Z</time>
      </trkpt>
      <trkpt lat="42.94081" lon="1.85098">
        <ele>493.2</ele>
        <time>2017-07-31T16:50:12Z</time>
      </trkpt>
      <trkpt lat="42.94081" lon="1.85098">
        <ele>493.5</ele>
        <time>2017-07-31T16:50:13Z</time>
      </trkpt>
      <trkpt lat="42.94081" lon="1.85098">
        <ele>491.7</ele>
        <time>2017-07-31T16:50:14Z</time>
      </trkpt>
      <trkpt lat="42.94081" lon="1.85098">
        <ele>490.3</ele>
        <time>2017-07-31T16:50:15Z</time>
      </trkpt>
      <trkpt lat="42.94081" lon="1.85098">
        <ele>489.3</ele>
        <time>2017-07-31T16:50:16Z</time>
      </trkpt>
      <trkpt lat="42.94081" lon="1.85098">
        <ele>488.6</ele>
        <time>2017-07-31T16:50:17Z</time>
      </trkpt>
      <trkpt lat="42.94081" lon="1.85098">
        <ele>488</ele>
        <time>2017-07-31T16:50:18Z</time>
      </trkpt>
      <trkpt lat="42.94081" lon="1.85098">
        <ele>487.6</ele>
        <time>2017-07-31T16:50:19Z</time>
      </trkpt>
      <trkpt lat="42.94081" lon="1.85098">
        <ele>488.4</ele>
        <time>2017-07-31T16:50:20Z</time>
      </trkpt>
      <trkpt lat="42.94081" lon="1.85098">
        <ele>488.9</ele>
        <time>2017-07-31T16:50:21Z</time>
      </trkpt>
      <trkpt lat="42.94081" lon="1.85098">
        <ele>489.4</ele>
        <time>2017-07-31T16:50:22Z</time>
      </trkpt>
      <trkpt lat="42.94081" lon="1.85098">
        <ele>487.1</ele>
        <time>2017-07-31T16:50:23Z</time>
      </trkpt>
      <trkpt lat="42.94081" lon="1.85098">
        <ele>485.4</ele>
        <time>2017-07-31T16:50:24Z</time>
      </trkpt>
      <trkpt lat="42.94081" lon="1.85098">
        <ele>484.1</ele>
        <time>2017-07-31T16:50:25Z</time>
      </trkpt>
      <trkpt lat="42.94081" lon="1.85098">
        <ele>485.1</ele>
        <time>2017-07-31T16:50:26Z</time>
      </trkpt>
      <trkpt lat="42.94081" lon="1.85098">
        <ele>485.8</ele>
        <time>2017-07-31T16:50:27Z</time>
      </trkpt>
      <trkpt lat="42.94081" lon="1.85098">
        <ele>486.4</ele>
        <time>2017-07-31T16:50:28Z</time>
      </trkpt>
      <trkpt lat="42.94081" lon="1.85098">
        <ele>487.7</ele>
        <time>2017-07-31T16:50:29Z</time>
      </trkpt>
      <trkpt lat="42.94081" lon="1.85098">
        <ele>488.7</ele>
        <time>2017-07-31T16:50:30Z</time>
      </trkpt>
      <trkpt lat="42.94081" lon="1.85098">
        <ele>489.4</ele>
        <time>2017-07-31T16:50:31Z</time>
      </trkpt>
      <trkpt lat="42.94081" lon="1.85098">
        <ele>489.9</ele>
        <time>2017-07-31T16:50:32Z</time>
      </trkpt>
      <trkpt lat="42.94081" lon="1.85098">
        <ele>490.3</ele>
        <time>2017-07-31T16:50:33Z</time>
      </trkpt>
      <trkpt lat="42.94081" lon="1.85098">
        <ele>490.6</ele>
        <time>2017-07-31T16:50:34Z</time>
      </trkpt>
      <trkpt lat="42.94081" lon="1.85098">
        <ele>490.9</ele>
        <time>2017-07-31T16:50:35Z</time>
      </trkpt>
      <trkpt lat="42.94081" lon="1.85098">
        <ele>491.1</ele>
        <time>2017-07-31T16:50:36Z</time>
      </trkpt>
      <trkpt lat="42.94081" lon="1.85098">
        <ele>491.2</ele>
        <time>2017-07-31T16:50:37Z</time>
      </trkpt>
      <trkpt lat="42.94081" lon="1.85098">
        <ele>491.1</ele>
        <time>2017-07-31T16:50:38Z</time>
      </trkpt>
      <trkpt lat="42.94081" lon="1.85098">
        <ele>491</ele>
        <time>2017-07-31T16:50:39Z</time>
      </trkpt>
      <trkpt lat="42.94081" lon="1.85098">
        <ele>490.9</ele>
        <time>2017-07-31T16:50:40Z</time>
      </trkpt>
      <trkpt lat="42.94081" lon="1.85098">
        <ele>490.6</ele>
        <time>2017-07-31T16:50:41Z</time>
      </trkpt>
      <trkpt lat="42.94081" lon="1.85098">
        <ele>490.4</ele>
        <time>2017-07-31T16:50:42Z</time>
      </trkpt>
      <trkpt lat="42.94081" lon="1.85098">
        <ele>490.3</ele>
        <time>2017-07-31T16:50:43Z</time>
      </trkpt>
      <trkpt lat="42.94081" lon="1.85098">
        <ele>490.4</ele>
        <time>2017-07-31T16:50:44Z</time>
      </trkpt>
      <trkpt lat="42.94081" lon="1.85098">
        <ele>490.5</ele>
        <time>2017-07-31T16:50:45Z</time>
      </trkpt>
      <trkpt lat="42.94081" lon="1.85098">
        <ele>490.5</ele>
        <time>2017-07-31T16:50:46Z</time>
      </trkpt>
      <trkpt lat="42.94081" lon="1.85098">
        <ele>490.8</ele>
        <time>2017-07-31T16:50:47Z</time>
      </trkpt>
      <trkpt lat="42.94081" lon="1.85098">
        <ele>491</ele>
        <time>2017-07-31T16:50:48Z</time>
      </trkpt>
      <trkpt lat="42.94081" lon="1.85098">
        <ele>491.1</ele>
        <time>2017-07-31T16:50:49Z</time>
      </trkpt>
      <trkpt lat="42.94081" lon="1.85098">
        <ele>491</ele>
        <time>2017-07-31T16:50:50Z</time>
      </trkpt>
      <trkpt lat="42.94081" lon="1.85098">
        <ele>490.9</ele>
        <time>2017-07-31T16:50:51Z</time>
      </trkpt>
      <trkpt lat="42.94081" lon="1.85098">
        <ele>490.9</ele>
        <time>2017-07-31T16:50:52Z</time>
      </trkpt>
      <trkpt lat="42.94081" lon="1.85098">
        <ele>491.1</ele>
        <time>2017-07-31T16:50:53Z</time>
      </trkpt>
      <trkpt lat="42.94081" lon="1.85098">
        <ele>491.2</ele>
        <time>2017-07-31T16:50:54Z</time>
      </trkpt>
      <trkpt lat="42.94081" lon="1.85098">
        <ele>491.3</ele>
        <time>2017-07-31T16:50:55Z</time>
      </trkpt>
      <trkpt lat="42.94081" lon="1.85098">
        <ele>491.1</ele>
        <time>2017-07-31T16:50:56Z</time>
      </trkpt>
      <trkpt lat="42.94081" lon="1.85098">
        <ele>491</ele>
        <time>2017-07-31T16:50:57Z</time>
      </trkpt>
      <trkpt lat="42.94081" lon="1.85098">
        <ele>490.9</ele>
        <time>2017-07-31T16:50:58Z</time>
      </trkpt>
      <trkpt lat="42.94081" lon="1.85098">
        <ele>491.1</ele>
        <time>2017-07-31T16:50:59Z</time>
      </trkpt>
      <trkpt lat="42.94081" lon="1.85098">
        <ele>491.2</ele>
        <time>2017-07-31T16:51:00Z</time>
      </trkpt>
      <trkpt lat="42.94081" lon="1.85098">
        <ele>491.3</ele>
        <time>2017-07-31T16:51:01Z</time>
      </trkpt>
      <trkpt lat="42.94081" lon="1.85098">
        <ele>491.4</ele>
        <time>2017-07-31T16:51:02Z</time>
      </trkpt>
      <trkpt lat="42.94081" lon="1.85098">
        <ele>491.4</ele>
        <time>2017-07-31T16:51:03Z</time>
      </trkpt>
      <trkpt lat="42.94081" lon="1.85098">
        <ele>491.5</ele>
        <time>2017-07-31T16:51:04Z</time>
      </trkpt>
      <trkpt lat="42.94081" lon="1.85098">
        <ele>491.5</ele>
        <time>2017-07-31T16:51:05Z</time>
      </trkpt>
      <trkpt lat="42.94081" lon="1.85098">
        <ele>491.5</ele>
        <time>2017-07-31T16:51:06Z</time>
      </trkpt>
      <trkpt lat="42.94081" lon="1.85098">
        <ele>491.5</ele>
        <time>2017-07-31T16:51:07Z</time>
      </trkpt>
      <trkpt lat="42.94081" lon="1.85098">
        <ele>491.3</ele>
        <time>2017-07-31T16:51:08Z</time>
      </trkpt>
      <trkpt lat="42.94081" lon="1.85098">
        <ele>491.2</ele>
        <time>2017-07-31T16:51:09Z</time>
      </trkpt>
      <trkpt lat="42.94081" lon="1.85098">
        <ele>491</ele>
        <time>2017-07-31T16:51:10Z</time>
      </trkpt>
      <trkpt lat="42.94081" lon="1.85098">
        <ele>491.4</ele>
        <time>2017-07-31T16:51:11Z</time>
      </trkpt>
      <trkpt lat="42.94081" lon="1.85098">
        <ele>491.7</ele>
        <time>2017-07-31T16:51:12Z</time>
      </trkpt>
      <trkpt lat="42.94081" lon="1.85099">
        <ele>491.9</ele>
        <time>2017-07-31T16:51:13Z</time>
      </trkpt>
      <trkpt lat="42.94081" lon="1.85099">
        <ele>491.6</ele>
        <time>2017-07-31T16:51:14Z</time>
      </trkpt>
      <trkpt lat="42.94081" lon="1.85099">
        <ele>491.4</ele>
        <time>2017-07-31T16:51:15Z</time>
      </trkpt>
      <trkpt lat="42.94081" lon="1.85099">
        <ele>491.2</ele>
        <time>2017-07-31T16:51:16Z</time>
      </trkpt>
      <trkpt lat="42.94081" lon="1.85099">
        <ele>491.5</ele>
        <time>2017-07-31T16:51:17Z</time>
      </trkpt>
      <trkpt lat="42.94081" lon="1.85099">
        <ele>491.7</ele>
        <time>2017-07-31T16:51:18Z</time>
      </trkpt>
      <trkpt lat="42.94081" lon="1.85099">
        <ele>491.9</ele>
        <time>2017-07-31T16:51:19Z</time>
      </trkpt>
      <trkpt lat="42.94082" lon="1.851">
        <ele>491.4</ele>
        <time>2017-07-31T16:51:20Z</time>
      </trkpt>
      <trkpt lat="42.94082" lon="1.851">
        <ele>491</ele>
        <time>2017-07-31T16:51:21Z</time>
      </trkpt>
      <trkpt lat="42.94082" lon="1.851">
        <ele>490.7</ele>
        <time>2017-07-31T16:51:22Z</time>
      </trkpt>
      <trkpt lat="42.94083" lon="1.851">
        <ele>491.1</ele>
        <time>2017-07-31T16:51:23Z</time>
      </trkpt>
      <trkpt lat="42.94083" lon="1.851">
        <ele>491.5</ele>
        <time>2017-07-31T16:51:24Z</time>
      </trkpt>
      <trkpt lat="42.94084" lon="1.85101">
        <ele>491.7</ele>
        <time>2017-07-31T16:51:25Z</time>
      </trkpt>
      <trkpt lat="42.94084" lon="1.85101">
        <ele>491.5</ele>
        <time>2017-07-31T16:51:26Z</time>
      </trkpt>
      <trkpt lat="42.94084" lon="1.85101">
        <ele>491.3</ele>
        <time>2017-07-31T16:51:27Z</time>
      </trkpt>
      <trkpt lat="42.94085" lon="1.85101">
        <ele>491.1</ele>
        <time>2017-07-31T16:51:28Z</time>
      </trkpt>
      <trkpt lat="42.94085" lon="1.85101">
        <ele>491.5</ele>
        <time>2017-07-31T16:51:29Z</time>
      </trkpt>
      <trkpt lat="42.94085" lon="1.85101">
        <ele>491.7</ele>
        <time>2017-07-31T16:51:30Z</time>
      </trkpt>
      <trkpt lat="42.94085" lon="1.85101">
        <ele>491.9</ele>
        <time>2017-07-31T16:51:31Z</time>
      </trkpt>
      <trkpt lat="42.94086" lon="1.85101">
        <ele>491.4</ele>
        <time>2017-07-31T16:51:32Z</time>
      </trkpt>
      <trkpt lat="42.94086" lon="1.851">
        <ele>491</ele>
        <time>2017-07-31T16:51:33Z</time>
      </trkpt>
      <trkpt lat="42.94086" lon="1.851">
        <ele>490.7</ele>
        <time>2017-07-31T16:51:34Z</time>
      </trkpt>
      <trkpt lat="42.94086" lon="1.851">
        <ele>490.5</ele>
        <time>2017-07-31T16:51:35Z</time>
      </trkpt>
      <trkpt lat="42.94086" lon="1.851">
        <ele>490.3</ele>
        <time>2017-07-31T16:51:36Z</time>
      </trkpt>
      <trkpt lat="42.94086" lon="1.851">
        <ele>490.2</ele>
        <time>2017-07-31T16:51:37Z</time>
      </trkpt>
      <trkpt lat="42.94086" lon="1.851">
        <ele>490.3</ele>
        <time>2017-07-31T16:51:38Z</time>
      </trkpt>
      <trkpt lat="42.94086" lon="1.851">
        <ele>490.4</ele>
        <time>2017-07-31T16:51:39Z</time>
      </trkpt>
      <trkpt lat="42.94086" lon="1.85099">
        <ele>490.5</ele>
        <time>2017-07-31T16:51:40Z</time>
      </trkpt>
      <trkpt lat="42.94086" lon="1.85099">
        <ele>490.5</ele>
        <time>2017-07-31T16:51:41Z</time>
      </trkpt>
      <trkpt lat="42.94086" lon="1.85099">
        <ele>490.6</ele>
        <time>2017-07-31T16:51:42Z</time>
      </trkpt>
      <trkpt lat="42.94086" lon="1.85099">
        <ele>490.6</ele>
        <time>2017-07-31T16:51:43Z</time>
      </trkpt>
      <trkpt lat="42.94086" lon="1.85099">
        <ele>490.6</ele>
        <time>2017-07-31T16:51:44Z</time>
      </trkpt>
      <trkpt lat="42.94087" lon="1.85099">
        <ele>490.6</ele>
        <time>2017-07-31T16:51:45Z</time>
      </trkpt>
      <trkpt lat="42.94087" lon="1.85099">
        <ele>490.7</ele>
        <time>2017-07-31T16:51:46Z</time>
      </trkpt>
      <trkpt lat="42.94087" lon="1.85099">
        <ele>490.7</ele>
        <time>2017-07-31T16:51:47Z</time>
      </trkpt>
      <trkpt lat="42.94087" lon="1.85099">
        <ele>490.7</ele>
        <time>2017-07-31T16:51:48Z</time>
      </trkpt>
      <trkpt lat="42.94087" lon="1.85099">
        <ele>490.7</ele>
        <time>2017-07-31T16:51:49Z</time>
      </trkpt>
      <trkpt lat="42.94087" lon="1.85099">
        <ele>490.9</ele>
        <time>2017-07-31T16:51:50Z</time>
      </trkpt>
      <trkpt lat="42.94087" lon="1.85099">
        <ele>491.1</ele>
        <time>2017-07-31T16:51:51Z</time>
      </trkpt>
      <trkpt lat="42.94087" lon="1.85099">
        <ele>491.2</ele>
        <time>2017-07-31T16:51:52Z</time>
      </trkpt>
      <trkpt lat="42.94087" lon="1.85099">
        <ele>491.3</ele>
        <time>2017-07-31T16:51:53Z</time>
      </trkpt>
      <trkpt lat="42.94087" lon="1.85099">
        <ele>491.4</ele>
        <time>2017-07-31T16:51:54Z</time>
      </trkpt>
      <trkpt lat="42.94087" lon="1.85099">
        <ele>491.4</ele>
        <time>2017-07-31T16:51:55Z</time>
      </trkpt>
      <trkpt lat="42.94088" lon="1.85099">
        <ele>491.2</ele>
        <time>2017-07-31T16:51:56Z</time>
      </trkpt>
      <trkpt lat="42.94088" lon="1.85099">
        <ele>491.1</ele>
        <time>2017-07-31T16:51:57Z</time>
      </trkpt>
      <trkpt lat="42.94088" lon="1.85099">
        <ele>491</ele>
        <time>2017-07-31T16:51:58Z</time>
      </trkpt>
      <trkpt lat="42.94088" lon="1.851">
        <ele>490.7</ele>
        <time>2017-07-31T16:51:59Z</time>
      </trkpt>
      <trkpt lat="42.94088" lon="1.851">
        <ele>490.5</ele>
        <time>2017-07-31T16:52:00Z</time>
      </trkpt>
      <trkpt lat="42.94088" lon="1.851">
        <ele>490.3</ele>
        <time>2017-07-31T16:52:01Z</time>
      </trkpt>
      <trkpt lat="42.94088" lon="1.851">
        <ele>490.9</ele>
        <time>2017-07-31T16:52:02Z</time>
      </trkpt>
      <trkpt lat="42.94088" lon="1.851">
        <ele>491.3</ele>
        <time>2017-07-31T16:52:03Z</time>
      </trkpt>
      <trkpt lat="42.94088" lon="1.851">
        <ele>491.6</ele>
        <time>2017-07-31T16:52:04Z</time>
      </trkpt>
      <trkpt lat="42.94088" lon="1.85101">
        <ele>490.5</ele>
        <time>2017-07-31T16:52:05Z</time>
      </trkpt>
      <trkpt lat="42.94088" lon="1.85101">
        <ele>489.6</ele>
        <time>2017-07-31T16:52:06Z</time>
      </trkpt>
      <trkpt lat="42.94088" lon="1.85101">
        <ele>489</ele>
        <time>2017-07-31T16:52:07Z</time>
      </trkpt>
      <trkpt lat="42.94087" lon="1.85101">
        <ele>489.4</ele>
        <time>2017-07-31T16:52:08Z</time>
      </trkpt>
      <trkpt lat="42.94087" lon="1.85102">
        <ele>489.8</ele>
        <time>2017-07-31T16:52:09Z</time>
      </trkpt>
      <trkpt lat="42.94086" lon="1.85102">
        <ele>490</ele>
        <time>2017-07-31T16:52:10Z</time>
      </trkpt>
      <trkpt lat="42.94086" lon="1.85102">
        <ele>490.6</ele>
        <time>2017-07-31T16:52:11Z</time>
      </trkpt>
      <trkpt lat="42.94086" lon="1.85102">
        <ele>491.1</ele>
        <time>2017-07-31T16:52:12Z</time>
      </trkpt>
      <trkpt lat="42.94085" lon="1.85102">
        <ele>491.4</ele>
        <time>2017-07-31T16:52:13Z</time>
      </trkpt>
      <trkpt lat="42.94085" lon="1.85102">
        <ele>491.5</ele>
        <time>2017-07-31T16:52:14Z</time>
      </trkpt>
      <trkpt lat="42.94085" lon="1.85102">
        <ele>491.5</ele>
        <time>2017-07-31T16:52:15Z</time>
      </trkpt>
      <trkpt lat="42.94084" lon="1.85102">
        <ele>491.5</ele>
        <time>2017-07-31T16:52:16Z</time>
      </trkpt>
      <trkpt lat="42.94084" lon="1.85102">
        <ele>491.3</ele>
        <time>2017-07-31T16:52:17Z</time>
      </trkpt>
      <trkpt lat="42.94083" lon="1.85102">
        <ele>491.2</ele>
        <time>2017-07-31T16:52:18Z</time>
      </trkpt>
      <trkpt lat="42.94083" lon="1.85102">
        <ele>491</ele>
        <time>2017-07-31T16:52:19Z</time>
      </trkpt>
      <trkpt lat="42.94083" lon="1.85102">
        <ele>490.7</ele>
        <time>2017-07-31T16:52:20Z</time>
      </trkpt>
      <trkpt lat="42.94082" lon="1.85102">
        <ele>490.5</ele>
        <time>2017-07-31T16:52:21Z</time>
      </trkpt>
      <trkpt lat="42.94082" lon="1.85102">
        <ele>490.3</ele>
        <time>2017-07-31T16:52:22Z</time>
      </trkpt>
      <trkpt lat="42.94082" lon="1.85102">
        <ele>490.2</ele>
        <time>2017-07-31T16:52:23Z</time>
      </trkpt>
      <trkpt lat="42.94082" lon="1.85102">
        <ele>490.1</ele>
        <time>2017-07-31T16:52:24Z</time>
      </trkpt>
      <trkpt lat="42.94082" lon="1.85102">
        <ele>490</ele>
        <time>2017-07-31T16:52:25Z</time>
      </trkpt>
      <trkpt lat="42.94081" lon="1.85102">
        <ele>490.2</ele>
        <time>2017-07-31T16:52:26Z</time>
      </trkpt>
      <trkpt lat="42.94081" lon="1.85102">
        <ele>490.9</ele>
        <time>2017-07-31T16:52:29Z</time>
      </trkpt>
      <trkpt lat="42.94081" lon="1.85102">
        <ele>491.3</ele>
        <time>2017-07-31T16:52:30Z</time>
      </trkpt>
      <trkpt lat="42.9408" lon="1.85102">
        <ele>491.6</ele>
        <time>2017-07-31T16:52:31Z</time>
      </trkpt>
      <trkpt lat="42.9408" lon="1.85102">
        <ele>491.4</ele>
        <time>2017-07-31T16:52:32Z</time>
      </trkpt>
      <trkpt lat="42.94079" lon="1.85103">
        <ele>491.2</ele>
        <time>2017-07-31T16:52:33Z</time>
      </trkpt>
      <trkpt lat="42.94077" lon="1.85106">
        <ele>490.8</ele>
        <time>2017-07-31T16:52:35Z</time>
      </trkpt>
      <trkpt lat="42.94076" lon="1.85113">
        <ele>490.4</ele>
        <time>2017-07-31T16:52:37Z</time>
      </trkpt>
      <trkpt lat="42.94076" lon="1.85117">
        <ele>490.7</ele>
        <time>2017-07-31T16:52:38Z</time>
      </trkpt>
      <trkpt lat="42.94075" lon="1.85121">
        <ele>490.9</ele>
        <time>2017-07-31T16:52:39Z</time>
      </trkpt>
      <trkpt lat="42.94075" lon="1.85233">
        <ele>490</ele>
        <time>2017-07-31T16:53:02Z</time>
      </trkpt>
      <trkpt lat="42.94075" lon="1.85238">
        <ele>490</ele>
        <time>2017-07-31T16:53:03Z</time>
      </trkpt>
      <trkpt lat="42.94077" lon="1.85247">
        <ele>490.3</ele>
        <time>2017-07-31T16:53:05Z</time>
      </trkpt>
      <trkpt lat="42.94082" lon="1.85261">
        <ele>490.8</ele>
        <time>2017-07-31T16:53:08Z</time>
      </trkpt>
      <trkpt lat="42.94086" lon="1.8527">
        <ele>490.8</ele>
        <time>2017-07-31T16:53:10Z</time>
      </trkpt>
      <trkpt lat="42.94146" lon="1.85399">
        <ele>488.1</ele>
        <time>2017-07-31T16:53:32Z</time>
      </trkpt>
      <trkpt lat="42.94149" lon="1.85404">
        <ele>488.3</ele>
        <time>2017-07-31T16:53:33Z</time>
      </trkpt>
      <trkpt lat="42.94183" lon="1.85445">
        <ele>487.6</ele>
        <time>2017-07-31T16:53:42Z</time>
      </trkpt>
      <trkpt lat="42.94217" lon="1.85489">
        <ele>486.6</ele>
        <time>2017-07-31T16:53:53Z</time>
      </trkpt>
      <trkpt lat="42.94218" lon="1.85495">
        <ele>486.7</ele>
        <time>2017-07-31T16:53:54Z</time>
      </trkpt>
      <trkpt lat="42.94249" lon="1.85604">
        <ele>486.2</ele>
        <time>2017-07-31T16:54:13Z</time>
      </trkpt>
      <trkpt lat="42.9425" lon="1.85608">
        <ele>486</ele>
        <time>2017-07-31T16:54:14Z</time>
      </trkpt>
      <trkpt lat="42.94251" lon="1.85619">
        <ele>486</ele>
        <time>2017-07-31T16:54:18Z</time>
      </trkpt>
      <trkpt lat="42.94252" lon="1.85622">
        <ele>486.1</ele>
        <time>2017-07-31T16:54:19Z</time>
      </trkpt>
      <trkpt lat="42.94254" lon="1.85626">
        <ele>486.1</ele>
        <time>2017-07-31T16:54:20Z</time>
      </trkpt>
      <trkpt lat="42.94263" lon="1.85636">
        <ele>486</ele>
        <time>2017-07-31T16:54:23Z</time>
      </trkpt>
      <trkpt lat="42.9427" lon="1.85643">
        <ele>485.8</ele>
        <time>2017-07-31T16:54:25Z</time>
      </trkpt>
      <trkpt lat="42.94318" lon="1.85681">
        <ele>485.7</ele>
        <time>2017-07-31T16:54:35Z</time>
      </trkpt>
      <trkpt lat="42.94323" lon="1.85685">
        <ele>485.6</ele>
        <time>2017-07-31T16:54:36Z</time>
      </trkpt>
      <trkpt lat="42.94681" lon="1.85878">
        <ele>479.8</ele>
        <time>2017-07-31T16:55:27Z</time>
      </trkpt>
      <trkpt lat="42.94796" lon="1.85936">
        <ele>478.4</ele>
        <time>2017-07-31T16:55:43Z</time>
      </trkpt>
      <trkpt lat="42.94802" lon="1.85937">
        <ele>478.6</ele>
        <time>2017-07-31T16:55:44Z</time>
      </trkpt>
      <trkpt lat="42.94829" lon="1.85938">
        <ele>479.6</ele>
        <time>2017-07-31T16:55:49Z</time>
      </trkpt>
      <trkpt lat="42.94835" lon="1.85937">
        <ele>479.6</ele>
        <time>2017-07-31T16:55:50Z</time>
      </trkpt>
      <trkpt lat="42.94947" lon="1.85914">
        <ele>478.7</ele>
        <time>2017-07-31T16:56:07Z</time>
      </trkpt>
      <trkpt lat="42.94954" lon="1.85915">
        <ele>478.4</ele>
        <time>2017-07-31T16:56:08Z</time>
      </trkpt>
      <trkpt lat="42.95034" lon="1.85935">
        <ele>477.8</ele>
        <time>2017-07-31T16:56:18Z</time>
      </trkpt>
      <trkpt lat="42.95548" lon="1.86083">
        <ele>468.2</ele>
        <time>2017-07-31T16:57:19Z</time>
      </trkpt>
      <trkpt lat="42.95557" lon="1.86083">
        <ele>467.5</ele>
        <time>2017-07-31T16:57:20Z</time>
      </trkpt>
      <trkpt lat="42.95597" lon="1.86097">
        <ele>466.8</ele>
        <time>2017-07-31T16:57:25Z</time>
      </trkpt>
      <trkpt lat="42.95605" lon="1.86103">
        <ele>466.5</ele>
        <time>2017-07-31T16:57:26Z</time>
      </trkpt>
      <trkpt lat="42.95618" lon="1.86119">
        <ele>466</ele>
        <time>2017-07-31T16:57:28Z</time>
      </trkpt>
      <trkpt lat="42.95663" lon="1.86209">
        <ele>464.8</ele>
        <time>2017-07-31T16:57:37Z</time>
      </trkpt>
      <trkpt lat="42.95692" lon="1.86263">
        <ele>463.3</ele>
        <time>2017-07-31T16:57:44Z</time>
      </trkpt>
      <trkpt lat="42.95701" lon="1.86276">
        <ele>463</ele>
        <time>2017-07-31T16:57:46Z</time>
      </trkpt>
      <trkpt lat="42.95716" lon="1.86291">
        <ele>463.8</ele>
        <time>2017-07-31T16:57:49Z</time>
      </trkpt>
      <trkpt lat="42.95744" lon="1.8631">
        <ele>463.9</ele>
        <time>2017-07-31T16:57:54Z</time>
      </trkpt>
      <trkpt lat="42.95757" lon="1.86313">
        <ele>463.3</ele>
        <time>2017-07-31T16:57:56Z</time>
      </trkpt>
      <trkpt lat="42.96308" lon="1.86441">
        <ele>454.1</ele>
        <time>2017-07-31T16:59:11Z</time>
      </trkpt>
      <trkpt lat="42.96312" lon="1.86445">
        <ele>454.3</ele>
        <time>2017-07-31T16:59:12Z</time>
      </trkpt>
      <trkpt lat="42.96318" lon="1.86447">
        <ele>454.4</ele>
        <time>2017-07-31T16:59:13Z</time>
      </trkpt>
      <trkpt lat="42.96323" lon="1.86446">
        <ele>454.3</ele>
        <time>2017-07-31T16:59:14Z</time>
      </trkpt>
      <trkpt lat="42.96329" lon="1.86441">
        <ele>454.1</ele>
        <time>2017-07-31T16:59:16Z</time>
      </trkpt>
      <trkpt lat="42.96329" lon="1.86435">
        <ele>453.9</ele>
        <time>2017-07-31T16:59:17Z</time>
      </trkpt>
      <trkpt lat="42.96328" lon="1.86423">
        <ele>453.5</ele>
        <time>2017-07-31T16:59:19Z</time>
      </trkpt>
      <trkpt lat="42.96324" lon="1.86406">
        <ele>453.3</ele>
        <time>2017-07-31T16:59:22Z</time>
      </trkpt>
      <trkpt lat="42.9632" lon="1.86397">
        <ele>453.6</ele>
        <time>2017-07-31T16:59:24Z</time>
      </trkpt>
      <trkpt lat="42.96317" lon="1.86394">
        <ele>453.7</ele>
        <time>2017-07-31T16:59:25Z</time>
      </trkpt>
      <trkpt lat="42.96299" lon="1.8637">
        <ele>453.7</ele>
        <time>2017-07-31T16:59:32Z</time>
      </trkpt>
      <trkpt lat="42.96299" lon="1.86367">
        <ele>453.5</ele>
        <time>2017-07-31T16:59:33Z</time>
      </trkpt>
      <trkpt lat="42.963" lon="1.86364">
        <ele>453.4</ele>
        <time>2017-07-31T16:59:34Z</time>
      </trkpt>
      <trkpt lat="42.96302" lon="1.86362">
        <ele>453.3</ele>
        <time>2017-07-31T16:59:35Z</time>
      </trkpt>
      <trkpt lat="42.96311" lon="1.8635">
        <ele>453.1</ele>
        <time>2017-07-31T16:59:40Z</time>
      </trkpt>
      <trkpt lat="42.96325" lon="1.86336">
        <ele>453.6</ele>
        <time>2017-07-31T16:59:47Z</time>
      </trkpt>
      <trkpt lat="42.96335" lon="1.86328">
        <ele>453.2</ele>
        <time>2017-07-31T16:59:52Z</time>
      </trkpt>
      <trkpt lat="42.9634" lon="1.86326">
        <ele>453.1</ele>
        <time>2017-07-31T16:59:55Z</time>
      </trkpt>
      <trkpt lat="42.96342" lon="1.86327">
        <ele>453.3</ele>
        <time>2017-07-31T16:59:56Z</time>
      </trkpt>
      <trkpt lat="42.96349" lon="1.86333">
        <ele>453.8</ele>
        <time>2017-07-31T17:00:01Z</time>
      </trkpt>
      <trkpt lat="42.96349" lon="1.86333">
        <ele>453.8</ele>
        <time>2017-07-31T17:00:02Z</time>
      </trkpt>
      <trkpt lat="42.96349" lon="1.86333">
        <ele>453.9</ele>
        <time>2017-07-31T17:00:03Z</time>
      </trkpt>
      <trkpt lat="42.96349" lon="1.86333">
        <ele>453.9</ele>
        <time>2017-07-31T17:00:04Z</time>
      </trkpt>
      <trkpt lat="42.96349" lon="1.86333">
        <ele>453.9</ele>
        <time>2017-07-31T17:00:05Z</time>
      </trkpt>
      <trkpt lat="42.96349" lon="1.86333">
        <ele>453.9</ele>
        <time>2017-07-31T17:00:06Z</time>
      </trkpt>
      <trkpt lat="42.96349" lon="1.86333">
        <ele>453.9</ele>
        <time>2017-07-31T17:00:07Z</time>
      </trkpt>
      <trkpt lat="42.96349" lon="1.86333">
        <ele>454.1</ele>
        <time>2017-07-31T17:00:08Z</time>
      </trkpt>
      <trkpt lat="42.96349" lon="1.86333">
        <ele>454.3</ele>
        <time>2017-07-31T17:00:09Z</time>
      </trkpt>
      <trkpt lat="42.96349" lon="1.86333">
        <ele>454.4</ele>
        <time>2017-07-31T17:00:10Z</time>
      </trkpt>
      <trkpt lat="42.96349" lon="1.86333">
        <ele>447.1</ele>
        <time>2017-07-31T17:00:11Z</time>
      </trkpt>
      <trkpt lat="42.96349" lon="1.86333">
        <ele>441.6</ele>
        <time>2017-07-31T17:00:12Z</time>
      </trkpt>
      <trkpt lat="42.96349" lon="1.86333">
        <ele>437.5</ele>
        <time>2017-07-31T17:00:13Z</time>
      </trkpt>
      <trkpt lat="42.96349" lon="1.86333">
        <ele>441.6</ele>
        <time>2017-07-31T17:00:14Z</time>
      </trkpt>
      <trkpt lat="42.96349" lon="1.86333">
        <ele>444.7</ele>
        <time>2017-07-31T17:00:15Z</time>
      </trkpt>
      <trkpt lat="42.96349" lon="1.86333">
        <ele>447</ele>
        <time>2017-07-31T17:00:16Z</time>
      </trkpt>
      <trkpt lat="42.96349" lon="1.86333">
        <ele>448.5</ele>
        <time>2017-07-31T17:00:17Z</time>
      </trkpt>
      <trkpt lat="42.96349" lon="1.86333">
        <ele>449.7</ele>
        <time>2017-07-31T17:00:18Z</time>
      </trkpt>
      <trkpt lat="42.96349" lon="1.86333">
        <ele>450.5</ele>
        <time>2017-07-31T17:00:19Z</time>
      </trkpt>
      <trkpt lat="42.96349" lon="1.86333">
        <ele>450.9</ele>
        <time>2017-07-31T17:00:20Z</time>
      </trkpt>
      <trkpt lat="42.96349" lon="1.86333">
        <ele>451.3</ele>
        <time>2017-07-31T17:00:21Z</time>
      </trkpt>
      <trkpt lat="42.96349" lon="1.86333">
        <ele>451.5</ele>
        <time>2017-07-31T17:00:22Z</time>
      </trkpt>
      <trkpt lat="42.96349" lon="1.86333">
        <ele>452.1</ele>
        <time>2017-07-31T17:00:23Z</time>
      </trkpt>
      <trkpt lat="42.96349" lon="1.86333">
        <ele>452.6</ele>
        <time>2017-07-31T17:00:24Z</time>
      </trkpt>
      <trkpt lat="42.96349" lon="1.86333">
        <ele>452.9</ele>
        <time>2017-07-31T17:00:25Z</time>
      </trkpt>
      <trkpt lat="42.96349" lon="1.86333">
        <ele>452.7</ele>
        <time>2017-07-31T17:00:26Z</time>
      </trkpt>
      <trkpt lat="42.96349" lon="1.86333">
        <ele>452.6</ele>
        <time>2017-07-31T17:00:27Z</time>
      </trkpt>
      <trkpt lat="42.96349" lon="1.86333">
        <ele>452.5</ele>
        <time>2017-07-31T17:00:28Z</time>
      </trkpt>
      <trkpt lat="42.96349" lon="1.86333">
        <ele>452.9</ele>
        <time>2017-07-31T17:00:29Z</time>
      </trkpt>
      <trkpt lat="42.96349" lon="1.86333">
        <ele>453.1</ele>
        <time>2017-07-31T17:00:30Z</time>
      </trkpt>
      <trkpt lat="42.96349" lon="1.86333">
        <ele>453.3</ele>
        <time>2017-07-31T17:00:31Z</time>
      </trkpt>
      <trkpt lat="42.96349" lon="1.86333">
        <ele>453.5</ele>
        <time>2017-07-31T17:00:32Z</time>
      </trkpt>
      <trkpt lat="42.96349" lon="1.86333">
        <ele>453.6</ele>
        <time>2017-07-31T17:00:33Z</time>
      </trkpt>
      <trkpt lat="42.96349" lon="1.86333">
        <ele>453.7</ele>
        <time>2017-07-31T17:00:34Z</time>
      </trkpt>
      <trkpt lat="42.96349" lon="1.86333">
        <ele>453.8</ele>
        <time>2017-07-31T17:00:35Z</time>
      </trkpt>
      <trkpt lat="42.96349" lon="1.86333">
        <ele>453.8</ele>
        <time>2017-07-31T17:00:36Z</time>
      </trkpt>
      <trkpt lat="42.96349" lon="1.86333">
        <ele>453.8</ele>
        <time>2017-07-31T17:00:37Z</time>
      </trkpt>
      <trkpt lat="42.96349" lon="1.86333">
        <ele>453.7</ele>
        <time>2017-07-31T17:00:38Z</time>
      </trkpt>
      <trkpt lat="42.96349" lon="1.86333">
        <ele>453.5</ele>
        <time>2017-07-31T17:00:39Z</time>
      </trkpt>
      <trkpt lat="42.96349" lon="1.86333">
        <ele>453.4</ele>
        <time>2017-07-31T17:00:40Z</time>
      </trkpt>
      <trkpt lat="42.96349" lon="1.86333">
        <ele>453.5</ele>
        <time>2017-07-31T17:00:41Z</time>
      </trkpt>
      <trkpt lat="42.96349" lon="1.86333">
        <ele>453.6</ele>
        <time>2017-07-31T17:00:42Z</time>
      </trkpt>
      <trkpt lat="42.96349" lon="1.86333">
        <ele>453.7</ele>
        <time>2017-07-31T17:00:43Z</time>
      </trkpt>
      <trkpt lat="42.96349" lon="1.86333">
        <ele>453.6</ele>
        <time>2017-07-31T17:00:44Z</time>
      </trkpt>
      <trkpt lat="42.96349" lon="1.86333">
        <ele>453.4</ele>
        <time>2017-07-31T17:00:45Z</time>
      </trkpt>
      <trkpt lat="42.96349" lon="1.86333">
        <ele>453.3</ele>
        <time>2017-07-31T17:00:46Z</time>
      </trkpt>
      <trkpt lat="42.96349" lon="1.86333">
        <ele>453.3</ele>
        <time>2017-07-31T17:00:47Z</time>
      </trkpt>
      <trkpt lat="42.96349" lon="1.86333">
        <ele>453.2</ele>
        <time>2017-07-31T17:00:48Z</time>
      </trkpt>
      <trkpt lat="42.96349" lon="1.86333">
        <ele>453.2</ele>
        <time>2017-07-31T17:00:49Z</time>
      </trkpt>
      <trkpt lat="42.96349" lon="1.86333">
        <ele>453.2</ele>
        <time>2017-07-31T17:00:50Z</time>
      </trkpt>
      <trkpt lat="42.96349" lon="1.86333">
        <ele>453.1</ele>
        <time>2017-07-31T17:00:51Z</time>
      </trkpt>
      <trkpt lat="42.96349" lon="1.86333">
        <ele>453.1</ele>
        <time>2017-07-31T17:00:52Z</time>
      </trkpt>
      <trkpt lat="42.96349" lon="1.86333">
        <ele>453.8</ele>
        <time>2017-07-31T17:00:53Z</time>
      </trkpt>
      <trkpt lat="42.96349" lon="1.86333">
        <ele>454.3</ele>
        <time>2017-07-31T17:00:54Z</time>
      </trkpt>
      <trkpt lat="42.96349" lon="1.86333">
        <ele>454.6</ele>
        <time>2017-07-31T17:00:55Z</time>
      </trkpt>
      <trkpt lat="42.96349" lon="1.86333">
        <ele>454.4</ele>
        <time>2017-07-31T17:00:56Z</time>
      </trkpt>
      <trkpt lat="42.96349" lon="1.86333">
        <ele>454.3</ele>
        <time>2017-07-31T17:00:57Z</time>
      </trkpt>
      <trkpt lat="42.96349" lon="1.86333">
        <ele>454.2</ele>
        <time>2017-07-31T17:00:58Z</time>
      </trkpt>
      <trkpt lat="42.96349" lon="1.86333">
        <ele>453.5</ele>
        <time>2017-07-31T17:00:59Z</time>
      </trkpt>
      <trkpt lat="42.96349" lon="1.86333">
        <ele>453</ele>
        <time>2017-07-31T17:01:00Z</time>
      </trkpt>
      <trkpt lat="42.96349" lon="1.86333">
        <ele>452.6</ele>
        <time>2017-07-31T17:01:01Z</time>
      </trkpt>
      <trkpt lat="42.96349" lon="1.86333">
        <ele>452.9</ele>
        <time>2017-07-31T17:01:02Z</time>
      </trkpt>
      <trkpt lat="42.96349" lon="1.86333">
        <ele>453.2</ele>
        <time>2017-07-31T17:01:03Z</time>
      </trkpt>
      <trkpt lat="42.96349" lon="1.86333">
        <ele>453.4</ele>
        <time>2017-07-31T17:01:04Z</time>
      </trkpt>
      <trkpt lat="42.96349" lon="1.86333">
        <ele>453.5</ele>
        <time>2017-07-31T17:01:05Z</time>
      </trkpt>
      <trkpt lat="42.96349" lon="1.86333">
        <ele>453.6</ele>
        <time>2017-07-31T17:01:06Z</time>
      </trkpt>
      <trkpt lat="42.96349" lon="1.86333">
        <ele>453.7</ele>
        <time>2017-07-31T17:01:07Z</time>
      </trkpt>
      <trkpt lat="42.96349" lon="1.86333">
        <ele>453.3</ele>
        <time>2017-07-31T17:01:08Z</time>
      </trkpt>
      <trkpt lat="42.96349" lon="1.86333">
        <ele>453</ele>
        <time>2017-07-31T17:01:09Z</time>
      </trkpt>
      <trkpt lat="42.96349" lon="1.86333">
        <ele>452.8</ele>
        <time>2017-07-31T17:01:10Z</time>
      </trkpt>
      <trkpt lat="42.96349" lon="1.86333">
        <ele>453.1</ele>
        <time>2017-07-31T17:01:11Z</time>
      </trkpt>
      <trkpt lat="42.96349" lon="1.86333">
        <ele>453.3</ele>
        <time>2017-07-31T17:01:12Z</time>
      </trkpt>
      <trkpt lat="42.96349" lon="1.86333">
        <ele>453.5</ele>
        <time>2017-07-31T17:01:13Z</time>
      </trkpt>
      <trkpt lat="42.96349" lon="1.86333">
        <ele>453.4</ele>
        <time>2017-07-31T17:01:14Z</time>
      </trkpt>
      <trkpt lat="42.96349" lon="1.86333">
        <ele>453.3</ele>
        <time>2017-07-31T17:01:15Z</time>
      </trkpt>
      <trkpt lat="42.96349" lon="1.86333">
        <ele>453.2</ele>
        <time>2017-07-31T17:01:16Z</time>
      </trkpt>
      <trkpt lat="42.96349" lon="1.86333">
        <ele>453.4</ele>
        <time>2017-07-31T17:01:17Z</time>
      </trkpt>
      <trkpt lat="42.96349" lon="1.86333">
        <ele>453.6</ele>
        <time>2017-07-31T17:01:18Z</time>
      </trkpt>
      <trkpt lat="42.96354" lon="1.86322">
        <ele>453.7</ele>
        <time>2017-07-31T17:01:19Z</time>
      </trkpt>
      <trkpt lat="42.96354" lon="1.86322">
        <ele>453.7</ele>
        <time>2017-07-31T17:01:20Z</time>
      </trkpt>
      <trkpt lat="42.96354" lon="1.86322">
        <ele>453.8</ele>
        <time>2017-07-31T17:01:21Z</time>
      </trkpt>
      <trkpt lat="42.96354" lon="1.86322">
        <ele>453.8</ele>
        <time>2017-07-31T17:01:22Z</time>
      </trkpt>
      <trkpt lat="42.96354" lon="1.86322">
        <ele>453.9</ele>
        <time>2017-07-31T17:01:23Z</time>
      </trkpt>
      <trkpt lat="42.96354" lon="1.86322">
        <ele>453.9</ele>
        <time>2017-07-31T17:01:24Z</time>
      </trkpt>
      <trkpt lat="42.96354" lon="1.86322">
        <ele>453.9</ele>
        <time>2017-07-31T17:01:25Z</time>
      </trkpt>
      <trkpt lat="42.96354" lon="1.86322">
        <ele>453.9</ele>
        <time>2017-07-31T17:01:26Z</time>
      </trkpt>
      <trkpt lat="42.96354" lon="1.86322">
        <ele>453.9</ele>
        <time>2017-07-31T17:01:27Z</time>
      </trkpt>
      <trkpt lat="42.96354" lon="1.86322">
        <ele>453.9</ele>
        <time>2017-07-31T17:01:28Z</time>
      </trkpt>
      <trkpt lat="42.96354" lon="1.86322">
        <ele>454.4</ele>
        <time>2017-07-31T17:01:29Z</time>
      </trkpt>
      <trkpt lat="42.96375" lon="1.86357">
        <ele>453.8</ele>
        <time>2017-07-31T17:05:31Z</time>
      </trkpt>
      <trkpt lat="42.96376" lon="1.86358">
        <ele>453.4</ele>
        <time>2017-07-31T17:05:32Z</time>
      </trkpt>
      <trkpt lat="42.96377" lon="1.86359">
        <ele>453.1</ele>
        <time>2017-07-31T17:05:33Z</time>
      </trkpt>
      <trkpt lat="42.96377" lon="1.8636">
        <ele>452.9</ele>
        <time>2017-07-31T17:05:34Z</time>
      </trkpt>
      <trkpt lat="42.96301" lon="1.86293">
        <ele>453.2</ele>
        <time>2017-07-31T17:06:50Z</time>
      </trkpt>
      <trkpt lat="42.963" lon="1.86292">
        <ele>453.4</ele>
        <time>2017-07-31T17:06:51Z</time>
      </trkpt>
      <trkpt lat="42.963" lon="1.86292">
        <ele>453.5</ele>
        <time>2017-07-31T17:06:52Z</time>
      </trkpt>
      <trkpt lat="42.96299" lon="1.86291">
        <ele>453</ele>
        <time>2017-07-31T17:06:53Z</time>
      </trkpt>
      <trkpt lat="42.96314" lon="1.86291">
        <ele>452.8</ele>
        <time>2017-07-31T17:07:07Z</time>
      </trkpt>
      <trkpt lat="42.96323" lon="1.86289">
        <ele>452.6</ele>
        <time>2017-07-31T17:07:08Z</time>
      </trkpt>
      <trkpt lat="42.96328" lon="1.86289">
        <ele>452.5</ele>
        <time>2017-07-31T17:07:09Z</time>
      </trkpt>
      <trkpt lat="42.96151" lon="1.87082">
        <ele>452.2</ele>
        <time>2017-07-31T17:08:43Z</time>
      </trkpt>
      <trkpt lat="42.96236" lon="1.86807">
        <ele>452</ele>
        <time>2017-07-31T17:08:44Z</time>
      </trkpt>
      <trkpt lat="42.96284" lon="1.86614">
        <ele>451.8</ele>
        <time>2017-07-31T17:08:45Z</time>
      </trkpt>
      <trkpt lat="42.9631" lon="1.86505">
        <ele>451.9</ele>
        <time>2017-07-31T17:08:46Z</time>
      </trkpt>
      <trkpt lat="42.96326" lon="1.86442">
        <ele>452</ele>
        <time>2017-07-31T17:08:47Z</time>
      </trkpt>
      <trkpt lat="42.96345" lon="1.86371">
        <ele>452</ele>
        <time>2017-07-31T17:08:48Z</time>
      </trkpt>
      <trkpt lat="42.96347" lon="1.86364">
        <ele>452.1</ele>
        <time>2017-07-31T17:08:49Z</time>
      </trkpt>
      <trkpt lat="42.9635" lon="1.86355">
        <ele>452.1</ele>
        <time>2017-07-31T17:08:50Z</time>
      </trkpt>
      <trkpt lat="42.96353" lon="1.86349">
        <ele>452.1</ele>
        <time>2017-07-31T17:08:51Z</time>
      </trkpt>
      <trkpt lat="42.96354" lon="1.86345">
        <ele>451.7</ele>
        <time>2017-07-31T17:08:52Z</time>
      </trkpt>
      <trkpt lat="42.96355" lon="1.86342">
        <ele>451.4</ele>
        <time>2017-07-31T17:08:53Z</time>
      </trkpt>
      <trkpt lat="42.96356" lon="1.8634">
        <ele>451.2</ele>
        <time>2017-07-31T17:08:54Z</time>
      </trkpt>
      <trkpt lat="42.96357" lon="1.86338">
        <ele>451</ele>
        <time>2017-07-31T17:08:55Z</time>
      </trkpt>
      <trkpt lat="42.96358" lon="1.86335">
        <ele>450.9</ele>
        <time>2017-07-31T17:08:56Z</time>
      </trkpt>
      <trkpt lat="42.96359" lon="1.86333">
        <ele>450.8</ele>
        <time>2017-07-31T17:08:57Z</time>
      </trkpt>
      <trkpt lat="42.9636" lon="1.86331">
        <ele>450.5</ele>
        <time>2017-07-31T17:08:58Z</time>
      </trkpt>
      <trkpt lat="42.96361" lon="1.86329">
        <ele>450.2</ele>
        <time>2017-07-31T17:08:59Z</time>
      </trkpt>
      <trkpt lat="42.96362" lon="1.86328">
        <ele>450.1</ele>
        <time>2017-07-31T17:09:00Z</time>
      </trkpt>
      <trkpt lat="42.96362" lon="1.86328">
        <ele>450</ele>
        <time>2017-07-31T17:09:01Z</time>
      </trkpt>
      <trkpt lat="42.96362" lon="1.86327">
        <ele>449.9</ele>
        <time>2017-07-31T17:09:02Z</time>
      </trkpt>
      <trkpt lat="42.96363" lon="1.86326">
        <ele>449.8</ele>
        <time>2017-07-31T17:09:03Z</time>
      </trkpt>
      <trkpt lat="42.96363" lon="1.86326">
        <ele>450.4</ele>
        <time>2017-07-31T17:09:04Z</time>
      </trkpt>
      <trkpt lat="42.96364" lon="1.86325">
        <ele>450.8</ele>
        <time>2017-07-31T17:09:05Z</time>
      </trkpt>
      <trkpt lat="42.96364" lon="1.86324">
        <ele>451.2</ele>
        <time>2017-07-31T17:09:06Z</time>
      </trkpt>
      <trkpt lat="42.96365" lon="1.86324">
        <ele>450.8</ele>
        <time>2017-07-31T17:09:07Z</time>
      </trkpt>
      <trkpt lat="42.96366" lon="1.86324">
        <ele>450.5</ele>
        <time>2017-07-31T17:09:08Z</time>
      </trkpt>
      <trkpt lat="42.96366" lon="1.86323">
        <ele>450.3</ele>
        <time>2017-07-31T17:09:09Z</time>
      </trkpt>
      <trkpt lat="42.96367" lon="1.86323">
        <ele>450.5</ele>
        <time>2017-07-31T17:09:10Z</time>
      </trkpt>
      <trkpt lat="42.96367" lon="1.86323">
        <ele>450.7</ele>
        <time>2017-07-31T17:09:11Z</time>
      </trkpt>
      <trkpt lat="42.96367" lon="1.86323">
        <ele>450.9</ele>
        <time>2017-07-31T17:09:12Z</time>
      </trkpt>
      <trkpt lat="42.96368" lon="1.86323">
        <ele>451.2</ele>
        <time>2017-07-31T17:09:13Z</time>
      </trkpt>
      <trkpt lat="42.96368" lon="1.86322">
        <ele>451.5</ele>
        <time>2017-07-31T17:09:14Z</time>
      </trkpt>
      <trkpt lat="42.96369" lon="1.86322">
        <ele>451.6</ele>
        <time>2017-07-31T17:09:15Z</time>
      </trkpt>
      <trkpt lat="42.96369" lon="1.86322">
        <ele>451.8</ele>
        <time>2017-07-31T17:09:16Z</time>
      </trkpt>
      <trkpt lat="42.96369" lon="1.86322">
        <ele>451.9</ele>
        <time>2017-07-31T17:09:17Z</time>
      </trkpt>
      <trkpt lat="42.9637" lon="1.86322">
        <ele>452</ele>
        <time>2017-07-31T17:09:18Z</time>
      </trkpt>
      <trkpt lat="42.9637" lon="1.86321">
        <ele>451.8</ele>
        <time>2017-07-31T17:09:19Z</time>
      </trkpt>
      <trkpt lat="42.9637" lon="1.86321">
        <ele>451.7</ele>
        <time>2017-07-31T17:09:20Z</time>
      </trkpt>
      <trkpt lat="42.9637" lon="1.86321">
        <ele>451.6</ele>
        <time>2017-07-31T17:09:21Z</time>
      </trkpt>
      <trkpt lat="42.9637" lon="1.86321">
        <ele>450.9</ele>
        <time>2017-07-31T17:09:22Z</time>
      </trkpt>
      <trkpt lat="42.96371" lon="1.86321">
        <ele>450.3</ele>
        <time>2017-07-31T17:09:23Z</time>
      </trkpt>
      <trkpt lat="42.96371" lon="1.8632">
        <ele>449.9</ele>
        <time>2017-07-31T17:09:24Z</time>
      </trkpt>
      <trkpt lat="42.96371" lon="1.8632">
        <ele>449.8</ele>
        <time>2017-07-31T17:09:25Z</time>
      </trkpt>
      <trkpt lat="42.96371" lon="1.8632">
        <ele>449.8</ele>
        <time>2017-07-31T17:09:26Z</time>
      </trkpt>
      <trkpt lat="42.96371" lon="1.8632">
        <ele>449.7</ele>
        <time>2017-07-31T17:09:27Z</time>
      </trkpt>
      <trkpt lat="42.96371" lon="1.8632">
        <ele>450.1</ele>
        <time>2017-07-31T17:09:28Z</time>
      </trkpt>
      <trkpt lat="42.96371" lon="1.8632">
        <ele>450.4</ele>
        <time>2017-07-31T17:09:29Z</time>
      </trkpt>
      <trkpt lat="42.96371" lon="1.8632">
        <ele>450.7</ele>
        <time>2017-07-31T17:09:30Z</time>
      </trkpt>
      <trkpt lat="42.96371" lon="1.8632">
        <ele>451</ele>
        <time>2017-07-31T17:09:31Z</time>
      </trkpt>
      <trkpt lat="42.96371" lon="1.8632">
        <ele>451.3</ele>
        <time>2017-07-31T17:09:32Z</time>
      </trkpt>
      <trkpt lat="42.96371" lon="1.8632">
        <ele>451.6</ele>
        <time>2017-07-31T17:09:33Z</time>
      </trkpt>
      <trkpt lat="42.96371" lon="1.8632">
        <ele>451.5</ele>
        <time>2017-07-31T17:09:34Z</time>
      </trkpt>
      <trkpt lat="42.96371" lon="1.8632">
        <ele>451.6</ele>
        <time>2017-07-31T17:09:37Z</time>
      </trkpt>
      <trkpt lat="42.96371" lon="1.8632">
        <ele>451.8</ele>
        <time>2017-07-31T17:09:38Z</time>
      </trkpt>
      <trkpt lat="42.96371" lon="1.8632">
        <ele>451.9</ele>
        <time>2017-07-31T17:09:39Z</time>
      </trkpt>
      <trkpt lat="42.96371" lon="1.8632">
        <ele>452</ele>
        <time>2017-07-31T17:09:40Z</time>
      </trkpt>
      <trkpt lat="42.96371" lon="1.8632">
        <ele>452</ele>
        <time>2017-07-31T17:09:41Z</time>
      </trkpt>
      <trkpt lat="42.96371" lon="1.8632">
        <ele>452.1</ele>
        <time>2017-07-31T17:09:42Z</time>
      </trkpt>
      <trkpt lat="42.96371" lon="1.8632">
        <ele>451.7</ele>
        <time>2017-07-31T17:09:44Z</time>
      </trkpt>
      <trkpt lat="42.96371" lon="1.8632">
        <ele>451.6</ele>
        <time>2017-07-31T17:09:45Z</time>
      </trkpt>
      <trkpt lat="42.96371" lon="1.86321">
        <ele>451.3</ele>
        <time>2017-07-31T17:09:46Z</time>
      </trkpt>
      <trkpt lat="42.96371" lon="1.86321">
        <ele>451.1</ele>
        <time>2017-07-31T17:09:47Z</time>
      </trkpt>
      <trkpt lat="42.96371" lon="1.86321">
        <ele>451</ele>
        <time>2017-07-31T17:09:48Z</time>
      </trkpt>
      <trkpt lat="42.96371" lon="1.86321">
        <ele>450.8</ele>
        <time>2017-07-31T17:09:49Z</time>
      </trkpt>
      <trkpt lat="42.9637" lon="1.86321">
        <ele>450.7</ele>
        <time>2017-07-31T17:09:50Z</time>
      </trkpt>
      <trkpt lat="42.9637" lon="1.86321">
        <ele>450.7</ele>
        <time>2017-07-31T17:09:51Z</time>
      </trkpt>
      <trkpt lat="42.9637" lon="1.86321">
        <ele>451.5</ele>
        <time>2017-07-31T17:09:52Z</time>
      </trkpt>
      <trkpt lat="42.9637" lon="1.86321">
        <ele>452.1</ele>
        <time>2017-07-31T17:09:53Z</time>
      </trkpt>
      <trkpt lat="42.9637" lon="1.86321">
        <ele>452.6</ele>
        <time>2017-07-31T17:09:54Z</time>
      </trkpt>
      <trkpt lat="42.9637" lon="1.86321">
        <ele>452.5</ele>
        <time>2017-07-31T17:09:55Z</time>
      </trkpt>
      <trkpt lat="42.96371" lon="1.86322">
        <ele>452.2</ele>
        <time>2017-07-31T17:10:02Z</time>
      </trkpt>
      <trkpt lat="42.96371" lon="1.86322">
        <ele>452.2</ele>
        <time>2017-07-31T17:10:03Z</time>
      </trkpt>
      <trkpt lat="42.96372" lon="1.86322">
        <ele>452.2</ele>
        <time>2017-07-31T17:10:04Z</time>
      </trkpt>
      <trkpt lat="42.96372" lon="1.86322">
        <ele>452.2</ele>
        <time>2017-07-31T17:10:05Z</time>
      </trkpt>
      <trkpt lat="42.96372" lon="1.86322">
        <ele>452.2</ele>
        <time>2017-07-31T17:10:06Z</time>
      </trkpt>
      <trkpt lat="42.96372" lon="1.86322">
        <ele>452.2</ele>
        <time>2017-07-31T17:10:07Z</time>
      </trkpt>
      <trkpt lat="42.96372" lon="1.86322">
        <ele>452.2</ele>
        <time>2017-07-31T17:10:08Z</time>
      </trkpt>
      <trkpt lat="42.96372" lon="1.86322">
        <ele>452.2</ele>
        <time>2017-07-31T17:10:09Z</time>
      </trkpt>
      <trkpt lat="42.96372" lon="1.86322">
        <ele>452</ele>
        <time>2017-07-31T17:10:10Z</time>
      </trkpt>
      <trkpt lat="42.96371" lon="1.86322">
        <ele>451.8</ele>
        <time>2017-07-31T17:10:11Z</time>
      </trkpt>
      <trkpt lat="42.96371" lon="1.86322">
        <ele>451.7</ele>
        <time>2017-07-31T17:10:12Z</time>
      </trkpt>
      <trkpt lat="42.96371" lon="1.86323">
        <ele>451.8</ele>
        <time>2017-07-31T17:10:13Z</time>
      </trkpt>
      <trkpt lat="42.9637" lon="1.86323">
        <ele>451.9</ele>
        <time>2017-07-31T17:10:14Z</time>
      </trkpt>
      <trkpt lat="42.9637" lon="1.86324">
        <ele>452</ele>
        <time>2017-07-31T17:10:15Z</time>
      </trkpt>
      <trkpt lat="42.96369" lon="1.86325">
        <ele>452</ele>
        <time>2017-07-31T17:10:16Z</time>
      </trkpt>
      <trkpt lat="42.96369" lon="1.86325">
        <ele>452.1</ele>
        <time>2017-07-31T17:10:17Z</time>
      </trkpt>
      <trkpt lat="42.96369" lon="1.86326">
        <ele>452.1</ele>
        <time>2017-07-31T17:10:18Z</time>
      </trkpt>
      <trkpt lat="42.96368" lon="1.86326">
        <ele>452.1</ele>
        <time>2017-07-31T17:10:19Z</time>
      </trkpt>
      <trkpt lat="42.96367" lon="1.86326">
        <ele>452.2</ele>
        <time>2017-07-31T17:10:20Z</time>
      </trkpt>
      <trkpt lat="42.96366" lon="1.86326">
        <ele>452.2</ele>
        <time>2017-07-31T17:10:21Z</time>
      </trkpt>
      <trkpt lat="42.96365" lon="1.86326">
        <ele>452</ele>
        <time>2017-07-31T17:10:22Z</time>
      </trkpt>
      <trkpt lat="42.96364" lon="1.86326">
        <ele>451.8</ele>
        <time>2017-07-31T17:10:23Z</time>
      </trkpt>
      <trkpt lat="42.96363" lon="1.86326">
        <ele>451.7</ele>
        <time>2017-07-31T17:10:24Z</time>
      </trkpt>
      <trkpt lat="42.96363" lon="1.86326">
        <ele>451.2</ele>
        <time>2017-07-31T17:10:25Z</time>
      </trkpt>
      <trkpt lat="42.96362" lon="1.86326">
        <ele>450.8</ele>
        <time>2017-07-31T17:10:26Z</time>
      </trkpt>
      <trkpt lat="42.96362" lon="1.86326">
        <ele>450.5</ele>
        <time>2017-07-31T17:10:27Z</time>
      </trkpt>
      <trkpt lat="42.96362" lon="1.86327">
        <ele>450.2</ele>
        <time>2017-07-31T17:10:28Z</time>
      </trkpt>
      <trkpt lat="42.96362" lon="1.86327">
        <ele>450.1</ele>
        <time>2017-07-31T17:10:29Z</time>
      </trkpt>
      <trkpt lat="42.96362" lon="1.86327">
        <ele>450</ele>
        <time>2017-07-31T17:10:30Z</time>
      </trkpt>
      <trkpt lat="42.96362" lon="1.86327">
        <ele>450.3</ele>
        <time>2017-07-31T17:10:31Z</time>
      </trkpt>
      <trkpt lat="42.96362" lon="1.86327">
        <ele>450.6</ele>
        <time>2017-07-31T17:10:32Z</time>
      </trkpt>
      <trkpt lat="42.96362" lon="1.86327">
        <ele>450.8</ele>
        <time>2017-07-31T17:10:33Z</time>
      </trkpt>
      <trkpt lat="42.96363" lon="1.86327">
        <ele>451.3</ele>
        <time>2017-07-31T17:10:34Z</time>
      </trkpt>
      <trkpt lat="42.96363" lon="1.86327">
        <ele>451.8</ele>
        <time>2017-07-31T17:10:35Z</time>
      </trkpt>
      <trkpt lat="42.96363" lon="1.86327">
        <ele>452.1</ele>
        <time>2017-07-31T17:10:36Z</time>
      </trkpt>
      <trkpt lat="42.96364" lon="1.86327">
        <ele>452.1</ele>
        <time>2017-07-31T17:10:37Z</time>
      </trkpt>
      <trkpt lat="42.96364" lon="1.86327">
        <ele>452.1</ele>
        <time>2017-07-31T17:10:38Z</time>
      </trkpt>
      <trkpt lat="42.96364" lon="1.86327">
        <ele>452.2</ele>
        <time>2017-07-31T17:10:39Z</time>
      </trkpt>
      <trkpt lat="42.96364" lon="1.86327">
        <ele>451.5</ele>
        <time>2017-07-31T17:10:40Z</time>
      </trkpt>
      <trkpt lat="42.96364" lon="1.86327">
        <ele>451</ele>
        <time>2017-07-31T17:10:41Z</time>
      </trkpt>
      <trkpt lat="42.96364" lon="1.86327">
        <ele>450.7</ele>
        <time>2017-07-31T17:10:42Z</time>
      </trkpt>
      <trkpt lat="42.96364" lon="1.86327">
        <ele>450.6</ele>
        <time>2017-07-31T17:10:43Z</time>
      </trkpt>
      <trkpt lat="42.96364" lon="1.86328">
        <ele>450.6</ele>
        <time>2017-07-31T17:10:44Z</time>
      </trkpt>
      <trkpt lat="42.96361" lon="1.86333">
        <ele>451.2</ele>
        <time>2017-07-31T17:10:46Z</time>
      </trkpt>
      <trkpt lat="42.96359" lon="1.86336">
        <ele>451.7</ele>
        <time>2017-07-31T17:10:47Z</time>
      </trkpt>
      <trkpt lat="42.96353" lon="1.86344">
        <ele>450.6</ele>
        <time>2017-07-31T17:10:50Z</time>
      </trkpt>
      <trkpt lat="42.96334" lon="1.86367">
        <ele>450.4</ele>
        <time>2017-07-31T17:10:58Z</time>
      </trkpt>
      <trkpt lat="42.96333" lon="1.8637">
        <ele>450.2</ele>
        <time>2017-07-31T17:10:59Z</time>
      </trkpt>
      <trkpt lat="42.96333" lon="1.86374">
        <ele>450</ele>
        <time>2017-07-31T17:11:00Z</time>
      </trkpt>
      <trkpt lat="42.96328" lon="1.86421">
        <ele>451.3</ele>
        <time>2017-07-31T17:11:09Z</time>
      </trkpt>
      <trkpt lat="42.96326" lon="1.86426">
        <ele>451.3</ele>
        <time>2017-07-31T17:11:10Z</time>
      </trkpt>
      <trkpt lat="42.96321" lon="1.86441">
        <ele>451.5</ele>
        <time>2017-07-31T17:11:13Z</time>
      </trkpt>
      <trkpt lat="42.96322" lon="1.86446">
        <ele>451.7</ele>
        <time>2017-07-31T17:11:14Z</time>
      </trkpt>
      <trkpt lat="42.96325" lon="1.86449">
        <ele>451.8</ele>
        <time>2017-07-31T17:11:15Z</time>
      </trkpt>
      <trkpt lat="42.96328" lon="1.86451">
        <ele>451</ele>
        <time>2017-07-31T17:11:16Z</time>
      </trkpt>
      <trkpt lat="42.96331" lon="1.86453">
        <ele>450.5</ele>
        <time>2017-07-31T17:11:17Z</time>
      </trkpt>
      <trkpt lat="42.96335" lon="1.86453">
        <ele>450</ele>
        <time>2017-07-31T17:11:18Z</time>
      </trkpt>
      <trkpt lat="42.96338" lon="1.86454">
        <ele>450.4</ele>
        <time>2017-07-31T17:11:19Z</time>
      </trkpt>
      <trkpt lat="42.96587" lon="1.86517">
        <ele>447.1</ele>
        <time>2017-07-31T17:11:59Z</time>
      </trkpt>
      <trkpt lat="42.96594" lon="1.86519">
        <ele>446.8</ele>
        <time>2017-07-31T17:12:00Z</time>
      </trkpt>
      <trkpt lat="42.97095" lon="1.86654">
        <ele>437.4</ele>
        <time>2017-07-31T17:13:25Z</time>
      </trkpt>
      <trkpt lat="42.97098" lon="1.86655">
        <ele>436.8</ele>
        <time>2017-07-31T17:13:29Z</time>
      </trkpt>
      <trkpt lat="42.97098" lon="1.86655">
        <ele>436.7</ele>
        <time>2017-07-31T17:13:30Z</time>
      </trkpt>
      <trkpt lat="42.97098" lon="1.86655">
        <ele>436.7</ele>
        <time>2017-07-31T17:13:31Z</time>
      </trkpt>
      <trkpt lat="42.97098" lon="1.86655">
        <ele>436.6</ele>
        <time>2017-07-31T17:13:32Z</time>
      </trkpt>
      <trkpt lat="42.97098" lon="1.86655">
        <ele>436.6</ele>
        <time>2017-07-31T17:13:33Z</time>
      </trkpt>
      <trkpt lat="42.97098" lon="1.86655">
        <ele>436.8</ele>
        <time>2017-07-31T17:13:34Z</time>
      </trkpt>
      <trkpt lat="42.97099" lon="1.86656">
        <ele>436.9</ele>
        <time>2017-07-31T17:13:35Z</time>
      </trkpt>
      <trkpt lat="42.97126" lon="1.8667">
        <ele>436.8</ele>
        <time>2017-07-31T17:13:42Z</time>
      </trkpt>
      <trkpt lat="42.97131" lon="1.86672">
        <ele>436.7</ele>
        <time>2017-07-31T17:13:43Z</time>
      </trkpt>
      <trkpt lat="42.9767" lon="1.86815">
        <ele>428.7</ele>
        <time>2017-07-31T17:14:58Z</time>
      </trkpt>
      <trkpt lat="42.97676" lon="1.86821">
        <ele>428.7</ele>
        <time>2017-07-31T17:14:59Z</time>
      </trkpt>
      <trkpt lat="42.97688" lon="1.86831">
        <ele>428.7</ele>
        <time>2017-07-31T17:15:01Z</time>
      </trkpt>
      <trkpt lat="42.97696" lon="1.86834">
        <ele>428.7</ele>
        <time>2017-07-31T17:15:02Z</time>
      </trkpt>
      <trkpt lat="42.97703" lon="1.86834">
        <ele>428.7</ele>
        <time>2017-07-31T17:15:03Z</time>
      </trkpt>
      <trkpt lat="42.9771" lon="1.86832">
        <ele>428.4</ele>
        <time>2017-07-31T17:15:04Z</time>
      </trkpt>
      <trkpt lat="42.97733" lon="1.86828">
        <ele>428.1</ele>
        <time>2017-07-31T17:15:07Z</time>
      </trkpt>
      <trkpt lat="42.97741" lon="1.86829">
        <ele>428</ele>
        <time>2017-07-31T17:15:08Z</time>
      </trkpt>
      <trkpt lat="42.98056" lon="1.86919">
        <ele>426.2</ele>
        <time>2017-07-31T17:15:52Z</time>
      </trkpt>
      <trkpt lat="42.98075" lon="1.86929">
        <ele>425.6</ele>
        <time>2017-07-31T17:15:55Z</time>
      </trkpt>
      <trkpt lat="43.01228" lon="1.88789">
        <ele>380.5</ele>
        <time>2017-07-31T17:23:53Z</time>
      </trkpt>
      <trkpt lat="43.01234" lon="1.88794">
        <ele>380.6</ele>
        <time>2017-07-31T17:23:54Z</time>
      </trkpt>
      <trkpt lat="43.0135" lon="1.88899">
        <ele>381.5</ele>
        <time>2017-07-31T17:24:16Z</time>
      </trkpt>
      <trkpt lat="43.01372" lon="1.88914">
        <ele>381.7</ele>
        <time>2017-07-31T17:24:20Z</time>
      </trkpt>
      <trkpt lat="43.01612" lon="1.89056">
        <ele>378.9</ele>
        <time>2017-07-31T17:25:05Z</time>
      </trkpt>
      <trkpt lat="43.01617" lon="1.89058">
        <ele>379</ele>
        <time>2017-07-31T17:25:06Z</time>
      </trkpt>
      <trkpt lat="43.02098" lon="1.89274">
        <ele>369.5</ele>
        <time>2017-07-31T17:26:15Z</time>
      </trkpt>
      <trkpt lat="43.02581" lon="1.8949">
        <ele>362.8</ele>
        <time>2017-07-31T17:27:28Z</time>
      </trkpt>
      <trkpt lat="43.02803" lon="1.89625">
        <ele>360.5</ele>
        <time>2017-07-31T17:28:06Z</time>
      </trkpt>
      <trkpt lat="43.02815" lon="1.8963">
        <ele>360.7</ele>
        <time>2017-07-31T17:28:08Z</time>
      </trkpt>
      <trkpt lat="43.02859" lon="1.89643">
        <ele>360.2</ele>
        <time>2017-07-31T17:28:15Z</time>
      </trkpt>
      <trkpt lat="43.02928" lon="1.89652">
        <ele>359.2</ele>
        <time>2017-07-31T17:28:26Z</time>
      </trkpt>
      <trkpt lat="43.0387" lon="1.8977">
        <ele>348.4</ele>
        <time>2017-07-31T17:30:58Z</time>
      </trkpt>
      <trkpt lat="43.03875" lon="1.8977">
        <ele>348.5</ele>
        <time>2017-07-31T17:30:59Z</time>
      </trkpt>
      <trkpt lat="43.03953" lon="1.89756">
        <ele>347.7</ele>
        <time>2017-07-31T17:31:12Z</time>
      </trkpt>
      <trkpt lat="43.04072" lon="1.8972">
        <ele>346.8</ele>
        <time>2017-07-31T17:31:32Z</time>
      </trkpt>
      <trkpt lat="43.04123" lon="1.89699">
        <ele>346.8</ele>
        <time>2017-07-31T17:31:41Z</time>
      </trkpt>
      <trkpt lat="43.045" lon="1.89482">
        <ele>340.8</ele>
        <time>2017-07-31T17:32:55Z</time>
      </trkpt>
      <trkpt lat="43.04505" lon="1.89479">
        <ele>340.4</ele>
        <time>2017-07-31T17:32:56Z</time>
      </trkpt>
      <trkpt lat="43.04651" lon="1.89365">
        <ele>337.7</ele>
        <time>2017-07-31T17:33:24Z</time>
      </trkpt>
      <trkpt lat="43.04739" lon="1.89277">
        <ele>336.7</ele>
        <time>2017-07-31T17:33:43Z</time>
      </trkpt>
      <trkpt lat="43.04755" lon="1.89257">
        <ele>336.3</ele>
        <time>2017-07-31T17:33:47Z</time>
      </trkpt>
      <trkpt lat="43.05313" lon="1.88674">
        <ele>330.3</ele>
        <time>2017-07-31T17:35:55Z</time>
      </trkpt>
      <trkpt lat="43.05318" lon="1.8867">
        <ele>330.2</ele>
        <time>2017-07-31T17:35:56Z</time>
      </trkpt>
      <trkpt lat="43.06062" lon="1.88218">
        <ele>321.8</ele>
        <time>2017-07-31T17:38:20Z</time>
      </trkpt>
      <trkpt lat="43.06068" lon="1.88216">
        <ele>321.5</ele>
        <time>2017-07-31T17:38:21Z</time>
      </trkpt>
      <trkpt lat="43.06454" lon="1.88047">
        <ele>316.3</ele>
        <time>2017-07-31T17:39:30Z</time>
      </trkpt>
      <trkpt lat="43.07984" lon="1.87656">
        <ele>304.7</ele>
        <time>2017-07-31T17:43:47Z</time>
      </trkpt>
      <trkpt lat="43.07992" lon="1.87656">
        <ele>304.3</ele>
        <time>2017-07-31T17:43:48Z</time>
      </trkpt>
      <trkpt lat="43.08105" lon="1.87655">
        <ele>302.1</ele>
        <time>2017-07-31T17:44:06Z</time>
      </trkpt>
      <trkpt lat="43.0811" lon="1.87655">
        <ele>302.1</ele>
        <time>2017-07-31T17:44:07Z</time>
      </trkpt>
      <trkpt lat="43.08121" lon="1.87655">
        <ele>302.2</ele>
        <time>2017-07-31T17:44:09Z</time>
      </trkpt>
      <trkpt lat="43.08125" lon="1.87655">
        <ele>301.8</ele>
        <time>2017-07-31T17:44:10Z</time>
      </trkpt>
      <trkpt lat="43.08156" lon="1.87653">
        <ele>301.6</ele>
        <time>2017-07-31T17:44:17Z</time>
      </trkpt>
      <trkpt lat="43.08211" lon="1.87651">
        <ele>302.6</ele>
        <time>2017-07-31T17:44:29Z</time>
      </trkpt>
      <trkpt lat="43.08297" lon="1.87648">
        <ele>299.7</ele>
        <time>2017-07-31T17:44:50Z</time>
      </trkpt>
      <trkpt lat="43.08301" lon="1.87648">
        <ele>299.7</ele>
        <time>2017-07-31T17:44:51Z</time>
      </trkpt>
      <trkpt lat="43.08309" lon="1.87648">
        <ele>300.4</ele>
        <time>2017-07-31T17:44:53Z</time>
      </trkpt>
      <trkpt lat="43.08313" lon="1.87648">
        <ele>300.7</ele>
        <time>2017-07-31T17:44:54Z</time>
      </trkpt>
      <trkpt lat="43.08316" lon="1.87649">
        <ele>300.4</ele>
        <time>2017-07-31T17:44:55Z</time>
      </trkpt>
      <trkpt lat="43.0833" lon="1.87649">
        <ele>300.6</ele>
        <time>2017-07-31T17:44:59Z</time>
      </trkpt>
      <trkpt lat="43.08333" lon="1.87649">
        <ele>300.8</ele>
        <time>2017-07-31T17:45:00Z</time>
      </trkpt>
      <trkpt lat="43.0834" lon="1.87649">
        <ele>301.1</ele>
        <time>2017-07-31T17:45:02Z</time>
      </trkpt>
      <trkpt lat="43.08347" lon="1.87649">
        <ele>300.8</ele>
        <time>2017-07-31T17:45:04Z</time>
      </trkpt>
      <trkpt lat="43.0835" lon="1.87649">
        <ele>300.5</ele>
        <time>2017-07-31T17:45:05Z</time>
      </trkpt>
      <trkpt lat="43.08374" lon="1.87644">
        <ele>299.9</ele>
        <time>2017-07-31T17:45:11Z</time>
      </trkpt>
      <trkpt lat="43.08412" lon="1.87635">
        <ele>298.7</ele>
        <time>2017-07-31T17:45:19Z</time>
      </trkpt>
      <trkpt lat="43.08417" lon="1.87637">
        <ele>298.8</ele>
        <time>2017-07-31T17:45:20Z</time>
      </trkpt>
      <trkpt lat="43.08421" lon="1.87642">
        <ele>298.8</ele>
        <time>2017-07-31T17:45:21Z</time>
      </trkpt>
      <trkpt lat="43.08423" lon="1.87647">
        <ele>298.6</ele>
        <time>2017-07-31T17:45:22Z</time>
      </trkpt>
      <trkpt lat="43.08425" lon="1.87653">
        <ele>298.4</ele>
        <time>2017-07-31T17:45:23Z</time>
      </trkpt>
      <trkpt lat="43.08425" lon="1.8766">
        <ele>298.3</ele>
        <time>2017-07-31T17:45:24Z</time>
      </trkpt>
      <trkpt lat="43.08424" lon="1.87667">
        <ele>298.2</ele>
        <time>2017-07-31T17:45:25Z</time>
      </trkpt>
      <trkpt lat="43.08423" lon="1.87673">
        <ele>298.1</ele>
        <time>2017-07-31T17:45:26Z</time>
      </trkpt>
      <trkpt lat="43.0842" lon="1.87678">
        <ele>298.1</ele>
        <time>2017-07-31T17:45:27Z</time>
      </trkpt>
      <trkpt lat="43.08418" lon="1.87683">
        <ele>297.8</ele>
        <time>2017-07-31T17:45:28Z</time>
      </trkpt>
      <trkpt lat="43.08416" lon="1.87686">
        <ele>297.6</ele>
        <time>2017-07-31T17:45:29Z</time>
      </trkpt>
      <trkpt lat="43.0841" lon="1.87697">
        <ele>297.7</ele>
        <time>2017-07-31T17:45:32Z</time>
      </trkpt>
      <trkpt lat="43.08409" lon="1.87701">
        <ele>297.7</ele>
        <time>2017-07-31T17:45:33Z</time>
      </trkpt>
      <trkpt lat="43.08405" lon="1.87717">
        <ele>297.4</ele>
        <time>2017-07-31T17:45:37Z</time>
      </trkpt>
      <trkpt lat="43.08404" lon="1.87719">
        <ele>297.1</ele>
        <time>2017-07-31T17:45:38Z</time>
      </trkpt>
      <trkpt lat="43.08404" lon="1.87721">
        <ele>296.9</ele>
        <time>2017-07-31T17:45:39Z</time>
      </trkpt>
      <trkpt lat="43.08404" lon="1.87724">
        <ele>296.6</ele>
        <time>2017-07-31T17:45:41Z</time>
      </trkpt>
      <trkpt lat="43.08404" lon="1.87726">
        <ele>296.6</ele>
        <time>2017-07-31T17:45:43Z</time>
      </trkpt>
      <trkpt lat="43.08404" lon="1.87726">
        <ele>296.8</ele>
        <time>2017-07-31T17:45:44Z</time>
      </trkpt>
      <trkpt lat="43.08404" lon="1.87726">
        <ele>296.8</ele>
        <time>2017-07-31T17:45:45Z</time>
      </trkpt>
      <trkpt lat="43.08404" lon="1.87726">
        <ele>296.9</ele>
        <time>2017-07-31T17:45:46Z</time>
      </trkpt>
      <trkpt lat="43.08404" lon="1.87726">
        <ele>296.9</ele>
        <time>2017-07-31T17:45:47Z</time>
      </trkpt>
      <trkpt lat="43.08404" lon="1.87726">
        <ele>297</ele>
        <time>2017-07-31T17:45:48Z</time>
      </trkpt>
      <trkpt lat="43.08404" lon="1.87726">
        <ele>296.8</ele>
        <time>2017-07-31T17:45:49Z</time>
      </trkpt>
      <trkpt lat="43.08404" lon="1.87726">
        <ele>296.6</ele>
        <time>2017-07-31T17:45:50Z</time>
      </trkpt>
      <trkpt lat="43.08404" lon="1.87726">
        <ele>296.5</ele>
        <time>2017-07-31T17:45:51Z</time>
      </trkpt>
      <trkpt lat="43.08404" lon="1.87726">
        <ele>296.4</ele>
        <time>2017-07-31T17:45:52Z</time>
      </trkpt>
      <trkpt lat="43.08404" lon="1.87726">
        <ele>296.4</ele>
        <time>2017-07-31T17:45:53Z</time>
      </trkpt>
      <trkpt lat="43.08404" lon="1.87726">
        <ele>296.3</ele>
        <time>2017-07-31T17:45:54Z</time>
      </trkpt>
      <trkpt lat="43.08404" lon="1.87726">
        <ele>295.9</ele>
        <time>2017-07-31T17:45:55Z</time>
      </trkpt>
      <trkpt lat="43.08404" lon="1.87726">
        <ele>295.5</ele>
        <time>2017-07-31T17:45:56Z</time>
      </trkpt>
      <trkpt lat="43.08404" lon="1.87726">
        <ele>295.3</ele>
        <time>2017-07-31T17:45:57Z</time>
      </trkpt>
      <trkpt lat="43.08404" lon="1.87726">
        <ele>295.9</ele>
        <time>2017-07-31T17:45:58Z</time>
      </trkpt>
      <trkpt lat="43.08404" lon="1.87726">
        <ele>296.4</ele>
        <time>2017-07-31T17:45:59Z</time>
      </trkpt>
      <trkpt lat="43.08404" lon="1.87726">
        <ele>296.8</ele>
        <time>2017-07-31T17:46:00Z</time>
      </trkpt>
      <trkpt lat="43.08404" lon="1.87726">
        <ele>297.1</ele>
        <time>2017-07-31T17:46:01Z</time>
      </trkpt>
      <trkpt lat="43.08404" lon="1.87726">
        <ele>297.3</ele>
        <time>2017-07-31T17:46:02Z</time>
      </trkpt>
      <trkpt lat="43.08404" lon="1.87726">
        <ele>297.5</ele>
        <time>2017-07-31T17:46:03Z</time>
      </trkpt>
      <trkpt lat="43.08404" lon="1.87726">
        <ele>297.4</ele>
        <time>2017-07-31T17:46:04Z</time>
      </trkpt>
      <trkpt lat="43.08404" lon="1.87726">
        <ele>297.3</ele>
        <time>2017-07-31T17:46:05Z</time>
      </trkpt>
      <trkpt lat="43.08404" lon="1.87726">
        <ele>297.2</ele>
        <time>2017-07-31T17:46:06Z</time>
      </trkpt>
      <trkpt lat="43.08404" lon="1.87726">
        <ele>297.2</ele>
        <time>2017-07-31T17:46:07Z</time>
      </trkpt>
      <trkpt lat="43.08404" lon="1.87726">
        <ele>297.2</ele>
        <time>2017-07-31T17:46:08Z</time>
      </trkpt>
      <trkpt lat="43.08404" lon="1.87726">
        <ele>297.1</ele>
        <time>2017-07-31T17:46:09Z</time>
      </trkpt>
      <trkpt lat="43.08404" lon="1.87726">
        <ele>296.5</ele>
        <time>2017-07-31T17:46:10Z</time>
      </trkpt>
      <trkpt lat="43.08404" lon="1.87726">
        <ele>296</ele>
        <time>2017-07-31T17:46:11Z</time>
      </trkpt>
      <trkpt lat="43.08404" lon="1.87726">
        <ele>295.6</ele>
        <time>2017-07-31T17:46:12Z</time>
      </trkpt>
      <trkpt lat="43.08404" lon="1.87726">
        <ele>296.2</ele>
        <time>2017-07-31T17:46:13Z</time>
      </trkpt>
      <trkpt lat="43.08404" lon="1.87726">
        <ele>296.6</ele>
        <time>2017-07-31T17:46:14Z</time>
      </trkpt>
      <trkpt lat="43.08404" lon="1.87726">
        <ele>296.9</ele>
        <time>2017-07-31T17:46:15Z</time>
      </trkpt>
      <trkpt lat="43.08404" lon="1.87726">
        <ele>296.5</ele>
        <time>2017-07-31T17:46:16Z</time>
      </trkpt>
      <trkpt lat="43.08404" lon="1.87726">
        <ele>296.2</ele>
        <time>2017-07-31T17:46:17Z</time>
      </trkpt>
      <trkpt lat="43.08404" lon="1.87726">
        <ele>296</ele>
        <time>2017-07-31T17:46:18Z</time>
      </trkpt>
      <trkpt lat="43.08404" lon="1.87726">
        <ele>296.3</ele>
        <time>2017-07-31T17:46:19Z</time>
      </trkpt>
      <trkpt lat="43.08404" lon="1.87726">
        <ele>296.5</ele>
        <time>2017-07-31T17:46:20Z</time>
      </trkpt>
      <trkpt lat="43.08404" lon="1.87726">
        <ele>296.6</ele>
        <time>2017-07-31T17:46:21Z</time>
      </trkpt>
      <trkpt lat="43.08404" lon="1.87726">
        <ele>296.3</ele>
        <time>2017-07-31T17:46:22Z</time>
      </trkpt>
      <trkpt lat="43.08404" lon="1.87726">
        <ele>296.1</ele>
        <time>2017-07-31T17:46:23Z</time>
      </trkpt>
      <trkpt lat="43.08404" lon="1.87726">
        <ele>295.9</ele>
        <time>2017-07-31T17:46:24Z</time>
      </trkpt>
      <trkpt lat="43.08404" lon="1.87726">
        <ele>295.5</ele>
        <time>2017-07-31T17:46:25Z</time>
      </trkpt>
      <trkpt lat="43.08404" lon="1.87726">
        <ele>295.3</ele>
        <time>2017-07-31T17:46:26Z</time>
      </trkpt>
      <trkpt lat="43.08404" lon="1.87726">
        <ele>295.1</ele>
        <time>2017-07-31T17:46:27Z</time>
      </trkpt>
      <trkpt lat="43.08404" lon="1.87726">
        <ele>295.6</ele>
        <time>2017-07-31T17:46:28Z</time>
      </trkpt>
      <trkpt lat="43.08404" lon="1.87726">
        <ele>296</ele>
        <time>2017-07-31T17:46:29Z</time>
      </trkpt>
      <trkpt lat="43.08404" lon="1.87726">
        <ele>296.2</ele>
        <time>2017-07-31T17:46:30Z</time>
      </trkpt>
      <trkpt lat="43.08404" lon="1.87726">
        <ele>296</ele>
        <time>2017-07-31T17:46:31Z</time>
      </trkpt>
      <trkpt lat="43.08404" lon="1.87726">
        <ele>295.8</ele>
        <time>2017-07-31T17:46:32Z</time>
      </trkpt>
      <trkpt lat="43.08404" lon="1.87726">
        <ele>295.7</ele>
        <time>2017-07-31T17:46:33Z</time>
      </trkpt>
      <trkpt lat="43.08404" lon="1.87726">
        <ele>296.5</ele>
        <time>2017-07-31T17:46:34Z</time>
      </trkpt>
      <trkpt lat="43.08404" lon="1.87726">
        <ele>297.1</ele>
        <time>2017-07-31T17:46:35Z</time>
      </trkpt>
      <trkpt lat="43.08404" lon="1.87726">
        <ele>297.5</ele>
        <time>2017-07-31T17:46:36Z</time>
      </trkpt>
      <trkpt lat="43.08404" lon="1.87726">
        <ele>297.6</ele>
        <time>2017-07-31T17:46:37Z</time>
      </trkpt>
      <trkpt lat="43.08404" lon="1.87726">
        <ele>297.7</ele>
        <time>2017-07-31T17:46:38Z</time>
      </trkpt>
      <trkpt lat="43.08404" lon="1.87726">
        <ele>297.7</ele>
        <time>2017-07-31T17:46:38Z</time>
      </trkpt>
    </trkseg>
  </trk>
</gpx>